Wetterdaten: Montag, 09.04.2018
Datum Zeit Temp. A. Pool Temp. Feuchte A. Luftdruck Regen Wind Richtung Richtung Sonnenschein ET UV Solar Taupunkt Windchill Windben Empfang
09.04.2018 00:00 10,2 C 8,9 C 85 % 1006,5 hPa 0,0 l/m 0,5 km/h (0 Bft) O-SO 108 0 min 0,000 mm 0,0 UV-I 0 W/m 7,8 C 10,2 C 1,6 km/h (1 Bft) 95,65 %
09.04.2018 00:01 10,2 C 8,9 C 85 % 1006,5 hPa 0,0 l/m 0,0 km/h (0 Bft) O-SO 108 0 min 0,000 mm 0,0 UV-I 0 W/m 7,8 C 10,2 C 0,0 km/h (0 Bft) 100,00 %
09.04.2018 00:02 10,2 C 8,9 C 85 % 1006,5 hPa 0,0 l/m 0,0 km/h (0 Bft) O-SO 108 0 min 0,000 mm 0,0 UV-I 0 W/m 7,8 C 10,2 C 0,0 km/h (0 Bft) 10,00 %
09.04.2018 00:03 10,3 C 8,9 C 85 % 1006,5 hPa 0,0 l/m 0,0 km/h (0 Bft) O-SO 108 0 min 0,000 mm 0,0 UV-I 0 W/m 7,9 C 10,3 C 0,0 km/h (0 Bft) 85,00 %
09.04.2018 00:04 10,3 C 8,9 C 85 % 1006,5 hPa 0,0 l/m 0,0 km/h (0 Bft) O-SO 108 0 min 0,000 mm 0,0 UV-I 0 W/m 7,9 C 10,3 C 0,0 km/h (0 Bft) 100,00 %
09.04.2018 00:05 10,3 C 8,9 C 85 % 1006,5 hPa 0,0 l/m 2,2 km/h (1 Bft) O-SO 108 0 min 0,000 mm 0,0 UV-I 0 W/m 7,9 C 10,3 C 3,2 km/h (1 Bft) 100,00 %
09.04.2018 00:06 10,3 C 8,9 C 85 % 1006,5 hPa 0,0 l/m 3,2 km/h (1 Bft) S 179 0 min 0,000 mm 0,0 UV-I 0 W/m 7,9 C 10,3 C 3,2 km/h (1 Bft) 92,11 %
09.04.2018 00:07 10,3 C 8,9 C 85 % 1006,6 hPa 0,0 l/m 4,2 km/h (1 Bft) S 182 0 min 0,000 mm 0,0 UV-I 0 W/m 7,9 C 10,3 C 4,8 km/h (1 Bft) 95,83 %
09.04.2018 00:08 10,3 C 8,9 C 85 % 1006,5 hPa 0,0 l/m 4,4 km/h (1 Bft) S-SW 197 0 min 0,000 mm 0,0 UV-I 0 W/m 7,9 C 10,3 C 4,8 km/h (1 Bft) 80,92 %
09.04.2018 00:09 10,3 C 8,9 C 85 % 1006,6 hPa 0,0 l/m 3,9 km/h (1 Bft) S-SW 197 0 min 0,000 mm 0,0 UV-I 0 W/m 7,9 C 10,3 C 4,8 km/h (1 Bft) 97,73 %
09.04.2018 00:10 10,3 C 8,9 C 85 % 1006,5 hPa 0,0 l/m 3,5 km/h (1 Bft) S-SW 197 0 min 0,000 mm 0,0 UV-I 0 W/m 7,9 C 10,3 C 4,8 km/h (1 Bft) 96,55 %
09.04.2018 00:11 10,3 C 8,9 C 86 % 1006,5 hPa 0,0 l/m 3,3 km/h (1 Bft) S-SW 197 0 min 0,000 mm 0,0 UV-I 0 W/m 8,1 C 10,3 C 4,8 km/h (1 Bft) 100,00 %
09.04.2018 00:12 10,3 C 8,9 C 85 % 1006,5 hPa 0,0 l/m 2,5 km/h (1 Bft) S-SW 197 0 min 0,000 mm 0,0 UV-I 0 W/m 7,9 C 10,3 C 3,2 km/h (1 Bft) 100,00 %
09.04.2018 00:13 10,2 C 8,9 C 85 % 1006,5 hPa 0,0 l/m 1,4 km/h (1 Bft) S-SW 197 0 min 0,000 mm 0,0 UV-I 0 W/m 7,8 C 10,2 C 3,2 km/h (1 Bft) 100,00 %
09.04.2018 00:14 9,9 C 8,9 C 84 % 1006,5 hPa 0,0 l/m 1,4 km/h (1 Bft) S-SW 197 0 min 0,000 mm 0,0 UV-I 0 W/m 7,3 C 9,9 C 1,6 km/h (1 Bft) 91,67 %
09.04.2018 00:15 9,7 C 8,9 C 85 % 1006,5 hPa 0,0 l/m 1,7 km/h (1 Bft) S-SW 197 0 min 0,000 mm 0,0 UV-I 0 W/m 7,3 C 9,7 C 3,2 km/h (1 Bft) 100,00 %
09.04.2018 00:16 9,6 C 8,9 C 85 % 1006,6 hPa 0,0 l/m 2,0 km/h (1 Bft) S-SW 197 0 min 0,000 mm 0,0 UV-I 0 W/m 7,2 C 9,6 C 3,2 km/h (1 Bft) 95,83 %
09.04.2018 00:17 9,4 C 8,9 C 86 % 1006,5 hPa 0,0 l/m 2,4 km/h (1 Bft) S-SW 197 0 min 0,000 mm 0,0 UV-I 0 W/m 7,2 C 9,4 C 3,2 km/h (1 Bft) 100,00 %
09.04.2018 00:18 9,3 C 8,9 C 87 % 1006,5 hPa 0,0 l/m 2,6 km/h (1 Bft) S-SW 197 0 min 0,000 mm 0,0 UV-I 0 W/m 7,2 C 9,3 C 3,2 km/h (1 Bft) 92,59 %
09.04.2018 00:19 9,3 C 8,9 C 88 % 1006,6 hPa 0,0 l/m 3,1 km/h (1 Bft) S-SW 197 0 min 0,000 mm 0,0 UV-I 0 W/m 7,4 C 9,3 C 3,2 km/h (1 Bft) 100,00 %
09.04.2018 00:20 9,4 C 8,9 C 88 % 1006,6 hPa 0,0 l/m 3,1 km/h (1 Bft) S-SW 197 0 min 0,000 mm 0,0 UV-I 0 W/m 7,5 C 9,4 C 4,8 km/h (1 Bft) 92,59 %
09.04.2018 00:21 9,6 C 8,9 C 88 % 1006,5 hPa 0,0 l/m 3,7 km/h (1 Bft) S-SW 197 0 min 0,000 mm 0,0 UV-I 0 W/m 7,7 C 9,6 C 4,8 km/h (1 Bft) 96,15 %
09.04.2018 00:22 9,6 C 8,9 C 88 % 1006,5 hPa 0,0 l/m 3,4 km/h (1 Bft) S-SW 197 0 min 0,000 mm 0,0 UV-I 0 W/m 7,7 C 9,6 C 4,8 km/h (1 Bft) 100,00 %
09.04.2018 00:23 9,7 C 8,9 C 88 % 1006,5 hPa 0,0 l/m 4,5 km/h (1 Bft) S-SW 198 0 min 0,000 mm 0,0 UV-I 0 W/m 7,8 C 9,7 C 6,4 km/h (2 Bft) 96,15 %
09.04.2018 00:24 9,8 C 8,9 C 88 % 1006,5 hPa 0,0 l/m 6,0 km/h (2 Bft) S-SW 205 0 min 0,000 mm 0,0 UV-I 0 W/m 7,9 C 9,8 C 6,4 km/h (2 Bft) 100,00 %
09.04.2018 00:25 9,9 C 8,9 C 88 % 1006,5 hPa 0,0 l/m 5,5 km/h (1 Bft) S-SW 205 0 min 0,000 mm 0,0 UV-I 0 W/m 8,0 C 9,9 C 6,4 km/h (2 Bft) 95,65 %
09.04.2018 00:26 10,0 C 8,9 C 87 % 1006,6 hPa 0,0 l/m 5,6 km/h (1 Bft) S-SW 205 0 min 0,000 mm 0,0 UV-I 0 W/m 7,9 C 10,0 C 6,4 km/h (2 Bft) 100,00 %
09.04.2018 00:27 9,9 C 8,9 C 86 % 1006,6 hPa 0,0 l/m 5,1 km/h (1 Bft) S-SW 205 0 min 0,000 mm 0,0 UV-I 0 W/m 7,7 C 9,9 C 6,4 km/h (2 Bft) 96,55 %
09.04.2018 00:28 9,9 C 8,9 C 86 % 1006,6 hPa 0,0 l/m 4,8 km/h (1 Bft) S-SW 205 0 min 0,000 mm 0,0 UV-I 0 W/m 7,7 C 9,9 C 6,4 km/h (2 Bft) 95,83 %
09.04.2018 00:29 9,9 C 8,9 C 87 % 1006,6 hPa 0,0 l/m 4,5 km/h (1 Bft) S-SW 205 0 min 0,000 mm 0,0 UV-I 0 W/m 7,8 C 9,9 C 4,8 km/h (1 Bft) 100,00 %
09.04.2018 00:30 9,8 C 8,9 C 85 % 1006,6 hPa 0,0 l/m 4,3 km/h (1 Bft) S-SW 205 0 min 0,000 mm 0,0 UV-I 0 W/m 7,4 C 9,8 C 4,8 km/h (1 Bft) 95,83 %
09.04.2018 00:31 9,6 C 8,9 C 86 % 1006,6 hPa 0,0 l/m 3,1 km/h (1 Bft) S-SW 205 0 min 0,000 mm 0,0 UV-I 0 W/m 7,4 C 9,6 C 4,8 km/h (1 Bft) 100,00 %
09.04.2018 00:32 9,4 C 8,9 C 86 % 1006,6 hPa 0,0 l/m 2,7 km/h (1 Bft) S-SW 205 0 min 0,000 mm 0,0 UV-I 0 W/m 7,2 C 9,4 C 3,2 km/h (1 Bft) 91,30 %
09.04.2018 00:33 9,3 C 8,9 C 86 % 1006,5 hPa 0,0 l/m 1,7 km/h (1 Bft) S-SW 205 0 min 0,000 mm 0,0 UV-I 0 W/m 7,1 C 9,3 C 3,2 km/h (1 Bft) 100,00 %
09.04.2018 00:34 9,3 C 8,9 C 87 % 1006,5 hPa 0,0 l/m 1,3 km/h (1 Bft) S-SW 205 0 min 0,000 mm 0,0 UV-I 0 W/m 7,2 C 9,3 C 1,6 km/h (1 Bft) 95,65 %
09.04.2018 00:35 9,4 C 8,9 C 88 % 1006,5 hPa 0,0 l/m 1,8 km/h (1 Bft) S-SW 205 0 min 0,000 mm 0,0 UV-I 0 W/m 7,5 C 9,4 C 3,2 km/h (1 Bft) 96,55 %
09.04.2018 00:36 9,6 C 8,9 C 88 % 1006,5 hPa 0,0 l/m 2,3 km/h (1 Bft) S-SW 205 0 min 0,000 mm 0,0 UV-I 0 W/m 7,7 C 9,6 C 3,2 km/h (1 Bft) 95,83 %
09.04.2018 00:37 9,8 C 8,9 C 88 % 1006,5 hPa 0,0 l/m 2,5 km/h (1 Bft) S-SW 205 0 min 0,000 mm 0,0 UV-I 0 W/m 7,9 C 9,8 C 3,2 km/h (1 Bft) 96,15 %
09.04.2018 00:38 10,0 C 8,9 C 88 % 1006,5 hPa 0,0 l/m 1,9 km/h (1 Bft) S-SW 205 0 min 0,000 mm 0,0 UV-I 0 W/m 8,1 C 10,0 C 3,2 km/h (1 Bft) 100,00 %
09.04.2018 00:39 10,1 C 8,9 C 88 % 1006,6 hPa 0,0 l/m 1,7 km/h (1 Bft) S-SW 205 0 min 0,000 mm 0,0 UV-I 0 W/m 8,2 C 10,1 C 3,2 km/h (1 Bft) 96,30 %
09.04.2018 00:40 10,1 C 8,9 C 87 % 1006,6 hPa 0,0 l/m 1,5 km/h (1 Bft) S-SW 205 0 min 0,000 mm 0,0 UV-I 0 W/m 8,0 C 10,1 C 1,6 km/h (1 Bft) 100,00 %
09.04.2018 00:41 9,9 C 8,9 C 85 % 1006,6 hPa 0,0 l/m 2,7 km/h (1 Bft) S-SW 205 0 min 0,000 mm 0,0 UV-I 0 W/m 7,5 C 9,9 C 3,2 km/h (1 Bft) 95,83 %
09.04.2018 00:42 9,8 C 8,9 C 85 % 1006,6 hPa 0,0 l/m 2,4 km/h (1 Bft) S-SW 205 0 min 0,000 mm 0,0 UV-I 0 W/m 7,4 C 9,8 C 3,2 km/h (1 Bft) 100,00 %
09.04.2018 00:43 9,7 C 8,9 C 85 % 1006,6 hPa 0,0 l/m 3,0 km/h (1 Bft) S-SW 205 0 min 0,000 mm 0,0 UV-I 0 W/m 7,3 C 9,7 C 3,2 km/h (1 Bft) 100,00 %
09.04.2018 00:44 9,6 C 8,9 C 86 % 1006,5 hPa 0,0 l/m 3,2 km/h (1 Bft) S-SW 205 0 min 0,000 mm 0,0 UV-I 0 W/m 7,4 C 9,6 C 3,2 km/h (1 Bft) 100,00 %
09.04.2018 00:45 9,4 C 8,9 C 86 % 1006,5 hPa 0,0 l/m 2,7 km/h (1 Bft) S-SW 205 0 min 0,000 mm 0,0 UV-I 0 W/m 7,2 C 9,4 C 3,2 km/h (1 Bft) 100,00 %
09.04.2018 00:46 9,3 C 8,9 C 86 % 1006,5 hPa 0,0 l/m 2,0 km/h (1 Bft) S-SW 205 0 min 0,000 mm 0,0 UV-I 0 W/m 7,1 C 9,3 C 3,2 km/h (1 Bft) 100,00 %
09.04.2018 00:47 9,2 C 8,9 C 87 % 1006,6 hPa 0,0 l/m 1,9 km/h (1 Bft) S-SW 205 0 min 0,000 mm 0,0 UV-I 0 W/m 7,2 C 9,2 C 3,2 km/h (1 Bft) 100,00 %
09.04.2018 00:48 9,2 C 8,9 C 87 % 1006,5 hPa 0,0 l/m 2,3 km/h (1 Bft) S-SW 205 0 min 0,000 mm 0,0 UV-I 0 W/m 7,2 C 9,2 C 3,2 km/h (1 Bft) 95,65 %
09.04.2018 00:49 9,2 C 8,9 C 87 % 1006,5 hPa 0,0 l/m 2,6 km/h (1 Bft) S-SW 205 0 min 0,000 mm 0,0 UV-I 0 W/m 7,2 C 9,2 C 3,2 km/h (1 Bft) 100,00 %
09.04.2018 00:50 9,2 C 8,9 C 87 % 1006,5 hPa 0,0 l/m 1,8 km/h (1 Bft) S-SW 205 0 min 0,000 mm 0,0 UV-I 0 W/m 7,2 C 9,2 C 3,2 km/h (1 Bft) 100,00 %
09.04.2018 00:51 9,2 C 8,9 C 87 % 1006,5 hPa 0,0 l/m 1,8 km/h (1 Bft) S-SW 205 0 min 0,000 mm 0,0 UV-I 0 W/m 7,2 C 9,2 C 3,2 km/h (1 Bft) 100,00 %
09.04.2018 00:52 9,2 C 8,9 C 87 % 1006,5 hPa 0,0 l/m 2,5 km/h (1 Bft) S-SW 205 0 min 0,000 mm 0,0 UV-I 0 W/m 7,2 C 9,2 C 3,2 km/h (1 Bft) 100,00 %
09.04.2018 00:53 9,3 C 8,9 C 88 % 1006,5 hPa 0,0 l/m 3,0 km/h (1 Bft) S-SW 205 0 min 0,000 mm 0,0 UV-I 0 W/m 7,4 C 9,3 C 3,2 km/h (1 Bft) 100,00 %
09.04.2018 00:54 9,4 C 8,9 C 89 % 1006,4 hPa 0,0 l/m 3,6 km/h (1 Bft) S-SW 205 0 min 0,000 mm 0,0 UV-I 0 W/m 7,7 C 9,4 C 4,8 km/h (1 Bft) 100,00 %
09.04.2018 00:55 9,7 C 8,9 C 89 % 1006,4 hPa 0,0 l/m 3,9 km/h (1 Bft) S-SW 205 0 min 0,000 mm 0,0 UV-I 0 W/m 8,0 C 9,7 C 4,8 km/h (1 Bft) 100,00 %
09.04.2018 00:56 9,9 C 8,9 C 89 % 1006,4 hPa 0,0 l/m 4,3 km/h (1 Bft) S-SW 205 0 min 0,000 mm 0,0 UV-I 0 W/m 8,2 C 9,9 C 4,8 km/h (1 Bft) 100,00 %
09.04.2018 00:57 9,9 C 8,9 C 88 % 1006,4 hPa 0,0 l/m 4,1 km/h (1 Bft) S-SW 205 0 min 0,000 mm 0,0 UV-I 0 W/m 8,0 C 9,9 C 4,8 km/h (1 Bft) 96,15 %
09.04.2018 00:58 10,0 C 8,9 C 86 % 1006,4 hPa 0,0 l/m 3,4 km/h (1 Bft) S-SW 205 0 min 0,000 mm 0,0 UV-I 0 W/m 7,8 C 10,0 C 4,8 km/h (1 Bft) 100,00 %
09.04.2018 00:59 9,9 C 8,9 C 86 % 1006,4 hPa 0,0 l/m 1,7 km/h (1 Bft) S-SW 205 0 min 0,000 mm 0,0 UV-I 0 W/m 7,7 C 9,9 C 3,2 km/h (1 Bft) 100,00 %
09.04.2018 01:00 9,8 C 8,9 C 85 % 1006,4 hPa 0,0 l/m 2,0 km/h (1 Bft) S-SW 205 0 min 0,000 mm 0,0 UV-I 0 W/m 7,4 C 9,8 C 3,2 km/h (1 Bft) 96,30 %
09.04.2018 01:01 9,6 C 8,9 C 85 % 1006,4 hPa 0,0 l/m 1,7 km/h (1 Bft) S-SW 205 0 min 0,000 mm 0,0 UV-I 0 W/m 7,2 C 9,6 C 3,2 km/h (1 Bft) 100,00 %
09.04.2018 01:02 9,3 C 8,9 C 85 % 1006,4 hPa 0,0 l/m 1,9 km/h (1 Bft) S-SW 205 0 min 0,000 mm 0,0 UV-I 0 W/m 6,9 C 9,3 C 3,2 km/h (1 Bft) 100,00 %
09.04.2018 01:03 9,2 C 8,9 C 86 % 1006,4 hPa 0,0 l/m 2,2 km/h (1 Bft) S-SW 205 0 min 0,000 mm 0,0 UV-I 0 W/m 7,0 C 9,2 C 3,2 km/h (1 Bft) 100,00 %
09.04.2018 01:04 9,1 C 8,9 C 86 % 1006,4 hPa 0,0 l/m 1,1 km/h (1 Bft) S-SW 205 0 min 0,000 mm 0,0 UV-I 0 W/m 6,9 C 9,1 C 1,6 km/h (1 Bft) 100,00 %
09.04.2018 01:05 8,9 C 8,9 C 87 % 1006,3 hPa 0,0 l/m 0,1 km/h (0 Bft) S-SW 205 0 min 0,000 mm 0,0 UV-I 0 W/m 6,9 C 8,9 C 1,6 km/h (1 Bft) 100,00 %
09.04.2018 01:06 8,9 C 8,9 C 88 % 1006,3 hPa 0,0 l/m 0,0 km/h (0 Bft) S-SW 205 0 min 0,000 mm 0,0 UV-I 0 W/m 7,0 C 8,9 C 0,0 km/h (0 Bft) 95,83 %
09.04.2018 01:07 8,9 C 8,9 C 88 % 1006,3 hPa 0,0 l/m 0,0 km/h (0 Bft) S-SW 205 0 min 0,000 mm 0,0 UV-I 0 W/m 7,0 C 8,9 C 0,0 km/h (0 Bft) 100,00 %
09.04.2018 01:08 9,1 C 8,9 C 89 % 1006,3 hPa 0,0 l/m 0,0 km/h (0 Bft) S-SW 205 0 min 0,000 mm 0,0 UV-I 0 W/m 7,4 C 9,1 C 0,0 km/h (0 Bft) 100,00 %
09.04.2018 01:09 9,2 C 8,9 C 89 % 1006,3 hPa 0,0 l/m 0,0 km/h (0 Bft) S-SW 205 0 min 0,000 mm 0,0 UV-I 0 W/m 7,5 C 9,2 C 0,0 km/h (0 Bft) 100,00 %
09.04.2018 01:10 9,3 C 8,9 C 88 % 1006,3 hPa 0,0 l/m 0,0 km/h (0 Bft) S-SW 205 0 min 0,000 mm 0,0 UV-I 0 W/m 7,4 C 9,3 C 0,0 km/h (0 Bft) 100,00 %
09.04.2018 01:11 9,4 C 8,9 C 88 % 1006,4 hPa 0,0 l/m 0,0 km/h (0 Bft) S-SW 205 0 min 0,000 mm 0,0 UV-I 0 W/m 7,5 C 9,4 C 0,0 km/h (0 Bft) 100,00 %
09.04.2018 01:12 9,5 C 8,9 C 87 % 1006,4 hPa 0,0 l/m 0,0 km/h (0 Bft) S-SW 205 0 min 0,000 mm 0,0 UV-I 0 W/m 7,4 C 9,5 C 0,0 km/h (0 Bft) 95,65 %
09.04.2018 01:13 9,6 C 8,9 C 87 % 1006,4 hPa 0,0 l/m 0,0 km/h (0 Bft) S-SW 205 0 min 0,000 mm 0,0 UV-I 0 W/m 7,5 C 9,6 C 0,0 km/h (0 Bft) 100,00 %
09.04.2018 01:14 9,6 C 8,9 C 87 % 1006,4 hPa 0,0 l/m 0,0 km/h (0 Bft) S-SW 205 0 min 0,000 mm 0,0 UV-I 0 W/m 7,5 C 9,6 C 0,0 km/h (0 Bft) 100,00 %
09.04.2018 01:15 9,7 C 8,9 C 87 % 1006,4 hPa 0,0 l/m 0,0 km/h (0 Bft) S-SW 205 0 min 0,000 mm 0,0 UV-I 0 W/m 7,6 C 9,7 C 0,0 km/h (0 Bft) 100,00 %
09.04.2018 01:16 9,7 C 8,9 C 86 % 1006,4 hPa 0,0 l/m 0,0 km/h (0 Bft) S-SW 205 0 min 0,000 mm 0,0 UV-I 0 W/m 7,5 C 9,7 C 0,0 km/h (0 Bft) 100,00 %
09.04.2018 01:17 9,6 C 8,9 C 86 % 1006,4 hPa 0,0 l/m 0,2 km/h (0 Bft) S-SW 205 0 min 0,000 mm 0,0 UV-I 0 W/m 7,4 C 9,6 C 1,6 km/h (1 Bft) 100,00 %
09.04.2018 01:18 9,5 C 8,9 C 86 % 1006,4 hPa 0,0 l/m 2,9 km/h (1 Bft) S-SW 205 0 min 0,000 mm 0,0 UV-I 0 W/m 7,3 C 9,5 C 3,2 km/h (1 Bft) 100,00 %
09.04.2018 01:19 9,4 C 8,9 C 86 % 1006,4 hPa 0,0 l/m 3,3 km/h (1 Bft) S-SW 205 0 min 0,000 mm 0,0 UV-I 0 W/m 7,2 C 9,4 C 4,8 km/h (1 Bft) 100,00 %
09.04.2018 01:20 9,4 C 8,9 C 87 % 1006,5 hPa 0,0 l/m 3,8 km/h (1 Bft) S-SW 205 0 min 0,000 mm 0,0 UV-I 0 W/m 7,3 C 9,4 C 4,8 km/h (1 Bft) 100,00 %
09.04.2018 01:21 9,4 C 8,9 C 87 % 1006,5 hPa 0,0 l/m 3,3 km/h (1 Bft) S-SW 205 0 min 0,000 mm 0,0 UV-I 0 W/m 7,3 C 9,4 C 4,8 km/h (1 Bft) 97,18 %
09.04.2018 01:22 9,3 C 8,9 C 86 % 1006,5 hPa 0,0 l/m 3,0 km/h (1 Bft) S-SW 205 0 min 0,000 mm 0,0 UV-I 0 W/m 7,1 C 9,3 C 4,8 km/h (1 Bft) 97,37 %
09.04.2018 01:23 9,1 C 8,9 C 86 % 1006,5 hPa 0,0 l/m 2,5 km/h (1 Bft) S-SW 205 0 min 0,000 mm 0,0 UV-I 0 W/m 6,9 C 9,1 C 3,2 km/h (1 Bft) 100,00 %
09.04.2018 01:24 8,9 C 8,9 C 87 % 1006,5 hPa 0,0 l/m 2,5 km/h (1 Bft) S-SW 205 0 min 0,000 mm 0,0 UV-I 0 W/m 6,9 C 8,9 C 3,2 km/h (1 Bft) 100,00 %
09.04.2018 01:25 8,8 C 8,9 C 87 % 1006,5 hPa 0,0 l/m 2,8 km/h (1 Bft) S-SW 205 0 min 0,000 mm 0,0 UV-I 0 W/m 6,8 C 8,8 C 3,2 km/h (1 Bft) 100,00 %
09.04.2018 01:26 8,8 C 8,9 C 87 % 1006,5 hPa 0,0 l/m 2,9 km/h (1 Bft) S-SW 205 0 min 0,000 mm 0,0 UV-I 0 W/m 6,8 C 8,8 C 3,2 km/h (1 Bft) 100,00 %
09.04.2018 01:27 8,7 C 8,9 C 88 % 1006,5 hPa 0,0 l/m 2,5 km/h (1 Bft) S-SW 205 0 min 0,000 mm 0,0 UV-I 0 W/m 6,8 C 8,7 C 3,2 km/h (1 Bft) 100,00 %
09.04.2018 01:28 8,6 C 8,9 C 88 % 1006,5 hPa 0,0 l/m 0,2 km/h (0 Bft) S-SW 205 0 min 0,000 mm 0,0 UV-I 0 W/m 6,7 C 8,6 C 1,6 km/h (1 Bft) 100,00 %
09.04.2018 01:29 8,7 C 8,9 C 90 % 1006,4 hPa 0,0 l/m 0,0 km/h (0 Bft) S-SW 205 0 min 0,000 mm 0,0 UV-I 0 W/m 7,2 C 8,7 C 0,0 km/h (0 Bft) 100,00 %
09.04.2018 01:30 8,8 C 8,9 C 90 % 1006,4 hPa 0,0 l/m 0,0 km/h (0 Bft) S-SW 205 0 min 0,000 mm 0,0 UV-I 0 W/m 7,3 C 8,8 C 0,0 km/h (0 Bft) 95,65 %
09.04.2018 01:31 8,8 C 8,9 C 89 % 1006,4 hPa 0,0 l/m 0,0 km/h (0 Bft) S-SW 205 0 min 0,000 mm 0,0 UV-I 0 W/m 7,1 C 8,8 C 0,0 km/h (0 Bft) 100,00 %
09.04.2018 01:32 8,8 C 8,9 C 89 % 1006,4 hPa 0,0 l/m 0,0 km/h (0 Bft) S-SW 205 0 min 0,000 mm 0,0 UV-I 0 W/m 7,1 C 8,8 C 0,0 km/h (0 Bft) 100,00 %
09.04.2018 01:33 8,8 C 8,9 C 89 % 1006,4 hPa 0,0 l/m 0,0 km/h (0 Bft) S-SW 205 0 min 0,000 mm 0,0 UV-I 0 W/m 7,1 C 8,8 C 0,0 km/h (0 Bft) 100,00 %
09.04.2018 01:34 8,9 C 8,9 C 89 % 1006,3 hPa 0,0 l/m 0,0 km/h (0 Bft) S-SW 205 0 min 0,000 mm 0,0 UV-I 0 W/m 7,2 C 8,9 C 0,0 km/h (0 Bft) 100,00 %
09.04.2018 01:35 8,9 C 8,9 C 88 % 1006,4 hPa 0,0 l/m 0,0 km/h (0 Bft) S-SW 205 0 min 0,000 mm 0,0 UV-I 0 W/m 7,0 C 8,9 C 0,0 km/h (0 Bft) 100,00 %
09.04.2018 01:36 8,9 C 8,9 C 89 % 1006,4 hPa 0,0 l/m 0,0 km/h (0 Bft) S-SW 205 0 min 0,000 mm 0,0 UV-I 0 W/m 7,2 C 8,9 C 0,0 km/h (0 Bft) 100,00 %
09.04.2018 01:37 8,9 C 8,9 C 88 % 1006,4 hPa 0,0 l/m 0,0 km/h (0 Bft) S-SW 205 0 min 0,000 mm 0,0 UV-I 0 W/m 7,0 C 8,9 C 0,0 km/h (0 Bft) 96,15 %
09.04.2018 01:38 8,8 C 8,9 C 88 % 1006,3 hPa 0,0 l/m 0,0 km/h (0 Bft) S-SW 205 0 min 0,000 mm 0,0 UV-I 0 W/m 6,9 C 8,8 C 0,0 km/h (0 Bft) 100,00 %
09.04.2018 01:39 8,8 C 8,9 C 88 % 1006,4 hPa 0,0 l/m 1,0 km/h (0 Bft) S-SW 205 0 min 0,000 mm 0,0 UV-I 0 W/m 6,9 C 8,8 C 3,2 km/h (1 Bft) 100,00 %
09.04.2018 01:40 8,8 C 8,9 C 88 % 1006,4 hPa 0,0 l/m 2,7 km/h (1 Bft) S-SW 205 0 min 0,000 mm 0,0 UV-I 0 W/m 6,9 C 8,8 C 3,2 km/h (1 Bft) 100,00 %
09.04.2018 01:41 8,8 C 8,9 C 88 % 1006,4 hPa 0,0 l/m 2,8 km/h (1 Bft) S-SW 205 0 min 0,000 mm 0,0 UV-I 0 W/m 6,9 C 8,8 C 3,2 km/h (1 Bft) 100,00 %
09.04.2018 01:42 8,8 C 8,9 C 88 % 1006,4 hPa 0,0 l/m 2,4 km/h (1 Bft) S-SW 205 0 min 0,000 mm 0,0 UV-I 0 W/m 6,9 C 8,8 C 3,2 km/h (1 Bft) 100,00 %
09.04.2018 01:43 8,7 C 8,9 C 87 % 1006,4 hPa 0,0 l/m 1,3 km/h (1 Bft) S-SW 205 0 min 0,000 mm 0,0 UV-I 0 W/m 6,7 C 8,7 C 1,6 km/h (1 Bft) 100,00 %
09.04.2018 01:44 8,7 C 8,9 C 88 % 1006,4 hPa 0,0 l/m 0,5 km/h (0 Bft) S-SW 205 0 min 0,000 mm 0,0 UV-I 0 W/m 6,8 C 8,7 C 1,6 km/h (1 Bft) 100,00 %
09.04.2018 01:45 8,8 C 8,9 C 89 % 1006,4 hPa 0,0 l/m 0,0 km/h (0 Bft) S-SW 205 0 min 0,000 mm 0,0 UV-I 0 W/m 7,1 C 8,8 C 0,0 km/h (0 Bft) 100,00 %
09.04.2018 01:46 8,7 C 8,9 C 88 % 1006,4 hPa 0,0 l/m 0,0 km/h (0 Bft) S-SW 205 0 min 0,000 mm 0,0 UV-I 0 W/m 6,8 C 8,7 C 0,0 km/h (0 Bft) 100,00 %
09.04.2018 01:47 8,6 C 8,9 C 87 % 1006,3 hPa 0,0 l/m 0,0 km/h (0 Bft) S-SW 205 0 min 0,000 mm 0,0 UV-I 0 W/m 6,6 C 8,6 C 0,0 km/h (0 Bft) 100,00 %
09.04.2018 01:48 8,5 C 8,9 C 88 % 1006,3 hPa 0,0 l/m 0,3 km/h (0 Bft) S-SW 205 0 min 0,000 mm 0,0 UV-I 0 W/m 6,6 C 8,5 C 1,6 km/h (1 Bft) 100,00 %
09.04.2018 01:49 8,5 C 8,9 C 88 % 1006,3 hPa 0,0 l/m 0,0 km/h (0 Bft) S-SW 205 0 min 0,000 mm 0,0 UV-I 0 W/m 6,6 C 8,5 C 0,0 km/h (0 Bft) 100,00 %
09.04.2018 01:50 8,5 C 8,9 C 89 % 1006,2 hPa 0,0 l/m 0,3 km/h (0 Bft) S-SW 205 0 min 0,000 mm 0,0 UV-I 0 W/m 6,8 C 8,5 C 1,6 km/h (1 Bft) 95,65 %
09.04.2018 01:51 8,4 C 8,9 C 89 % 1006,2 hPa 0,0 l/m 0,7 km/h (0 Bft) S-SW 205 0 min 0,000 mm 0,0 UV-I 0 W/m 6,7 C 8,4 C 1,6 km/h (1 Bft) 100,00 %
09.04.2018 01:52 8,4 C 8,9 C 89 % 1006,3 hPa 0,0 l/m 0,0 km/h (0 Bft) S-SW 205 0 min 0,000 mm 0,0 UV-I 0 W/m 6,7 C 8,4 C 0,0 km/h (0 Bft) 100,00 %
09.04.2018 01:53 8,4 C 8,9 C 89 % 1006,2 hPa 0,0 l/m 1,5 km/h (1 Bft) S-SW 205 0 min 0,000 mm 0,0 UV-I 0 W/m 6,7 C 8,4 C 3,2 km/h (1 Bft) 100,00 %
09.04.2018 01:54 8,4 C 8,9 C 89 % 1006,3 hPa 0,0 l/m 2,1 km/h (1 Bft) S-SW 205 0 min 0,000 mm 0,0 UV-I 0 W/m 6,7 C 8,4 C 3,2 km/h (1 Bft) 100,00 %
09.04.2018 01:55 8,4 C 8,9 C 89 % 1006,3 hPa 0,0 l/m 1,6 km/h (1 Bft) S-SW 205 0 min 0,000 mm 0,0 UV-I 0 W/m 6,7 C 8,4 C 1,6 km/h (1 Bft) 100,00 %
09.04.2018 01:56 8,4 C 8,9 C 88 % 1006,2 hPa 0,0 l/m 1,5 km/h (1 Bft) S-SW 205 0 min 0,000 mm 0,0 UV-I 0 W/m 6,5 C 8,4 C 1,6 km/h (1 Bft) 100,00 %
09.04.2018 01:57 8,5 C 8,9 C 88 % 1006,2 hPa 0,0 l/m 0,2 km/h (0 Bft) S-SW 205 0 min 0,000 mm 0,0 UV-I 0 W/m 6,6 C 8,5 C 1,6 km/h (1 Bft) 100,00 %
09.04.2018 01:58 8,5 C 8,9 C 88 % 1006,3 hPa 0,0 l/m 0,0 km/h (0 Bft) S-SW 205 0 min 0,000 mm 0,0 UV-I 0 W/m 6,6 C 8,5 C 0,0 km/h (0 Bft) 100,00 %
09.04.2018 01:59 8,6 C 8,9 C 87 % 1006,3 hPa 0,0 l/m 0,0 km/h (0 Bft) S-SW 205 0 min 0,000 mm 0,0 UV-I 0 W/m 6,6 C 8,6 C 0,0 km/h (0 Bft) 95,83 %
09.04.2018 02:00 8,6 C 8,9 C 87 % 1006,3 hPa 0,0 l/m 0,0 km/h (0 Bft) S-SW 205 0 min 0,000 mm 0,0 UV-I 0 W/m 6,6 C 8,6 C 0,0 km/h (0 Bft) 100,00 %
09.04.2018 02:01 8,7 C 8,9 C 87 % 1006,3 hPa 0,0 l/m 0,0 km/h (0 Bft) S-SW 205 0 min 0,000 mm 0,0 UV-I 0 W/m 6,7 C 8,7 C 0,0 km/h (0 Bft) 100,00 %
09.04.2018 02:02 8,7 C 8,9 C 86 % 1006,3 hPa 0,0 l/m 0,0 km/h (0 Bft) S-SW 205 0 min 0,000 mm 0,0 UV-I 0 W/m 6,5 C 8,7 C 0,0 km/h (0 Bft) 100,00 %
09.04.2018 02:03 8,6 C 8,9 C 86 % 1006,3 hPa 0,0 l/m 0,0 km/h (0 Bft) S-SW 205 0 min 0,000 mm 0,0 UV-I 0 W/m 6,4 C 8,6 C 0,0 km/h (0 Bft) 100,00 %
09.04.2018 02:04 8,6 C 8,9 C 86 % 1006,3 hPa 0,0 l/m 2,5 km/h (1 Bft) S-SW 205 0 min 0,000 mm 0,0 UV-I 0 W/m 6,4 C 8,6 C 4,8 km/h (1 Bft) 100,00 %
09.04.2018 02:05 8,6 C 8,9 C 87 % 1006,3 hPa 0,0 l/m 3,8 km/h (1 Bft) S-SW 205 0 min 0,000 mm 0,0 UV-I 0 W/m 6,6 C 8,6 C 4,8 km/h (1 Bft) 100,00 %
09.04.2018 02:06 8,5 C 8,9 C 87 % 1006,3 hPa 0,0 l/m 3,7 km/h (1 Bft) S-SW 205 0 min 0,000 mm 0,0 UV-I 0 W/m 6,5 C 8,5 C 4,8 km/h (1 Bft) 100,00 %
09.04.2018 02:07 8,4 C 8,9 C 87 % 1006,2 hPa 0,0 l/m 3,9 km/h (1 Bft) S-SW 205 0 min 0,000 mm 0,0 UV-I 0 W/m 6,4 C 8,4 C 4,8 km/h (1 Bft) 100,00 %
09.04.2018 02:08 8,4 C 8,9 C 88 % 1006,2 hPa 0,0 l/m 3,4 km/h (1 Bft) S-SW 205 0 min 0,000 mm 0,0 UV-I 0 W/m 6,5 C 8,4 C 4,8 km/h (1 Bft) 100,00 %
09.04.2018 02:09 8,4 C 8,9 C 88 % 1006,2 hPa 0,0 l/m 2,7 km/h (1 Bft) S-SW 205 0 min 0,000 mm 0,0 UV-I 0 W/m 6,5 C 8,4 C 3,2 km/h (1 Bft) 100,00 %
09.04.2018 02:10 8,4 C 8,9 C 88 % 1006,2 hPa 0,0 l/m 2,5 km/h (1 Bft) S-SW 205 0 min 0,000 mm 0,0 UV-I 0 W/m 6,5 C 8,4 C 3,2 km/h (1 Bft) 100,00 %
09.04.2018 02:11 8,3 C 8,9 C 87 % 1006,2 hPa 0,0 l/m 2,9 km/h (1 Bft) S-SW 205 0 min 0,000 mm 0,0 UV-I 0 W/m 6,3 C 8,3 C 3,2 km/h (1 Bft) 100,00 %
09.04.2018 02:12 8,2 C 8,9 C 88 % 1006,2 hPa 0,0 l/m 2,7 km/h (1 Bft) S-SW 205 0 min 0,000 mm 0,0 UV-I 0 W/m 6,3 C 8,2 C 3,2 km/h (1 Bft) 100,00 %
09.04.2018 02:13 8,2 C 8,9 C 88 % 1006,2 hPa 0,0 l/m 3,4 km/h (1 Bft) S-SW 205 0 min 0,000 mm 0,0 UV-I 0 W/m 6,3 C 8,2 C 4,8 km/h (1 Bft) 100,00 %
09.04.2018 02:14 8,1 C 8,9 C 88 % 1006,3 hPa 0,0 l/m 4,7 km/h (1 Bft) S-SW 205 0 min 0,000 mm 0,0 UV-I 0 W/m 6,2 C 8,1 C 4,8 km/h (1 Bft) 100,00 %
09.04.2018 02:15 8,1 C 8,9 C 88 % 1006,2 hPa 0,0 l/m 4,6 km/h (1 Bft) S-SW 205 0 min 0,000 mm 0,0 UV-I 0 W/m 6,2 C 8,1 C 4,8 km/h (1 Bft) 98,17 %
09.04.2018 02:16 8,0 C 8,9 C 89 % 1006,2 hPa 0,0 l/m 4,5 km/h (1 Bft) S-SW 205 0 min 0,000 mm 0,0 UV-I 0 W/m 6,3 C 8,0 C 4,8 km/h (1 Bft) 100,00 %
09.04.2018 02:17 8,0 C 8,9 C 89 % 1006,2 hPa 0,0 l/m 4,7 km/h (1 Bft) S-SW 205 0 min 0,000 mm 0,0 UV-I 0 W/m 6,3 C 8,0 C 4,8 km/h (1 Bft) 96,15 %
09.04.2018 02:18 8,0 C 8,9 C 89 % 1006,2 hPa 0,0 l/m 4,7 km/h (1 Bft) S-SW 205 0 min 0,000 mm 0,0 UV-I 0 W/m 6,3 C 8,0 C 4,8 km/h (1 Bft) 100,00 %
09.04.2018 02:19 8,0 C 8,9 C 89 % 1006,2 hPa 0,0 l/m 4,8 km/h (1 Bft) S-SW 205 0 min 0,000 mm 0,0 UV-I 0 W/m 6,3 C 8,0 C 4,8 km/h (1 Bft) 100,00 %
09.04.2018 02:20 8,0 C 8,9 C 89 % 1006,2 hPa 0,0 l/m 4,4 km/h (1 Bft) S-SW 205 0 min 0,000 mm 0,0 UV-I 0 W/m 6,3 C 8,0 C 4,8 km/h (1 Bft) 100,00 %
09.04.2018 02:21 8,1 C 8,9 C 90 % 1006,2 hPa 0,0 l/m 4,7 km/h (1 Bft) S-SW 205 0 min 0,000 mm 0,0 UV-I 0 W/m 6,6 C 8,1 C 4,8 km/h (1 Bft) 96,15 %
09.04.2018 02:22 8,2 C 8,9 C 89 % 1006,2 hPa 0,0 l/m 4,2 km/h (1 Bft) S-SW 205 0 min 0,000 mm 0,0 UV-I 0 W/m 6,5 C 8,2 C 4,8 km/h (1 Bft) 95,83 %
09.04.2018 02:23 8,1 C 8,9 C 88 % 1006,1 hPa 0,0 l/m 4,2 km/h (1 Bft) S-SW 205 0 min 0,000 mm 0,0 UV-I 0 W/m 6,2 C 8,1 C 4,8 km/h (1 Bft) 100,00 %
09.04.2018 02:24 7,8 C 8,9 C 87 % 1006,1 hPa 0,0 l/m 3,8 km/h (1 Bft) S-SW 205 0 min 0,000 mm 0,0 UV-I 0 W/m 5,8 C 7,8 C 4,8 km/h (1 Bft) 100,00 %
09.04.2018 02:25 7,6 C 8,9 C 86 % 1006,1 hPa 0,0 l/m 3,5 km/h (1 Bft) S-SW 205 0 min 0,000 mm 0,0 UV-I 0 W/m 5,4 C 7,6 C 4,8 km/h (1 Bft) 100,00 %
09.04.2018 02:26 7,4 C 8,9 C 87 % 1006,1 hPa 0,0 l/m 3,9 km/h (1 Bft) S-SW 205 0 min 0,000 mm 0,0 UV-I 0 W/m 5,4 C 7,4 C 4,8 km/h (1 Bft) 100,00 %
09.04.2018 02:27 7,3 C 8,9 C 88 % 1006,1 hPa 0,0 l/m 3,2 km/h (1 Bft) S-SW 205 0 min 0,000 mm 0,0 UV-I 0 W/m 5,4 C 7,3 C 4,8 km/h (1 Bft) 100,00 %
09.04.2018 02:28 7,3 C 8,9 C 89 % 1006,1 hPa 0,0 l/m 4,0 km/h (1 Bft) S-SW 205 0 min 0,000 mm 0,0 UV-I 0 W/m 5,6 C 7,3 C 4,8 km/h (1 Bft) 100,00 %
09.04.2018 02:29 7,3 C 8,9 C 88 % 1006,1 hPa 0,0 l/m 4,2 km/h (1 Bft) S-SW 205 0 min 0,000 mm 0,0 UV-I 0 W/m 5,4 C 7,3 C 4,8 km/h (1 Bft) 98,25 %
09.04.2018 02:30 7,4 C 8,9 C 88 % 1006,1 hPa 0,0 l/m 3,4 km/h (1 Bft) S-SW 205 0 min 0,000 mm 0,0 UV-I 0 W/m 5,5 C 7,4 C 4,8 km/h (1 Bft) 100,00 %
09.04.2018 02:31 7,5 C 8,9 C 88 % 1006,1 hPa 0,0 l/m 3,7 km/h (1 Bft) S-SW 205 0 min 0,000 mm 0,0 UV-I 0 W/m 5,6 C 7,5 C 4,8 km/h (1 Bft) 100,00 %
09.04.2018 02:32 7,4 C 8,9 C 87 % 1006,1 hPa 0,0 l/m 3,4 km/h (1 Bft) S-SW 205 0 min 0,000 mm 0,0 UV-I 0 W/m 5,4 C 7,4 C 4,8 km/h (1 Bft) 100,00 %
09.04.2018 02:33 7,3 C 8,9 C 87 % 1006,1 hPa 0,0 l/m 3,4 km/h (1 Bft) S-SW 205 0 min 0,000 mm 0,0 UV-I 0 W/m 5,3 C 7,3 C 4,8 km/h (1 Bft) 100,00 %
09.04.2018 02:34 7,3 C 8,9 C 87 % 1006,1 hPa 0,0 l/m 2,6 km/h (1 Bft) S-SW 205 0 min 0,000 mm 0,0 UV-I 0 W/m 5,3 C 7,3 C 3,2 km/h (1 Bft) 100,00 %
09.04.2018 02:35 7,2 C 8,9 C 88 % 1006,1 hPa 0,0 l/m 3,0 km/h (1 Bft) S-SW 205 0 min 0,000 mm 0,0 UV-I 0 W/m 5,3 C 7,2 C 3,2 km/h (1 Bft) 96,30 %
09.04.2018 02:36 7,2 C 8,9 C 88 % 1006,1 hPa 0,0 l/m 3,2 km/h (1 Bft) S-SW 205 0 min 0,000 mm 0,0 UV-I 0 W/m 5,3 C 7,2 C 3,2 km/h (1 Bft) 91,30 %
09.04.2018 02:37 7,1 C 8,9 C 88 % 1006,1 hPa 0,0 l/m 3,7 km/h (1 Bft) S-SW 205 0 min 0,000 mm 0,0 UV-I 0 W/m 5,2 C 7,1 C 4,8 km/h (1 Bft) 95,83 %
09.04.2018 02:38 7,1 C 8,9 C 88 % 1006,1 hPa 0,0 l/m 3,7 km/h (1 Bft) S-SW 205 0 min 0,000 mm 0,0 UV-I 0 W/m 5,2 C 7,1 C 4,8 km/h (1 Bft) 100,00 %
09.04.2018 02:39 7,1 C 8,9 C 88 % 1006,1 hPa 0,0 l/m 3,4 km/h (1 Bft) S-SW 205 0 min 0,000 mm 0,0 UV-I 0 W/m 5,2 C 7,1 C 4,8 km/h (1 Bft) 93,33 %
09.04.2018 02:40 7,0 C 8,9 C 88 % 1006,1 hPa 0,0 l/m 2,8 km/h (1 Bft) S-SW 205 0 min 0,000 mm 0,0 UV-I 0 W/m 5,2 C 7,0 C 3,2 km/h (1 Bft) 95,65 %
09.04.2018 02:41 7,0 C 8,9 C 88 % 1006,1 hPa 0,0 l/m 3,2 km/h (1 Bft) S-SW 205 0 min 0,000 mm 0,0 UV-I 0 W/m 5,2 C 7,0 C 3,2 km/h (1 Bft) 95,83 %
09.04.2018 02:42 7,1 C 8,9 C 89 % 1006,1 hPa 0,0 l/m 1,9 km/h (1 Bft) S-SW 205 0 min 0,000 mm 0,0 UV-I 0 W/m 5,4 C 7,1 C 3,2 km/h (1 Bft) 92,31 %
09.04.2018 02:43 7,2 C 8,9 C 88 % 1006,0 hPa 0,0 l/m 2,0 km/h (1 Bft) S-SW 205 0 min 0,000 mm 0,0 UV-I 0 W/m 5,3 C 7,2 C 3,2 km/h (1 Bft) 95,83 %
09.04.2018 02:44 7,3 C 8,9 C 88 % 1006,0 hPa 0,0 l/m 1,3 km/h (1 Bft) S-SW 205 0 min 0,000 mm 0,0 UV-I 0 W/m 5,4 C 7,3 C 3,2 km/h (1 Bft) 95,65 %
09.04.2018 02:45 7,4 C 8,9 C 88 % 1006,1 hPa 0,0 l/m 0,6 km/h (0 Bft) S-SW 205 0 min 0,000 mm 0,0 UV-I 0 W/m 5,5 C 7,4 C 1,6 km/h (1 Bft) 92,59 %
09.04.2018 02:46 7,6 C 8,9 C 87 % 1006,0 hPa 0,0 l/m 0,0 km/h (0 Bft) S-SW 205 0 min 0,000 mm 0,0 UV-I 0 W/m 5,6 C 7,6 C 0,0 km/h (0 Bft) 95,65 %
09.04.2018 02:47 7,8 C 8,9 C 86 % 1006,0 hPa 0,0 l/m 0,0 km/h (0 Bft) S-SW 205 0 min 0,000 mm 0,0 UV-I 0 W/m 5,6 C 7,8 C 0,0 km/h (0 Bft) 95,83 %
09.04.2018 02:48 7,8 C 8,9 C 86 % 1006,1 hPa 0,0 l/m 0,0 km/h (0 Bft) S-SW 205 0 min 0,000 mm 0,0 UV-I 0 W/m 5,6 C 7,8 C 0,0 km/h (0 Bft) 100,00 %
09.04.2018 02:49 7,8 C 8,9 C 85 % 1006,1 hPa 0,0 l/m 0,0 km/h (0 Bft) S-SW 205 0 min 0,000 mm 0,0 UV-I 0 W/m 5,4 C 7,8 C 0,0 km/h (0 Bft) 88,46 %
09.04.2018 02:50 7,9 C 8,9 C 85 % 1006,1 hPa 0,0 l/m 0,0 km/h (0 Bft) S-SW 205 0 min 0,000 mm 0,0 UV-I 0 W/m 5,5 C 7,9 C 0,0 km/h (0 Bft) 96,30 %
09.04.2018 02:51 7,9 C 8,9 C 84 % 1006,1 hPa 0,0 l/m 1,1 km/h (1 Bft) S-SW 205 0 min 0,000 mm 0,0 UV-I 0 W/m 5,4 C 7,9 C 3,2 km/h (1 Bft) 96,15 %
09.04.2018 02:52 7,8 C 8,9 C 84 % 1006,0 hPa 0,0 l/m 1,5 km/h (1 Bft) S-SW 205 0 min 0,000 mm 0,0 UV-I 0 W/m 5,3 C 7,8 C 3,2 km/h (1 Bft) 95,83 %
09.04.2018 02:53 7,8 C 8,9 C 84 % 1006,0 hPa 0,0 l/m 1,8 km/h (1 Bft) S-SW 205 0 min 0,000 mm 0,0 UV-I 0 W/m 5,3 C 7,8 C 3,2 km/h (1 Bft) 91,30 %
09.04.2018 02:54 7,7 C 8,9 C 84 % 1006,0 hPa 0,0 l/m 2,6 km/h (1 Bft) S-SW 205 0 min 0,000 mm 0,0 UV-I 0 W/m 5,2 C 7,7 C 3,2 km/h (1 Bft) 96,30 %
09.04.2018 02:55 7,6 C 8,9 C 84 % 1006,0 hPa 0,0 l/m 3,2 km/h (1 Bft) S-SW 205 0 min 0,000 mm 0,0 UV-I 0 W/m 5,1 C 7,6 C 4,8 km/h (1 Bft) 92,86 %
09.04.2018 02:56 7,3 C 8,9 C 84 % 1006,0 hPa 0,0 l/m 3,5 km/h (1 Bft) S-SW 205 0 min 0,000 mm 0,0 UV-I 0 W/m 4,8 C 7,3 C 4,8 km/h (1 Bft) 96,30 %
09.04.2018 02:57 7,1 C 8,9 C 86 % 1006,1 hPa 0,0 l/m 3,3 km/h (1 Bft) S-SW 205 0 min 0,000 mm 0,0 UV-I 0 W/m 4,9 C 7,1 C 4,8 km/h (1 Bft) 89,66 %
09.04.2018 02:58 7,2 C 8,9 C 87 % 1006,1 hPa 0,0 l/m 2,3 km/h (1 Bft) S-SW 205 0 min 0,000 mm 0,0 UV-I 0 W/m 5,2 C 7,2 C 3,2 km/h (1 Bft) 91,67 %
09.04.2018 02:59 7,2 C 8,9 C 87 % 1006,1 hPa 0,0 l/m 1,5 km/h (1 Bft) S-SW 205 0 min 0,000 mm 0,0 UV-I 0 W/m 5,2 C 7,2 C 3,2 km/h (1 Bft) 85,71 %
09.04.2018 03:00 7,3 C 8,9 C 86 % 1006,1 hPa 0,0 l/m 3,7 km/h (1 Bft) S-SW 205 0 min 0,000 mm 0,0 UV-I 0 W/m 5,1 C 7,3 C 4,8 km/h (1 Bft) 95,83 %
09.04.2018 03:01 7,5 C 8,9 C 86 % 1006,1 hPa 0,0 l/m 4,4 km/h (1 Bft) S-SW 205 0 min 0,000 mm 0,0 UV-I 0 W/m 5,3 C 7,5 C 4,8 km/h (1 Bft) 96,55 %
09.04.2018 03:02 7,6 C 8,9 C 86 % 1006,1 hPa 0,0 l/m 4,4 km/h (1 Bft) S-SW 205 0 min 0,000 mm 0,0 UV-I 0 W/m 5,4 C 7,6 C 4,8 km/h (1 Bft) 92,59 %
09.04.2018 03:03 7,7 C 8,9 C 87 % 1006,1 hPa 0,0 l/m 4,1 km/h (1 Bft) S-SW 205 0 min 0,000 mm 0,0 UV-I 0 W/m 5,7 C 7,7 C 4,8 km/h (1 Bft) 100,00 %
09.04.2018 03:04 7,7 C 8,9 C 86 % 1006,1 hPa 0,0 l/m 4,4 km/h (1 Bft) S-SW 205 0 min 0,000 mm 0,0 UV-I 0 W/m 5,5 C 7,7 C 4,8 km/h (1 Bft) 92,31 %
09.04.2018 03:05 7,7 C 8,9 C 86 % 1006,1 hPa 0,0 l/m 5,0 km/h (1 Bft) S-SW 205 0 min 0,000 mm 0,0 UV-I 0 W/m 5,5 C 7,7 C 6,4 km/h (2 Bft) 100,00 %
09.04.2018 03:06 7,6 C 8,9 C 86 % 1006,1 hPa 0,0 l/m 6,0 km/h (2 Bft) S-SW 205 0 min 0,000 mm 0,0 UV-I 0 W/m 5,4 C 7,6 C 6,4 km/h (2 Bft) 91,67 %
09.04.2018 03:07 7,6 C 8,9 C 87 % 1006,1 hPa 0,0 l/m 6,7 km/h (2 Bft) S-SW 205 0 min 0,000 mm 0,0 UV-I 0 W/m 5,6 C 7,4 C 8,0 km/h (2 Bft) 100,00 %
09.04.2018 03:08 7,6 C 8,9 C 88 % 1006,1 hPa 0,0 l/m 7,3 km/h (2 Bft) S-SW 209 0 min 0,000 mm 0,0 UV-I 0 W/m 5,7 C 6,9 C 8,0 km/h (2 Bft) 92,86 %
09.04.2018 03:09 7,6 C 8,9 C 88 % 1006,1 hPa 0,0 l/m 7,2 km/h (2 Bft) S-SW 210 0 min 0,000 mm 0,0 UV-I 0 W/m 5,7 C 7,0 C 8,0 km/h (2 Bft) 97,44 %
09.04.2018 03:10 7,6 C 8,9 C 88 % 1006,1 hPa 0,0 l/m 5,9 km/h (2 Bft) S-SW 210 0 min 0,000 mm 0,0 UV-I 0 W/m 5,7 C 7,6 C 6,4 km/h (2 Bft) 92,31 %
09.04.2018 03:11 7,6 C 8,9 C 88 % 1006,1 hPa 0,0 l/m 5,1 km/h (1 Bft) S-SW 210 0 min 0,000 mm 0,0 UV-I 0 W/m 5,7 C 7,6 C 6,4 km/h (2 Bft) 92,31 %
09.04.2018 03:12 7,6 C 8,9 C 88 % 1006,1 hPa 0,0 l/m 4,8 km/h (1 Bft) S-SW 210 0 min 0,000 mm 0,0 UV-I 0 W/m 5,7 C 7,6 C 4,8 km/h (1 Bft) 100,00 %
09.04.2018 03:13 7,6 C 8,9 C 88 % 1006,1 hPa 0,0 l/m 5,2 km/h (1 Bft) S-SW 210 0 min 0,000 mm 0,0 UV-I 0 W/m 5,7 C 7,6 C 6,4 km/h (2 Bft) 91,67 %
09.04.2018 03:14 7,6 C 8,9 C 87 % 1006,1 hPa 0,0 l/m 5,7 km/h (1 Bft) S-SW 210 0 min 0,000 mm 0,0 UV-I 0 W/m 5,6 C 7,6 C 6,4 km/h (2 Bft) 90,91 %
09.04.2018 03:15 7,6 C 8,9 C 87 % 1006,1 hPa 0,0 l/m 5,6 km/h (1 Bft) S-SW 210 0 min 0,000 mm 0,0 UV-I 0 W/m 5,6 C 7,6 C 6,4 km/h (2 Bft) 92,59 %
09.04.2018 03:16 7,6 C 8,9 C 88 % 1006,1 hPa 0,0 l/m 6,3 km/h (2 Bft) S-SW 210 0 min 0,000 mm 0,0 UV-I 0 W/m 5,7 C 7,6 C 6,4 km/h (2 Bft) 100,00 %
09.04.2018 03:17 7,6 C 8,9 C 87 % 1006,1 hPa 0,0 l/m 6,1 km/h (2 Bft) S-SW 210 0 min 0,000 mm 0,0 UV-I 0 W/m 5,6 C 7,6 C 6,4 km/h (2 Bft) 92,59 %
09.04.2018 03:18 7,6 C 8,9 C 87 % 1006,1 hPa 0,0 l/m 5,5 km/h (1 Bft) S-SW 211 0 min 0,000 mm 0,0 UV-I 0 W/m 5,6 C 7,6 C 6,4 km/h (2 Bft) 100,00 %
09.04.2018 03:19 7,7 C 8,9 C 88 % 1006,1 hPa 0,0 l/m 5,7 km/h (1 Bft) S-SW 211 0 min 0,000 mm 0,0 UV-I 0 W/m 5,8 C 7,7 C 6,4 km/h (2 Bft) 87,50 %
09.04.2018 03:20 7,7 C 8,9 C 87 % 1006,1 hPa 0,0 l/m 5,4 km/h (1 Bft) S-SW 211 0 min 0,000 mm 0,0 UV-I 0 W/m 5,7 C 7,7 C 6,4 km/h (2 Bft) 91,30 %
09.04.2018 03:21 7,7 C 8,9 C 87 % 1006,1 hPa 0,0 l/m 5,0 km/h (1 Bft) S-SW 211 0 min 0,000 mm 0,0 UV-I 0 W/m 5,7 C 7,7 C 6,4 km/h (2 Bft) 95,83 %
09.04.2018 03:22 7,8 C 8,9 C 87 % 1006,1 hPa 0,0 l/m 4,7 km/h (1 Bft) S-SW 211 0 min 0,000 mm 0,0 UV-I 0 W/m 5,8 C 7,8 C 4,8 km/h (1 Bft) 95,65 %
09.04.2018 03:23 7,7 C 8,9 C 86 % 1006,1 hPa 0,0 l/m 5,7 km/h (1 Bft) S-SW 212 0 min 0,000 mm 0,0 UV-I 0 W/m 5,5 C 7,7 C 6,4 km/h (2 Bft) 100,00 %
09.04.2018 03:24 7,7 C 8,9 C 87 % 1006,1 hPa 0,0 l/m 5,5 km/h (1 Bft) S-SW 213 0 min 0,000 mm 0,0 UV-I 0 W/m 5,7 C 7,7 C 6,4 km/h (2 Bft) 91,30 %
09.04.2018 03:25 7,7 C 8,9 C 87 % 1006,1 hPa 0,0 l/m 4,6 km/h (1 Bft) S-SW 213 0 min 0,000 mm 0,0 UV-I 0 W/m 5,7 C 7,7 C 4,8 km/h (1 Bft) 100,00 %
09.04.2018 03:26 7,8 C 8,9 C 87 % 1006,1 hPa 0,0 l/m 4,2 km/h (1 Bft) S-SW 213 0 min 0,000 mm 0,0 UV-I 0 W/m 5,8 C 7,8 C 4,8 km/h (1 Bft) 91,30 %
09.04.2018 03:27 7,8 C 8,9 C 87 % 1006,0 hPa 0,0 l/m 3,5 km/h (1 Bft) S-SW 213 0 min 0,000 mm 0,0 UV-I 0 W/m 5,8 C 7,8 C 4,8 km/h (1 Bft) 96,30 %
09.04.2018 03:28 7,8 C 8,9 C 87 % 1006,0 hPa 0,0 l/m 3,9 km/h (1 Bft) S-SW 213 0 min 0,000 mm 0,0 UV-I 0 W/m 5,8 C 7,8 C 4,8 km/h (1 Bft) 93,33 %
09.04.2018 03:29 7,9 C 8,9 C 87 % 1006,0 hPa 0,0 l/m 3,5 km/h (1 Bft) S-SW 213 0 min 0,000 mm 0,0 UV-I 0 W/m 5,9 C 7,9 C 4,8 km/h (1 Bft) 100,00 %
09.04.2018 03:30 7,9 C 8,9 C 87 % 1006,0 hPa 0,0 l/m 3,2 km/h (1 Bft) S-SW 213 0 min 0,000 mm 0,0 UV-I 0 W/m 5,9 C 7,9 C 4,8 km/h (1 Bft) 91,67 %
09.04.2018 03:31 7,9 C 8,9 C 87 % 1006,0 hPa 0,0 l/m 3,0 km/h (1 Bft) S-SW 213 0 min 0,000 mm 0,0 UV-I 0 W/m 5,9 C 7,9 C 3,2 km/h (1 Bft) 93,10 %
09.04.2018 03:32 8,0 C 8,9 C 87 % 1005,9 hPa 0,0 l/m 3,1 km/h (1 Bft) S-SW 213 0 min 0,000 mm 0,0 UV-I 0 W/m 6,0 C 8,0 C 4,8 km/h (1 Bft) 100,00 %
09.04.2018 03:33 8,0 C 8,9 C 87 % 1005,9 hPa 0,0 l/m 3,6 km/h (1 Bft) S-SW 213 0 min 0,000 mm 0,0 UV-I 0 W/m 6,0 C 8,0 C 4,8 km/h (1 Bft) 96,15 %
09.04.2018 03:35 7,7 C 8,9 C 85 % 1005,9 hPa 0,0 l/m 4,0 km/h (1 Bft) S-SW 213 0 min 0,000 mm 0,0 UV-I 0 W/m 5,3 C 7,7 C 4,8 km/h (1 Bft) 98,00 %
09.04.2018 03:36 7,5 C 8,9 C 86 % 1005,9 hPa 0,0 l/m 4,6 km/h (1 Bft) S-SW 213 0 min 0,000 mm 0,0 UV-I 0 W/m 5,3 C 7,5 C 4,8 km/h (1 Bft) 100,00 %
09.04.2018 03:37 7,3 C 8,9 C 86 % 1005,9 hPa 0,0 l/m 3,6 km/h (1 Bft) S-SW 213 0 min 0,000 mm 0,0 UV-I 0 W/m 5,1 C 7,3 C 4,8 km/h (1 Bft) 89,66 %
09.04.2018 03:38 7,2 C 8,9 C 87 % 1005,9 hPa 0,0 l/m 2,9 km/h (1 Bft) S-SW 213 0 min 0,000 mm 0,0 UV-I 0 W/m 5,2 C 7,2 C 3,2 km/h (1 Bft) 96,30 %
09.04.2018 03:39 7,2 C 8,9 C 87 % 1005,9 hPa 0,0 l/m 2,6 km/h (1 Bft) S-SW 213 0 min 0,000 mm 0,0 UV-I 0 W/m 5,2 C 7,2 C 3,2 km/h (1 Bft) 96,15 %
09.04.2018 03:40 7,1 C 8,9 C 87 % 1005,9 hPa 0,0 l/m 2,9 km/h (1 Bft) S-SW 213 0 min 0,000 mm 0,0 UV-I 0 W/m 5,1 C 7,1 C 3,2 km/h (1 Bft) 100,00 %
09.04.2018 03:41 7,1 C 8,9 C 88 % 1005,9 hPa 0,0 l/m 4,0 km/h (1 Bft) S-SW 213 0 min 0,000 mm 0,0 UV-I 0 W/m 5,2 C 7,1 C 4,8 km/h (1 Bft) 95,83 %
09.04.2018 03:42 7,1 C 8,9 C 88 % 1005,8 hPa 0,0 l/m 4,9 km/h (1 Bft) S-SW 213 0 min 0,000 mm 0,0 UV-I 0 W/m 5,2 C 7,1 C 6,4 km/h (2 Bft) 100,00 %
09.04.2018 03:43 6,9 C 8,9 C 88 % 1005,9 hPa 0,0 l/m 5,8 km/h (2 Bft) S-SW 213 0 min 0,000 mm 0,0 UV-I 0 W/m 5,1 C 6,9 C 6,4 km/h (2 Bft) 95,83 %
09.04.2018 03:44 6,9 C 8,9 C 88 % 1005,9 hPa 0,0 l/m 5,6 km/h (1 Bft) S-SW 213 0 min 0,000 mm 0,0 UV-I 0 W/m 5,1 C 6,9 C 6,4 km/h (2 Bft) 89,66 %
09.04.2018 03:45 6,8 C 8,9 C 87 % 1005,9 hPa 0,0 l/m 6,0 km/h (2 Bft) S-SW 213 0 min 0,000 mm 0,0 UV-I 0 W/m 4,8 C 6,8 C 6,4 km/h (2 Bft) 100,00 %
09.04.2018 03:46 6,7 C 8,9 C 88 % 1005,9 hPa 0,0 l/m 6,0 km/h (2 Bft) S-SW 213 0 min 0,000 mm 0,0 UV-I 0 W/m 4,9 C 6,7 C 6,4 km/h (2 Bft) 96,15 %
09.04.2018 03:47 6,7 C 8,9 C 89 % 1005,9 hPa 0,0 l/m 5,4 km/h (1 Bft) S-SW 213 0 min 0,000 mm 0,0 UV-I 0 W/m 5,0 C 6,7 C 6,4 km/h (2 Bft) 100,00 %
09.04.2018 03:48 6,7 C 8,9 C 89 % 1005,9 hPa 0,0 l/m 5,2 km/h (1 Bft) S-SW 213 0 min 0,000 mm 0,0 UV-I 0 W/m 5,0 C 6,7 C 6,4 km/h (2 Bft) 100,00 %
09.04.2018 03:49 6,7 C 8,9 C 89 % 1005,9 hPa 0,0 l/m 5,6 km/h (1 Bft) S-SW 213 0 min 0,000 mm 0,0 UV-I 0 W/m 5,0 C 6,7 C 6,4 km/h (2 Bft) 100,00 %
09.04.2018 03:50 6,7 C 8,9 C 89 % 1005,9 hPa 0,0 l/m 5,9 km/h (2 Bft) S-SW 213 0 min 0,000 mm 0,0 UV-I 0 W/m 5,0 C 6,7 C 6,4 km/h (2 Bft) 95,65 %
09.04.2018 03:51 6,8 C 8,9 C 89 % 1005,9 hPa 0,0 l/m 6,7 km/h (2 Bft) S-SW 213 0 min 0,000 mm 0,0 UV-I 0 W/m 5,1 C 6,6 C 8,0 km/h (2 Bft) 100,00 %
09.04.2018 03:52 6,8 C 8,9 C 89 % 1006,0 hPa 0,0 l/m 6,2 km/h (2 Bft) S-SW 213 0 min 0,000 mm 0,0 UV-I 0 W/m 5,1 C 6,8 C 6,4 km/h (2 Bft) 100,00 %
09.04.2018 03:53 6,9 C 8,9 C 89 % 1006,0 hPa 0,0 l/m 6,4 km/h (2 Bft) S-SW 213 0 min 0,000 mm 0,0 UV-I 0 W/m 5,2 C 6,9 C 6,4 km/h (2 Bft) 100,00 %
09.04.2018 03:54 6,8 C 8,9 C 88 % 1006,0 hPa 0,0 l/m 5,4 km/h (1 Bft) S-SW 213 0 min 0,000 mm 0,0 UV-I 0 W/m 5,0 C 6,8 C 6,4 km/h (2 Bft) 100,00 %
09.04.2018 03:55 6,8 C 8,9 C 89 % 1006,0 hPa 0,0 l/m 5,8 km/h (2 Bft) S-SW 213 0 min 0,000 mm 0,0 UV-I 0 W/m 5,1 C 6,8 C 6,4 km/h (2 Bft) 95,83 %
09.04.2018 03:56 6,8 C 8,9 C 89 % 1006,0 hPa 0,0 l/m 6,0 km/h (2 Bft) S-SW 213 0 min 0,000 mm 0,0 UV-I 0 W/m 5,1 C 6,8 C 6,4 km/h (2 Bft) 100,00 %
09.04.2018 03:57 6,8 C 8,9 C 89 % 1006,0 hPa 0,0 l/m 5,8 km/h (2 Bft) S-SW 213 0 min 0,000 mm 0,0 UV-I 0 W/m 5,1 C 6,8 C 6,4 km/h (2 Bft) 100,00 %
09.04.2018 03:58 6,7 C 8,9 C 89 % 1006,0 hPa 0,0 l/m 6,5 km/h (2 Bft) S-SW 213 0 min 0,000 mm 0,0 UV-I 0 W/m 5,0 C 6,6 C 8,0 km/h (2 Bft) 100,00 %
09.04.2018 03:59 6,8 C 8,9 C 89 % 1006,0 hPa 0,0 l/m 7,3 km/h (2 Bft) S-SW 213 0 min 0,000 mm 0,0 UV-I 0 W/m 5,1 C 6,1 C 8,0 km/h (2 Bft) 95,83 %
09.04.2018 04:00 6,8 C 8,9 C 89 % 1005,9 hPa 0,0 l/m 6,8 km/h (2 Bft) S-SW 213 0 min 0,000 mm 0,0 UV-I 0 W/m 5,1 C 6,5 C 8,0 km/h (2 Bft) 100,00 %
09.04.2018 04:01 6,8 C 8,9 C 89 % 1005,9 hPa 0,0 l/m 6,4 km/h (2 Bft) S-SW 213 0 min 0,000 mm 0,0 UV-I 0 W/m 5,1 C 6,8 C 6,4 km/h (2 Bft) 100,00 %
09.04.2018 04:02 6,8 C 8,9 C 89 % 1005,9 hPa 0,0 l/m 6,2 km/h (2 Bft) S-SW 213 0 min 0,000 mm 0,0 UV-I 0 W/m 5,1 C 6,8 C 6,4 km/h (2 Bft) 100,00 %
09.04.2018 04:03 6,7 C 8,9 C 89 % 1005,9 hPa 0,0 l/m 5,8 km/h (2 Bft) S-SW 213 0 min 0,000 mm 0,0 UV-I 0 W/m 5,0 C 6,7 C 6,4 km/h (2 Bft) 100,00 %
09.04.2018 04:04 6,7 C 8,9 C 90 % 1005,8 hPa 0,0 l/m 5,2 km/h (1 Bft) S-SW 213 0 min 0,000 mm 0,0 UV-I 0 W/m 5,2 C 6,7 C 6,4 km/h (2 Bft) 100,00 %
09.04.2018 04:05 6,8 C 8,9 C 90 % 1005,9 hPa 0,0 l/m 6,2 km/h (2 Bft) S-SW 213 0 min 0,000 mm 0,0 UV-I 0 W/m 5,3 C 6,8 C 6,4 km/h (2 Bft) 100,00 %
09.04.2018 04:06 6,7 C 8,9 C 89 % 1005,9 hPa 0,0 l/m 6,2 km/h (2 Bft) S-SW 212 0 min 0,000 mm 0,0 UV-I 0 W/m 5,0 C 6,7 C 6,4 km/h (2 Bft) 100,00 %
09.04.2018 04:07 6,6 C 8,9 C 89 % 1005,8 hPa 0,0 l/m 5,8 km/h (2 Bft) S-SW 212 0 min 0,000 mm 0,0 UV-I 0 W/m 4,9 C 6,6 C 6,4 km/h (2 Bft) 100,00 %
09.04.2018 04:08 6,4 C 8,9 C 89 % 1005,8 hPa 0,0 l/m 5,6 km/h (1 Bft) S-SW 212 0 min 0,000 mm 0,0 UV-I 0 W/m 4,7 C 6,4 C 6,4 km/h (2 Bft) 96,30 %
09.04.2018 04:09 6,3 C 8,9 C 89 % 1005,8 hPa 0,0 l/m 5,4 km/h (1 Bft) S-SW 212 0 min 0,000 mm 0,0 UV-I 0 W/m 4,6 C 6,3 C 6,4 km/h (2 Bft) 100,00 %
09.04.2018 04:10 6,3 C 8,9 C 90 % 1005,9 hPa 0,0 l/m 5,6 km/h (1 Bft) S-SW 212 0 min 0,000 mm 0,0 UV-I 0 W/m 4,8 C 6,3 C 6,4 km/h (2 Bft) 100,00 %
09.04.2018 04:11 6,4 C 8,9 C 91 % 1005,9 hPa 0,0 l/m 5,2 km/h (1 Bft) S-SW 212 0 min 0,000 mm 0,0 UV-I 0 W/m 5,0 C 6,4 C 6,4 km/h (2 Bft) 100,00 %
09.04.2018 04:12 6,7 C 8,9 C 92 % 1005,9 hPa 0,0 l/m 5,4 km/h (1 Bft) S-SW 212 0 min 0,000 mm 0,0 UV-I 0 W/m 5,5 C 6,7 C 6,4 km/h (2 Bft) 100,00 %
09.04.2018 04:13 6,9 C 8,9 C 92 % 1005,9 hPa 0,0 l/m 4,7 km/h (1 Bft) S-SW 212 0 min 0,000 mm 0,0 UV-I 0 W/m 5,7 C 6,9 C 4,8 km/h (1 Bft) 95,65 %
09.04.2018 04:14 6,9 C 8,9 C 90 % 1005,9 hPa 0,0 l/m 4,2 km/h (1 Bft) S-SW 212 0 min 0,000 mm 0,0 UV-I 0 W/m 5,4 C 6,9 C 4,8 km/h (1 Bft) 95,83 %
09.04.2018 04:15 6,9 C 8,9 C 90 % 1005,9 hPa 0,0 l/m 4,4 km/h (1 Bft) S-SW 212 0 min 0,000 mm 0,0 UV-I 0 W/m 5,4 C 6,9 C 4,8 km/h (1 Bft) 100,00 %
09.04.2018 04:16 6,6 C 8,9 C 88 % 1005,8 hPa 0,0 l/m 5,0 km/h (1 Bft) S-SW 212 0 min 0,000 mm 0,0 UV-I 0 W/m 4,8 C 6,6 C 6,4 km/h (2 Bft) 100,00 %
09.04.2018 04:17 6,3 C 8,9 C 88 % 1005,9 hPa 0,0 l/m 4,9 km/h (1 Bft) S-SW 212 0 min 0,000 mm 0,0 UV-I 0 W/m 4,5 C 6,3 C 6,4 km/h (2 Bft) 100,00 %
09.04.2018 04:18 6,2 C 8,9 C 89 % 1005,8 hPa 0,0 l/m 3,8 km/h (1 Bft) S-SW 212 0 min 0,000 mm 0,0 UV-I 0 W/m 4,5 C 6,2 C 4,8 km/h (1 Bft) 100,00 %
09.04.2018 04:19 6,1 C 8,9 C 90 % 1005,8 hPa 0,0 l/m 2,7 km/h (1 Bft) S-SW 212 0 min 0,000 mm 0,0 UV-I 0 W/m 4,6 C 6,1 C 3,2 km/h (1 Bft) 100,00 %
09.04.2018 04:20 6,2 C 8,9 C 91 % 1005,8 hPa 0,0 l/m 2,4 km/h (1 Bft) S-SW 212 0 min 0,000 mm 0,0 UV-I 0 W/m 4,8 C 6,2 C 3,2 km/h (1 Bft) 100,00 %
09.04.2018 04:21 6,4 C 8,9 C 91 % 1005,8 hPa 0,0 l/m 2,6 km/h (1 Bft) S-SW 212 0 min 0,000 mm 0,0 UV-I 0 W/m 5,0 C 6,4 C 3,2 km/h (1 Bft) 100,00 %
09.04.2018 04:22 6,5 C 8,9 C 91 % 1005,8 hPa 0,0 l/m 2,0 km/h (1 Bft) S-SW 212 0 min 0,000 mm 0,0 UV-I 0 W/m 5,1 C 6,5 C 3,2 km/h (1 Bft) 100,00 %
09.04.2018 04:23 6,6 C 8,9 C 91 % 1005,7 hPa 0,0 l/m 1,8 km/h (1 Bft) S-SW 212 0 min 0,000 mm 0,0 UV-I 0 W/m 5,2 C 6,6 C 3,2 km/h (1 Bft) 100,00 %
09.04.2018 04:24 6,7 C 8,9 C 90 % 1005,7 hPa 0,0 l/m 2,2 km/h (1 Bft) S-SW 212 0 min 0,000 mm 0,0 UV-I 0 W/m 5,2 C 6,7 C 3,2 km/h (1 Bft) 100,00 %
09.04.2018 04:25 6,7 C 8,9 C 90 % 1005,7 hPa 0,0 l/m 2,2 km/h (1 Bft) S-SW 212 0 min 0,000 mm 0,0 UV-I 0 W/m 5,2 C 6,7 C 3,2 km/h (1 Bft) 100,00 %
09.04.2018 04:26 6,6 C 8,9 C 89 % 1005,7 hPa 0,0 l/m 3,0 km/h (1 Bft) S-SW 212 0 min 0,000 mm 0,0 UV-I 0 W/m 4,9 C 6,6 C 3,2 km/h (1 Bft) 100,00 %
09.04.2018 04:27 6,5 C 8,9 C 88 % 1005,7 hPa 0,0 l/m 3,3 km/h (1 Bft) S-SW 212 0 min 0,000 mm 0,0 UV-I 0 W/m 4,7 C 6,5 C 4,8 km/h (1 Bft) 100,00 %
09.04.2018 04:28 6,4 C 8,9 C 88 % 1005,7 hPa 0,0 l/m 3,4 km/h (1 Bft) S-SW 212 0 min 0,000 mm 0,0 UV-I 0 W/m 4,6 C 6,4 C 4,8 km/h (1 Bft) 96,15 %
09.04.2018 04:29 6,4 C 8,9 C 89 % 1005,7 hPa 0,0 l/m 2,7 km/h (1 Bft) S-SW 212 0 min 0,000 mm 0,0 UV-I 0 W/m 4,7 C 6,4 C 4,8 km/h (1 Bft) 100,00 %
09.04.2018 04:30 6,3 C 8,9 C 90 % 1005,7 hPa 0,0 l/m 3,4 km/h (1 Bft) S-SW 212 0 min 0,000 mm 0,0 UV-I 0 W/m 4,8 C 6,3 C 4,8 km/h (1 Bft) 100,00 %
09.04.2018 04:31 6,4 C 8,9 C 90 % 1005,7 hPa 0,0 l/m 3,7 km/h (1 Bft) S-SW 212 0 min 0,000 mm 0,0 UV-I 0 W/m 4,9 C 6,4 C 4,8 km/h (1 Bft) 100,00 %
09.04.2018 04:32 6,4 C 8,9 C 90 % 1005,7 hPa 0,0 l/m 4,4 km/h (1 Bft) S-SW 212 0 min 0,000 mm 0,0 UV-I 0 W/m 4,9 C 6,4 C 4,8 km/h (1 Bft) 100,00 %
09.04.2018 04:33 6,5 C 8,9 C 90 % 1005,7 hPa 0,0 l/m 4,3 km/h (1 Bft) S-SW 212 0 min 0,000 mm 0,0 UV-I 0 W/m 5,0 C 6,5 C 4,8 km/h (1 Bft) 100,00 %
09.04.2018 04:34 6,4 C 8,9 C 90 % 1005,6 hPa 0,0 l/m 4,9 km/h (1 Bft) S-SW 212 0 min 0,000 mm 0,0 UV-I 0 W/m 4,9 C 6,4 C 6,4 km/h (2 Bft) 100,00 %
09.04.2018 04:35 6,4 C 8,9 C 90 % 1005,6 hPa 0,0 l/m 4,9 km/h (1 Bft) S-SW 212 0 min 0,000 mm 0,0 UV-I 0 W/m 4,9 C 6,4 C 6,4 km/h (2 Bft) 100,00 %
09.04.2018 04:36 6,4 C 8,9 C 90 % 1005,6 hPa 0,0 l/m 5,3 km/h (1 Bft) S-SW 212 0 min 0,000 mm 0,0 UV-I 0 W/m 4,9 C 6,4 C 6,4 km/h (2 Bft) 100,00 %
09.04.2018 04:37 6,3 C 8,9 C 90 % 1005,6 hPa 0,0 l/m 5,9 km/h (2 Bft) S-SW 212 0 min 0,000 mm 0,0 UV-I 0 W/m 4,8 C 6,3 C 6,4 km/h (2 Bft) 100,00 %
09.04.2018 04:38 6,3 C 8,9 C 91 % 1005,6 hPa 0,0 l/m 5,6 km/h (1 Bft) S-SW 212 0 min 0,000 mm 0,0 UV-I 0 W/m 4,9 C 6,3 C 6,4 km/h (2 Bft) 100,00 %
09.04.2018 04:39 6,2 C 8,9 C 91 % 1005,6 hPa 0,0 l/m 6,3 km/h (2 Bft) S-SW 212 0 min 0,000 mm 0,0 UV-I 0 W/m 4,8 C 6,2 C 8,0 km/h (2 Bft) 95,83 %
09.04.2018 04:40 6,2 C 8,9 C 91 % 1005,6 hPa 0,0 l/m 5,9 km/h (2 Bft) S-SW 212 0 min 0,000 mm 0,0 UV-I 0 W/m 4,8 C 6,2 C 6,4 km/h (2 Bft) 100,00 %
09.04.2018 04:41 6,2 C 8,9 C 92 % 1005,6 hPa 0,0 l/m 5,7 km/h (1 Bft) S-SW 212 0 min 0,000 mm 0,0 UV-I 0 W/m 5,0 C 6,2 C 6,4 km/h (2 Bft) 96,55 %
09.04.2018 04:42 6,2 C 8,9 C 92 % 1005,6 hPa 0,0 l/m 5,8 km/h (2 Bft) S-SW 212 0 min 0,000 mm 0,0 UV-I 0 W/m 5,0 C 6,2 C 6,4 km/h (2 Bft) 100,00 %
09.04.2018 04:43 6,2 C 8,9 C 91 % 1005,6 hPa 0,0 l/m 5,2 km/h (1 Bft) S-SW 212 0 min 0,000 mm 0,0 UV-I 0 W/m 4,8 C 6,2 C 6,4 km/h (2 Bft) 95,83 %
09.04.2018 04:44 6,2 C 8,9 C 92 % 1005,6 hPa 0,0 l/m 5,7 km/h (1 Bft) S-SW 212 0 min 0,000 mm 0,0 UV-I 0 W/m 5,0 C 6,2 C 6,4 km/h (2 Bft) 100,00 %
09.04.2018 04:45 6,2 C 8,9 C 92 % 1005,5 hPa 0,0 l/m 5,0 km/h (1 Bft) S-SW 212 0 min 0,000 mm 0,0 UV-I 0 W/m 5,0 C 6,2 C 6,4 km/h (2 Bft) 100,00 %
09.04.2018 04:46 6,2 C 8,9 C 92 % 1005,5 hPa 0,0 l/m 4,1 km/h (1 Bft) S-SW 212 0 min 0,000 mm 0,0 UV-I 0 W/m 5,0 C 6,2 C 4,8 km/h (1 Bft) 100,00 %
09.04.2018 04:47 6,0 C 8,9 C 91 % 1005,5 hPa 0,0 l/m 5,0 km/h (1 Bft) S-SW 212 0 min 0,000 mm 0,0 UV-I 0 W/m 4,6 C 6,0 C 6,4 km/h (2 Bft) 100,00 %
09.04.2018 04:48 6,0 C 8,9 C 91 % 1005,5 hPa 0,0 l/m 4,6 km/h (1 Bft) S-SW 211 0 min 0,000 mm 0,0 UV-I 0 W/m 4,6 C 6,0 C 4,8 km/h (1 Bft) 100,00 %
09.04.2018 04:49 6,1 C 8,9 C 92 % 1005,5 hPa 0,0 l/m 5,6 km/h (1 Bft) S-SW 202 0 min 0,000 mm 0,0 UV-I 0 W/m 4,9 C 6,1 C 6,4 km/h (2 Bft) 96,15 %
09.04.2018 04:50 6,2 C 8,9 C 92 % 1005,5 hPa 0,0 l/m 6,2 km/h (2 Bft) S-SW 201 0 min 0,000 mm 0,0 UV-I 0 W/m 5,0 C 6,2 C 6,4 km/h (2 Bft) 100,00 %
09.04.2018 04:51 6,2 C 8,9 C 92 % 1005,4 hPa 0,0 l/m 4,7 km/h (1 Bft) S-SW 201 0 min 0,000 mm 0,0 UV-I 0 W/m 5,0 C 6,2 C 6,4 km/h (2 Bft) 100,00 %
09.04.2018 04:52 6,1 C 8,9 C 92 % 1005,4 hPa 0,0 l/m 5,3 km/h (1 Bft) S-SW 201 0 min 0,000 mm 0,0 UV-I 0 W/m 4,9 C 6,1 C 6,4 km/h (2 Bft) 100,00 %
09.04.2018 04:53 6,1 C 8,9 C 91 % 1005,4 hPa 0,0 l/m 6,0 km/h (2 Bft) S-SW 201 0 min 0,000 mm 0,0 UV-I 0 W/m 4,7 C 6,1 C 6,4 km/h (2 Bft) 100,00 %
09.04.2018 04:54 6,0 C 8,9 C 91 % 1005,3 hPa 0,0 l/m 3,8 km/h (1 Bft) S-SW 201 0 min 0,000 mm 0,0 UV-I 0 W/m 4,6 C 6,0 C 4,8 km/h (1 Bft) 100,00 %
09.04.2018 04:55 5,8 C 8,9 C 90 % 1005,4 hPa 0,0 l/m 3,5 km/h (1 Bft) S-SW 201 0 min 0,000 mm 0,0 UV-I 0 W/m 4,3 C 5,8 C 4,8 km/h (1 Bft) 100,00 %
09.04.2018 04:56 5,7 C 8,9 C 90 % 1005,3 hPa 0,0 l/m 3,8 km/h (1 Bft) S-SW 201 0 min 0,000 mm 0,0 UV-I 0 W/m 4,2 C 5,7 C 4,8 km/h (1 Bft) 100,00 %
09.04.2018 04:57 5,5 C 8,9 C 91 % 1005,3 hPa 0,0 l/m 3,6 km/h (1 Bft) S-SW 201 0 min 0,000 mm 0,0 UV-I 0 W/m 4,2 C 5,5 C 4,8 km/h (1 Bft) 91,30 %
09.04.2018 04:58 5,4 C 8,9 C 91 % 1005,3 hPa 0,0 l/m 4,1 km/h (1 Bft) S-SW 201 0 min 0,000 mm 0,0 UV-I 0 W/m 4,1 C 5,4 C 4,8 km/h (1 Bft) 100,00 %
09.04.2018 04:59 5,4 C 8,9 C 91 % 1005,3 hPa 0,0 l/m 2,7 km/h (1 Bft) S-SW 201 0 min 0,000 mm 0,0 UV-I 0 W/m 4,1 C 5,4 C 3,2 km/h (1 Bft) 100,00 %
09.04.2018 05:00 5,7 C 8,9 C 93 % 1005,3 hPa 0,0 l/m 1,3 km/h (1 Bft) S-SW 201 0 min 0,000 mm 0,0 UV-I 0 W/m 4,7 C 5,7 C 3,2 km/h (1 Bft) 100,00 %
09.04.2018 05:01 5,8 C 8,9 C 93 % 1005,4 hPa 0,0 l/m 2,3 km/h (1 Bft) S-SW 201 0 min 0,000 mm 0,0 UV-I 0 W/m 4,8 C 5,8 C 3,2 km/h (1 Bft) 93,33 %
09.04.2018 05:02 6,0 C 8,9 C 92 % 1005,4 hPa 0,0 l/m 1,9 km/h (1 Bft) S-SW 201 0 min 0,000 mm 0,0 UV-I 0 W/m 4,8 C 6,0 C 3,2 km/h (1 Bft) 100,00 %
09.04.2018 05:03 6,1 C 8,9 C 92 % 1005,3 hPa 0,0 l/m 2,5 km/h (1 Bft) S-SW 201 0 min 0,000 mm 0,0 UV-I 0 W/m 4,9 C 6,1 C 3,2 km/h (1 Bft) 100,00 %
09.04.2018 05:04 6,1 C 8,9 C 91 % 1005,3 hPa 0,0 l/m 2,4 km/h (1 Bft) S-SW 201 0 min 0,000 mm 0,0 UV-I 0 W/m 4,7 C 6,1 C 3,2 km/h (1 Bft) 100,00 %
09.04.2018 05:05 6,2 C 8,9 C 91 % 1005,4 hPa 0,0 l/m 2,9 km/h (1 Bft) S-SW 201 0 min 0,000 mm 0,0 UV-I 0 W/m 4,8 C 6,2 C 3,2 km/h (1 Bft) 100,00 %
09.04.2018 05:06 6,1 C 8,9 C 90 % 1005,3 hPa 0,0 l/m 3,3 km/h (1 Bft) S-SW 201 0 min 0,000 mm 0,0 UV-I 0 W/m 4,6 C 6,1 C 4,8 km/h (1 Bft) 100,00 %
09.04.2018 05:07 6,0 C 8,9 C 90 % 1005,3 hPa 0,0 l/m 3,3 km/h (1 Bft) S-SW 201 0 min 0,000 mm 0,0 UV-I 0 W/m 4,5 C 6,0 C 4,8 km/h (1 Bft) 100,00 %
09.04.2018 05:08 5,9 C 8,9 C 90 % 1005,4 hPa 0,0 l/m 4,2 km/h (1 Bft) S-SW 201 0 min 0,000 mm 0,0 UV-I 0 W/m 4,4 C 5,9 C 4,8 km/h (1 Bft) 96,15 %
09.04.2018 05:09 5,9 C 8,9 C 90 % 1005,4 hPa 0,0 l/m 4,6 km/h (1 Bft) S-SW 201 0 min 0,000 mm 0,0 UV-I 0 W/m 4,4 C 5,9 C 4,8 km/h (1 Bft) 100,00 %
09.04.2018 05:10 5,9 C 8,9 C 91 % 1005,4 hPa 0,0 l/m 3,7 km/h (1 Bft) S-SW 201 0 min 0,000 mm 0,0 UV-I 0 W/m 4,5 C 5,9 C 4,8 km/h (1 Bft) 100,00 %
09.04.2018 05:11 5,9 C 8,9 C 90 % 1005,4 hPa 0,0 l/m 4,0 km/h (1 Bft) S-SW 201 0 min 0,000 mm 0,0 UV-I 0 W/m 4,4 C 5,9 C 4,8 km/h (1 Bft) 100,00 %
09.04.2018 05:12 5,8 C 8,9 C 90 % 1005,4 hPa 0,0 l/m 3,8 km/h (1 Bft) S-SW 201 0 min 0,000 mm 0,0 UV-I 0 W/m 4,3 C 5,8 C 4,8 km/h (1 Bft) 86,96 %
09.04.2018 05:13 5,7 C 8,9 C 90 % 1005,4 hPa 0,0 l/m 3,9 km/h (1 Bft) S-SW 201 0 min 0,000 mm 0,0 UV-I 0 W/m 4,2 C 5,7 C 4,8 km/h (1 Bft) 100,00 %
09.04.2018 05:14 5,6 C 8,9 C 90 % 1005,3 hPa 0,0 l/m 4,0 km/h (1 Bft) S-SW 201 0 min 0,000 mm 0,0 UV-I 0 W/m 4,1 C 5,6 C 4,8 km/h (1 Bft) 100,00 %
09.04.2018 05:15 5,6 C 8,9 C 91 % 1005,4 hPa 0,0 l/m 3,5 km/h (1 Bft) S-SW 201 0 min 0,000 mm 0,0 UV-I 0 W/m 4,2 C 5,6 C 4,8 km/h (1 Bft) 100,00 %
09.04.2018 05:16 5,6 C 8,9 C 91 % 1005,4 hPa 0,0 l/m 2,9 km/h (1 Bft) S-SW 201 0 min 0,000 mm 0,0 UV-I 0 W/m 4,2 C 5,6 C 4,8 km/h (1 Bft) 100,00 %
09.04.2018 05:17 5,7 C 8,9 C 91 % 1005,4 hPa 0,0 l/m 2,4 km/h (1 Bft) S-SW 201 0 min 0,000 mm 0,0 UV-I 0 W/m 4,3 C 5,7 C 3,2 km/h (1 Bft) 100,00 %
09.04.2018 05:18 5,6 C 8,9 C 91 % 1005,4 hPa 0,0 l/m 2,6 km/h (1 Bft) S-SW 201 0 min 0,000 mm 0,0 UV-I 0 W/m 4,2 C 5,6 C 3,2 km/h (1 Bft) 96,00 %
09.04.2018 05:19 5,6 C 8,9 C 91 % 1005,4 hPa 0,0 l/m 3,5 km/h (1 Bft) S-SW 201 0 min 0,000 mm 0,0 UV-I 0 W/m 4,2 C 5,6 C 4,8 km/h (1 Bft) 100,00 %
09.04.2018 05:20 5,7 C 8,9 C 92 % 1005,4 hPa 0,0 l/m 3,5 km/h (1 Bft) S-SW 201 0 min 0,000 mm 0,0 UV-I 0 W/m 4,5 C 5,7 C 4,8 km/h (1 Bft) 96,30 %
09.04.2018 05:21 5,7 C 8,9 C 92 % 1005,5 hPa 0,0 l/m 4,4 km/h (1 Bft) S-SW 201 0 min 0,000 mm 0,0 UV-I 0 W/m 4,5 C 5,7 C 4,8 km/h (1 Bft) 100,00 %
09.04.2018 05:22 5,8 C 8,9 C 92 % 1005,5 hPa 0,0 l/m 5,5 km/h (1 Bft) S-SW 201 0 min 0,000 mm 0,0 UV-I 0 W/m 4,6 C 5,8 C 6,4 km/h (2 Bft) 100,00 %
09.04.2018 05:23 5,8 C 8,9 C 92 % 1005,5 hPa 0,0 l/m 6,1 km/h (2 Bft) S-SW 211 0 min 0,000 mm 0,0 UV-I 0 W/m 4,6 C 5,8 C 6,4 km/h (2 Bft) 100,00 %
09.04.2018 05:24 5,8 C 8,9 C 92 % 1005,6 hPa 0,0 l/m 6,2 km/h (2 Bft) SW 219 0 min 0,000 mm 0,0 UV-I 0 W/m 4,6 C 5,8 C 8,0 km/h (2 Bft) 100,00 %
09.04.2018 05:25 5,7 C 8,9 C 92 % 1005,6 hPa 0,0 l/m 7,1 km/h (2 Bft) SW 220 0 min 0,000 mm 0,0 UV-I 0 W/m 4,5 C 5,1 C 8,0 km/h (2 Bft) 100,00 %
09.04.2018 05:26 5,7 C 8,9 C 92 % 1005,6 hPa 0,0 l/m 6,3 km/h (2 Bft) SW 220 0 min 0,000 mm 0,0 UV-I 0 W/m 4,5 C 5,7 C 6,4 km/h (2 Bft) 100,00 %
09.04.2018 05:27 5,7 C 8,9 C 92 % 1005,6 hPa 0,0 l/m 6,5 km/h (2 Bft) SW 220 0 min 0,000 mm 0,0 UV-I 0 W/m 4,5 C 5,6 C 8,0 km/h (2 Bft) 96,15 %
09.04.2018 05:28 5,6 C 8,9 C 92 % 1005,6 hPa 0,0 l/m 6,0 km/h (2 Bft) SW 220 0 min 0,000 mm 0,0 UV-I 0 W/m 4,4 C 5,6 C 6,4 km/h (2 Bft) 95,83 %
09.04.2018 05:29 5,6 C 8,9 C 92 % 1005,6 hPa 0,0 l/m 6,2 km/h (2 Bft) SW 220 0 min 0,000 mm 0,0 UV-I 0 W/m 4,4 C 5,6 C 6,4 km/h (2 Bft) 100,00 %
09.04.2018 05:30 5,6 C 8,9 C 92 % 1005,6 hPa 0,0 l/m 4,9 km/h (1 Bft) SW 220 0 min 0,000 mm 0,0 UV-I 0 W/m 4,4 C 5,6 C 6,4 km/h (2 Bft) 95,83 %
09.04.2018 05:31 5,6 C 8,9 C 92 % 1005,6 hPa 0,0 l/m 5,0 km/h (1 Bft) SW 220 0 min 0,000 mm 0,0 UV-I 0 W/m 4,4 C 5,6 C 6,4 km/h (2 Bft) 100,00 %
09.04.2018 05:32 5,6 C 8,9 C 92 % 1005,6 hPa 0,0 l/m 4,8 km/h (1 Bft) SW 220 0 min 0,000 mm 0,0 UV-I 0 W/m 4,4 C 5,6 C 4,8 km/h (1 Bft) 96,15 %
09.04.2018 05:33 5,7 C 8,9 C 93 % 1005,6 hPa 0,0 l/m 5,2 km/h (1 Bft) SW 220 0 min 0,000 mm 0,0 UV-I 0 W/m 4,7 C 5,7 C 6,4 km/h (2 Bft) 95,83 %
09.04.2018 05:34 5,8 C 8,9 C 93 % 1005,6 hPa 0,0 l/m 6,3 km/h (2 Bft) SW 220 0 min 0,000 mm 0,0 UV-I 0 W/m 4,8 C 5,8 C 6,4 km/h (2 Bft) 100,00 %
09.04.2018 05:35 5,8 C 8,9 C 93 % 1005,6 hPa 0,0 l/m 6,3 km/h (2 Bft) SW 220 0 min 0,000 mm 0,0 UV-I 0 W/m 4,8 C 5,8 C 6,4 km/h (2 Bft) 92,59 %
09.04.2018 05:36 5,8 C 8,9 C 92 % 1005,6 hPa 0,0 l/m 5,2 km/h (1 Bft) SW 220 0 min 0,000 mm 0,0 UV-I 0 W/m 4,6 C 5,8 C 6,4 km/h (2 Bft) 100,00 %
09.04.2018 05:37 5,8 C 8,9 C 92 % 1005,6 hPa 0,0 l/m 5,5 km/h (1 Bft) SW 220 0 min 0,000 mm 0,0 UV-I 0 W/m 4,6 C 5,8 C 6,4 km/h (2 Bft) 91,67 %
09.04.2018 05:38 5,8 C 8,9 C 92 % 1005,5 hPa 0,0 l/m 4,7 km/h (1 Bft) SW 220 0 min 0,000 mm 0,0 UV-I 0 W/m 4,6 C 5,8 C 4,8 km/h (1 Bft) 100,00 %
09.04.2018 05:39 5,7 C 8,9 C 92 % 1005,5 hPa 0,0 l/m 4,4 km/h (1 Bft) SW 220 0 min 0,000 mm 0,0 UV-I 0 W/m 4,5 C 5,7 C 4,8 km/h (1 Bft) 95,83 %
09.04.2018 05:40 5,6 C 8,9 C 92 % 1005,5 hPa 0,0 l/m 4,9 km/h (1 Bft) SW 219 0 min 0,000 mm 0,0 UV-I 0 W/m 4,4 C 5,6 C 6,4 km/h (2 Bft) 96,15 %
09.04.2018 05:41 5,5 C 8,9 C 92 % 1005,5 hPa 0,0 l/m 4,9 km/h (1 Bft) SW 219 0 min 0,000 mm 0,0 UV-I 0 W/m 4,3 C 5,5 C 6,4 km/h (2 Bft) 100,00 %
09.04.2018 05:42 5,4 C 8,9 C 92 % 1005,5 hPa 0,0 l/m 4,4 km/h (1 Bft) SW 219 0 min 0,000 mm 0,0 UV-I 0 W/m 4,2 C 5,4 C 4,8 km/h (1 Bft) 91,30 %
09.04.2018 05:43 5,3 C 8,9 C 92 % 1005,5 hPa 0,0 l/m 3,4 km/h (1 Bft) SW 219 0 min 0,000 mm 0,0 UV-I 0 W/m 4,1 C 5,3 C 4,8 km/h (1 Bft) 100,00 %
09.04.2018 05:44 5,3 C 8,9 C 92 % 1005,5 hPa 0,0 l/m 3,4 km/h (1 Bft) SW 219 0 min 0,000 mm 0,0 UV-I 0 W/m 4,1 C 5,3 C 4,8 km/h (1 Bft) 92,86 %
09.04.2018 05:45 5,3 C 8,9 C 93 % 1005,5 hPa 0,0 l/m 2,1 km/h (1 Bft) SW 219 0 min 0,000 mm 0,0 UV-I 0 W/m 4,3 C 5,3 C 3,2 km/h (1 Bft) 95,83 %
09.04.2018 05:46 5,4 C 8,9 C 93 % 1005,5 hPa 0,0 l/m 1,9 km/h (1 Bft) SW 219 0 min 0,000 mm 0,0 UV-I 0 W/m 4,4 C 5,4 C 3,2 km/h (1 Bft) 95,65 %
09.04.2018 05:47 5,4 C 8,9 C 93 % 1005,5 hPa 0,0 l/m 2,6 km/h (1 Bft) SW 219 0 min 0,000 mm 0,0 UV-I 0 W/m 4,4 C 5,4 C 3,2 km/h (1 Bft) 100,00 %
09.04.2018 05:48 5,6 C 8,9 C 93 % 1005,5 hPa 0,0 l/m 3,7 km/h (1 Bft) SW 219 0 min 0,000 mm 0,0 UV-I 0 W/m 4,6 C 5,6 C 4,8 km/h (1 Bft) 96,15 %
09.04.2018 05:49 5,7 C 8,9 C 93 % 1005,5 hPa 0,0 l/m 4,1 km/h (1 Bft) SW 219 0 min 0,000 mm 0,0 UV-I 0 W/m 4,7 C 5,7 C 4,8 km/h (1 Bft) 96,30 %
09.04.2018 05:50 5,8 C 8,9 C 93 % 1005,5 hPa 0,0 l/m 4,4 km/h (1 Bft) SW 219 0 min 0,000 mm 0,0 UV-I 0 W/m 4,8 C 5,8 C 4,8 km/h (1 Bft) 95,65 %
09.04.2018 05:51 5,9 C 8,9 C 93 % 1005,5 hPa 0,0 l/m 4,6 km/h (1 Bft) SW 219 0 min 0,000 mm 0,0 UV-I 0 W/m 4,9 C 5,9 C 4,8 km/h (1 Bft) 100,00 %
09.04.2018 05:52 5,9 C 8,9 C 92 % 1005,5 hPa 0,0 l/m 3,5 km/h (1 Bft) SW 219 0 min 0,000 mm 0,0 UV-I 0 W/m 4,7 C 5,9 C 4,8 km/h (1 Bft) 93,10 %
09.04.2018 05:53 5,8 C 8,9 C 92 % 1005,5 hPa 0,0 l/m 4,2 km/h (1 Bft) SW 219 0 min 0,000 mm 0,0 UV-I 0 W/m 4,6 C 5,8 C 4,8 km/h (1 Bft) 96,30 %
09.04.2018 05:54 5,8 C 8,9 C 92 % 1005,5 hPa 0,0 l/m 4,8 km/h (1 Bft) SW 219 0 min 0,000 mm 0,0 UV-I 0 W/m 4,6 C 5,8 C 4,8 km/h (1 Bft) 100,00 %
09.04.2018 05:55 5,7 C 8,9 C 91 % 1005,5 hPa 0,0 l/m 4,9 km/h (1 Bft) SW 219 0 min 0,000 mm 0,0 UV-I 0 W/m 4,3 C 5,7 C 6,4 km/h (2 Bft) 95,83 %
09.04.2018 05:56 5,6 C 8,9 C 91 % 1005,5 hPa 0,0 l/m 5,5 km/h (1 Bft) SW 219 0 min 0,000 mm 0,0 UV-I 0 W/m 4,2 C 5,6 C 6,4 km/h (2 Bft) 92,31 %
09.04.2018 05:57 5,6 C 8,9 C 92 % 1005,5 hPa 0,0 l/m 6,3 km/h (2 Bft) SW 219 0 min 0,000 mm 0,0 UV-I 0 W/m 4,4 C 5,6 C 6,4 km/h (2 Bft) 100,00 %
09.04.2018 05:58 5,7 C 8,9 C 93 % 1005,5 hPa 0,0 l/m 5,2 km/h (1 Bft) SW 219 0 min 0,000 mm 0,0 UV-I 0 W/m 4,7 C 5,7 C 6,4 km/h (2 Bft) 96,67 %
09.04.2018 05:59 5,8 C 8,9 C 92 % 1005,5 hPa 0,0 l/m 4,5 km/h (1 Bft) SW 219 0 min 0,000 mm 0,0 UV-I 0 W/m 4,6 C 5,8 C 4,8 km/h (1 Bft) 95,65 %
09.04.2018 06:00 5,8 C 8,9 C 92 % 1005,6 hPa 0,0 l/m 4,6 km/h (1 Bft) SW 219 0 min 0,000 mm 0,0 UV-I 0 W/m 4,6 C 5,8 C 4,8 km/h (1 Bft) 96,30 %
09.04.2018 06:01 5,7 C 8,9 C 92 % 1005,5 hPa 0,0 l/m 4,5 km/h (1 Bft) SW 219 0 min 0,000 mm 0,0 UV-I 0 W/m 4,5 C 5,7 C 4,8 km/h (1 Bft) 98,43 %
09.04.2018 06:02 5,7 C 8,9 C 91 % 1005,5 hPa 0,0 l/m 4,4 km/h (1 Bft) SW 219 0 min 0,000 mm 0,0 UV-I 0 W/m 4,3 C 5,7 C 4,8 km/h (1 Bft) 97,56 %
09.04.2018 06:03 5,6 C 8,9 C 92 % 1005,5 hPa 0,0 l/m 4,3 km/h (1 Bft) SW 219 0 min 0,000 mm 0,0 UV-I 0 W/m 4,4 C 5,6 C 4,8 km/h (1 Bft) 100,00 %
09.04.2018 06:04 5,6 C 8,9 C 92 % 1005,5 hPa 0,0 l/m 3,6 km/h (1 Bft) SW 219 0 min 0,000 mm 0,0 UV-I 0 W/m 4,4 C 5,6 C 4,8 km/h (1 Bft) 95,83 %
09.04.2018 06:05 5,6 C 8,9 C 91 % 1005,5 hPa 0,0 l/m 3,9 km/h (1 Bft) SW 219 0 min 0,000 mm 0,0 UV-I 0 W/m 4,2 C 5,6 C 4,8 km/h (1 Bft) 96,55 %
09.04.2018 06:06 5,5 C 8,9 C 91 % 1005,5 hPa 0,0 l/m 3,6 km/h (1 Bft) SW 219 0 min 0,000 mm 0,0 UV-I 0 W/m 4,2 C 5,5 C 4,8 km/h (1 Bft) 95,83 %
09.04.2018 06:07 5,4 C 8,9 C 92 % 1005,5 hPa 0,0 l/m 3,8 km/h (1 Bft) SW 219 0 min 0,000 mm 0,0 UV-I 0 W/m 4,2 C 5,4 C 4,8 km/h (1 Bft) 92,86 %
09.04.2018 06:08 5,3 C 8,9 C 91 % 1005,5 hPa 0,0 l/m 4,0 km/h (1 Bft) SW 219 0 min 0,000 mm 0,0 UV-I 0 W/m 4,0 C 5,3 C 4,8 km/h (1 Bft) 96,67 %
09.04.2018 06:09 5,3 C 8,9 C 92 % 1005,5 hPa 0,0 l/m 4,6 km/h (1 Bft) SW 219 0 min 0,000 mm 0,0 UV-I 0 W/m 4,1 C 5,3 C 6,4 km/h (2 Bft) 91,30 %
09.04.2018 06:10 5,3 C 8,9 C 92 % 1005,5 hPa 0,0 l/m 3,9 km/h (1 Bft) SW 219 0 min 0,000 mm 0,0 UV-I 0 W/m 4,1 C 5,3 C 4,8 km/h (1 Bft) 100,00 %
09.04.2018 06:11 5,3 C 8,9 C 92 % 1005,5 hPa 0,0 l/m 4,0 km/h (1 Bft) SW 219 0 min 0,000 mm 0,0 UV-I 0 W/m 4,1 C 5,3 C 4,8 km/h (1 Bft) 95,83 %
09.04.2018 06:12 5,3 C 8,9 C 92 % 1005,5 hPa 0,0 l/m 4,0 km/h (1 Bft) SW 219 0 min 0,000 mm 0,0 UV-I 0 W/m 4,1 C 5,3 C 4,8 km/h (1 Bft) 100,00 %
09.04.2018 06:13 5,4 C 8,9 C 92 % 1005,5 hPa 0,0 l/m 3,5 km/h (1 Bft) SW 219 0 min 0,000 mm 0,0 UV-I 0 W/m 4,2 C 5,4 C 4,8 km/h (1 Bft) 91,67 %
09.04.2018 06:14 5,4 C 8,9 C 93 % 1005,5 hPa 0,0 l/m 3,6 km/h (1 Bft) SW 219 0 min 0,000 mm 0,0 UV-I 0 W/m 4,4 C 5,4 C 4,8 km/h (1 Bft) 100,00 %
09.04.2018 06:15 5,5 C 8,9 C 92 % 1005,5 hPa 0,0 l/m 4,3 km/h (1 Bft) SW 219 0 min 0,000 mm 0,0 UV-I 3 W/m 4,3 C 5,5 C 4,8 km/h (1 Bft) 96,67 %
09.04.2018 06:16 5,4 C 8,9 C 92 % 1005,6 hPa 0,0 l/m 5,6 km/h (1 Bft) SW 219 0 min 0,000 mm 0,0 UV-I 5 W/m 4,2 C 5,4 C 6,4 km/h (2 Bft) 96,55 %
09.04.2018 06:17 5,4 C 8,9 C 92 % 1005,6 hPa 0,0 l/m 6,2 km/h (2 Bft) SW 219 0 min 0,000 mm 0,0 UV-I 5 W/m 4,2 C 5,4 C 8,0 km/h (2 Bft) 100,00 %
09.04.2018 06:18 5,3 C 8,9 C 91 % 1005,5 hPa 0,0 l/m 6,4 km/h (2 Bft) SW 219 0 min 0,000 mm 0,0 UV-I 5 W/m 4,0 C 5,3 C 8,0 km/h (2 Bft) 100,00 %
09.04.2018 06:19 5,3 C 8,9 C 92 % 1005,5 hPa 0,0 l/m 6,4 km/h (2 Bft) SW 219 0 min 0,000 mm 0,0 UV-I 5 W/m 4,1 C 5,3 C 8,0 km/h (2 Bft) 100,00 %
09.04.2018 06:20 5,3 C 8,9 C 92 % 1005,5 hPa 0,0 l/m 6,4 km/h (2 Bft) SW 219 0 min 0,000 mm 0,0 UV-I 5 W/m 4,1 C 5,3 C 6,4 km/h (2 Bft) 100,00 %
09.04.2018 06:21 5,3 C 8,9 C 92 % 1005,5 hPa 0,0 l/m 5,8 km/h (2 Bft) SW 219 0 min 0,000 mm 0,0 UV-I 7 W/m 4,1 C 5,3 C 6,4 km/h (2 Bft) 100,00 %
09.04.2018 06:22 5,3 C 8,9 C 92 % 1005,5 hPa 0,0 l/m 6,3 km/h (2 Bft) SW 219 0 min 0,000 mm 0,0 UV-I 7 W/m 4,1 C 5,3 C 6,4 km/h (2 Bft) 100,00 %
09.04.2018 06:23 5,2 C 8,9 C 92 % 1005,5 hPa 0,0 l/m 6,0 km/h (2 Bft) SW 219 0 min 0,000 mm 0,0 UV-I 7 W/m 4,0 C 5,2 C 6,4 km/h (2 Bft) 95,83 %
09.04.2018 06:24 5,3 C 8,9 C 92 % 1005,5 hPa 0,0 l/m 6,8 km/h (2 Bft) SW 218 0 min 0,000 mm 0,0 UV-I 7 W/m 4,1 C 5,0 C 8,0 km/h (2 Bft) 100,00 %
09.04.2018 06:25 5,3 C 8,9 C 93 % 1005,6 hPa 0,0 l/m 6,8 km/h (2 Bft) SW 215 0 min 0,000 mm 0,0 UV-I 7 W/m 4,3 C 5,0 C 8,0 km/h (2 Bft) 100,00 %
09.04.2018 06:26 5,3 C 8,9 C 92 % 1005,6 hPa 0,0 l/m 6,0 km/h (2 Bft) SW 215 0 min 0,000 mm 0,0 UV-I 8 W/m 4,1 C 5,3 C 8,0 km/h (2 Bft) 100,00 %
09.04.2018 06:27 5,2 C 8,9 C 92 % 1005,6 hPa 0,0 l/m 6,5 km/h (2 Bft) SW 215 0 min 0,000 mm 0,0 UV-I 9 W/m 4,0 C 5,1 C 8,0 km/h (2 Bft) 96,30 %
09.04.2018 06:29 5,3 C 8,9 C 93 % 1005,6 hPa 0,0 l/m 6,1 km/h (2 Bft) SW 214 0 min 0,000 mm 0,0 UV-I 10 W/m 4,3 C 5,3 C 6,4 km/h (2 Bft) 98,00 %
09.04.2018 06:30 5,4 C 8,9 C 93 % 1005,6 hPa 0,0 l/m 5,5 km/h (1 Bft) SW 214 0 min 0,000 mm 0,0 UV-I 11 W/m 4,4 C 5,4 C 6,4 km/h (2 Bft) 100,00 %
09.04.2018 06:31 5,3 C 8,9 C 93 % 1005,6 hPa 0,0 l/m 4,9 km/h (1 Bft) SW 214 0 min 0,000 mm 0,0 UV-I 11 W/m 4,3 C 5,3 C 6,4 km/h (2 Bft) 100,00 %
09.04.2018 06:32 5,4 C 8,9 C 93 % 1005,6 hPa 0,0 l/m 4,5 km/h (1 Bft) SW 214 0 min 0,000 mm 0,0 UV-I 12 W/m 4,4 C 5,4 C 4,8 km/h (1 Bft) 100,00 %
09.04.2018 06:33 5,4 C 8,9 C 93 % 1005,6 hPa 0,0 l/m 4,5 km/h (1 Bft) SW 214 0 min 0,000 mm 0,0 UV-I 12 W/m 4,4 C 5,4 C 4,8 km/h (1 Bft) 100,00 %
09.04.2018 06:34 5,6 C 8,9 C 93 % 1005,5 hPa 0,0 l/m 4,8 km/h (1 Bft) SW 214 0 min 0,000 mm 0,0 UV-I 12 W/m 4,6 C 5,6 C 6,4 km/h (2 Bft) 100,00 %
09.04.2018 06:35 5,7 C 8,9 C 93 % 1005,6 hPa 0,0 l/m 5,2 km/h (1 Bft) SW 214 0 min 0,000 mm 0,0 UV-I 14 W/m 4,7 C 5,7 C 6,4 km/h (2 Bft) 100,00 %
09.04.2018 06:36 5,8 C 8,9 C 93 % 1005,5 hPa 0,0 l/m 5,2 km/h (1 Bft) SW 214 0 min 0,000 mm 0,0 UV-I 15 W/m 4,8 C 5,8 C 6,4 km/h (2 Bft) 96,30 %
09.04.2018 06:37 5,8 C 8,9 C 93 % 1005,6 hPa 0,0 l/m 4,8 km/h (1 Bft) SW 214 1 min 0,000 mm 0,0 UV-I 16 W/m 4,8 C 5,8 C 6,4 km/h (2 Bft) 100,00 %
09.04.2018 06:39 5,7 C 8,9 C 92 % 1005,6 hPa 0,0 l/m 4,5 km/h (1 Bft) SW 214 2 min 0,000 mm 0,0 UV-I 17 W/m 4,5 C 5,7 C 4,8 km/h (1 Bft) 98,00 %
09.04.2018 06:40 5,7 C 8,9 C 92 % 1005,6 hPa 0,0 l/m 4,4 km/h (1 Bft) SW 214 1 min 0,000 mm 0,0 UV-I 19 W/m 4,5 C 5,7 C 4,8 km/h (1 Bft) 95,83 %
09.04.2018 06:41 5,7 C 8,9 C 92 % 1005,6 hPa 0,0 l/m 4,3 km/h (1 Bft) SW 214 1 min 0,000 mm 0,0 UV-I 19 W/m 4,5 C 5,7 C 4,8 km/h (1 Bft) 95,65 %
09.04.2018 06:42 5,6 C 8,9 C 92 % 1005,6 hPa 0,0 l/m 5,0 km/h (1 Bft) SW 214 1 min 0,000 mm 0,0 UV-I 21 W/m 4,4 C 5,6 C 6,4 km/h (2 Bft) 95,83 %
09.04.2018 06:43 5,6 C 8,9 C 92 % 1005,6 hPa 0,0 l/m 4,4 km/h (1 Bft) SW 214 1 min 0,000 mm 0,0 UV-I 22 W/m 4,4 C 5,6 C 4,8 km/h (1 Bft) 96,15 %
09.04.2018 06:44 5,7 C 8,9 C 92 % 1005,6 hPa 0,0 l/m 4,1 km/h (1 Bft) SW 214 1 min 0,000 mm 0,0 UV-I 23 W/m 4,5 C 5,7 C 4,8 km/h (1 Bft) 100,00 %
09.04.2018 06:45 5,7 C 8,9 C 92 % 1005,6 hPa 0,0 l/m 3,6 km/h (1 Bft) SW 214 1 min 0,000 mm 0,0 UV-I 25 W/m 4,5 C 5,7 C 4,8 km/h (1 Bft) 95,65 %
09.04.2018 06:46 5,6 C 8,9 C 92 % 1005,6 hPa 0,0 l/m 4,2 km/h (1 Bft) SW 214 1 min 0,000 mm 0,0 UV-I 26 W/m 4,4 C 5,6 C 4,8 km/h (1 Bft) 100,00 %
09.04.2018 06:47 5,6 C 8,9 C 92 % 1005,6 hPa 0,0 l/m 5,0 km/h (1 Bft) SW 214 1 min 0,000 mm 0,0 UV-I 26 W/m 4,4 C 5,6 C 6,4 km/h (2 Bft) 95,65 %
09.04.2018 06:48 5,6 C 8,9 C 92 % 1005,6 hPa 0,0 l/m 6,4 km/h (2 Bft) SW 217 1 min 0,000 mm 0,0 UV-I 29 W/m 4,4 C 5,6 C 8,0 km/h (2 Bft) 100,00 %
09.04.2018 06:49 5,4 C 8,9 C 91 % 1005,6 hPa 0,0 l/m 7,4 km/h (2 Bft) SW 219 1 min 0,000 mm 0,0 UV-I 31 W/m 4,1 C 4,5 C 8,0 km/h (2 Bft) 96,88 %
09.04.2018 06:50 5,3 C 8,9 C 91 % 1005,6 hPa 0,0 l/m 7,5 km/h (2 Bft) SW 220 1 min 0,000 mm 0,0 UV-I 33 W/m 4,0 C 4,3 C 8,0 km/h (2 Bft) 100,00 %
09.04.2018 06:51 5,2 C 8,9 C 91 % 1005,7 hPa 0,0 l/m 7,6 km/h (2 Bft) SW 220 1 min 0,000 mm 0,0 UV-I 33 W/m 3,9 C 4,1 C 8,0 km/h (2 Bft) 91,67 %
09.04.2018 06:52 5,1 C 8,9 C 92 % 1005,7 hPa 0,0 l/m 7,6 km/h (2 Bft) SW 220 1 min 0,000 mm 0,0 UV-I 35 W/m 3,9 C 4,0 C 8,0 km/h (2 Bft) 95,65 %
09.04.2018 06:53 5,2 C 8,9 C 92 % 1005,7 hPa 0,0 l/m 7,8 km/h (2 Bft) SW 220 1 min 0,000 mm 0,0 UV-I 37 W/m 4,0 C 4,0 C 8,0 km/h (2 Bft) 95,83 %
09.04.2018 06:54 5,2 C 8,9 C 93 % 1005,7 hPa 0,0 l/m 6,9 km/h (2 Bft) SW 219 1 min 0,000 mm 0,0 UV-I 39 W/m 4,2 C 4,8 C 8,0 km/h (2 Bft) 100,00 %
09.04.2018 06:55 5,3 C 8,9 C 93 % 1005,7 hPa 0,0 l/m 7,5 km/h (2 Bft) SW 219 1 min 0,000 mm 0,0 UV-I 41 W/m 4,3 C 4,3 C 8,0 km/h (2 Bft) 93,33 %
09.04.2018 06:56 5,4 C 8,9 C 93 % 1005,7 hPa 0,0 l/m 7,3 km/h (2 Bft) SW 214 1 min 0,000 mm 0,0 UV-I 43 W/m 4,4 C 4,6 C 8,0 km/h (2 Bft) 96,55 %
09.04.2018 06:57 5,5 C 8,9 C 93 % 1005,7 hPa 0,0 l/m 7,1 km/h (2 Bft) SW 214 1 min 0,000 mm 0,0 UV-I 46 W/m 4,5 C 4,9 C 8,0 km/h (2 Bft) 100,00 %
09.04.2018 06:58 5,6 C 8,9 C 93 % 1005,7 hPa 0,0 l/m 6,4 km/h (2 Bft) SW 214 1 min 0,000 mm 0,0 UV-I 47 W/m 4,6 C 5,6 C 8,0 km/h (2 Bft) 95,65 %
09.04.2018 06:59 5,6 C 8,9 C 92 % 1005,7 hPa 0,0 l/m 4,3 km/h (1 Bft) S-SW 211 1 min 0,000 mm 0,0 UV-I 50 W/m 4,4 C 5,6 C 4,8 km/h (1 Bft) 100,00 %
09.04.2018 07:00 5,6 C 8,9 C 92 % 1005,7 hPa 0,0 l/m 3,7 km/h (1 Bft) S-SW 211 1 min 0,000 mm 0,0 UV-I 52 W/m 4,4 C 5,6 C 4,8 km/h (1 Bft) 95,65 %
09.04.2018 07:01 5,4 C 8,9 C 92 % 1005,7 hPa 0,0 l/m 3,9 km/h (1 Bft) S-SW 211 1 min 0,000 mm 0,0 UV-I 54 W/m 4,2 C 5,4 C 4,8 km/h (1 Bft) 100,00 %
09.04.2018 07:02 5,4 C 8,9 C 92 % 1005,7 hPa 0,0 l/m 5,3 km/h (1 Bft) S-SW 211 1 min 0,000 mm 0,0 UV-I 56 W/m 4,2 C 5,4 C 6,4 km/h (2 Bft) 96,15 %
09.04.2018 07:03 5,4 C 8,9 C 92 % 1005,7 hPa 0,0 l/m 5,6 km/h (1 Bft) S-SW 211 1 min 0,000 mm 0,0 UV-I 58 W/m 4,2 C 5,4 C 6,4 km/h (2 Bft) 100,00 %
09.04.2018 07:04 5,6 C 8,9 C 93 % 1005,7 hPa 0,0 l/m 6,2 km/h (2 Bft) SW 215 1 min 0,000 mm 0,0 UV-I 62 W/m 4,6 C 5,6 C 8,0 km/h (2 Bft) 96,15 %
09.04.2018 07:05 5,7 C 8,9 C 93 % 1005,7 hPa 0,0 l/m 6,4 km/h (2 Bft) SW 215 1 min 0,000 mm 0,0 UV-I 63 W/m 4,7 C 5,7 C 8,0 km/h (2 Bft) 92,59 %
09.04.2018 07:06 5,9 C 8,9 C 93 % 1005,7 hPa 0,0 l/m 6,6 km/h (2 Bft) SW 215 1 min 0,000 mm 0,0 UV-I 65 W/m 4,9 C 5,8 C 8,0 km/h (2 Bft) 100,00 %
09.04.2018 07:07 6,1 C 8,9 C 92 % 1005,7 hPa 0,0 l/m 4,2 km/h (1 Bft) SW 215 1 min 0,000 mm 0,0 UV-I 68 W/m 4,9 C 6,1 C 4,8 km/h (1 Bft) 95,83 %
09.04.2018 07:08 6,2 C 8,9 C 92 % 1005,8 hPa 0,0 l/m 4,7 km/h (1 Bft) SW 215 1 min 0,000 mm 0,0 UV-I 71 W/m 5,0 C 6,2 C 4,8 km/h (1 Bft) 100,00 %
09.04.2018 07:09 6,2 C 8,9 C 91 % 1005,8 hPa 0,0 l/m 5,1 km/h (1 Bft) SW 215 1 min 0,000 mm 0,0 UV-I 74 W/m 4,8 C 6,2 C 6,4 km/h (2 Bft) 91,67 %
09.04.2018 07:10 6,3 C 8,9 C 91 % 1005,8 hPa 0,0 l/m 5,7 km/h (1 Bft) SW 215 1 min 0,000 mm 0,0 UV-I 76 W/m 4,9 C 6,3 C 6,4 km/h (2 Bft) 96,30 %
09.04.2018 07:11 6,3 C 8,9 C 91 % 1005,7 hPa 0,0 l/m 4,5 km/h (1 Bft) SW 215 1 min 0,000 mm 0,0 UV-I 80 W/m 4,9 C 6,3 C 4,8 km/h (1 Bft) 95,65 %
09.04.2018 07:12 6,3 C 8,9 C 91 % 1005,7 hPa 0,0 l/m 4,7 km/h (1 Bft) SW 215 1 min 0,000 mm 0,0 UV-I 83 W/m 4,9 C 6,3 C 6,4 km/h (2 Bft) 100,00 %
09.04.2018 07:13 6,2 C 8,9 C 91 % 1005,7 hPa 0,0 l/m 5,2 km/h (1 Bft) SW 215 1 min 0,000 mm 0,0 UV-I 85 W/m 4,8 C 6,2 C 6,4 km/h (2 Bft) 91,30 %
09.04.2018 07:14 6,3 C 8,9 C 91 % 1005,6 hPa 0,0 l/m 3,4 km/h (1 Bft) SW 215 1 min 0,000 mm 0,0 UV-I 87 W/m 4,9 C 6,3 C 4,8 km/h (1 Bft) 100,00 %
09.04.2018 07:15 6,3 C 8,9 C 91 % 1005,6 hPa 0,0 l/m 2,5 km/h (1 Bft) SW 215 1 min 0,000 mm 0,0 UV-I 90 W/m 4,9 C 6,3 C 3,2 km/h (1 Bft) 96,55 %
09.04.2018 07:16 6,3 C 8,9 C 90 % 1005,6 hPa 0,0 l/m 2,3 km/h (1 Bft) SW 215 1 min 0,000 mm 0,0 UV-I 94 W/m 4,8 C 6,3 C 3,2 km/h (1 Bft) 95,83 %
09.04.2018 07:17 6,3 C 8,9 C 90 % 1005,6 hPa 0,0 l/m 3,2 km/h (1 Bft) SW 215 1 min 0,000 mm 0,0 UV-I 98 W/m 4,8 C 6,3 C 3,2 km/h (1 Bft) 100,00 %
09.04.2018 07:18 6,3 C 8,9 C 90 % 1005,5 hPa 0,0 l/m 2,7 km/h (1 Bft) SW 215 1 min 0,000 mm 0,0 UV-I 101 W/m 4,8 C 6,3 C 3,2 km/h (1 Bft) 95,83 %
09.04.2018 07:19 6,4 C 8,9 C 91 % 1005,6 hPa 0,0 l/m 2,2 km/h (1 Bft) SW 215 1 min 0,000 mm 0,0 UV-I 104 W/m 5,0 C 6,4 C 3,2 km/h (1 Bft) 100,00 %
09.04.2018 07:20 6,4 C 8,9 C 90 % 1005,6 hPa 0,0 l/m 0,5 km/h (0 Bft) SW 215 1 min 0,000 mm 0,0 UV-I 106 W/m 4,9 C 6,4 C 1,6 km/h (1 Bft) 95,83 %
09.04.2018 07:21 6,4 C 8,9 C 90 % 1005,6 hPa 0,0 l/m 1,9 km/h (1 Bft) SW 215 1 min 0,000 mm 0,0 UV-I 111 W/m 4,9 C 6,4 C 3,2 km/h (1 Bft) 95,65 %
09.04.2018 07:22 6,6 C 8,9 C 90 % 1005,6 hPa 0,0 l/m 3,2 km/h (1 Bft) SW 215 1 min 0,000 mm 0,0 UV-I 114 W/m 5,1 C 6,6 C 4,8 km/h (1 Bft) 93,33 %
09.04.2018 07:23 6,6 C 8,9 C 90 % 1005,6 hPa 0,0 l/m 2,7 km/h (1 Bft) SW 215 1 min 0,000 mm 0,0 UV-I 117 W/m 5,1 C 6,6 C 3,2 km/h (1 Bft) 100,00 %
09.04.2018 07:24 6,7 C 8,9 C 90 % 1005,7 hPa 0,0 l/m 3,6 km/h (1 Bft) SW 215 1 min 0,000 mm 0,0 UV-I 120 W/m 5,2 C 6,7 C 4,8 km/h (1 Bft) 95,83 %
09.04.2018 07:25 6,7 C 8,9 C 90 % 1005,7 hPa 0,0 l/m 3,9 km/h (1 Bft) SW 215 1 min 0,000 mm 0,0 UV-I 124 W/m 5,2 C 6,7 C 4,8 km/h (1 Bft) 100,00 %
09.04.2018 07:26 6,8 C 8,9 C 90 % 1005,7 hPa 0,0 l/m 4,4 km/h (1 Bft) SW 215 1 min 0,000 mm 0,0 UV-I 126 W/m 5,3 C 6,8 C 6,4 km/h (2 Bft) 95,83 %
09.04.2018 07:27 6,8 C 8,9 C 90 % 1005,7 hPa 0,0 l/m 3,6 km/h (1 Bft) SW 215 1 min 0,000 mm 0,0 UV-I 130 W/m 5,3 C 6,8 C 4,8 km/h (1 Bft) 100,00 %
09.04.2018 07:28 6,7 C 8,9 C 89 % 1005,7 hPa 0,0 l/m 3,2 km/h (1 Bft) SW 215 1 min 0,000 mm 0,0 UV-I 134 W/m 5,0 C 6,7 C 4,8 km/h (1 Bft) 95,83 %
09.04.2018 07:29 6,7 C 8,9 C 90 % 1005,7 hPa 0,0 l/m 4,9 km/h (1 Bft) SW 215 1 min 0,000 mm 0,0 UV-I 137 W/m 5,2 C 6,7 C 6,4 km/h (2 Bft) 100,00 %
09.04.2018 07:30 6,6 C 8,9 C 89 % 1005,7 hPa 0,0 l/m 5,5 km/h (1 Bft) SW 215 1 min 0,000 mm 0,0 UV-I 140 W/m 4,9 C 6,6 C 6,4 km/h (2 Bft) 96,55 %
09.04.2018 07:31 6,6 C 8,9 C 89 % 1005,8 hPa 0,0 l/m 5,1 km/h (1 Bft) SW 215 1 min 0,000 mm 0,0 UV-I 143 W/m 4,9 C 6,6 C 6,4 km/h (2 Bft) 100,00 %
09.04.2018 07:32 6,6 C 8,9 C 90 % 1005,8 hPa 0,0 l/m 4,2 km/h (1 Bft) SW 215 1 min 0,000 mm 0,0 UV-I 145 W/m 5,1 C 6,6 C 4,8 km/h (1 Bft) 96,55 %
09.04.2018 07:33 6,6 C 8,9 C 90 % 1005,7 hPa 0,0 l/m 4,8 km/h (1 Bft) SW 215 1 min 0,000 mm 0,0 UV-I 149 W/m 5,1 C 6,6 C 4,8 km/h (1 Bft) 96,30 %
09.04.2018 07:34 6,6 C 8,9 C 89 % 1005,8 hPa 0,0 l/m 5,3 km/h (1 Bft) SW 215 1 min 0,000 mm 0,0 UV-I 153 W/m 4,9 C 6,6 C 6,4 km/h (2 Bft) 100,00 %
09.04.2018 07:35 6,7 C 8,9 C 89 % 1005,8 hPa 0,0 l/m 5,4 km/h (1 Bft) S 189 1 min 0,000 mm 0,0 UV-I 156 W/m 5,0 C 6,7 C 6,4 km/h (2 Bft) 91,67 %
09.04.2018 07:36 6,8 C 8,9 C 89 % 1005,8 hPa 0,0 l/m 5,4 km/h (1 Bft) S 189 1 min 0,000 mm 0,0 UV-I 160 W/m 5,1 C 6,8 C 6,4 km/h (2 Bft) 100,00 %
09.04.2018 07:37 7,0 C 8,9 C 89 % 1005,8 hPa 0,0 l/m 4,6 km/h (1 Bft) S-SO 161 1 min 0,000 mm 0,0 UV-I 164 W/m 5,3 C 7,0 C 6,4 km/h (2 Bft) 95,83 %
09.04.2018 07:38 7,2 C 8,9 C 89 % 1005,8 hPa 0,0 l/m 3,6 km/h (1 Bft) S 176 1 min 0,000 mm 0,0 UV-I 168 W/m 5,5 C 7,2 C 6,4 km/h (2 Bft) 100,00 %
09.04.2018 07:39 7,3 C 8,9 C 89 % 1005,7 hPa 0,0 l/m 3,3 km/h (1 Bft) S 177 1 min 0,000 mm 0,0 UV-I 172 W/m 5,6 C 7,3 C 4,8 km/h (1 Bft) 96,30 %
09.04.2018 07:40 7,3 C 8,9 C 89 % 1005,7 hPa 0,0 l/m 3,4 km/h (1 Bft) S 177 1 min 0,000 mm 0,0 UV-I 177 W/m 5,6 C 7,3 C 4,8 km/h (1 Bft) 95,65 %
09.04.2018 07:41 7,4 C 8,9 C 87 % 1005,7 hPa 0,0 l/m 3,4 km/h (1 Bft) S 177 1 min 0,000 mm 0,0 UV-I 180 W/m 5,4 C 7,4 C 4,8 km/h (1 Bft) 100,00 %
09.04.2018 07:42 7,4 C 8,9 C 86 % 1005,7 hPa 0,0 l/m 2,5 km/h (1 Bft) S 177 1 min 0,000 mm 0,0 UV-I 183 W/m 5,2 C 7,4 C 3,2 km/h (1 Bft) 100,00 %
09.04.2018 07:43 7,6 C 8,9 C 84 % 1005,7 hPa 0,0 l/m 1,8 km/h (1 Bft) S 177 1 min 0,000 mm 0,0 UV-I 186 W/m 5,1 C 7,6 C 3,2 km/h (1 Bft) 92,59 %
09.04.2018 07:44 7,7 C 8,9 C 83 % 1005,7 hPa 0,0 l/m 0,5 km/h (0 Bft) S 177 1 min 0,000 mm 0,0 UV-I 191 W/m 5,0 C 7,7 C 1,6 km/h (1 Bft) 100,00 %
09.04.2018 07:45 7,8 C 8,9 C 83 % 1005,7 hPa 0,0 l/m 0,1 km/h (0 Bft) S 177 1 min 0,000 mm 0,0 UV-I 195 W/m 5,1 C 7,8 C 1,6 km/h (1 Bft) 100,00 %
09.04.2018 07:46 7,9 C 8,9 C 82 % 1005,8 hPa 0,0 l/m 2,4 km/h (1 Bft) S 178 1 min 0,000 mm 0,0 UV-I 198 W/m 5,0 C 7,9 C 4,8 km/h (1 Bft) 100,00 %
09.04.2018 07:47 8,1 C 8,9 C 81 % 1005,8 hPa 0,0 l/m 4,6 km/h (1 Bft) S-SW 208 1 min 0,000 mm 0,0 UV-I 201 W/m 5,0 C 8,1 C 6,4 km/h (2 Bft) 100,00 %
09.04.2018 07:48 8,1 C 8,9 C 81 % 1005,8 hPa 0,0 l/m 5,2 km/h (1 Bft) S-SW 208 1 min 0,000 mm 0,0 UV-I 205 W/m 5,0 C 8,1 C 6,4 km/h (2 Bft) 100,00 %
09.04.2018 07:49 8,2 C 8,9 C 82 % 1005,8 hPa 0,0 l/m 4,5 km/h (1 Bft) S-SW 208 1 min 0,000 mm 0,0 UV-I 209 W/m 5,3 C 8,2 C 4,8 km/h (1 Bft) 100,00 %
09.04.2018 07:50 8,2 C 8,9 C 81 % 1005,8 hPa 0,0 l/m 2,7 km/h (1 Bft) S-SW 208 1 min 0,000 mm 0,0 UV-I 211 W/m 5,1 C 8,2 C 4,8 km/h (1 Bft) 100,00 %
09.04.2018 07:51 8,2 C 8,9 C 81 % 1005,8 hPa 0,0 l/m 0,6 km/h (0 Bft) S-SW 208 1 min 0,000 mm 0,0 UV-I 214 W/m 5,1 C 8,2 C 1,6 km/h (1 Bft) 96,30 %
09.04.2018 07:52 8,3 C 8,9 C 80 % 1005,8 hPa 0,0 l/m 0,2 km/h (0 Bft) S-SW 208 1 min 0,000 mm 0,0 UV-I 217 W/m 5,1 C 8,3 C 1,6 km/h (1 Bft) 93,33 %
09.04.2018 07:53 8,4 C 8,9 C 80 % 1005,8 hPa 0,0 l/m 0,0 km/h (0 Bft) S-SW 208 1 min 0,000 mm 0,0 UV-I 220 W/m 5,2 C 8,4 C 0,0 km/h (0 Bft) 100,00 %
09.04.2018 07:54 8,6 C 8,9 C 80 % 1005,8 hPa 0,0 l/m 0,0 km/h (0 Bft) S-SW 208 1 min 0,000 mm 0,0 UV-I 218 W/m 5,3 C 8,6 C 0,0 km/h (0 Bft) 100,00 %
09.04.2018 07:55 8,7 C 8,9 C 80 % 1005,8 hPa 0,0 l/m 0,0 km/h (0 Bft) S-SW 208 1 min 0,000 mm 0,0 UV-I 224 W/m 5,4 C 8,7 C 0,0 km/h (0 Bft) 100,00 %
09.04.2018 07:56 8,8 C 8,9 C 79 % 1005,7 hPa 0,0 l/m 0,0 km/h (0 Bft) S-SW 208 1 min 0,000 mm 0,0 UV-I 231 W/m 5,4 C 8,8 C 0,0 km/h (0 Bft) 100,00 %
09.04.2018 07:57 8,8 C 8,9 C 78 % 1005,7 hPa 0,0 l/m 0,4 km/h (0 Bft) S-SW 208 1 min 0,000 mm 0,0 UV-I 226 W/m 5,2 C 8,8 C 1,6 km/h (1 Bft) 100,00 %
09.04.2018 07:58 8,9 C 8,9 C 79 % 1005,8 hPa 0,0 l/m 0,0 km/h (0 Bft) S-SW 208 1 min 0,000 mm 0,0 UV-I 232 W/m 5,5 C 8,9 C 0,0 km/h (0 Bft) 100,00 %
09.04.2018 07:59 9,1 C 8,9 C 79 % 1005,8 hPa 0,0 l/m 0,0 km/h (0 Bft) S-SW 208 1 min 0,000 mm 0,0 UV-I 240 W/m 5,7 C 9,1 C 0,0 km/h (0 Bft) 100,00 %
09.04.2018 08:00 9,2 C 8,9 C 79 % 1005,8 hPa 0,0 l/m 0,5 km/h (0 Bft) S-SW 208 1 min 0,000 mm 0,0 UV-I 241 W/m 5,8 C 9,2 C 3,2 km/h (1 Bft) 100,00 %
09.04.2018 08:01 9,2 C 8,9 C 78 % 1005,8 hPa 0,0 l/m 3,9 km/h (1 Bft) S-SW 208 1 min 0,076 mm 0,0 UV-I 219 W/m 5,6 C 9,2 C 4,8 km/h (1 Bft) 100,00 %
09.04.2018 08:02 9,2 C 8,9 C 77 % 1005,8 hPa 0,0 l/m 3,8 km/h (1 Bft) S-SW 208 1 min 0,000 mm 0,0 UV-I 205 W/m 5,4 C 9,2 C 6,4 km/h (2 Bft) 100,00 %
09.04.2018 08:03 9,2 C 8,9 C 77 % 1005,8 hPa 0,0 l/m 3,8 km/h (1 Bft) S-SW 208 1 min 0,000 mm 0,0 UV-I 204 W/m 5,4 C 9,2 C 4,8 km/h (1 Bft) 93,33 %
09.04.2018 08:04 9,2 C 8,9 C 76 % 1005,8 hPa 0,0 l/m 3,6 km/h (1 Bft) S-SW 208 1 min 0,000 mm 0,0 UV-I 210 W/m 5,2 C 9,2 C 4,8 km/h (1 Bft) 100,00 %
09.04.2018 08:05 9,1 C 8,9 C 78 % 1005,7 hPa 0,0 l/m 4,2 km/h (1 Bft) S-SW 208 1 min 0,000 mm 0,0 UV-I 236 W/m 5,5 C 9,1 C 4,8 km/h (1 Bft) 100,00 %
09.04.2018 08:06 9,1 C 8,9 C 78 % 1005,8 hPa 0,0 l/m 4,1 km/h (1 Bft) S-SW 208 1 min 0,000 mm 0,0 UV-I 252 W/m 5,5 C 9,1 C 4,8 km/h (1 Bft) 100,00 %
09.04.2018 08:07 9,0 C 8,9 C 77 % 1005,8 hPa 0,0 l/m 4,3 km/h (1 Bft) S-SW 208 1 min 0,000 mm 0,0 UV-I 252 W/m 5,2 C 9,0 C 4,8 km/h (1 Bft) 100,00 %
09.04.2018 08:08 8,9 C 8,9 C 77 % 1005,7 hPa 0,0 l/m 4,1 km/h (1 Bft) S-SW 208 1 min 0,000 mm 0,0 UV-I 271 W/m 5,1 C 8,9 C 4,8 km/h (1 Bft) 100,00 %
09.04.2018 08:09 8,9 C 8,9 C 78 % 1005,7 hPa 0,0 l/m 2,7 km/h (1 Bft) S-SW 208 1 min 0,000 mm 0,0 UV-I 284 W/m 5,3 C 8,9 C 4,8 km/h (1 Bft) 95,83 %
09.04.2018 08:10 9,0 C 8,9 C 79 % 1005,8 hPa 0,0 l/m 2,9 km/h (1 Bft) S-SW 208 1 min 0,000 mm 0,0 UV-I 281 W/m 5,6 C 9,0 C 4,8 km/h (1 Bft) 100,00 %
09.04.2018 08:11 9,0 C 8,9 C 80 % 1005,7 hPa 0,0 l/m 3,1 km/h (1 Bft) S-SW 208 1 min 0,000 mm 0,0 UV-I 270 W/m 5,7 C 9,0 C 4,8 km/h (1 Bft) 95,83 %
09.04.2018 08:12 9,0 C 8,9 C 80 % 1005,7 hPa 0,0 l/m 3,2 km/h (1 Bft) S-SW 208 1 min 0,000 mm 0,0 UV-I 277 W/m 5,7 C 9,0 C 4,8 km/h (1 Bft) 100,00 %
09.04.2018 08:13 9,1 C 8,9 C 81 % 1005,7 hPa 0,0 l/m 2,2 km/h (1 Bft) S-SW 208 1 min 0,000 mm 0,0 UV-I 243 W/m 6,0 C 9,1 C 3,2 km/h (1 Bft) 95,83 %
09.04.2018 08:14 9,2 C 8,9 C 82 % 1005,7 hPa 0,0 l/m 1,4 km/h (1 Bft) S-SW 208 1 min 0,000 mm 0,0 UV-I 218 W/m 6,3 C 9,2 C 3,2 km/h (1 Bft) 96,55 %
09.04.2018 08:15 9,3 C 8,9 C 80 % 1005,7 hPa 0,0 l/m 3,0 km/h (1 Bft) S-SW 208 1 min 0,000 mm 0,0 UV-I 228 W/m 6,0 C 9,3 C 4,8 km/h (1 Bft) 100,00 %
09.04.2018 08:16 9,4 C 8,9 C 77 % 1005,7 hPa 0,0 l/m 1,6 km/h (1 Bft) S-SW 208 1 min 0,000 mm 0,0 UV-I 243 W/m 5,6 C 9,4 C 3,2 km/h (1 Bft) 93,10 %
09.04.2018 08:17 9,6 C 8,9 C 77 % 1005,7 hPa 0,0 l/m 0,0 km/h (0 Bft) S-SW 208 1 min 0,000 mm 0,0 UV-I 252 W/m 5,8 C 9,6 C 0,0 km/h (0 Bft) 100,00 %
09.04.2018 08:18 9,7 C 8,9 C 76 % 1005,7 hPa 0,0 l/m 0,0 km/h (0 Bft) S-SW 208 1 min 0,000 mm 0,0 UV-I 259 W/m 5,7 C 9,7 C 0,0 km/h (0 Bft) 95,65 %
09.04.2018 08:19 9,7 C 8,9 C 75 % 1005,6 hPa 0,0 l/m 0,0 km/h (0 Bft) S-SW 208 1 min 0,000 mm 0,0 UV-I 267 W/m 5,5 C 9,7 C 0,0 km/h (0 Bft) 95,83 %
09.04.2018 08:20 9,7 C 8,9 C 75 % 1005,6 hPa 0,0 l/m 0,0 km/h (0 Bft) S-SW 208 1 min 0,000 mm 0,0 UV-I 290 W/m 5,5 C 9,7 C 0,0 km/h (0 Bft) 96,15 %
09.04.2018 08:21 9,7 C 8,9 C 74 % 1005,6 hPa 0,0 l/m 0,0 km/h (0 Bft) S-SW 208 1 min 0,000 mm 0,0 UV-I 322 W/m 5,3 C 9,7 C 0,0 km/h (0 Bft) 100,00 %
09.04.2018 08:22 9,8 C 8,9 C 74 % 1005,6 hPa 0,0 l/m 0,0 km/h (0 Bft) S-SW 208 1 min 0,000 mm 0,0 UV-I 320 W/m 5,4 C 9,8 C 0,0 km/h (0 Bft) 95,65 %
09.04.2018 08:23 9,9 C 8,9 C 73 % 1005,6 hPa 0,0 l/m 0,0 km/h (0 Bft) S-SW 208 1 min 0,000 mm 0,2 UV-I 321 W/m 5,3 C 9,9 C 0,0 km/h (0 Bft) 91,67 %
09.04.2018 08:24 10,1 C 8,9 C 73 % 1005,6 hPa 0,0 l/m 0,3 km/h (0 Bft) S-SW 208 1 min 0,000 mm 0,5 UV-I 323 W/m 5,5 C 10,1 C 1,6 km/h (1 Bft) 100,00 %
09.04.2018 08:25 10,2 C 8,9 C 74 % 1005,6 hPa 0,0 l/m 0,3 km/h (0 Bft) S-SW 208 1 min 0,000 mm 0,5 UV-I 328 W/m 5,8 C 10,2 C 1,6 km/h (1 Bft) 100,00 %
09.04.2018 08:26 10,4 C 8,9 C 73 % 1005,6 hPa 0,0 l/m 1,1 km/h (1 Bft) S-SW 208 1 min 0,000 mm 0,5 UV-I 334 W/m 5,8 C 10,4 C 3,2 km/h (1 Bft) 95,83 %
09.04.2018 08:27 10,7 C 8,9 C 73 % 1005,6 hPa 0,0 l/m 1,7 km/h (1 Bft) S-SW 208 1 min 0,000 mm 0,5 UV-I 332 W/m 6,1 C 10,7 C 3,2 km/h (1 Bft) 92,31 %
09.04.2018 08:28 10,9 C 8,9 C 74 % 1005,6 hPa 0,0 l/m 0,8 km/h (0 Bft) S-SW 208 1 min 0,000 mm 0,5 UV-I 292 W/m 6,5 C 10,9 C 1,6 km/h (1 Bft) 95,83 %
09.04.2018 08:29 11,1 C 8,9 C 70 % 1005,6 hPa 0,0 l/m 2,3 km/h (1 Bft) S-SW 208 1 min 0,000 mm 0,3 UV-I 232 W/m 5,8 C 11,1 C 3,2 km/h (1 Bft) 96,15 %
09.04.2018 08:30 11,2 C 8,9 C 70 % 1005,6 hPa 0,0 l/m 1,4 km/h (1 Bft) S-SW 208 1 min 0,000 mm 0,0 UV-I 214 W/m 5,9 C 11,2 C 3,2 km/h (1 Bft) 100,00 %
09.04.2018 08:31 11,3 C 8,9 C 70 % 1005,6 hPa 0,0 l/m 1,4 km/h (1 Bft) S-SW 208 1 min 0,000 mm 0,0 UV-I 203 W/m 6,0 C 11,3 C 3,2 km/h (1 Bft) 94,12 %
09.04.2018 08:32 11,3 C 8,9 C 71 % 1005,5 hPa 0,0 l/m 3,4 km/h (1 Bft) O-SO 109 1 min 0,000 mm 0,4 UV-I 200 W/m 6,2 C 11,3 C 4,8 km/h (1 Bft) 100,00 %
09.04.2018 08:33 11,2 C 8,9 C 71 % 1005,5 hPa 0,0 l/m 3,3 km/h (1 Bft) O-SO 109 1 min 0,000 mm 0,5 UV-I 202 W/m 6,1 C 11,2 C 4,8 km/h (1 Bft) 95,65 %
09.04.2018 08:34 11,2 C 8,9 C 71 % 1005,6 hPa 0,0 l/m 3,1 km/h (1 Bft) O-SO 109 1 min 0,000 mm 0,5 UV-I 212 W/m 6,1 C 11,2 C 4,8 km/h (1 Bft) 95,83 %
09.04.2018 08:35 11,1 C 8,9 C 72 % 1005,6 hPa 0,0 l/m 3,2 km/h (1 Bft) O-SO 109 1 min 0,000 mm 0,5 UV-I 247 W/m 6,2 C 11,1 C 4,8 km/h (1 Bft) 100,00 %
09.04.2018 08:36 11,1 C 8,9 C 71 % 1005,6 hPa 0,0 l/m 1,2 km/h (1 Bft) O-SO 109 1 min 0,000 mm 0,5 UV-I 322 W/m 6,0 C 11,1 C 3,2 km/h (1 Bft) 96,67 %
09.04.2018 08:37 11,1 C 8,9 C 72 % 1005,6 hPa 0,0 l/m 0,0 km/h (0 Bft) O-SO 109 1 min 0,000 mm 0,5 UV-I 350 W/m 6,2 C 11,1 C 0,0 km/h (0 Bft) 100,00 %
09.04.2018 08:38 11,2 C 8,9 C 72 % 1005,6 hPa 0,0 l/m 0,0 km/h (0 Bft) O-SO 109 1 min 0,000 mm 0,6 UV-I 354 W/m 6,3 C 11,2 C 0,0 km/h (0 Bft) 95,83 %
09.04.2018 08:39 11,3 C 8,9 C 72 % 1005,6 hPa 0,0 l/m 1,1 km/h (1 Bft) O-SO 109 1 min 0,000 mm 0,6 UV-I 359 W/m 6,4 C 11,3 C 1,6 km/h (1 Bft) 100,00 %
09.04.2018 08:40 11,4 C 8,9 C 70 % 1005,6 hPa 0,0 l/m 2,2 km/h (1 Bft) O-SO 109 1 min 0,000 mm 0,6 UV-I 333 W/m 6,1 C 11,4 C 3,2 km/h (1 Bft) 96,30 %
09.04.2018 08:41 11,5 C 8,9 C 71 % 1005,6 hPa 0,0 l/m 2,8 km/h (1 Bft) O-SO 109 1 min 0,000 mm 0,6 UV-I 295 W/m 6,4 C 11,5 C 3,2 km/h (1 Bft) 96,15 %
09.04.2018 08:42 11,5 C 8,9 C 70 % 1005,6 hPa 0,0 l/m 2,4 km/h (1 Bft) O-SO 109 1 min 0,000 mm 0,5 UV-I 257 W/m 6,2 C 11,5 C 3,2 km/h (1 Bft) 100,00 %
09.04.2018 08:43 11,4 C 8,9 C 69 % 1005,6 hPa 0,0 l/m 0,7 km/h (0 Bft) O-SO 109 1 min 0,000 mm 0,6 UV-I 271 W/m 5,9 C 11,4 C 1,6 km/h (1 Bft) 100,00 %
09.04.2018 08:44 11,4 C 8,9 C 69 % 1005,6 hPa 0,0 l/m 1,3 km/h (1 Bft) O-SO 109 1 min 0,000 mm 0,5 UV-I 240 W/m 5,9 C 11,4 C 3,2 km/h (1 Bft) 100,00 %
09.04.2018 08:45 11,4 C 8,9 C 69 % 1005,6 hPa 0,0 l/m 1,5 km/h (1 Bft) O-SO 109 1 min 0,000 mm 0,5 UV-I 225 W/m 5,9 C 11,4 C 3,2 km/h (1 Bft) 91,67 %
09.04.2018 08:46 11,5 C 8,9 C 69 % 1005,5 hPa 0,0 l/m 1,1 km/h (1 Bft) O-SO 109 1 min 0,000 mm 0,5 UV-I 222 W/m 6,0 C 11,5 C 1,6 km/h (1 Bft) 96,55 %
09.04.2018 08:47 11,6 C 8,9 C 69 % 1005,5 hPa 0,0 l/m 1,3 km/h (1 Bft) O-SO 109 1 min 0,000 mm 0,6 UV-I 222 W/m 6,1 C 11,6 C 1,6 km/h (1 Bft) 100,00 %
09.04.2018 08:48 11,6 C 8,9 C 70 % 1005,5 hPa 0,0 l/m 2,6 km/h (1 Bft) O-SO 109 1 min 0,000 mm 0,6 UV-I 236 W/m 6,3 C 11,6 C 3,2 km/h (1 Bft) 100,00 %
09.04.2018 08:49 11,6 C 8,9 C 70 % 1005,5 hPa 0,0 l/m 3,7 km/h (1 Bft) O-SO 109 1 min 0,000 mm 0,6 UV-I 241 W/m 6,3 C 11,6 C 4,8 km/h (1 Bft) 100,00 %
09.04.2018 08:50 11,6 C 8,9 C 70 % 1005,5 hPa 0,0 l/m 4,1 km/h (1 Bft) O-SO 109 1 min 0,000 mm 0,6 UV-I 249 W/m 6,3 C 11,6 C 4,8 km/h (1 Bft) 100,00 %
09.04.2018 08:51 11,6 C 8,9 C 70 % 1005,5 hPa 0,0 l/m 3,8 km/h (1 Bft) O-SO 108 1 min 0,000 mm 0,6 UV-I 277 W/m 6,3 C 11,6 C 4,8 km/h (1 Bft) 96,67 %
09.04.2018 08:53 11,6 C 8,9 C 71 % 1005,5 hPa 0,0 l/m 3,0 km/h (1 Bft) O-SO 108 2 min 0,000 mm 0,7 UV-I 319 W/m 6,5 C 11,6 C 4,8 km/h (1 Bft) 100,00 %
09.04.2018 08:54 11,7 C 8,9 C 69 % 1005,5 hPa 0,0 l/m 1,8 km/h (1 Bft) O-SO 108 1 min 0,000 mm 0,7 UV-I 345 W/m 6,2 C 11,7 C 3,2 km/h (1 Bft) 100,00 %
09.04.2018 08:55 11,8 C 8,9 C 70 % 1005,5 hPa 0,0 l/m 2,5 km/h (1 Bft) O-SO 108 1 min 0,000 mm 0,7 UV-I 323 W/m 6,5 C 11,8 C 3,2 km/h (1 Bft) 100,00 %
09.04.2018 08:56 11,8 C 8,9 C 70 % 1005,5 hPa 0,0 l/m 3,9 km/h (1 Bft) O-SO 103 1 min 0,000 mm 0,7 UV-I 272 W/m 6,5 C 11,8 C 4,8 km/h (1 Bft) 96,15 %
09.04.2018 08:57 11,8 C 8,9 C 70 % 1005,4 hPa 0,0 l/m 4,1 km/h (1 Bft) O-SO 103 1 min 0,000 mm 0,7 UV-I 281 W/m 6,5 C 11,8 C 4,8 km/h (1 Bft) 100,00 %
09.04.2018 08:58 11,9 C 8,9 C 70 % 1005,4 hPa 0,0 l/m 3,5 km/h (1 Bft) O-SO 103 1 min 0,000 mm 0,7 UV-I 313 W/m 6,6 C 11,9 C 4,8 km/h (1 Bft) 100,00 %
09.04.2018 08:59 11,9 C 8,9 C 71 % 1005,4 hPa 0,0 l/m 3,6 km/h (1 Bft) O-SO 103 1 min 0,000 mm 0,7 UV-I 340 W/m 6,8 C 11,9 C 4,8 km/h (1 Bft) 100,00 %
09.04.2018 09:00 12,0 C 8,9 C 70 % 1005,4 hPa 0,0 l/m 3,8 km/h (1 Bft) O-SO 103 1 min 0,000 mm 0,7 UV-I 312 W/m 6,7 C 12,0 C 4,8 km/h (1 Bft) 100,00 %
09.04.2018 09:01 12,2 C 8,9 C 70 % 1005,4 hPa 0,0 l/m 2,6 km/h (1 Bft) O-SO 103 1 min 0,127 mm 0,7 UV-I 303 W/m 6,9 C 12,2 C 3,2 km/h (1 Bft) 100,00 %
09.04.2018 09:02 12,2 C 8,9 C 71 % 1005,4 hPa 0,0 l/m 4,5 km/h (1 Bft) O-NO 69 1 min 0,000 mm 0,7 UV-I 311 W/m 7,1 C 12,2 C 4,8 km/h (1 Bft) 100,00 %
09.04.2018 09:03 12,3 C 8,9 C 70 % 1005,5 hPa 0,0 l/m 3,4 km/h (1 Bft) O-NO 69 1 min 0,000 mm 0,7 UV-I 310 W/m 7,0 C 12,3 C 4,8 km/h (1 Bft) 100,00 %
09.04.2018 09:04 12,3 C 8,9 C 69 % 1005,5 hPa 0,0 l/m 4,5 km/h (1 Bft) O-NO 69 1 min 0,000 mm 0,8 UV-I 329 W/m 6,8 C 12,3 C 6,4 km/h (2 Bft) 100,00 %
09.04.2018 09:05 12,3 C 8,9 C 70 % 1005,4 hPa 0,0 l/m 4,0 km/h (1 Bft) O-NO 61 1 min 0,000 mm 0,9 UV-I 346 W/m 7,0 C 12,3 C 4,8 km/h (1 Bft) 100,00 %
09.04.2018 09:06 12,4 C 8,9 C 69 % 1005,4 hPa 0,0 l/m 3,2 km/h (1 Bft) O-NO 61 1 min 0,000 mm 0,9 UV-I 458 W/m 6,9 C 12,4 C 4,8 km/h (1 Bft) 100,00 %
09.04.2018 09:07 12,5 C 8,9 C 67 % 1005,4 hPa 0,0 l/m 2,8 km/h (1 Bft) O-NO 61 1 min 0,000 mm 0,9 UV-I 489 W/m 6,5 C 12,5 C 3,2 km/h (1 Bft) 100,00 %
09.04.2018 09:08 12,6 C 8,9 C 68 % 1005,4 hPa 0,0 l/m 1,8 km/h (1 Bft) O-NO 61 1 min 0,000 mm 0,9 UV-I 444 W/m 6,9 C 12,6 C 3,2 km/h (1 Bft) 100,00 %
09.04.2018 09:09 12,6 C 8,9 C 67 % 1005,4 hPa 0,0 l/m 3,1 km/h (1 Bft) O-NO 61 1 min 0,000 mm 0,9 UV-I 407 W/m 6,6 C 12,6 C 4,8 km/h (1 Bft) 95,65 %
09.04.2018 09:10 12,6 C 8,9 C 67 % 1005,4 hPa 0,0 l/m 2,8 km/h (1 Bft) O-NO 61 1 min 0,000 mm 0,9 UV-I 386 W/m 6,6 C 12,6 C 4,8 km/h (1 Bft) 95,83 %
09.04.2018 09:11 12,7 C 8,9 C 68 % 1005,4 hPa 0,0 l/m 2,5 km/h (1 Bft) O-NO 61 1 min 0,000 mm 0,9 UV-I 436 W/m 6,9 C 12,7 C 4,8 km/h (1 Bft) 92,86 %
09.04.2018 09:12 12,7 C 8,9 C 67 % 1005,4 hPa 0,0 l/m 2,4 km/h (1 Bft) O-NO 61 1 min 0,000 mm 0,9 UV-I 463 W/m 6,7 C 12,7 C 6,4 km/h (2 Bft) 100,00 %
09.04.2018 09:13 12,7 C 8,9 C 67 % 1005,4 hPa 0,0 l/m 4,8 km/h (1 Bft) O-NO 61 1 min 0,000 mm 0,8 UV-I 358 W/m 6,7 C 12,7 C 6,4 km/h (2 Bft) 100,00 %
09.04.2018 09:14 12,7 C 8,9 C 67 % 1005,5 hPa 0,0 l/m 4,4 km/h (1 Bft) O-NO 61 1 min 0,000 mm 0,8 UV-I 310 W/m 6,7 C 12,7 C 6,4 km/h (2 Bft) 100,00 %
09.04.2018 09:15 12,8 C 8,9 C 66 % 1005,5 hPa 0,0 l/m 4,5 km/h (1 Bft) O-NO 60 1 min 0,000 mm 0,8 UV-I 310 W/m 6,6 C 12,8 C 4,8 km/h (1 Bft) 100,00 %
09.04.2018 09:16 12,8 C 8,9 C 66 % 1005,4 hPa 0,0 l/m 4,9 km/h (1 Bft) NO 49 1 min 0,000 mm 0,8 UV-I 316 W/m 6,6 C 12,8 C 6,4 km/h (2 Bft) 100,00 %
09.04.2018 09:17 12,7 C 8,9 C 66 % 1005,4 hPa 0,0 l/m 5,7 km/h (1 Bft) NO 49 1 min 0,000 mm 0,8 UV-I 308 W/m 6,5 C 12,7 C 6,4 km/h (2 Bft) 100,00 %
09.04.2018 09:18 12,8 C 8,9 C 67 % 1005,4 hPa 0,0 l/m 5,3 km/h (1 Bft) NO 47 1 min 0,000 mm 0,8 UV-I 300 W/m 6,8 C 12,8 C 6,4 km/h (2 Bft) 100,00 %
09.04.2018 09:19 12,8 C 8,9 C 67 % 1005,4 hPa 0,0 l/m 6,1 km/h (2 Bft) NO 47 1 min 0,000 mm 0,9 UV-I 304 W/m 6,8 C 12,8 C 6,4 km/h (2 Bft) 100,00 %
09.04.2018 09:20 12,8 C 8,9 C 67 % 1005,4 hPa 0,0 l/m 5,2 km/h (1 Bft) NO 47 1 min 0,000 mm 0,9 UV-I 334 W/m 6,8 C 12,8 C 6,4 km/h (2 Bft) 100,00 %
09.04.2018 09:21 12,8 C 8,9 C 66 % 1005,4 hPa 0,0 l/m 4,6 km/h (1 Bft) NO 47 1 min 0,000 mm 0,9 UV-I 385 W/m 6,6 C 12,8 C 6,4 km/h (2 Bft) 100,00 %
09.04.2018 09:22 12,8 C 8,9 C 67 % 1005,4 hPa 0,0 l/m 4,4 km/h (1 Bft) NO 43 1 min 0,000 mm 1,0 UV-I 400 W/m 6,8 C 12,8 C 6,4 km/h (2 Bft) 100,00 %
09.04.2018 09:23 12,9 C 8,9 C 68 % 1005,3 hPa 0,0 l/m 5,6 km/h (1 Bft) NO 43 1 min 0,000 mm 1,0 UV-I 438 W/m 7,1 C 12,9 C 6,4 km/h (2 Bft) 100,00 %
09.04.2018 09:24 12,9 C 8,9 C 68 % 1005,3 hPa 0,0 l/m 5,9 km/h (2 Bft) NO 43 1 min 0,000 mm 1,1 UV-I 498 W/m 7,1 C 12,9 C 8,0 km/h (2 Bft) 100,00 %
09.04.2018 09:25 13,1 C 8,9 C 68 % 1005,2 hPa 0,0 l/m 6,3 km/h (2 Bft) NO 45 1 min 0,000 mm 1,1 UV-I 508 W/m 7,3 C 13,1 C 8,0 km/h (2 Bft) 100,00 %
09.04.2018 09:26 13,2 C 8,9 C 67 % 1005,3 hPa 0,0 l/m 4,8 km/h (1 Bft) NO 51 1 min 0,000 mm 1,1 UV-I 463 W/m 7,2 C 13,2 C 6,4 km/h (2 Bft) 100,00 %
09.04.2018 09:27 13,2 C 8,9 C 69 % 1005,3 hPa 0,0 l/m 5,9 km/h (2 Bft) NO 38 1 min 0,000 mm 1,0 UV-I 437 W/m 7,6 C 13,2 C 8,0 km/h (2 Bft) 100,00 %
09.04.2018 09:28 13,3 C 8,9 C 66 % 1005,3 hPa 0,0 l/m 5,6 km/h (1 Bft) NO 39 1 min 0,000 mm 1,0 UV-I 391 W/m 7,1 C 13,3 C 6,4 km/h (2 Bft) 100,00 %
09.04.2018 09:29 13,3 C 8,9 C 68 % 1005,3 hPa 0,0 l/m 4,9 km/h (1 Bft) O-NO 63 1 min 0,000 mm 1,0 UV-I 360 W/m 7,5 C 13,3 C 6,4 km/h (2 Bft) 100,00 %
09.04.2018 09:30 13,3 C 8,9 C 67 % 1005,3 hPa 0,0 l/m 5,5 km/h (1 Bft) O-NO 76 1 min 0,000 mm 1,0 UV-I 384 W/m 7,3 C 13,3 C 6,4 km/h (2 Bft) 100,00 %
09.04.2018 09:31 13,3 C 8,9 C 66 % 1005,3 hPa 0,0 l/m 6,0 km/h (2 Bft) NO 45 1 min 0,000 mm 1,0 UV-I 373 W/m 7,1 C 13,3 C 8,0 km/h (2 Bft) 100,00 %
09.04.2018 09:32 13,3 C 8,9 C 66 % 1005,3 hPa 0,0 l/m 5,5 km/h (1 Bft) NO 45 1 min 0,000 mm 1,0 UV-I 358 W/m 7,1 C 13,3 C 6,4 km/h (2 Bft) 100,00 %
09.04.2018 09:33 13,3 C 8,9 C 66 % 1005,3 hPa 0,0 l/m 5,6 km/h (1 Bft) NO 45 1 min 0,000 mm 1,0 UV-I 354 W/m 7,1 C 13,3 C 6,4 km/h (2 Bft) 100,00 %
09.04.2018 09:34 13,3 C 8,9 C 67 % 1005,3 hPa 0,0 l/m 5,9 km/h (2 Bft) NO 45 1 min 0,000 mm 1,0 UV-I 350 W/m 7,3 C 13,3 C 6,4 km/h (2 Bft) 100,00 %
09.04.2018 09:35 13,3 C 8,9 C 66 % 1005,3 hPa 0,0 l/m 5,2 km/h (1 Bft) NO 45 1 min 0,000 mm 1,0 UV-I 348 W/m 7,1 C 13,3 C 6,4 km/h (2 Bft) 100,00 %
09.04.2018 09:36 13,3 C 8,9 C 66 % 1005,3 hPa 0,0 l/m 6,0 km/h (2 Bft) NO 42 1 min 0,000 mm 1,0 UV-I 359 W/m 7,1 C 13,3 C 6,4 km/h (2 Bft) 100,00 %
09.04.2018 09:37 13,4 C 8,9 C 67 % 1005,3 hPa 0,0 l/m 5,9 km/h (2 Bft) NO 42 1 min 0,000 mm 1,1 UV-I 375 W/m 7,4 C 13,4 C 6,4 km/h (2 Bft) 100,00 %
09.04.2018 09:38 13,4 C 8,9 C 67 % 1005,2 hPa 0,0 l/m 5,4 km/h (1 Bft) O-NO 60 1 min 0,000 mm 1,1 UV-I 371 W/m 7,4 C 13,4 C 6,4 km/h (2 Bft) 100,00 %
09.04.2018 09:39 13,4 C 8,9 C 68 % 1005,3 hPa 0,0 l/m 5,2 km/h (1 Bft) O-NO 64 1 min 0,000 mm 1,1 UV-I 374 W/m 7,6 C 13,4 C 8,0 km/h (2 Bft) 100,00 %
09.04.2018 09:40 13,3 C 8,9 C 67 % 1005,3 hPa 0,0 l/m 6,0 km/h (2 Bft) O-NO 69 1 min 0,000 mm 1,1 UV-I 376 W/m 7,3 C 13,3 C 8,0 km/h (2 Bft) 95,65 %
09.04.2018 09:41 13,3 C 8,9 C 67 % 1005,4 hPa 0,0 l/m 5,0 km/h (1 Bft) N-NO 19 1 min 0,000 mm 1,1 UV-I 372 W/m 7,3 C 13,3 C 6,4 km/h (2 Bft) 100,00 %
09.04.2018 09:42 13,3 C 8,9 C 68 % 1005,3 hPa 0,0 l/m 4,6 km/h (1 Bft) N-NO 19 1 min 0,000 mm 1,2 UV-I 423 W/m 7,5 C 13,3 C 6,4 km/h (2 Bft) 100,00 %
09.04.2018 09:43 13,3 C 8,9 C 68 % 1005,3 hPa 0,0 l/m 5,3 km/h (1 Bft) NO 34 1 min 0,000 mm 1,3 UV-I 522 W/m 7,5 C 13,3 C 6,4 km/h (2 Bft) 100,00 %
09.04.2018 09:44 13,4 C 8,9 C 67 % 1005,4 hPa 0,0 l/m 4,1 km/h (1 Bft) NO 34 1 min 0,000 mm 1,3 UV-I 605 W/m 7,4 C 13,4 C 6,4 km/h (2 Bft) 100,00 %
09.04.2018 09:45 13,4 C 8,9 C 66 % 1005,3 hPa 0,0 l/m 3,8 km/h (1 Bft) NO 49 1 min 0,000 mm 1,2 UV-I 516 W/m 7,2 C 13,4 C 4,8 km/h (1 Bft) 100,00 %
09.04.2018 09:46 13,3 C 8,9 C 68 % 1005,3 hPa 0,0 l/m 5,7 km/h (1 Bft) NO 44 1 min 0,000 mm 1,2 UV-I 432 W/m 7,5 C 13,3 C 8,0 km/h (2 Bft) 100,00 %
09.04.2018 09:47 13,5 C 8,9 C 68 % 1005,3 hPa 0,0 l/m 6,8 km/h (2 Bft) NO 44 1 min 0,000 mm 1,2 UV-I 428 W/m 7,7 C 13,3 C 8,0 km/h (2 Bft) 100,00 %
09.04.2018 09:48 13,6 C 8,9 C 69 % 1005,3 hPa 0,0 l/m 6,9 km/h (2 Bft) N-NO 32 1 min 0,000 mm 1,2 UV-I 421 W/m 8,0 C 13,3 C 8,0 km/h (2 Bft) 100,00 %
09.04.2018 09:49 13,7 C 8,9 C 67 % 1005,3 hPa 0,0 l/m 6,0 km/h (2 Bft) N-NO 26 1 min 0,000 mm 1,2 UV-I 429 W/m 7,7 C 13,7 C 8,0 km/h (2 Bft) 96,15 %
09.04.2018 09:50 13,7 C 8,9 C 66 % 1005,3 hPa 0,0 l/m 5,2 km/h (1 Bft) NO 39 1 min 0,000 mm 1,3 UV-I 472 W/m 7,5 C 13,7 C 6,4 km/h (2 Bft) 100,00 %
09.04.2018 09:51 13,7 C 8,9 C 67 % 1005,4 hPa 0,0 l/m 6,0 km/h (2 Bft) NO 41 1 min 0,000 mm 1,3 UV-I 496 W/m 7,7 C 13,7 C 8,0 km/h (2 Bft) 100,00 %
09.04.2018 09:52 13,7 C 8,9 C 67 % 1005,3 hPa 0,0 l/m 7,1 km/h (2 Bft) NO 42 1 min 0,000 mm 1,3 UV-I 510 W/m 7,7 C 13,3 C 9,7 km/h (2 Bft) 100,00 %
09.04.2018 09:53 13,8 C 8,9 C 67 % 1005,4 hPa 0,0 l/m 8,0 km/h (2 Bft) NO 37 1 min 0,000 mm 1,3 UV-I 550 W/m 7,8 C 12,8 C 9,7 km/h (2 Bft) 92,86 %
09.04.2018 09:54 13,9 C 8,9 C 67 % 1005,4 hPa 0,0 l/m 6,1 km/h (2 Bft) NO 36 1 min 0,000 mm 1,3 UV-I 502 W/m 7,9 C 13,9 C 8,0 km/h (2 Bft) 100,00 %
09.04.2018 09:55 13,9 C 8,9 C 67 % 1005,4 hPa 0,0 l/m 5,6 km/h (1 Bft) N-NO 31 1 min 0,000 mm 1,3 UV-I 441 W/m 7,9 C 13,9 C 6,4 km/h (2 Bft) 95,65 %
09.04.2018 09:56 13,9 C 8,9 C 66 % 1005,4 hPa 0,0 l/m 6,1 km/h (2 Bft) NO 54 1 min 0,000 mm 1,2 UV-I 415 W/m 7,7 C 13,9 C 9,7 km/h (2 Bft) 100,00 %
09.04.2018 09:57 13,9 C 8,9 C 66 % 1005,4 hPa 0,0 l/m 4,2 km/h (1 Bft) NO 54 1 min 0,000 mm 1,2 UV-I 399 W/m 7,7 C 13,9 C 6,4 km/h (2 Bft) 95,83 %
09.04.2018 09:58 13,8 C 8,9 C 66 % 1005,4 hPa 0,0 l/m 6,0 km/h (2 Bft) NO 36 1 min 0,000 mm 1,2 UV-I 376 W/m 7,6 C 13,8 C 8,0 km/h (2 Bft) 100,00 %
09.04.2018 09:59 13,8 C 8,9 C 66 % 1005,4 hPa 0,0 l/m 6,5 km/h (2 Bft) N-NO 31 1 min 0,000 mm 1,1 UV-I 337 W/m 7,6 C 13,8 C 8,0 km/h (2 Bft) 96,15 %
09.04.2018 10:00 13,8 C 8,9 C 68 % 1005,3 hPa 0,0 l/m 6,3 km/h (2 Bft) N-NO 26 1 min 0,229 mm 1,1 UV-I 323 W/m 8,0 C 13,8 C 8,0 km/h (2 Bft) 100,00 %
09.04.2018 10:01 13,8 C 8,9 C 67 % 1005,3 hPa 0,0 l/m 5,6 km/h (1 Bft) NO 42 1 min 0,000 mm 1,1 UV-I 324 W/m 7,8 C 13,8 C 6,4 km/h (2 Bft) 96,30 %
09.04.2018 10:03 13,7 C 8,9 C 60 % 1005,4 hPa 0,0 l/m 3,9 km/h (1 Bft) O-SO 113 2 min 0,000 mm 1,2 UV-I 364 W/m 6,1 C 13,7 C 4,8 km/h (1 Bft) 96,23 %
09.04.2018 10:04 13,7 C 8,9 C 61 % 1005,4 hPa 0,0 l/m 4,8 km/h (1 Bft) O 94 1 min 0,000 mm 1,3 UV-I 396 W/m 6,3 C 13,7 C 6,4 km/h (2 Bft) 92,86 %
09.04.2018 10:05 13,6 C 8,9 C 62 % 1005,5 hPa 0,0 l/m 7,7 km/h (2 Bft) O-SO 106 1 min 0,000 mm 1,3 UV-I 432 W/m 6,5 C 12,8 C 9,7 km/h (2 Bft) 100,00 %
09.04.2018 10:06 13,7 C 8,9 C 62 % 1005,5 hPa 0,0 l/m 8,6 km/h (2 Bft) O-SO 103 1 min 0,000 mm 1,4 UV-I 480 W/m 6,6 C 12,4 C 11,3 km/h (2 Bft) 96,15 %
09.04.2018 10:07 13,8 C 8,9 C 59 % 1005,6 hPa 0,0 l/m 5,7 km/h (1 Bft) O-SO 114 1 min 0,000 mm 1,4 UV-I 498 W/m 5,9 C 13,8 C 9,7 km/h (2 Bft) 100,00 %
09.04.2018 10:08 13,8 C 8,9 C 59 % 1005,6 hPa 0,0 l/m 3,4 km/h (1 Bft) O 91 1 min 0,000 mm 1,4 UV-I 497 W/m 5,9 C 13,8 C 9,7 km/h (2 Bft) 91,30 %
09.04.2018 10:09 13,9 C 8,9 C 59 % 1005,6 hPa 0,0 l/m 7,2 km/h (2 Bft) O 80 1 min 0,000 mm 1,4 UV-I 477 W/m 6,0 C 13,4 C 9,7 km/h (2 Bft) 95,83 %
09.04.2018 10:10 13,9 C 8,9 C 58 % 1005,6 hPa 0,0 l/m 6,3 km/h (2 Bft) O-NO 77 1 min 0,000 mm 1,4 UV-I 475 W/m 5,8 C 13,9 C 6,4 km/h (2 Bft) 100,00 %
09.04.2018 10:11 13,9 C 8,9 C 58 % 1005,7 hPa 0,0 l/m 6,1 km/h (2 Bft) O-NO 67 1 min 0,000 mm 1,4 UV-I 475 W/m 5,8 C 13,9 C 8,0 km/h (2 Bft) 93,33 %
09.04.2018 10:12 13,9 C 8,9 C 60 % 1005,6 hPa 0,0 l/m 5,8 km/h (2 Bft) O-NO 74 1 min 0,000 mm 1,4 UV-I 459 W/m 6,3 C 13,9 C 8,0 km/h (2 Bft) 100,00 %
09.04.2018 10:13 14,0 C 8,9 C 59 % 1005,6 hPa 0,0 l/m 6,0 km/h (2 Bft) O-NO 76 1 min 0,000 mm 1,4 UV-I 464 W/m 6,1 C 14,0 C 6,4 km/h (2 Bft) 92,59 %
09.04.2018 10:14 14,1 C 8,9 C 60 % 1005,6 hPa 0,0 l/m 4,1 km/h (1 Bft) O-NO 72 1 min 0,000 mm 1,4 UV-I 459 W/m 6,5 C 14,1 C 6,4 km/h (2 Bft) 100,00 %
09.04.2018 10:15 14,1 C 8,9 C 60 % 1005,6 hPa 0,0 l/m 6,6 km/h (2 Bft) O 87 1 min 0,000 mm 1,4 UV-I 445 W/m 6,5 C 14,0 C 9,7 km/h (2 Bft) 96,15 %
09.04.2018 10:16 14,1 C 8,9 C 59 % 1005,6 hPa 0,0 l/m 5,4 km/h (1 Bft) O 84 1 min 0,000 mm 1,4 UV-I 443 W/m 6,2 C 14,1 C 6,4 km/h (2 Bft) 100,00 %
09.04.2018 10:17 14,1 C 8,9 C 61 % 1005,6 hPa 0,0 l/m 8,4 km/h (2 Bft) O 97 1 min 0,000 mm 1,4 UV-I 430 W/m 6,7 C 12,9 C 12,9 km/h (3 Bft) 95,83 %
09.04.2018 10:18 14,1 C 8,9 C 59 % 1005,6 hPa 0,0 l/m 6,5 km/h (2 Bft) O 81 1 min 0,000 mm 1,4 UV-I 435 W/m 6,2 C 14,1 C 11,3 km/h (2 Bft) 100,00 %
09.04.2018 10:19 14,1 C 8,9 C 59 % 1005,5 hPa 0,0 l/m 6,3 km/h (2 Bft) O 79 1 min 0,000 mm 1,4 UV-I 437 W/m 6,2 C 14,1 C 8,0 km/h (2 Bft) 96,55 %
09.04.2018 10:20 14,1 C 8,9 C 59 % 1005,5 hPa 0,0 l/m 5,1 km/h (1 Bft) O-NO 76 1 min 0,000 mm 1,4 UV-I 436 W/m 6,2 C 14,1 C 6,4 km/h (2 Bft) 100,00 %
09.04.2018 10:21 14,1 C 8,9 C 59 % 1005,5 hPa 0,0 l/m 3,8 km/h (1 Bft) O 80 1 min 0,000 mm 1,4 UV-I 438 W/m 6,2 C 14,1 C 4,8 km/h (1 Bft) 100,00 %
09.04.2018 10:22 14,0 C 8,9 C 58 % 1005,5 hPa 0,0 l/m 4,4 km/h (1 Bft) O 94 1 min 0,000 mm 1,5 UV-I 438 W/m 5,9 C 14,0 C 4,8 km/h (1 Bft) 95,83 %
09.04.2018 10:23 13,9 C 8,9 C 58 % 1005,5 hPa 0,0 l/m 2,7 km/h (1 Bft) O 88 1 min 0,000 mm 1,5 UV-I 452 W/m 5,8 C 13,9 C 3,2 km/h (1 Bft) 100,00 %
09.04.2018 10:24 14,1 C 8,9 C 61 % 1005,5 hPa 0,0 l/m 5,1 km/h (1 Bft) NO 47 1 min 0,000 mm 1,6 UV-I 518 W/m 6,7 C 14,1 C 6,4 km/h (2 Bft) 100,00 %
09.04.2018 10:25 14,1 C 8,9 C 60 % 1005,5 hPa 0,0 l/m 4,3 km/h (1 Bft) O-NO 61 1 min 0,000 mm 1,7 UV-I 584 W/m 6,5 C 14,1 C 6,4 km/h (2 Bft) 98,23 %
09.04.2018 10:26 14,2 C 8,9 C 58 % 1005,5 hPa 0,0 l/m 2,0 km/h (1 Bft) O-NO 61 1 min 0,000 mm 1,7 UV-I 597 W/m 6,1 C 14,2 C 3,2 km/h (1 Bft) 100,00 %
09.04.2018 10:27 14,2 C 8,9 C 58 % 1005,5 hPa 0,0 l/m 0,4 km/h (0 Bft) O-NO 61 1 min 0,000 mm 1,7 UV-I 558 W/m 6,1 C 14,2 C 1,6 km/h (1 Bft) 96,15 %
09.04.2018 10:28 14,2 C 8,9 C 58 % 1005,5 hPa 0,0 l/m 3,8 km/h (1 Bft) O 81 1 min 0,000 mm 1,8 UV-I 585 W/m 6,1 C 14,2 C 4,8 km/h (1 Bft) 100,00 %
09.04.2018 10:29 14,2 C 8,9 C 58 % 1005,4 hPa 0,0 l/m 3,2 km/h (1 Bft) O 81 1 min 0,000 mm 1,9 UV-I 686 W/m 6,1 C 14,2 C 4,8 km/h (1 Bft) 100,00 %
09.04.2018 10:30 14,3 C 8,9 C 58 % 1005,4 hPa 0,0 l/m 4,2 km/h (1 Bft) O-NO 75 1 min 0,000 mm 1,9 UV-I 672 W/m 6,2 C 14,3 C 6,4 km/h (2 Bft) 100,00 %
09.04.2018 10:31 14,4 C 8,9 C 60 % 1005,4 hPa 0,0 l/m 4,7 km/h (1 Bft) O-NO 58 1 min 0,000 mm 2,0 UV-I 681 W/m 6,7 C 14,4 C 6,4 km/h (2 Bft) 100,00 %
09.04.2018 10:32 14,6 C 8,9 C 60 % 1005,4 hPa 0,0 l/m 4,8 km/h (1 Bft) O 81 1 min 0,000 mm 2,0 UV-I 694 W/m 6,9 C 14,6 C 6,4 km/h (2 Bft) 100,00 %
09.04.2018 10:33 14,6 C 8,9 C 58 % 1005,4 hPa 0,0 l/m 1,8 km/h (1 Bft) O-NO 70 1 min 0,000 mm 2,0 UV-I 685 W/m 6,4 C 14,6 C 3,2 km/h (1 Bft) 100,00 %
09.04.2018 10:34 14,6 C 8,9 C 58 % 1005,4 hPa 0,0 l/m 2,6 km/h (1 Bft) O-NO 72 1 min 0,000 mm 2,1 UV-I 714 W/m 6,4 C 14,6 C 4,8 km/h (1 Bft) 100,00 %
09.04.2018 10:35 14,6 C 8,9 C 58 % 1005,4 hPa 0,0 l/m 4,9 km/h (1 Bft) O-NO 75 1 min 0,000 mm 2,1 UV-I 721 W/m 6,4 C 14,6 C 6,4 km/h (2 Bft) 95,83 %
09.04.2018 10:36 14,8 C 8,9 C 60 % 1005,4 hPa 0,0 l/m 4,9 km/h (1 Bft) O-NO 73 1 min 0,000 mm 2,0 UV-I 628 W/m 7,1 C 14,8 C 6,4 km/h (2 Bft) 100,00 %
09.04.2018 10:37 14,8 C 8,9 C 56 % 1005,4 hPa 0,0 l/m 3,5 km/h (1 Bft) O-NO 73 1 min 0,000 mm 1,9 UV-I 540 W/m 6,1 C 14,8 C 4,8 km/h (1 Bft) 100,00 %
09.04.2018 10:38 14,9 C 8,9 C 55 % 1005,4 hPa 0,0 l/m 2,0 km/h (1 Bft) O-NO 73 1 min 0,000 mm 1,8 UV-I 474 W/m 5,9 C 14,9 C 3,2 km/h (1 Bft) 100,00 %
09.04.2018 10:39 14,8 C 8,9 C 56 % 1005,4 hPa 0,0 l/m 4,4 km/h (1 Bft) O 86 1 min 0,000 mm 1,6 UV-I 422 W/m 6,1 C 14,8 C 6,4 km/h (2 Bft) 100,00 %
09.04.2018 10:40 14,8 C 8,9 C 56 % 1005,4 hPa 0,0 l/m 3,9 km/h (1 Bft) O 86 1 min 0,000 mm 1,6 UV-I 409 W/m 6,1 C 14,8 C 6,4 km/h (2 Bft) 100,00 %
09.04.2018 10:41 14,8 C 8,9 C 56 % 1005,4 hPa 0,0 l/m 4,1 km/h (1 Bft) O 89 1 min 0,000 mm 1,7 UV-I 446 W/m 6,1 C 14,8 C 6,4 km/h (2 Bft) 96,30 %
09.04.2018 10:42 14,8 C 8,9 C 56 % 1005,4 hPa 0,0 l/m 5,6 km/h (1 Bft) O-NO 78 1 min 0,000 mm 1,8 UV-I 487 W/m 6,1 C 14,8 C 8,0 km/h (2 Bft) 100,00 %
09.04.2018 10:43 14,8 C 8,9 C 57 % 1005,4 hPa 0,0 l/m 5,6 km/h (1 Bft) O-NO 74 1 min 0,000 mm 1,8 UV-I 515 W/m 6,4 C 14,8 C 6,4 km/h (2 Bft) 100,00 %
09.04.2018 10:44 15,0 C 8,9 C 59 % 1005,3 hPa 0,0 l/m 3,2 km/h (1 Bft) O-NO 74 1 min 0,000 mm 2,0 UV-I 576 W/m 7,1 C 15,0 C 4,8 km/h (1 Bft) 100,00 %
09.04.2018 10:45 15,1 C 8,9 C 57 % 1005,3 hPa 0,0 l/m 3,9 km/h (1 Bft) O-NO 57 1 min 0,000 mm 2,2 UV-I 668 W/m 6,6 C 15,1 C 6,4 km/h (2 Bft) 96,30 %
09.04.2018 10:46 15,2 C 8,9 C 59 % 1005,2 hPa 0,0 l/m 4,1 km/h (1 Bft) O 92 1 min 0,000 mm 2,2 UV-I 690 W/m 7,2 C 15,2 C 6,4 km/h (2 Bft) 100,00 %
09.04.2018 10:47 15,3 C 8,9 C 54 % 1005,2 hPa 0,0 l/m 6,9 km/h (2 Bft) NO 53 1 min 0,000 mm 2,0 UV-I 615 W/m 6,0 C 15,0 C 9,7 km/h (2 Bft) 100,00 %
09.04.2018 10:48 15,3 C 8,9 C 54 % 1005,2 hPa 0,0 l/m 8,6 km/h (2 Bft) O-NO 76 1 min 0,000 mm 2,0 UV-I 560 W/m 6,0 C 14,1 C 12,9 km/h (3 Bft) 91,30 %
09.04.2018 10:49 15,4 C 8,9 C 54 % 1005,2 hPa 0,0 l/m 9,9 km/h (2 Bft) O 91 1 min 0,000 mm 1,9 UV-I 522 W/m 6,1 C 13,6 C 12,9 km/h (3 Bft) 100,00 %
09.04.2018 10:50 15,4 C 8,9 C 51 % 1005,2 hPa 0,0 l/m 8,4 km/h (2 Bft) O 90 1 min 0,000 mm 1,9 UV-I 502 W/m 5,3 C 14,3 C 12,9 km/h (3 Bft) 95,65 %
09.04.2018 10:51 15,4 C 8,9 C 52 % 1005,2 hPa 0,0 l/m 6,8 km/h (2 Bft) O-NO 74 1 min 0,000 mm 1,7 UV-I 472 W/m 5,6 C 15,2 C 9,7 km/h (2 Bft) 100,00 %
09.04.2018 10:52 15,4 C 8,9 C 53 % 1005,2 hPa 0,0 l/m 7,1 km/h (2 Bft) O-NO 60 1 min 0,000 mm 1,7 UV-I 432 W/m 5,9 C 15,0 C 9,7 km/h (2 Bft) 100,00 %
09.04.2018 10:53 15,4 C 8,9 C 54 % 1005,2 hPa 0,0 l/m 6,1 km/h (2 Bft) O 90 1 min 0,000 mm 1,7 UV-I 410 W/m 6,1 C 15,4 C 11,3 km/h (2 Bft) 96,67 %
09.04.2018 10:54 15,3 C 8,9 C 52 % 1005,1 hPa 0,0 l/m 4,8 km/h (1 Bft) O-NO 78 1 min 0,000 mm 1,7 UV-I 414 W/m 5,5 C 15,3 C 9,7 km/h (2 Bft) 96,15 %
09.04.2018 10:55 15,3 C 8,9 C 52 % 1005,1 hPa 0,0 l/m 4,3 km/h (1 Bft) O-NO 72 1 min 0,000 mm 1,7 UV-I 419 W/m 5,5 C 15,3 C 8,0 km/h (2 Bft) 98,26 %
09.04.2018 10:56 15,3 C 8,9 C 53 % 1005,1 hPa 0,0 l/m 5,6 km/h (1 Bft) O 96 1 min 0,000 mm 1,7 UV-I 427 W/m 5,8 C 15,3 C 6,4 km/h (2 Bft) 100,00 %
09.04.2018 10:57 15,4 C 8,9 C 55 % 1005,2 hPa 0,0 l/m 5,3 km/h (1 Bft) NO 39 1 min 0,000 mm 1,8 UV-I 463 W/m 6,4 C 15,4 C 6,4 km/h (2 Bft) 97,56 %
09.04.2018 10:58 15,6 C 8,9 C 56 % 1005,2 hPa 0,0 l/m 6,2 km/h (2 Bft) N-NO 30 1 min 0,000 mm 1,9 UV-I 473 W/m 6,9 C 15,6 C 6,4 km/h (2 Bft) 91,67 %
09.04.2018 10:59 15,7 C 8,9 C 59 % 1005,2 hPa 0,0 l/m 6,2 km/h (2 Bft) NO 39 1 min 0,000 mm 2,0 UV-I 507 W/m 7,7 C 15,7 C 6,4 km/h (2 Bft) 100,00 %
09.04.2018 11:00 15,9 C 8,9 C 57 % 1005,2 hPa 0,0 l/m 4,8 km/h (1 Bft) O-NO 58 1 min 0,000 mm 2,1 UV-I 611 W/m 7,4 C 15,9 C 6,4 km/h (2 Bft) 96,30 %
09.04.2018 11:01 15,9 C 8,9 C 56 % 1005,2 hPa 0,0 l/m 5,6 km/h (1 Bft) O-NO 69 1 min 0,305 mm 2,0 UV-I 581 W/m 7,1 C 15,9 C 6,4 km/h (2 Bft) 100,00 %
09.04.2018 11:02 16,1 C 8,9 C 56 % 1005,1 hPa 0,0 l/m 6,0 km/h (2 Bft) O-NO 67 1 min 0,000 mm 2,0 UV-I 545 W/m 7,3 C 16,1 C 8,0 km/h (2 Bft) 96,30 %
09.04.2018 11:03 16,1 C 8,9 C 54 % 1005,1 hPa 0,0 l/m 4,5 km/h (1 Bft) O-NO 70 1 min 0,000 mm 1,9 UV-I 521 W/m 6,8 C 16,1 C 6,4 km/h (2 Bft) 96,55 %
09.04.2018 11:04 16,0 C 8,9 C 53 % 1005,0 hPa 0,0 l/m 5,7 km/h (1 Bft) O 82 1 min 0,000 mm 2,0 UV-I 548 W/m 6,4 C 16,0 C 8,0 km/h (2 Bft) 100,00 %
09.04.2018 11:05 15,9 C 8,9 C 53 % 1005,1 hPa 0,0 l/m 4,7 km/h (1 Bft) O 80 1 min 0,000 mm 1,9 UV-I 513 W/m 6,3 C 15,9 C 8,0 km/h (2 Bft) 96,15 %
09.04.2018 11:06 15,8 C 8,9 C 53 % 1005,0 hPa 0,0 l/m 4,4 km/h (1 Bft) O-SO 107 1 min 0,000 mm 1,9 UV-I 493 W/m 6,2 C 15,8 C 4,8 km/h (1 Bft) 100,00 %
09.04.2018 11:07 15,8 C 8,9 C 54 % 1005,0 hPa 0,0 l/m 5,5 km/h (1 Bft) O-NO 59 1 min 0,000 mm 1,9 UV-I 471 W/m 6,5 C 15,8 C 8,0 km/h (2 Bft) 95,65 %
09.04.2018 11:08 15,8 C 8,9 C 55 % 1005,0 hPa 0,0 l/m 3,6 km/h (1 Bft) O-SO 111 1 min 0,000 mm 1,8 UV-I 452 W/m 6,8 C 15,8 C 9,7 km/h (2 Bft) 100,00 %
09.04.2018 11:09 15,8 C 8,9 C 54 % 1005,0 hPa 0,0 l/m 6,2 km/h (2 Bft) O-SO 111 1 min 0,000 mm 1,8 UV-I 444 W/m 6,5 C 15,8 C 8,0 km/h (2 Bft) 95,65 %
09.04.2018 11:10 15,8 C 8,9 C 52 % 1005,0 hPa 0,0 l/m 8,7 km/h (2 Bft) O-SO 102 1 min 0,000 mm 1,8 UV-I 422 W/m 6,0 C 14,6 C 11,3 km/h (2 Bft) 100,00 %
09.04.2018 11:11 15,7 C 8,9 C 53 % 1005,0 hPa 0,0 l/m 8,1 km/h (2 Bft) O-SO 107 1 min 0,000 mm 1,7 UV-I 414 W/m 6,1 C 14,8 C 12,9 km/h (3 Bft) 92,31 %
09.04.2018 11:12 15,6 C 8,9 C 51 % 1005,0 hPa 0,0 l/m 6,7 km/h (2 Bft) O-SO 105 1 min 0,000 mm 1,7 UV-I 408 W/m 5,5 C 15,4 C 9,7 km/h (2 Bft) 96,30 %
09.04.2018 11:13 15,6 C 8,9 C 52 % 1005,0 hPa 0,0 l/m 6,6 km/h (2 Bft) O-SO 106 1 min 0,000 mm 1,7 UV-I 406 W/m 5,8 C 15,5 C 9,7 km/h (2 Bft) 100,00 %
09.04.2018 11:14 15,5 C 8,9 C 54 % 1005,1 hPa 0,0 l/m 8,8 km/h (2 Bft) O 93 1 min 0,000 mm 1,7 UV-I 400 W/m 6,2 C 14,2 C 11,3 km/h (2 Bft) 93,55 %
09.04.2018 11:15 15,5 C 8,9 C 54 % 1005,1 hPa 0,0 l/m 9,0 km/h (2 Bft) O-SO 110 1 min 0,000 mm 1,8 UV-I 411 W/m 6,2 C 14,1 C 11,3 km/h (2 Bft) 100,00 %
09.04.2018 11:16 15,4 C 8,9 C 55 % 1005,1 hPa 0,0 l/m 10,5 km/h (2 Bft) O 88 1 min 0,000 mm 1,8 UV-I 424 W/m 6,4 C 13,3 C 12,9 km/h (3 Bft) 95,65 %
09.04.2018 11:17 15,5 C 8,9 C 55 % 1005,1 hPa 0,0 l/m 6,6 km/h (2 Bft) O 89 1 min 0,000 mm 1,8 UV-I 445 W/m 6,5 C 15,4 C 9,7 km/h (2 Bft) 100,00 %
09.04.2018 11:18 15,5 C 8,9 C 54 % 1005,1 hPa 0,0 l/m 9,5 km/h (2 Bft) O-SO 102 1 min 0,000 mm 1,8 UV-I 436 W/m 6,2 C 13,9 C 12,9 km/h (3 Bft) 96,15 %
09.04.2018 11:19 15,6 C 8,9 C 54 % 1005,1 hPa 0,0 l/m 8,6 km/h (2 Bft) O-NO 75 1 min 0,000 mm 1,8 UV-I 450 W/m 6,3 C 14,4 C 11,3 km/h (2 Bft) 100,00 %
09.04.2018 11:20 15,7 C 8,9 C 55 % 1005,1 hPa 0,0 l/m 6,7 km/h (2 Bft) O-NO 75 1 min 0,000 mm 1,9 UV-I 483 W/m 6,7 C 15,5 C 9,7 km/h (2 Bft) 92,86 %
09.04.2018 11:21 15,8 C 8,9 C 54 % 1005,1 hPa 0,0 l/m 6,0 km/h (2 Bft) O-NO 73 1 min 0,000 mm 2,0 UV-I 501 W/m 6,5 C 15,8 C 8,0 km/h (2 Bft) 97,62 %
09.04.2018 11:22 15,8 C 8,9 C 54 % 1005,1 hPa 0,0 l/m 3,6 km/h (1 Bft) O-NO 74 1 min 0,000 mm 2,2 UV-I 586 W/m 6,5 C 15,8 C 6,4 km/h (2 Bft) 100,00 %
09.04.2018 11:23 15,8 C 8,9 C 55 % 1005,0 hPa 0,0 l/m 4,8 km/h (1 Bft) O-NO 73 1 min 0,000 mm 2,2 UV-I 618 W/m 6,8 C 15,8 C 6,4 km/h (2 Bft) 95,83 %
09.04.2018 11:24 15,8 C 8,9 C 54 % 1004,9 hPa 0,0 l/m 5,0 km/h (1 Bft) O-NO 75 1 min 0,000 mm 2,2 UV-I 608 W/m 6,5 C 15,8 C 6,4 km/h (2 Bft) 100,00 %
09.04.2018 11:25 16,1 C 8,9 C 55 % 1004,9 hPa 0,0 l/m 4,6 km/h (1 Bft) O 98 1 min 0,000 mm 2,3 UV-I 630 W/m 7,1 C 16,1 C 4,8 km/h (1 Bft) 100,00 %
09.04.2018 11:26 16,1 C 8,9 C 54 % 1004,9 hPa 0,0 l/m 2,1 km/h (1 Bft) O 98 1 min 0,000 mm 2,3 UV-I 609 W/m 6,8 C 16,1 C 3,2 km/h (1 Bft) 96,55 %
09.04.2018 11:27 16,1 C 8,9 C 54 % 1004,9 hPa 0,0 l/m 4,1 km/h (1 Bft) O-NO 58 1 min 0,000 mm 2,3 UV-I 602 W/m 6,8 C 16,1 C 4,8 km/h (1 Bft) 96,67 %
09.04.2018 11:28 16,2 C 8,9 C 55 % 1004,9 hPa 0,0 l/m 3,6 km/h (1 Bft) O 82 1 min 0,000 mm 2,3 UV-I 588 W/m 7,2 C 16,2 C 4,8 km/h (1 Bft) 100,00 %
09.04.2018 11:29 16,3 C 8,9 C 55 % 1004,9 hPa 0,0 l/m 3,9 km/h (1 Bft) O-SO 105 1 min 0,000 mm 2,2 UV-I 582 W/m 7,2 C 16,3 C 6,4 km/h (2 Bft) 92,59 %
09.04.2018 11:30 16,3 C 8,9 C 54 % 1005,0 hPa 0,0 l/m 5,7 km/h (1 Bft) O-SO 105 1 min 0,000 mm 2,3 UV-I 568 W/m 7,0 C 16,3 C 9,7 km/h (2 Bft) 100,00 %
09.04.2018 11:31 16,3 C 8,9 C 53 % 1005,0 hPa 0,0 l/m 4,5 km/h (1 Bft) O-SO 104 1 min 0,000 mm 2,2 UV-I 559 W/m 6,7 C 16,3 C 6,4 km/h (2 Bft) 95,65 %
09.04.2018 11:32 16,4 C 8,9 C 53 % 1005,0 hPa 0,0 l/m 4,6 km/h (1 Bft) O 94 1 min 0,000 mm 2,3 UV-I 575 W/m 6,8 C 16,4 C 6,4 km/h (2 Bft) 100,00 %
09.04.2018 11:33 16,4 C 8,9 C 53 % 1005,0 hPa 0,0 l/m 4,9 km/h (1 Bft) O-SO 105 1 min 0,000 mm 2,2 UV-I 533 W/m 6,8 C 16,4 C 6,4 km/h (2 Bft) 95,65 %
09.04.2018 11:34 16,5 C 8,9 C 53 % 1005,0 hPa 0,0 l/m 5,2 km/h (1 Bft) O-SO 108 1 min 0,000 mm 2,1 UV-I 496 W/m 6,9 C 16,5 C 6,4 km/h (2 Bft) 100,00 %
09.04.2018 11:35 16,4 C 8,9 C 51 % 1005,0 hPa 0,0 l/m 5,3 km/h (1 Bft) O-SO 109 1 min 0,000 mm 2,2 UV-I 503 W/m 6,2 C 16,4 C 6,4 km/h (2 Bft) 91,30 %
09.04.2018 11:36 16,4 C 8,9 C 52 % 1005,0 hPa 0,0 l/m 4,8 km/h (1 Bft) O-SO 109 1 min 0,000 mm 2,2 UV-I 521 W/m 6,5 C 16,4 C 6,4 km/h (2 Bft) 96,30 %
09.04.2018 11:37 16,4 C 8,9 C 52 % 1005,0 hPa 0,0 l/m 4,4 km/h (1 Bft) O-SO 123 1 min 0,000 mm 2,2 UV-I 516 W/m 6,5 C 16,4 C 4,8 km/h (1 Bft) 95,65 %
09.04.2018 11:38 16,3 C 8,9 C 53 % 1005,0 hPa 0,0 l/m 4,1 km/h (1 Bft) NO 55 1 min 0,000 mm 2,2 UV-I 509 W/m 6,7 C 16,3 C 6,4 km/h (2 Bft) 100,00 %
09.04.2018 11:39 16,3 C 8,9 C 55 % 1005,0 hPa 0,0 l/m 3,4 km/h (1 Bft) O-SO 105 1 min 0,000 mm 2,2 UV-I 509 W/m 7,2 C 16,3 C 4,8 km/h (1 Bft) 92,31 %
09.04.2018 11:40 16,3 C 8,9 C 54 % 1005,0 hPa 0,0 l/m 5,1 km/h (1 Bft) O 101 1 min 0,000 mm 2,1 UV-I 475 W/m 7,0 C 16,3 C 9,7 km/h (2 Bft) 95,83 %
09.04.2018 11:41 16,3 C 8,9 C 52 % 1005,0 hPa 0,0 l/m 5,8 km/h (2 Bft) O-NO 61 1 min 0,000 mm 2,1 UV-I 480 W/m 6,4 C 16,3 C 9,7 km/h (2 Bft) 96,15 %
09.04.2018 11:42 16,3 C 8,9 C 52 % 1004,9 hPa 0,0 l/m 5,6 km/h (1 Bft) NO 55 1 min 0,000 mm 2,2 UV-I 499 W/m 6,4 C 16,3 C 9,7 km/h (2 Bft) 96,30 %
09.04.2018 11:43 16,4 C 8,9 C 52 % 1005,0 hPa 0,0 l/m 9,0 km/h (2 Bft) O 84 1 min 0,000 mm 2,2 UV-I 504 W/m 6,5 C 15,1 C 12,9 km/h (3 Bft) 96,15 %
09.04.2018 11:44 16,4 C 8,9 C 50 % 1005,0 hPa 0,0 l/m 8,2 km/h (2 Bft) O-NO 77 1 min 0,000 mm 2,2 UV-I 494 W/m 6,0 C 15,5 C 11,3 km/h (2 Bft) 93,33 %
09.04.2018 11:45 16,5 C 8,9 C 51 % 1005,0 hPa 0,0 l/m 7,6 km/h (2 Bft) O-NO 76 1 min 0,000 mm 2,2 UV-I 496 W/m 6,3 C 15,9 C 11,3 km/h (2 Bft) 95,65 %
09.04.2018 11:46 16,6 C 8,9 C 53 % 1005,0 hPa 0,0 l/m 6,4 km/h (2 Bft) O 85 1 min 0,000 mm 2,2 UV-I 492 W/m 7,0 C 16,6 C 11,3 km/h (2 Bft) 93,94 %
09.04.2018 11:47 16,6 C 8,9 C 54 % 1004,9 hPa 0,0 l/m 4,4 km/h (1 Bft) SO 124 1 min 0,000 mm 2,2 UV-I 499 W/m 7,3 C 16,6 C 6,4 km/h (2 Bft) 100,00 %
09.04.2018 11:48 16,7 C 8,9 C 53 % 1005,0 hPa 0,0 l/m 7,1 km/h (2 Bft) O-SO 117 1 min 0,000 mm 2,2 UV-I 500 W/m 7,1 C 16,3 C 9,7 km/h (2 Bft) 93,10 %
09.04.2018 11:49 16,6 C 8,9 C 51 % 1005,0 hPa 0,0 l/m 8,9 km/h (2 Bft) O-SO 115 1 min 0,000 mm 2,2 UV-I 488 W/m 6,4 C 15,4 C 11,3 km/h (2 Bft) 100,00 %
09.04.2018 11:50 16,6 C 8,9 C 52 % 1005,0 hPa 0,0 l/m 9,4 km/h (2 Bft) O 98 1 min 0,000 mm 2,2 UV-I 486 W/m 6,7 C 15,1 C 11,3 km/h (2 Bft) 94,74 %
09.04.2018 11:51 16,7 C 8,9 C 52 % 1005,0 hPa 0,0 l/m 8,6 km/h (2 Bft) O-NO 75 1 min 0,000 mm 2,2 UV-I 502 W/m 6,8 C 15,6 C 11,3 km/h (2 Bft) 91,30 %
09.04.2018 11:52 16,7 C 8,9 C 52 % 1005,0 hPa 0,0 l/m 5,1 km/h (1 Bft) O 79 1 min 0,000 mm 2,3 UV-I 524 W/m 6,8 C 16,7 C 8,0 km/h (2 Bft) 100,00 %
09.04.2018 11:53 16,8 C 8,9 C 51 % 1005,0 hPa 0,0 l/m 6,8 km/h (2 Bft) O-NO 67 1 min 0,000 mm 2,3 UV-I 549 W/m 6,6 C 16,6 C 11,3 km/h (2 Bft) 96,30 %
09.04.2018 11:54 16,9 C 8,9 C 50 % 1004,9 hPa 0,0 l/m 8,4 km/h (2 Bft) NO 55 1 min 0,000 mm 2,4 UV-I 582 W/m 6,4 C 15,9 C 11,3 km/h (2 Bft) 96,15 %
09.04.2018 11:55 16,9 C 8,9 C 48 % 1004,9 hPa 0,0 l/m 8,4 km/h (2 Bft) O 94 1 min 0,000 mm 2,5 UV-I 623 W/m 5,8 C 15,9 C 11,3 km/h (2 Bft) 92,59 %
09.04.2018 11:56 17,0 C 8,9 C 48 % 1004,9 hPa 0,0 l/m 8,0 km/h (2 Bft) O 98 1 min 0,000 mm 2,7 UV-I 676 W/m 5,9 C 16,2 C 11,3 km/h (2 Bft) 96,15 %
09.04.2018 11:57 17,2 C 8,9 C 50 % 1004,9 hPa 0,0 l/m 7,0 km/h (2 Bft) O 88 1 min 0,000 mm 2,7 UV-I 693 W/m 6,7 C 16,9 C 12,9 km/h (3 Bft) 91,67 %
09.04.2018 11:58 17,2 C 8,9 C 49 % 1004,9 hPa 0,0 l/m 6,4 km/h (2 Bft) O-NO 68 1 min 0,000 mm 2,7 UV-I 725 W/m 6,4 C 17,2 C 11,3 km/h (2 Bft) 93,10 %
09.04.2018 11:59 17,5 C 8,9 C 51 % 1004,9 hPa 0,0 l/m 8,3 km/h (2 Bft) O-NO 59 1 min 0,000 mm 2,9 UV-I 743 W/m 7,3 C 16,6 C 11,3 km/h (2 Bft) 96,30 %
09.04.2018 12:00 17,6 C 8,9 C 50 % 1004,9 hPa 0,0 l/m 7,2 km/h (2 Bft) O 87 1 min 0,000 mm 2,9 UV-I 773 W/m 7,1 C 17,2 C 11,3 km/h (2 Bft) 100,00 %
09.04.2018 12:01 17,7 C 8,9 C 47 % 1004,8 hPa 0,0 l/m 8,6 km/h (2 Bft) O-NO 76 1 min 0,330 mm 3,0 UV-I 772 W/m 6,2 C 16,7 C 11,3 km/h (2 Bft) 91,67 %
09.04.2018 12:02 17,7 C 8,9 C 46 % 1004,8 hPa 0,0 l/m 10,0 km/h (2 Bft) O-NO 73 1 min 0,000 mm 3,0 UV-I 786 W/m 5,9 C 16,1 C 12,9 km/h (3 Bft) 88,46 %
09.04.2018 12:03 17,7 C 8,9 C 48 % 1004,8 hPa 0,0 l/m 8,2 km/h (2 Bft) NO 37 1 min 0,000 mm 3,0 UV-I 768 W/m 6,6 C 16,8 C 11,3 km/h (2 Bft) 100,00 %
09.04.2018 12:04 17,8 C 8,9 C 48 % 1004,8 hPa 0,0 l/m 9,1 km/h (2 Bft) O-NO 57 1 min 0,000 mm 3,0 UV-I 753 W/m 6,6 C 16,6 C 12,9 km/h (3 Bft) 91,30 %
09.04.2018 12:05 17,9 C 8,9 C 47 % 1004,8 hPa 0,0 l/m 11,9 km/h (2 Bft) O-NO 65 1 min 0,000 mm 3,0 UV-I 772 W/m 6,4 C 15,6 C 14,5 km/h (3 Bft) 91,67 %
09.04.2018 12:06 18,1 C 8,9 C 49 % 1004,8 hPa 0,0 l/m 8,7 km/h (2 Bft) NO 49 1 min 0,000 mm 3,1 UV-I 773 W/m 7,2 C 17,1 C 12,9 km/h (3 Bft) 88,46 %
09.04.2018 12:07 18,2 C 8,9 C 48 % 1004,8 hPa 0,0 l/m 7,2 km/h (2 Bft) O 92 1 min 0,000 mm 3,1 UV-I 785 W/m 7,0 C 17,8 C 9,7 km/h (2 Bft) 96,30 %
09.04.2018 12:08 18,3 C 8,9 C 46 % 1004,7 hPa 0,0 l/m 8,1 km/h (2 Bft) O-NO 63 1 min 0,000 mm 3,2 UV-I 816 W/m 6,5 C 17,5 C 11,3 km/h (2 Bft) 100,00 %
09.04.2018 12:09 18,3 C 8,9 C 44 % 1004,8 hPa 0,0 l/m 4,8 km/h (1 Bft) O-NO 69 1 min 0,000 mm 3,4 UV-I 890 W/m 5,8 C 18,3 C 8,0 km/h (2 Bft) 100,00 %
09.04.2018 12:10 18,3 C 8,9 C 45 % 1004,7 hPa 0,0 l/m 7,1 km/h (2 Bft) O-NO 74 1 min 0,000 mm 3,4 UV-I 886 W/m 6,2 C 18,0 C 11,3 km/h (2 Bft) 91,67 %
09.04.2018 12:11 18,3 C 8,9 C 48 % 1004,7 hPa 0,0 l/m 3,0 km/h (1 Bft) O-NO 76 1 min 0,000 mm 3,4 UV-I 914 W/m 7,1 C 18,3 C 4,8 km/h (1 Bft) 95,12 %
09.04.2018 12:12 18,3 C 8,9 C 44 % 1004,7 hPa 0,0 l/m 6,1 km/h (2 Bft) O-NO 57 1 min 0,000 mm 3,3 UV-I 865 W/m 5,8 C 18,3 C 8,0 km/h (2 Bft) 100,00 %
09.04.2018 12:13 18,5 C 8,9 C 46 % 1004,7 hPa 0,0 l/m 4,6 km/h (1 Bft) NO 50 1 min 0,000 mm 3,2 UV-I 812 W/m 6,7 C 18,5 C 6,4 km/h (2 Bft) 95,65 %
09.04.2018 12:14 18,5 C 8,9 C 45 % 1004,7 hPa 0,0 l/m 6,3 km/h (2 Bft) O-NO 75 1 min 0,000 mm 3,3 UV-I 795 W/m 6,3 C 18,5 C 11,3 km/h (2 Bft) 100,00 %
09.04.2018 12:15 18,6 C 8,9 C 47 % 1004,7 hPa 0,0 l/m 5,9 km/h (2 Bft) O 85 1 min 0,000 mm 3,5 UV-I 817 W/m 7,1 C 18,6 C 11,3 km/h (2 Bft) 96,15 %
09.04.2018 12:16 18,6 C 8,9 C 46 % 1004,7 hPa 0,0 l/m 7,5 km/h (2 Bft) O 86 1 min 0,000 mm 3,5 UV-I 916 W/m 6,8 C 18,1 C 9,7 km/h (2 Bft) 100,00 %
09.04.2018 12:17 18,6 C 8,9 C 47 % 1004,7 hPa 0,0 l/m 5,2 km/h (1 Bft) O 90 1 min 0,000 mm 3,6 UV-I 905 W/m 7,1 C 18,6 C 6,4 km/h (2 Bft) 95,65 %
09.04.2018 12:18 18,7 C 8,9 C 48 % 1004,7 hPa 0,0 l/m 2,1 km/h (1 Bft) NO 53 1 min 0,000 mm 3,5 UV-I 899 W/m 7,5 C 18,7 C 4,8 km/h (1 Bft) 100,00 %
09.04.2018 12:19 18,9 C 8,9 C 49 % 1004,7 hPa 0,0 l/m 8,7 km/h (2 Bft) O 93 1 min 0,000 mm 3,5 UV-I 884 W/m 7,9 C 17,9 C 11,3 km/h (2 Bft) 100,00 %
09.04.2018 12:20 18,9 C 8,9 C 46 % 1004,7 hPa 0,0 l/m 5,5 km/h (1 Bft) O 83 1 min 0,000 mm 3,4 UV-I 841 W/m 7,0 C 18,9 C 9,7 km/h (2 Bft) 100,00 %
09.04.2018 12:21 19,0 C 8,9 C 47 % 1004,6 hPa 0,0 l/m 8,7 km/h (2 Bft) NO 37 1 min 0,000 mm 3,4 UV-I 805 W/m 7,4 C 18,0 C 11,3 km/h (2 Bft) 100,00 %
09.04.2018 12:22 19,1 C 8,9 C 47 % 1004,6 hPa 0,0 l/m 9,6 km/h (2 Bft) NO 39 1 min 0,000 mm 3,4 UV-I 833 W/m 7,5 C 17,8 C 12,9 km/h (3 Bft) 100,00 %
09.04.2018 12:23 19,4 C 8,9 C 47 % 1004,6 hPa 0,0 l/m 9,8 km/h (2 Bft) O-NO 77 1 min 0,000 mm 3,5 UV-I 851 W/m 7,8 C 18,0 C 12,9 km/h (3 Bft) 100,00 %
09.04.2018 12:24 19,6 C 8,9 C 46 % 1004,6 hPa 0,0 l/m 7,3 km/h (2 Bft) NO 50 1 min 0,000 mm 3,4 UV-I 817 W/m 7,7 C 19,2 C 14,5 km/h (3 Bft) 100,00 %
09.04.2018 12:25 19,6 C 8,9 C 47 % 1004,6 hPa 0,0 l/m 4,2 km/h (1 Bft) NO 44 1 min 0,000 mm 3,5 UV-I 853 W/m 8,0 C 19,6 C 8,0 km/h (2 Bft) 100,00 %
09.04.2018 12:26 19,7 C 8,9 C 47 % 1004,6 hPa 0,0 l/m 8,6 km/h (2 Bft) NO 37 1 min 0,000 mm 3,6 UV-I 833 W/m 8,1 C 18,8 C 12,9 km/h (3 Bft) 100,00 %
09.04.2018 12:27 19,8 C 8,9 C 47 % 1004,6 hPa 0,0 l/m 7,1 km/h (2 Bft) NO 41 1 min 0,000 mm 3,5 UV-I 540 W/m 8,2 C 19,5 C 9,7 km/h (2 Bft) 100,00 %
09.04.2018 12:28 20,0 C 8,9 C 48 % 1004,6 hPa 0,0 l/m 6,5 km/h (2 Bft) O 81 1 min 0,000 mm 3,5 UV-I 466 W/m 8,7 C 20,0 C 11,3 km/h (2 Bft) 100,00 %
09.04.2018 12:29 20,1 C 8,9 C 44 % 1004,6 hPa 0,0 l/m 7,0 km/h (2 Bft) O 84 1 min 0,000 mm 3,5 UV-I 659 W/m 7,5 C 19,9 C 8,0 km/h (2 Bft) 100,00 %
09.04.2018 12:30 20,0 C 8,9 C 45 % 1004,6 hPa 0,0 l/m 5,8 km/h (2 Bft) O 79 1 min 0,000 mm 3,5 UV-I 851 W/m 7,7 C 20,0 C 8,0 km/h (2 Bft) 100,00 %
09.04.2018 12:31 20,0 C 8,9 C 45 % 1004,6 hPa 0,0 l/m 9,5 km/h (2 Bft) O 96 1 min 0,000 mm 3,6 UV-I 893 W/m 7,7 C 18,8 C 12,9 km/h (3 Bft) 100,00 %
09.04.2018 12:32 19,9 C 8,9 C 45 % 1004,5 hPa 0,0 l/m 7,6 km/h (2 Bft) O 88 1 min 0,000 mm 3,7 UV-I 894 W/m 7,6 C 19,4 C 11,3 km/h (2 Bft) 92,31 %
09.04.2018 12:33 19,7 C 8,9 C 44 % 1004,6 hPa 0,0 l/m 6,9 km/h (2 Bft) O-NO 67 1 min 0,000 mm 3,7 UV-I 887 W/m 7,1 C 19,5 C 9,7 km/h (2 Bft) 100,00 %
09.04.2018 12:34 19,6 C 8,9 C 43 % 1004,5 hPa 0,0 l/m 7,6 km/h (2 Bft) O-NO 61 1 min 0,000 mm 3,6 UV-I 866 W/m 6,7 C 19,1 C 9,7 km/h (2 Bft) 100,00 %
09.04.2018 12:35 19,7 C 8,9 C 47 % 1004,5 hPa 0,0 l/m 7,3 km/h (2 Bft) NO 50 1 min 0,000 mm 3,6 UV-I 876 W/m 8,1 C 19,3 C 11,3 km/h (2 Bft) 100,00 %
09.04.2018 12:36 19,8 C 8,9 C 44 % 1004,5 hPa 0,0 l/m 4,5 km/h (1 Bft) O-NO 78 1 min 0,000 mm 3,7 UV-I 883 W/m 7,2 C 19,8 C 6,4 km/h (2 Bft) 100,00 %
09.04.2018 12:37 19,8 C 8,9 C 44 % 1004,5 hPa 0,0 l/m 5,7 km/h (1 Bft) O-NO 61 1 min 0,000 mm 3,7 UV-I 865 W/m 7,2 C 19,8 C 8,0 km/h (2 Bft) 100,00 %
09.04.2018 12:38 19,8 C 8,9 C 45 % 1004,5 hPa 0,0 l/m 6,3 km/h (2 Bft) O 84 1 min 0,000 mm 3,7 UV-I 875 W/m 7,5 C 19,8 C 8,0 km/h (2 Bft) 96,15 %
09.04.2018 12:39 19,8 C 8,9 C 44 % 1004,4 hPa 0,0 l/m 7,3 km/h (2 Bft) O-SO 117 1 min 0,000 mm 3,6 UV-I 852 W/m 7,2 C 19,4 C 11,3 km/h (2 Bft) 100,00 %
09.04.2018 12:40 19,7 C 8,9 C 45 % 1004,4 hPa 0,0 l/m 7,4 km/h (2 Bft) O 99 1 min 0,000 mm 3,6 UV-I 843 W/m 7,4 C 19,3 C 11,3 km/h (2 Bft) 100,00 %
09.04.2018 12:41 19,6 C 8,9 C 43 % 1004,4 hPa 0,0 l/m 6,0 km/h (2 Bft) O-SO 103 1 min 0,000 mm 3,6 UV-I 838 W/m 6,7 C 19,6 C 9,7 km/h (2 Bft) 100,00 %
09.04.2018 12:42 19,6 C 8,9 C 43 % 1004,4 hPa 0,0 l/m 7,2 km/h (2 Bft) O-SO 106 1 min 0,000 mm 3,7 UV-I 854 W/m 6,7 C 19,3 C 11,3 km/h (2 Bft) 100,00 %
09.04.2018 12:43 19,6 C 8,9 C 47 % 1004,3 hPa 0,0 l/m 10,1 km/h (2 Bft) N-NO 26 1 min 0,000 mm 3,8 UV-I 889 W/m 8,0 C 18,2 C 12,9 km/h (3 Bft) 100,00 %
09.04.2018 12:44 19,8 C 8,9 C 47 % 1004,3 hPa 0,0 l/m 6,6 km/h (2 Bft) O-NO 72 1 min 0,000 mm 3,8 UV-I 928 W/m 8,2 C 19,7 C 11,3 km/h (2 Bft) 100,00 %
09.04.2018 12:45 20,1 C 8,9 C 48 % 1004,3 hPa 0,0 l/m 6,7 km/h (2 Bft) SO 126 1 min 0,000 mm 3,9 UV-I 952 W/m 8,7 C 20,0 C 11,3 km/h (2 Bft) 95,65 %
09.04.2018 12:46 20,2 C 8,9 C 44 % 1004,3 hPa 0,0 l/m 7,1 km/h (2 Bft) O-NO 66 1 min 0,000 mm 3,9 UV-I 956 W/m 7,6 C 19,9 C 11,3 km/h (2 Bft) 100,00 %
09.04.2018 12:47 20,4 C 8,9 C 45 % 1004,3 hPa 0,0 l/m 8,1 km/h (2 Bft) O-NO 68 1 min 0,000 mm 3,9 UV-I 964 W/m 8,1 C 19,7 C 11,3 km/h (2 Bft) 100,00 %
09.04.2018 12:48 20,6 C 8,9 C 42 % 1004,3 hPa 0,0 l/m 6,9 km/h (2 Bft) O-NO 61 1 min 0,000 mm 3,9 UV-I 963 W/m 7,2 C 20,4 C 9,7 km/h (2 Bft) 100,00 %
09.04.2018 12:49 20,6 C 8,9 C 46 % 1004,4 hPa 0,0 l/m 10,2 km/h (2 Bft) NO 38 1 min 0,000 mm 3,9 UV-I 962 W/m 8,6 C 19,2 C 16,1 km/h (3 Bft) 100,00 %
09.04.2018 12:50 20,8 C 8,9 C 44 % 1004,3 hPa 0,0 l/m 10,3 km/h (2 Bft) NO 41 1 min 0,000 mm 3,9 UV-I 949 W/m 8,1 C 19,4 C 14,5 km/h (3 Bft) 100,00 %
09.04.2018 12:51 20,8 C 8,9 C 45 % 1004,4 hPa 0,0 l/m 6,7 km/h (2 Bft) N-NO 23 1 min 0,000 mm 3,9 UV-I 935 W/m 8,4 C 20,7 C 8,0 km/h (2 Bft) 100,00 %
09.04.2018 12:52 20,9 C 8,9 C 42 % 1004,4 hPa 0,0 l/m 10,3 km/h (2 Bft) O-NO 63 1 min 0,000 mm 3,8 UV-I 908 W/m 7,5 C 19,5 C 17,7 km/h (3 Bft) 100,00 %
09.04.2018 12:53 21,1 C 8,9 C 44 % 1004,3 hPa 0,0 l/m 9,0 km/h (2 Bft) NO 36 1 min 0,000 mm 3,8 UV-I 896 W/m 8,4 C 20,2 C 11,3 km/h (2 Bft) 100,00 %
09.04.2018 12:54 21,2 C 9,4 C 41 % 1004,3 hPa 0,0 l/m 9,3 km/h (2 Bft) O-SO 108 1 min 0,000 mm 3,8 UV-I 896 W/m 7,4 C 20,2 C 11,3 km/h (2 Bft) 100,00 %
09.04.2018 12:55 21,2 C 9,4 C 43 % 1004,3 hPa 0,0 l/m 9,3 km/h (2 Bft) O-SO 103 1 min 0,000 mm 3,8 UV-I 890 W/m 8,1 C 20,2 C 11,3 km/h (2 Bft) 100,00 %
09.04.2018 12:56 21,1 C 9,4 C 40 % 1004,3 hPa 0,0 l/m 7,2 km/h (2 Bft) O 94 1 min 0,000 mm 3,8 UV-I 891 W/m 7,0 C 20,8 C 9,7 km/h (2 Bft) 100,00 %
09.04.2018 12:57 20,9 C 9,4 C 42 % 1004,3 hPa 0,0 l/m 8,5 km/h (2 Bft) N-NO 16 1 min 0,000 mm 3,8 UV-I 878 W/m 7,5 C 20,1 C 12,9 km/h (3 Bft) 100,00 %
09.04.2018 12:58 21,1 C 9,4 C 45 % 1004,3 hPa 0,0 l/m 7,2 km/h (2 Bft) NO 34 1 min 0,000 mm 3,8 UV-I 880 W/m 8,7 C 20,8 C 11,3 km/h (2 Bft) 100,00 %
09.04.2018 12:59 21,2 C 8,9 C 42 % 1004,2 hPa 0,0 l/m 4,8 km/h (1 Bft) O-NO 60 1 min 0,000 mm 3,8 UV-I 884 W/m 7,8 C 21,2 C 6,4 km/h (2 Bft) 100,00 %
09.04.2018 13:00 21,0 C 8,9 C 42 % 1004,2 hPa 0,0 l/m 5,8 km/h (2 Bft) O 94 1 min 0,000 mm 3,8 UV-I 897 W/m 7,6 C 21,0 C 11,3 km/h (2 Bft) 100,00 %
09.04.2018 13:01 21,0 C 9,4 C 44 % 1004,2 hPa 0,0 l/m 6,3 km/h (2 Bft) O-SO 111 1 min 0,533 mm 3,8 UV-I 895 W/m 8,3 C 21,0 C 9,7 km/h (2 Bft) 100,00 %
09.04.2018 13:02 20,9 C 8,9 C 41 % 1004,3 hPa 0,0 l/m 7,4 km/h (2 Bft) O 100 1 min 0,000 mm 3,8 UV-I 882 W/m 7,2 C 20,5 C 11,3 km/h (2 Bft) 100,00 %
09.04.2018 13:03 20,7 C 9,4 C 42 % 1004,2 hPa 0,0 l/m 7,0 km/h (2 Bft) O-SO 123 1 min 0,000 mm 3,7 UV-I 864 W/m 7,3 C 20,5 C 11,3 km/h (2 Bft) 95,65 %
09.04.2018 13:04 20,7 C 8,9 C 42 % 1004,2 hPa 0,0 l/m 6,1 km/h (2 Bft) O-SO 105 1 min 0,000 mm 3,7 UV-I 877 W/m 7,3 C 20,7 C 11,3 km/h (2 Bft) 91,67 %
09.04.2018 13:05 20,7 C 8,9 C 45 % 1004,2 hPa 0,0 l/m 10,8 km/h (2 Bft) O-NO 63 1 min 0,000 mm 3,8 UV-I 908 W/m 8,3 C 19,2 C 14,5 km/h (3 Bft) 100,00 %
09.04.2018 13:06 20,8 C 9,4 C 45 % 1004,2 hPa 0,0 l/m 9,4 km/h (2 Bft) O-NO 67 1 min 0,000 mm 3,8 UV-I 912 W/m 8,4 C 19,7 C 14,5 km/h (3 Bft) 100,00 %
09.04.2018 13:07 20,9 C 9,4 C 43 % 1004,2 hPa 0,0 l/m 9,2 km/h (2 Bft) O-SO 106 1 min 0,000 mm 3,8 UV-I 911 W/m 7,8 C 19,9 C 12,9 km/h (3 Bft) 100,00 %
09.04.2018 13:08 21,1 C 9,4 C 44 % 1004,2 hPa 0,0 l/m 4,5 km/h (1 Bft) O-NO 63 1 min 0,000 mm 3,8 UV-I 906 W/m 8,4 C 21,1 C 6,4 km/h (2 Bft) 96,15 %
09.04.2018 13:09 21,1 C 8,9 C 42 % 1004,2 hPa 0,0 l/m 9,6 km/h (2 Bft) O 86 1 min 0,000 mm 3,8 UV-I 902 W/m 7,7 C 20,0 C 14,5 km/h (3 Bft) 96,55 %
09.04.2018 13:10 21,2 C 9,4 C 39 % 1004,2 hPa 0,0 l/m 10,3 km/h (2 Bft) O-NO 69 1 min 0,000 mm 3,7 UV-I 868 W/m 6,7 C 19,9 C 12,9 km/h (3 Bft) 100,00 %
09.04.2018 13:11 21,2 C 9,4 C 39 % 1004,2 hPa 0,0 l/m 9,8 km/h (2 Bft) O-SO 103 1 min 0,000 mm 3,8 UV-I 882 W/m 6,7 C 20,0 C 11,3 km/h (2 Bft) 100,00 %
09.04.2018 13:12 21,2 C 9,4 C 42 % 1004,1 hPa 0,0 l/m 8,9 km/h (2 Bft) O-NO 73 1 min 0,000 mm 3,8 UV-I 895 W/m 7,8 C 20,3 C 12,9 km/h (3 Bft) 100,00 %
09.04.2018 13:13 21,2 C 9,4 C 41 % 1004,1 hPa 0,0 l/m 6,9 km/h (2 Bft) O 87 1 min 0,000 mm 3,8 UV-I 901 W/m 7,4 C 21,0 C 12,9 km/h (3 Bft) 100,00 %
09.04.2018 13:14 21,3 C 9,4 C 40 % 1004,1 hPa 0,0 l/m 8,8 km/h (2 Bft) O 93 1 min 0,000 mm 3,8 UV-I 908 W/m 7,1 C 20,4 C 11,3 km/h (2 Bft) 100,00 %
09.04.2018 13:15 21,3 C 9,4 C 38 % 1004,1 hPa 0,0 l/m 8,6 km/h (2 Bft) O-NO 66 1 min 0,000 mm 3,8 UV-I 901 W/m 6,4 C 20,5 C 11,3 km/h (2 Bft) 100,00 %
09.04.2018 13:16 21,4 C 9,4 C 39 % 1004,1 hPa 0,0 l/m 5,8 km/h (2 Bft) O-SO 107 1 min 0,000 mm 3,7 UV-I 897 W/m 6,9 C 21,4 C 11,3 km/h (2 Bft) 100,00 %
09.04.2018 13:17 21,4 C 9,4 C 42 % 1004,1 hPa 0,0 l/m 9,0 km/h (2 Bft) O 85 1 min 0,000 mm 3,7 UV-I 885 W/m 8,0 C 20,5 C 12,9 km/h (3 Bft) 100,00 %
09.04.2018 13:18 21,6 C 9,4 C 41 % 1004,1 hPa 0,0 l/m 6,5 km/h (2 Bft) O-NO 59 1 min 0,000 mm 3,7 UV-I 873 W/m 7,8 C 21,6 C 9,7 km/h (2 Bft) 100,00 %
09.04.2018 13:19 21,6 C 9,4 C 38 % 1004,1 hPa 0,0 l/m 12,9 km/h (3 Bft) O-NO 71 1 min 0,000 mm 3,5 UV-I 802 W/m 6,7 C 19,7 C 14,5 km/h (3 Bft) 100,00 %
09.04.2018 13:20 21,6 C 9,4 C 41 % 1004,1 hPa 0,0 l/m 9,8 km/h (2 Bft) O-SO 103 1 min 0,000 mm 3,6 UV-I 814 W/m 7,8 C 20,5 C 12,9 km/h (3 Bft) 98,10 %
09.04.2018 13:21 21,6 C 9,4 C 40 % 1004,1 hPa 0,0 l/m 8,3 km/h (2 Bft) O 79 1 min 0,000 mm 3,5 UV-I 817 W/m 7,4 C 20,9 C 12,9 km/h (3 Bft) 100,00 %
09.04.2018 13:22 21,5 C 9,4 C 40 % 1004,0 hPa 0,0 l/m 10,1 km/h (2 Bft) O-NO 63 1 min 0,000 mm 3,5 UV-I 812 W/m 7,3 C 20,3 C 16,1 km/h (3 Bft) 100,00 %
09.04.2018 13:23 21,5 C 8,9 C 40 % 1004,0 hPa 0,0 l/m 13,0 km/h (3 Bft) O 80 1 min 0,000 mm 3,4 UV-I 790 W/m 7,3 C 19,5 C 14,5 km/h (3 Bft) 100,00 %
09.04.2018 13:24 21,5 C 8,9 C 41 % 1004,1 hPa 0,0 l/m 9,0 km/h (2 Bft) O 88 1 min 0,000 mm 3,5 UV-I 807 W/m 7,7 C 20,6 C 12,9 km/h (3 Bft) 100,00 %
09.04.2018 13:25 21,5 C 9,4 C 41 % 1004,0 hPa 0,0 l/m 9,5 km/h (2 Bft) O-NO 61 1 min 0,000 mm 3,5 UV-I 809 W/m 7,7 C 20,4 C 14,5 km/h (3 Bft) 100,00 %
09.04.2018 13:26 21,5 C 9,4 C 41 % 1004,0 hPa 0,0 l/m 8,6 km/h (2 Bft) O-NO 72 1 min 0,000 mm 3,4 UV-I 768 W/m 7,7 C 20,7 C 11,3 km/h (2 Bft) 96,15 %
09.04.2018 13:27 21,5 C 9,4 C 41 % 1004,1 hPa 0,0 l/m 6,2 km/h (2 Bft) O-NO 73 1 min 0,000 mm 3,4 UV-I 758 W/m 7,7 C 21,5 C 9,7 km/h (2 Bft) 100,00 %
09.04.2018 13:28 21,6 C 9,4 C 40 % 1004,0 hPa 0,0 l/m 4,2 km/h (1 Bft) O-NO 69 1 min 0,000 mm 3,4 UV-I 770 W/m 7,4 C 21,6 C 6,4 km/h (2 Bft) 100,00 %
09.04.2018 13:29 21,6 C 9,4 C 45 % 1004,0 hPa 0,0 l/m 5,6 km/h (1 Bft) O-SO 111 1 min 0,000 mm 3,3 UV-I 772 W/m 9,2 C 21,6 C 8,0 km/h (2 Bft) 100,00 %
09.04.2018 13:30 21,6 C 9,4 C 39 % 1003,9 hPa 0,0 l/m 7,2 km/h (2 Bft) O 98 1 min 0,000 mm 3,2 UV-I 711 W/m 7,0 C 21,3 C 11,3 km/h (2 Bft) 92,59 %
09.04.2018 13:31 21,6 C 9,4 C 41 % 1003,9 hPa 0,0 l/m 9,5 km/h (2 Bft) O-NO 71 1 min 0,000 mm 3,1 UV-I 678 W/m 7,8 C 20,6 C 14,5 km/h (3 Bft) 95,65 %
09.04.2018 13:32 21,5 C 9,4 C 38 % 1004,0 hPa 0,0 l/m 8,4 km/h (2 Bft) O 82 1 min 0,000 mm 3,0 UV-I 618 W/m 6,6 C 20,8 C 11,3 km/h (2 Bft) 95,83 %
09.04.2018 13:33 21,6 C 8,9 C 41 % 1004,0 hPa 0,0 l/m 6,4 km/h (2 Bft) O-NO 65 1 min 0,000 mm 2,9 UV-I 581 W/m 7,8 C 21,6 C 8,0 km/h (2 Bft) 100,00 %
09.04.2018 13:34 21,6 C 8,9 C 40 % 1004,0 hPa 0,0 l/m 3,3 km/h (1 Bft) O-NO 68 1 min 0,000 mm 2,9 UV-I 581 W/m 7,4 C 21,6 C 6,4 km/h (2 Bft) 91,67 %
09.04.2018 13:35 21,7 C 8,9 C 36 % 1004,0 hPa 0,0 l/m 10,7 km/h (2 Bft) NO 55 1 min 0,000 mm 2,8 UV-I 579 W/m 6,0 C 20,3 C 14,5 km/h (3 Bft) 100,00 %
09.04.2018 13:36 21,7 C 9,4 C 40 % 1003,9 hPa 0,0 l/m 9,1 km/h (2 Bft) O-NO 71 1 min 0,000 mm 2,8 UV-I 572 W/m 7,5 C 20,8 C 12,9 km/h (3 Bft) 97,56 %
09.04.2018 13:37 21,7 C 8,9 C 38 % 1003,9 hPa 0,0 l/m 4,8 km/h (1 Bft) O-NO 69 1 min 0,000 mm 2,8 UV-I 556 W/m 6,8 C 21,7 C 6,4 km/h (2 Bft) 92,31 %
09.04.2018 13:38 21,8 C 9,4 C 38 % 1003,9 hPa 0,0 l/m 6,7 km/h (2 Bft) O 100 1 min 0,000 mm 2,9 UV-I 595 W/m 6,8 C 21,7 C 9,7 km/h (2 Bft) 98,09 %
09.04.2018 13:39 21,7 C 9,4 C 38 % 1004,0 hPa 0,0 l/m 9,6 km/h (2 Bft) O 84 1 min 0,000 mm 2,8 UV-I 591 W/m 6,8 C 20,6 C 12,9 km/h (3 Bft) 97,37 %
09.04.2018 13:40 21,6 C 9,4 C 38 % 1003,9 hPa 0,0 l/m 9,2 km/h (2 Bft) NO 48 1 min 0,000 mm 2,9 UV-I 596 W/m 6,7 C 20,6 C 12,9 km/h (3 Bft) 100,00 %
09.04.2018 13:41 21,7 C 9,4 C 40 % 1003,9 hPa 0,0 l/m 10,1 km/h (2 Bft) O-NO 76 1 min 0,000 mm 2,9 UV-I 606 W/m 7,5 C 20,5 C 12,9 km/h (3 Bft) 92,31 %
09.04.2018 13:43 21,6 C 9,4 C 39 % 1003,9 hPa 0,0 l/m 6,5 km/h (2 Bft) O-SO 109 2 min 0,000 mm 3,0 UV-I 684 W/m 7,0 C 21,6 C 11,3 km/h (2 Bft) 97,73 %
09.04.2018 13:44 21,5 C 9,4 C 38 % 1003,9 hPa 0,0 l/m 3,4 km/h (1 Bft) O-SO 110 1 min 0,000 mm 3,0 UV-I 695 W/m 6,6 C 21,5 C 4,8 km/h (1 Bft) 96,30 %
09.04.2018 13:45 21,5 C 9,4 C 38 % 1003,9 hPa 0,0 l/m 2,8 km/h (1 Bft) O-SO 109 1 min 0,000 mm 3,0 UV-I 697 W/m 6,6 C 21,5 C 4,8 km/h (1 Bft) 100,00 %
09.04.2018 13:46 21,6 C 9,4 C 40 % 1003,9 hPa 0,0 l/m 3,6 km/h (1 Bft) O-SO 115 1 min 0,000 mm 3,0 UV-I 692 W/m 7,4 C 21,6 C 6,4 km/h (2 Bft) 95,83 %
09.04.2018 13:47 21,6 C 9,4 C 39 % 1003,8 hPa 0,0 l/m 4,2 km/h (1 Bft) O 93 1 min 0,000 mm 3,1 UV-I 718 W/m 7,0 C 21,6 C 6,4 km/h (2 Bft) 100,00 %
09.04.2018 13:48 21,6 C 9,4 C 38 % 1003,8 hPa 0,0 l/m 5,5 km/h (1 Bft) O 93 1 min 0,000 mm 3,1 UV-I 706 W/m 6,7 C 21,6 C 9,7 km/h (2 Bft) 96,55 %
09.04.2018 13:49 21,6 C 9,4 C 40 % 1003,8 hPa 0,0 l/m 8,9 km/h (2 Bft) O 92 1 min 0,000 mm 3,0 UV-I 681 W/m 7,4 C 20,7 C 11,3 km/h (2 Bft) 100,00 %
09.04.2018 13:50 21,7 C 9,4 C 38 % 1003,8 hPa 0,0 l/m 7,4 km/h (2 Bft) O 81 1 min 0,000 mm 3,0 UV-I 693 W/m 6,8 C 21,3 C 11,3 km/h (2 Bft) 98,08 %
09.04.2018 13:51 21,7 C 9,4 C 39 % 1003,8 hPa 0,0 l/m 5,8 km/h (2 Bft) O 90 1 min 0,000 mm 3,0 UV-I 679 W/m 7,1 C 21,7 C 11,3 km/h (2 Bft) 97,62 %
09.04.2018 13:52 21,7 C 9,4 C 39 % 1003,7 hPa 0,0 l/m 7,7 km/h (2 Bft) NO 51 1 min 0,000 mm 3,0 UV-I 667 W/m 7,1 C 21,2 C 11,3 km/h (2 Bft) 95,65 %
09.04.2018 13:53 21,8 C 9,4 C 37 % 1003,7 hPa 0,0 l/m 7,5 km/h (2 Bft) NO 39 1 min 0,000 mm 3,0 UV-I 684 W/m 6,5 C 21,4 C 11,3 km/h (2 Bft) 96,30 %
09.04.2018 13:54 21,9 C 9,4 C 38 % 1003,7 hPa 0,0 l/m 6,4 km/h (2 Bft) N-NO 32 1 min 0,000 mm 3,0 UV-I 687 W/m 6,9 C 21,9 C 8,0 km/h (2 Bft) 100,00 %
09.04.2018 13:55 22,1 C 9,4 C 38 % 1003,7 hPa 0,0 l/m 3,0 km/h (1 Bft) N-NO 32 1 min 0,000 mm 3,0 UV-I 675 W/m 7,1 C 22,1 C 4,8 km/h (1 Bft) 96,30 %
09.04.2018 13:56 22,1 C 9,4 C 38 % 1003,7 hPa 0,0 l/m 4,0 km/h (1 Bft) NO 52 1 min 0,000 mm 2,9 UV-I 677 W/m 7,1 C 22,1 C 6,4 km/h (2 Bft) 100,00 %
09.04.2018 13:57 22,1 C 9,4 C 37 % 1003,6 hPa 0,0 l/m 2,7 km/h (1 Bft) S-SW 197 1 min 0,000 mm 2,9 UV-I 669 W/m 6,7 C 22,1 C 4,8 km/h (1 Bft) 96,30 %
09.04.2018 13:58 22,1 C 9,4 C 39 % 1003,6 hPa 0,0 l/m 7,2 km/h (2 Bft) NO 35 1 min 0,000 mm 2,9 UV-I 644 W/m 7,5 C 21,8 C 11,3 km/h (2 Bft) 96,15 %
09.04.2018 13:59 22,3 C 9,4 C 43 % 1003,6 hPa 0,0 l/m 7,4 km/h (2 Bft) N-NO 33 1 min 0,000 mm 2,7 UV-I 600 W/m 9,1 C 22,0 C 9,7 km/h (2 Bft) 100,00 %
09.04.2018 14:00 22,4 C 9,4 C 38 % 1003,6 hPa 0,0 l/m 8,4 km/h (2 Bft) NO 34 1 min 0,000 mm 2,8 UV-I 598 W/m 7,4 C 21,7 C 12,9 km/h (3 Bft) 95,65 %
09.04.2018 14:01 22,4 C 9,4 C 37 % 1003,5 hPa 0,0 l/m 5,3 km/h (1 Bft) NO 40 1 min 0,508 mm 2,8 UV-I 604 W/m 7,0 C 22,4 C 8,0 km/h (2 Bft) 100,00 %
09.04.2018 14:02 22,3 C 9,4 C 36 % 1003,6 hPa 0,0 l/m 3,7 km/h (1 Bft) N-NO 17 1 min 0,000 mm 2,7 UV-I 599 W/m 6,5 C 22,3 C 6,4 km/h (2 Bft) 100,00 %
09.04.2018 14:03 22,3 C 9,4 C 39 % 1003,6 hPa 0,0 l/m 7,1 km/h (2 Bft) O-NO 69 1 min 0,000 mm 2,7 UV-I 578 W/m 7,7 C 22,1 C 14,5 km/h (3 Bft) 100,00 %
09.04.2018 14:04 22,3 C 9,4 C 39 % 1003,5 hPa 0,0 l/m 11,0 km/h (2 Bft) O-NO 69 1 min 0,000 mm 2,7 UV-I 572 W/m 7,7 C 20,9 C 14,5 km/h (3 Bft) 100,00 %
09.04.2018 14:05 22,2 C 9,4 C 39 % 1003,5 hPa 0,0 l/m 8,4 km/h (2 Bft) O-NO 69 1 min 0,000 mm 2,6 UV-I 565 W/m 7,6 C 21,5 C 12,9 km/h (3 Bft) 100,00 %
09.04.2018 14:06 22,1 C 9,4 C 39 % 1003,5 hPa 0,0 l/m 6,5 km/h (2 Bft) O-NO 58 1 min 0,000 mm 2,6 UV-I 562 W/m 7,5 C 22,1 C 9,7 km/h (2 Bft) 95,83 %
09.04.2018 14:07 22,1 C 9,4 C 40 % 1003,5 hPa 0,0 l/m 4,2 km/h (1 Bft) O-NO 57 1 min 0,000 mm 2,6 UV-I 549 W/m 7,9 C 22,1 C 8,0 km/h (2 Bft) 95,65 %
09.04.2018 14:08 22,1 C 9,4 C 40 % 1003,5 hPa 0,0 l/m 5,4 km/h (1 Bft) N-NO 28 1 min 0,000 mm 2,6 UV-I 538 W/m 7,9 C 22,1 C 6,4 km/h (2 Bft) 100,00 %
09.04.2018 14:09 22,1 C 9,4 C 40 % 1003,5 hPa 0,0 l/m 5,4 km/h (1 Bft) O-SO 108 1 min 0,000 mm 2,5 UV-I 506 W/m 7,9 C 22,1 C 12,9 km/h (3 Bft) 100,00 %
09.04.2018 14:10 22,1 C 9,4 C 38 % 1003,4 hPa 0,0 l/m 7,3 km/h (2 Bft) O-SO 107 1 min 0,000 mm 2,4 UV-I 474 W/m 7,1 C 21,8 C 9,7 km/h (2 Bft) 100,00 %
09.04.2018 14:11 22,1 C 9,4 C 39 % 1003,4 hPa 0,0 l/m 5,6 km/h (1 Bft) O-SO 103 1 min 0,000 mm 2,3 UV-I 453 W/m 7,5 C 22,1 C 9,7 km/h (2 Bft) 100,00 %
09.04.2018 14:12 22,2 C 9,4 C 40 % 1003,4 hPa 0,0 l/m 10,2 km/h (2 Bft) O 96 1 min 0,000 mm 2,3 UV-I 431 W/m 8,0 C 21,0 C 12,9 km/h (3 Bft) 100,00 %
09.04.2018 14:13 22,1 C 9,4 C 39 % 1003,4 hPa 0,0 l/m 7,4 km/h (2 Bft) O 101 1 min 0,000 mm 2,2 UV-I 405 W/m 7,5 C 21,8 C 11,3 km/h (2 Bft) 95,65 %
09.04.2018 14:14 22,1 C 9,4 C 38 % 1003,4 hPa 0,0 l/m 9,3 km/h (2 Bft) O 96 0 min 0,000 mm 2,2 UV-I 400 W/m 7,1 C 21,2 C 11,3 km/h (2 Bft) 100,00 %
09.04.2018 14:15 22,1 C 9,4 C 40 % 1003,4 hPa 0,0 l/m 7,6 km/h (2 Bft) O-NO 73 0 min 0,000 mm 2,2 UV-I 400 W/m 7,9 C 21,7 C 11,3 km/h (2 Bft) 100,00 %
09.04.2018 14:16 22,1 C 9,4 C 38 % 1003,4 hPa 0,0 l/m 10,2 km/h (2 Bft) O 90 0 min 0,000 mm 2,2 UV-I 395 W/m 7,1 C 20,9 C 12,9 km/h (3 Bft) 100,00 %
09.04.2018 14:17 22,1 C 9,4 C 36 % 1003,4 hPa 0,0 l/m 4,7 km/h (1 Bft) O 88 0 min 0,000 mm 2,1 UV-I 378 W/m 6,3 C 22,1 C 9,7 km/h (2 Bft) 100,00 %
09.04.2018 14:18 22,1 C 9,4 C 36 % 1003,4 hPa 0,0 l/m 2,2 km/h (1 Bft) O 86 0 min 0,000 mm 2,1 UV-I 378 W/m 6,3 C 22,1 C 4,8 km/h (1 Bft) 100,00 %
09.04.2018 14:19 22,1 C 9,4 C 37 % 1003,3 hPa 0,0 l/m 5,6 km/h (1 Bft) O-NO 67 1 min 0,000 mm 2,2 UV-I 407 W/m 6,7 C 22,1 C 8,0 km/h (2 Bft) 100,00 %
09.04.2018 14:20 22,1 C 9,4 C 36 % 1003,3 hPa 0,0 l/m 5,0 km/h (1 Bft) O-NO 66 1 min 0,000 mm 2,2 UV-I 435 W/m 6,3 C 22,1 C 6,4 km/h (2 Bft) 100,00 %
09.04.2018 14:21 22,1 C 9,4 C 36 % 1003,3 hPa 0,0 l/m 5,3 km/h (1 Bft) NO 44 1 min 0,000 mm 2,3 UV-I 463 W/m 6,3 C 22,1 C 9,7 km/h (2 Bft) 100,00 %
09.04.2018 14:23 22,3 C 9,4 C 41 % 1003,2 hPa 0,0 l/m 5,4 km/h (1 Bft) NO 55 2 min 0,000 mm 2,4 UV-I 505 W/m 8,4 C 22,3 C 8,0 km/h (2 Bft) 97,62 %
09.04.2018 14:24 22,4 C 9,4 C 41 % 1003,2 hPa 0,0 l/m 3,7 km/h (1 Bft) NO 55 1 min 0,000 mm 2,4 UV-I 490 W/m 8,5 C 22,4 C 4,8 km/h (1 Bft) 100,00 %
09.04.2018 14:25 22,6 C 9,4 C 40 % 1003,2 hPa 0,0 l/m 5,5 km/h (1 Bft) O 87 1 min 0,000 mm 2,3 UV-I 470 W/m 8,3 C 22,6 C 8,0 km/h (2 Bft) 100,00 %
09.04.2018 14:26 22,6 C 9,4 C 37 % 1003,1 hPa 0,0 l/m 8,0 km/h (2 Bft) O 80 1 min 0,000 mm 2,3 UV-I 466 W/m 7,2 C 22,1 C 12,9 km/h (3 Bft) 100,00 %
09.04.2018 14:27 22,6 C 9,4 C 36 % 1003,1 hPa 0,0 l/m 8,6 km/h (2 Bft) O 99 1 min 0,000 mm 2,3 UV-I 468 W/m 6,8 C 21,9 C 11,3 km/h (2 Bft) 100,00 %
09.04.2018 14:28 22,5 C 9,4 C 34 % 1003,1 hPa 0,0 l/m 6,5 km/h (2 Bft) O-NO 61 1 min 0,000 mm 2,3 UV-I 459 W/m 5,9 C 22,5 C 9,7 km/h (2 Bft) 100,00 %
09.04.2018 14:29 22,5 C 9,4 C 33 % 1003,1 hPa 0,0 l/m 6,8 km/h (2 Bft) O-SO 106 1 min 0,000 mm 2,2 UV-I 446 W/m 5,4 C 22,4 C 12,9 km/h (3 Bft) 100,00 %
09.04.2018 14:30 22,5 C 9,4 C 35 % 1003,1 hPa 0,0 l/m 7,8 km/h (2 Bft) O-NO 74 1 min 0,000 mm 2,3 UV-I 468 W/m 6,3 C 22,0 C 12,9 km/h (3 Bft) 100,00 %
09.04.2018 14:31 22,5 C 9,4 C 37 % 1003,1 hPa 0,0 l/m 5,3 km/h (1 Bft) O-SO 106 1 min 0,000 mm 2,3 UV-I 456 W/m 7,1 C 22,5 C 6,4 km/h (2 Bft) 100,00 %
09.04.2018 14:33 22,6 C 9,4 C 34 % 1003,0 hPa 0,0 l/m 4,9 km/h (1 Bft) O-SO 103 2 min 0,000 mm 2,3 UV-I 488 W/m 5,9 C 22,6 C 6,4 km/h (2 Bft) 100,00 %
09.04.2018 14:34 22,7 C 9,4 C 35 % 1003,0 hPa 0,0 l/m 3,1 km/h (1 Bft) O 97 1 min 0,000 mm 2,6 UV-I 610 W/m 6,4 C 22,7 C 6,4 km/h (2 Bft) 100,00 %
09.04.2018 14:35 22,7 C 9,4 C 34 % 1003,0 hPa 0,0 l/m 6,6 km/h (2 Bft) O-NO 63 1 min 0,000 mm 2,5 UV-I 610 W/m 6,0 C 22,6 C 9,7 km/h (2 Bft) 100,00 %
09.04.2018 14:36 22,7 C 9,4 C 33 % 1003,0 hPa 0,0 l/m 5,8 km/h (2 Bft) O-SO 106 1 min 0,000 mm 2,4 UV-I 601 W/m 5,6 C 22,7 C 11,3 km/h (2 Bft) 100,00 %
09.04.2018 14:37 22,7 C 9,4 C 32 % 1003,0 hPa 0,0 l/m 5,4 km/h (1 Bft) O-SO 103 1 min 0,000 mm 2,7 UV-I 568 W/m 5,2 C 22,7 C 6,4 km/h (2 Bft) 100,00 %
09.04.2018 14:38 22,8 C 9,4 C 35 % 1003,0 hPa 0,0 l/m 6,0 km/h (2 Bft) O-SO 105 1 min 0,000 mm 2,8 UV-I 678 W/m 6,5 C 22,8 C 9,7 km/h (2 Bft) 100,00 %
09.04.2018 14:39 22,9 C 9,4 C 34 % 1003,0 hPa 0,0 l/m 4,5 km/h (1 Bft) O 97 1 min 0,000 mm 2,9 UV-I 758 W/m 6,2 C 22,9 C 6,4 km/h (2 Bft) 96,30 %
09.04.2018 14:40 22,9 C 9,4 C 34 % 1003,0 hPa 0,0 l/m 7,4 km/h (2 Bft) O-NO 67 1 min 0,000 mm 2,9 UV-I 770 W/m 6,2 C 22,6 C 9,7 km/h (2 Bft) 100,00 %
09.04.2018 14:41 23,1 C 9,4 C 36 % 1003,0 hPa 0,0 l/m 6,4 km/h (2 Bft) O-NO 69 1 min 0,000 mm 2,7 UV-I 772 W/m 7,2 C 23,1 C 9,7 km/h (2 Bft) 100,00 %
09.04.2018 14:42 23,1 C 9,4 C 37 % 1002,9 hPa 0,0 l/m 8,3 km/h (2 Bft) NO 42 1 min 0,000 mm 2,4 UV-I 772 W/m 7,6 C 22,5 C 11,3 km/h (2 Bft) 100,00 %
09.04.2018 14:43 23,3 C 9,4 C 38 % 1002,9 hPa 0,0 l/m 8,4 km/h (2 Bft) NO 38 1 min 0,000 mm 2,9 UV-I 772 W/m 8,2 C 22,7 C 11,3 km/h (2 Bft) 98,15 %
09.04.2018 14:44 23,5 C 9,4 C 38 % 1002,9 hPa 0,0 l/m 7,6 km/h (2 Bft) NO 43 1 min 0,000 mm 2,9 UV-I 776 W/m 8,4 C 23,1 C 9,7 km/h (2 Bft) 100,00 %
09.04.2018 14:45 23,6 C 9,4 C 35 % 1002,9 hPa 0,0 l/m 7,6 km/h (2 Bft) O-NO 69 1 min 0,000 mm 2,9 UV-I 773 W/m 7,2 C 23,2 C 11,3 km/h (2 Bft) 100,00 %
09.04.2018 14:46 23,7 C 9,4 C 32 % 1002,8 hPa 0,0 l/m 8,6 km/h (2 Bft) O-NO 71 1 min 0,000 mm 2,6 UV-I 770 W/m 6,0 C 23,1 C 12,9 km/h (3 Bft) 100,00 %
09.04.2018 14:47 23,6 C 9,4 C 32 % 1002,8 hPa 0,0 l/m 10,5 km/h (2 Bft) O 100 1 min 0,000 mm 2,4 UV-I 492 W/m 5,9 C 22,5 C 12,9 km/h (3 Bft) 100,00 %
09.04.2018 14:48 23,4 C 9,4 C 32 % 1002,8 hPa 0,0 l/m 6,9 km/h (2 Bft) O 80 1 min 0,000 mm 2,9 UV-I 571 W/m 5,8 C 23,3 C 9,7 km/h (2 Bft) 100,00 %
09.04.2018 14:49 23,4 C 9,4 C 31 % 1002,9 hPa 0,0 l/m 8,0 km/h (2 Bft) O-NO 70 1 min 0,000 mm 2,8 UV-I 741 W/m 5,3 C 22,9 C 9,7 km/h (2 Bft) 95,65 %
09.04.2018 14:50 23,4 C 9,4 C 30 % 1002,9 hPa 0,0 l/m 4,7 km/h (1 Bft) O 98 1 min 0,000 mm 2,8 UV-I 743 W/m 4,8 C 23,4 C 6,4 km/h (2 Bft) 96,67 %
09.04.2018 14:51 23,4 C 9,4 C 29 % 1002,9 hPa 0,0 l/m 3,7 km/h (1 Bft) O-NO 73 1 min 0,000 mm 2,8 UV-I 749 W/m 4,3 C 23,4 C 6,4 km/h (2 Bft) 100,00 %
09.04.2018 14:52 23,4 C 9,4 C 31 % 1002,8 hPa 0,0 l/m 3,3 km/h (1 Bft) O-NO 71 1 min 0,000 mm 2,8 UV-I 738 W/m 5,3 C 23,4 C 6,4 km/h (2 Bft) 100,00 %
09.04.2018 14:53 23,3 C 9,4 C 31 % 1002,8 hPa 0,0 l/m 2,6 km/h (1 Bft) NO 54 1 min 0,000 mm 2,7 UV-I 709 W/m 5,2 C 23,3 C 4,8 km/h (1 Bft) 95,65 %
09.04.2018 14:54 23,4 C 9,4 C 33 % 1002,8 hPa 0,0 l/m 3,2 km/h (1 Bft) O-NO 58 1 min 0,000 mm 2,7 UV-I 679 W/m 6,2 C 23,4 C 4,8 km/h (1 Bft) 96,30 %
09.04.2018 14:55 23,6 C 9,4 C 32 % 1002,8 hPa 0,0 l/m 3,2 km/h (1 Bft) O 86 1 min 0,000 mm 2,8 UV-I 717 W/m 5,9 C 23,6 C 4,8 km/h (1 Bft) 95,65 %
09.04.2018 14:56 23,6 C 9,4 C 31 % 1002,8 hPa 0,0 l/m 3,2 km/h (1 Bft) O-NO 69 1 min 0,000 mm 2,7 UV-I 711 W/m 5,5 C 23,6 C 4,8 km/h (1 Bft) 100,00 %
09.04.2018 14:57 23,7 C 9,4 C 31 % 1002,7 hPa 0,0 l/m 5,4 km/h (1 Bft) O-NO 63 1 min 0,000 mm 2,7 UV-I 705 W/m 5,6 C 23,7 C 9,7 km/h (2 Bft) 93,10 %
09.04.2018 14:58 23,8 C 9,4 C 34 % 1002,7 hPa 0,0 l/m 5,8 km/h (2 Bft) NO 44 1 min 0,000 mm 2,7 UV-I 697 W/m 7,0 C 23,8 C 8,0 km/h (2 Bft) 100,00 %
09.04.2018 14:59 23,8 C 9,4 C 30 % 1002,7 hPa 0,0 l/m 5,1 km/h (1 Bft) NO 39 1 min 0,000 mm 2,7 UV-I 698 W/m 5,2 C 23,8 C 9,7 km/h (2 Bft) 100,00 %
09.04.2018 15:00 23,8 C 9,4 C 31 % 1002,7 hPa 0,0 l/m 8,1 km/h (2 Bft) N 5 1 min 0,000 mm 2,7 UV-I 692 W/m 5,6 C 23,3 C 9,7 km/h (2 Bft) 100,00 %
09.04.2018 15:01 23,9 C 9,4 C 32 % 1002,7 hPa 0,0 l/m 6,5 km/h (2 Bft) NO 46 1 min 0,407 mm 2,6 UV-I 684 W/m 6,2 C 23,9 C 9,7 km/h (2 Bft) 100,00 %
09.04.2018 15:02 23,9 C 9,4 C 32 % 1002,7 hPa 0,0 l/m 5,9 km/h (2 Bft) NO 49 1 min 0,000 mm 2,6 UV-I 664 W/m 6,2 C 23,9 C 11,3 km/h (2 Bft) 100,00 %
09.04.2018 15:03 24,0 C 9,4 C 32 % 1002,7 hPa 0,0 l/m 8,3 km/h (2 Bft) NO 38 1 min 0,000 mm 2,6 UV-I 644 W/m 6,3 C 23,5 C 11,3 km/h (2 Bft) 100,00 %
09.04.2018 15:04 24,1 C 9,4 C 31 % 1002,7 hPa 0,0 l/m 3,7 km/h (1 Bft) N-NO 16 1 min 0,000 mm 2,5 UV-I 615 W/m 5,9 C 24,1 C 6,4 km/h (2 Bft) 100,00 %
09.04.2018 15:05 24,0 C 9,4 C 31 % 1002,7 hPa 0,0 l/m 1,9 km/h (1 Bft) N-NO 16 1 min 0,000 mm 2,5 UV-I 630 W/m 5,8 C 24,0 C 3,2 km/h (1 Bft) 100,00 %
09.04.2018 15:06 23,9 C 9,4 C 31 % 1002,7 hPa 0,0 l/m 4,8 km/h (1 Bft) NO 51 1 min 0,000 mm 2,4 UV-I 618 W/m 5,7 C 23,9 C 8,0 km/h (2 Bft) 100,00 %
09.04.2018 15:07 23,9 C 9,4 C 32 % 1002,6 hPa 0,0 l/m 4,3 km/h (1 Bft) O-NO 60 1 min 0,000 mm 2,4 UV-I 622 W/m 6,2 C 23,9 C 6,4 km/h (2 Bft) 100,00 %
09.04.2018 15:08 23,8 C 9,4 C 30 % 1002,6 hPa 0,0 l/m 2,1 km/h (1 Bft) O-NO 60 1 min 0,000 mm 2,4 UV-I 625 W/m 5,2 C 23,8 C 3,2 km/h (1 Bft) 95,65 %
09.04.2018 15:09 23,8 C 9,4 C 30 % 1002,6 hPa 0,0 l/m 4,8 km/h (1 Bft) N 349 1 min 0,000 mm 2,4 UV-I 625 W/m 5,2 C 23,8 C 8,0 km/h (2 Bft) 100,00 %
09.04.2018 15:10 23,8 C 9,4 C 31 % 1002,5 hPa 0,0 l/m 6,2 km/h (2 Bft) N 349 1 min 0,000 mm 2,4 UV-I 626 W/m 5,6 C 23,8 C 8,0 km/h (2 Bft) 100,00 %
09.04.2018 15:11 24,0 C 9,4 C 34 % 1002,5 hPa 0,0 l/m 3,8 km/h (1 Bft) O-NO 78 1 min 0,000 mm 2,4 UV-I 626 W/m 7,2 C 24,0 C 4,8 km/h (1 Bft) 100,00 %
09.04.2018 15:12 24,1 C 9,4 C 35 % 1002,5 hPa 0,0 l/m 5,5 km/h (1 Bft) O-NO 73 1 min 0,000 mm 2,4 UV-I 619 W/m 7,7 C 24,1 C 6,4 km/h (2 Bft) 100,00 %
09.04.2018 15:13 24,1 C 9,4 C 32 % 1002,5 hPa 0,0 l/m 5,1 km/h (1 Bft) O 95 1 min 0,000 mm 2,3 UV-I 597 W/m 6,4 C 24,1 C 8,0 km/h (2 Bft) 100,00 %
09.04.2018 15:14 24,1 C 9,4 C 32 % 1002,4 hPa 0,0 l/m 3,8 km/h (1 Bft) O 101 1 min 0,000 mm 2,3 UV-I 598 W/m 6,4 C 24,1 C 6,4 km/h (2 Bft) 95,65 %
09.04.2018 15:15 24,1 C 9,4 C 33 % 1002,4 hPa 0,0 l/m 3,4 km/h (1 Bft) O-SO 107 1 min 0,000 mm 2,3 UV-I 611 W/m 6,8 C 24,1 C 6,4 km/h (2 Bft) 100,00 %
09.04.2018 15:16 24,1 C 9,4 C 32 % 1002,4 hPa 0,0 l/m 7,1 km/h (2 Bft) N-NO 22 1 min 0,000 mm 2,3 UV-I 618 W/m 6,4 C 23,9 C 14,5 km/h (3 Bft) 95,65 %
09.04.2018 15:17 24,1 C 9,4 C 33 % 1002,4 hPa 0,0 l/m 11,9 km/h (2 Bft) NO 46 1 min 0,000 mm 2,3 UV-I 607 W/m 6,8 C 22,8 C 14,5 km/h (3 Bft) 100,00 %
09.04.2018 15:18 24,2 C 9,4 C 32 % 1002,4 hPa 0,0 l/m 8,5 km/h (2 Bft) O-NO 74 1 min 0,000 mm 2,3 UV-I 607 W/m 6,5 C 23,6 C 9,7 km/h (2 Bft) 100,00 %
09.04.2018 15:19 24,2 C 9,4 C 31 % 1002,3 hPa 0,0 l/m 4,7 km/h (1 Bft) NO 43 1 min 0,000 mm 2,3 UV-I 615 W/m 6,0 C 24,2 C 6,4 km/h (2 Bft) 100,00 %
09.04.2018 15:20 24,2 C 9,4 C 32 % 1002,3 hPa 0,0 l/m 6,8 km/h (2 Bft) NO 56 1 min 0,000 mm 2,2 UV-I 611 W/m 6,5 C 24,1 C 9,7 km/h (2 Bft) 100,00 %
09.04.2018 15:21 24,2 C 9,4 C 32 % 1002,3 hPa 0,0 l/m 5,1 km/h (1 Bft) NO 40 1 min 0,000 mm 2,2 UV-I 595 W/m 6,5 C 24,2 C 8,0 km/h (2 Bft) 88,46 %
09.04.2018 15:22 24,3 C 9,4 C 35 % 1002,3 hPa 0,0 l/m 8,3 km/h (2 Bft) O-NO 57 1 min 0,000 mm 2,1 UV-I 559 W/m 7,8 C 23,8 C 9,7 km/h (2 Bft) 96,30 %
09.04.2018 15:23 24,4 C 9,4 C 33 % 1002,2 hPa 0,0 l/m 8,5 km/h (2 Bft) N-NO 26 1 min 0,000 mm 2,2 UV-I 564 W/m 7,1 C 23,8 C 11,3 km/h (2 Bft) 94,12 %
09.04.2018 15:24 24,6 C 9,4 C 33 % 1002,2 hPa 0,0 l/m 8,6 km/h (2 Bft) N-NO 12 1 min 0,000 mm 2,1 UV-I 549 W/m 7,2 C 24,0 C 12,9 km/h (3 Bft) 100,00 %
09.04.2018 15:25 24,6 C 9,4 C 31 % 1002,2 hPa 0,0 l/m 10,5 km/h (2 Bft) N 355 1 min 0,000 mm 2,1 UV-I 533 W/m 6,3 C 23,6 C 14,5 km/h (3 Bft) 95,65 %
09.04.2018 15:26 24,6 C 9,4 C 31 % 1002,2 hPa 0,0 l/m 5,8 km/h (2 Bft) NW 316 1 min 0,000 mm 2,0 UV-I 489 W/m 6,3 C 24,6 C 6,4 km/h (2 Bft) 100,00 %
09.04.2018 15:27 24,6 C 9,4 C 30 % 1002,2 hPa 0,0 l/m 4,3 km/h (1 Bft) NW 325 1 min 0,000 mm 1,9 UV-I 473 W/m 5,9 C 24,6 C 6,4 km/h (2 Bft) 91,30 %
09.04.2018 15:28 24,6 C 9,4 C 30 % 1002,2 hPa 0,0 l/m 8,7 km/h (2 Bft) NO 43 1 min 0,000 mm 1,9 UV-I 445 W/m 5,9 C 24,0 C 11,3 km/h (2 Bft) 95,83 %
09.04.2018 15:29 24,5 C 9,4 C 30 % 1002,1 hPa 0,0 l/m 6,6 km/h (2 Bft) NO 50 1 min 0,000 mm 1,8 UV-I 431 W/m 5,8 C 24,5 C 11,3 km/h (2 Bft) 95,65 %
09.04.2018 15:30 24,4 C 9,4 C 34 % 1002,1 hPa 0,0 l/m 8,6 km/h (2 Bft) N-NO 32 1 min 0,000 mm 1,8 UV-I 427 W/m 7,5 C 23,8 C 12,9 km/h (3 Bft) 91,67 %
09.04.2018 15:31 24,4 C 9,4 C 31 % 1002,1 hPa 0,0 l/m 7,2 km/h (2 Bft) N 11 1 min 0,000 mm 1,8 UV-I 425 W/m 6,2 C 24,2 C 12,9 km/h (3 Bft) 100,00 %
09.04.2018 15:32 24,3 C 9,4 C 32 % 1002,1 hPa 0,0 l/m 3,6 km/h (1 Bft) NW 325 1 min 0,000 mm 1,8 UV-I 431 W/m 6,5 C 24,3 C 4,8 km/h (1 Bft) 91,67 %
09.04.2018 15:33 24,3 C 9,4 C 34 % 1002,1 hPa 0,0 l/m 2,4 km/h (1 Bft) NW 325 1 min 0,000 mm 1,8 UV-I 443 W/m 7,4 C 24,3 C 3,2 km/h (1 Bft) 100,00 %
09.04.2018 15:34 24,3 C 9,4 C 33 % 1002,0 hPa 0,0 l/m 2,5 km/h (1 Bft) N-NO 30 1 min 0,000 mm 1,9 UV-I 504 W/m 7,0 C 24,3 C 4,8 km/h (1 Bft) 93,10 %
09.04.2018 15:35 24,4 C 9,4 C 31 % 1002,1 hPa 0,0 l/m 3,6 km/h (1 Bft) O 83 1 min 0,000 mm 2,0 UV-I 558 W/m 6,2 C 24,4 C 4,8 km/h (1 Bft) 100,00 %
09.04.2018 15:36 24,4 C 9,4 C 31 % 1002,1 hPa 0,0 l/m 4,4 km/h (1 Bft) O-NO 63 1 min 0,000 mm 2,0 UV-I 598 W/m 6,2 C 24,4 C 4,8 km/h (1 Bft) 86,67 %
09.04.2018 15:37 24,5 C 9,4 C 32 % 1002,0 hPa 0,0 l/m 6,4 km/h (2 Bft) NO 47 1 min 0,000 mm 2,1 UV-I 592 W/m 6,7 C 24,5 C 8,0 km/h (2 Bft) 100,00 %
09.04.2018 15:38 24,6 C 9,4 C 35 % 1002,0 hPa 0,0 l/m 5,6 km/h (1 Bft) N-NO 30 1 min 0,000 mm 2,0 UV-I 576 W/m 8,1 C 24,6 C 8,0 km/h (2 Bft) 91,30 %
09.04.2018 15:39 24,7 C 9,4 C 31 % 1002,0 hPa 0,0 l/m 7,9 km/h (2 Bft) N-NO 25 1 min 0,000 mm 2,1 UV-I 596 W/m 6,4 C 24,3 C 9,7 km/h (2 Bft) 100,00 %
09.04.2018 15:40 24,8 C 9,4 C 30 % 1002,0 hPa 0,0 l/m 9,0 km/h (2 Bft) NO 42 1 min 0,000 mm 2,1 UV-I 640 W/m 6,0 C 24,2 C 12,9 km/h (3 Bft) 93,10 %
09.04.2018 15:41 24,9 C 9,4 C 30 % 1002,0 hPa 0,0 l/m 7,5 km/h (2 Bft) NO 51 1 min 0,000 mm 2,1 UV-I 639 W/m 6,1 C 24,6 C 9,7 km/h (2 Bft) 96,30 %
09.04.2018 15:43 25,1 C 9,4 C 25 % 1002,0 hPa 0,0 l/m 2,3 km/h (1 Bft) NO 48 2 min 0,000 mm 2,1 UV-I 628 W/m 3,7 C 25,1 C 6,4 km/h (2 Bft) 94,00 %
09.04.2018 15:44 24,9 C 9,4 C 25 % 1001,9 hPa 0,0 l/m 1,9 km/h (1 Bft) O 79 1 min 0,000 mm 1,2 UV-I 618 W/m 3,5 C 24,9 C 4,8 km/h (1 Bft) 100,00 %
09.04.2018 15:45 24,9 C 9,4 C 27 % 1001,9 hPa 0,0 l/m 6,2 km/h (2 Bft) O-NO 65 1 min 0,000 mm 1,9 UV-I 591 W/m 4,6 C 24,9 C 8,0 km/h (2 Bft) 92,59 %
09.04.2018 15:46 25,0 C 9,4 C 29 % 1001,9 hPa 0,0 l/m 6,6 km/h (2 Bft) O-NO 70 1 min 0,000 mm 2,0 UV-I 598 W/m 5,7 C 25,0 C 12,9 km/h (3 Bft) 96,15 %
09.04.2018 15:47 25,1 C 9,4 C 28 % 1001,9 hPa 0,0 l/m 7,5 km/h (2 Bft) NO 47 1 min 0,000 mm 2,0 UV-I 612 W/m 5,3 C 24,8 C 9,7 km/h (2 Bft) 96,30 %
09.04.2018 15:48 25,1 C 9,4 C 26 % 1001,9 hPa 0,0 l/m 8,4 km/h (2 Bft) O-NO 74 1 min 0,000 mm 2,1 UV-I 632 W/m 4,2 C 24,6 C 14,5 km/h (3 Bft) 95,65 %
09.04.2018 15:49 25,1 C 9,4 C 29 % 1001,9 hPa 0,0 l/m 7,3 km/h (2 Bft) O-NO 62 1 min 0,000 mm 2,1 UV-I 640 W/m 5,8 C 24,9 C 12,9 km/h (3 Bft) 98,08 %
09.04.2018 15:50 25,1 C 9,4 C 28 % 1001,9 hPa 0,0 l/m 7,9 km/h (2 Bft) O 84 1 min 0,000 mm 2,0 UV-I 639 W/m 5,3 C 24,7 C 12,9 km/h (3 Bft) 95,12 %
09.04.2018 15:51 25,1 C 9,4 C 25 % 1001,9 hPa 0,0 l/m 8,6 km/h (2 Bft) O-NO 61 1 min 0,000 mm 2,0 UV-I 628 W/m 3,7 C 24,6 C 11,3 km/h (2 Bft) 96,30 %
09.04.2018 15:52 25,1 C 9,4 C 27 % 1001,9 hPa 0,0 l/m 6,0 km/h (2 Bft) NO 46 1 min 0,000 mm 2,0 UV-I 614 W/m 4,8 C 25,1 C 8,0 km/h (2 Bft) 92,31 %
09.04.2018 15:53 25,2 C 9,4 C 29 % 1001,9 hPa 0,0 l/m 7,1 km/h (2 Bft) O-SO 109 1 min 0,000 mm 2,0 UV-I 612 W/m 5,9 C 25,0 C 9,7 km/h (2 Bft) 100,00 %
09.04.2018 15:54 25,2 C 9,4 C 26 % 1001,9 hPa 0,0 l/m 9,6 km/h (2 Bft) O-NO 59 1 min 0,000 mm 2,0 UV-I 594 W/m 4,3 C 24,5 C 12,9 km/h (3 Bft) 92,59 %
09.04.2018 15:55 25,1 C 9,4 C 27 % 1001,8 hPa 0,0 l/m 10,9 km/h (2 Bft) O 96 1 min 0,000 mm 1,9 UV-I 580 W/m 4,8 C 24,1 C 12,9 km/h (3 Bft) 100,00 %
09.04.2018 15:56 25,1 C 9,4 C 25 % 1001,9 hPa 0,0 l/m 8,8 km/h (2 Bft) O-SO 106 1 min 0,000 mm 1,9 UV-I 553 W/m 3,7 C 24,5 C 12,9 km/h (3 Bft) 100,00 %
09.04.2018 15:57 24,9 C 9,4 C 26 % 1001,8 hPa 0,0 l/m 6,0 km/h (2 Bft) O 88 1 min 0,000 mm 1,8 UV-I 532 W/m 4,1 C 24,9 C 9,7 km/h (2 Bft) 92,31 %
09.04.2018 15:58 24,9 C 9,4 C 27 % 1001,8 hPa 0,0 l/m 4,6 km/h (1 Bft) O-SO 122 1 min 0,000 mm 1,8 UV-I 512 W/m 4,6 C 24,9 C 6,4 km/h (2 Bft) 95,83 %
09.04.2018 15:59 24,8 C 9,4 C 25 % 1001,7 hPa 0,0 l/m 4,9 km/h (1 Bft) O-NO 63 1 min 0,000 mm 1,9 UV-I 554 W/m 3,4 C 24,8 C 12,9 km/h (3 Bft) 100,00 %
09.04.2018 16:00 24,8 C 9,4 C 28 % 1001,8 hPa 0,0 l/m 10,3 km/h (2 Bft) O-NO 62 1 min 0,000 mm 1,9 UV-I 596 W/m 5,0 C 23,9 C 14,5 km/h (3 Bft) 96,30 %
09.04.2018 16:01 24,9 C 9,4 C 28 % 1001,7 hPa 0,0 l/m 10,5 km/h (2 Bft) O-NO 65 1 min 0,431 mm 1,9 UV-I 612 W/m 5,1 C 24,0 C 14,5 km/h (3 Bft) 100,00 %
09.04.2018 16:03 25,1 C 9,4 C 25 % 1001,7 hPa 0,0 l/m 10,2 km/h (2 Bft) O-NO 65 2 min 0,000 mm 1,9 UV-I 611 W/m 3,7 C 24,2 C 14,5 km/h (3 Bft) 95,45 %
09.04.2018 16:04 25,1 C 9,4 C 27 % 1001,7 hPa 0,0 l/m 17,1 km/h (3 Bft) NO 53 1 min 0,000 mm 1,9 UV-I 608 W/m 4,8 C 23,1 C 20,9 km/h (4 Bft) 92,59 %
09.04.2018 16:05 25,1 C 9,4 C 27 % 1001,7 hPa 0,0 l/m 14,6 km/h (3 Bft) O-NO 61 1 min 0,000 mm 1,8 UV-I 601 W/m 4,8 C 23,5 C 19,3 km/h (3 Bft) 98,03 %
09.04.2018 16:06 25,1 C 9,4 C 29 % 1001,6 hPa 0,0 l/m 14,3 km/h (3 Bft) O-NO 76 1 min 0,000 mm 1,8 UV-I 598 W/m 5,8 C 23,5 C 17,7 km/h (3 Bft) 97,56 %
09.04.2018 16:07 25,1 C 9,4 C 29 % 1001,6 hPa 0,0 l/m 10,9 km/h (2 Bft) O-SO 102 1 min 0,000 mm 1,8 UV-I 593 W/m 5,8 C 24,1 C 14,5 km/h (3 Bft) 100,00 %
09.04.2018 16:08 25,1 C 9,4 C 26 % 1001,6 hPa 0,0 l/m 13,0 km/h (3 Bft) O 98 1 min 0,000 mm 1,8 UV-I 585 W/m 4,2 C 23,7 C 16,1 km/h (3 Bft) 96,67 %
09.04.2018 16:09 25,0 C 9,4 C 25 % 1001,6 hPa 0,0 l/m 10,0 km/h (2 Bft) O 95 1 min 0,000 mm 1,8 UV-I 579 W/m 3,6 C 24,2 C 12,9 km/h (3 Bft) 100,00 %
09.04.2018 16:10 25,0 C 9,4 C 23 % 1001,6 hPa 0,0 l/m 10,7 km/h (2 Bft) O 82 1 min 0,000 mm 1,7 UV-I 564 W/m 2,4 C 24,0 C 14,5 km/h (3 Bft) 96,55 %
09.04.2018 16:11 24,9 C 9,4 C 24 % 1001,5 hPa 0,0 l/m 8,5 km/h (2 Bft) O 98 1 min 0,000 mm 1,7 UV-I 537 W/m 2,9 C 24,4 C 11,3 km/h (2 Bft) 95,83 %
09.04.2018 16:13 24,8 C 9,4 C 24 % 1001,5 hPa 0,0 l/m 5,8 km/h (2 Bft) O-SO 103 2 min 0,000 mm 1,6 UV-I 513 W/m 2,9 C 24,8 C 9,7 km/h (2 Bft) 98,18 %
09.04.2018 16:14 24,8 C 9,4 C 26 % 1001,5 hPa 0,0 l/m 5,1 km/h (1 Bft) SO 134 1 min 0,000 mm 1,6 UV-I 514 W/m 4,0 C 24,8 C 6,4 km/h (2 Bft) 95,83 %
09.04.2018 16:15 24,8 C 9,4 C 25 % 1001,5 hPa 0,0 l/m 3,4 km/h (1 Bft) SO 132 1 min 0,000 mm 1,7 UV-I 541 W/m 3,4 C 24,8 C 6,4 km/h (2 Bft) 100,00 %
09.04.2018 16:16 24,9 C 9,4 C 24 % 1001,5 hPa 0,0 l/m 1,9 km/h (1 Bft) SO 132 1 min 0,000 mm 1,7 UV-I 559 W/m 2,9 C 24,9 C 3,2 km/h (1 Bft) 100,00 %
09.04.2018 16:18 25,1 C 9,4 C 25 % 1001,5 hPa 0,0 l/m 8,3 km/h (2 Bft) O 99 2 min 0,000 mm 1,6 UV-I 549 W/m 3,7 C 24,6 C 16,1 km/h (3 Bft) 94,64 %
09.04.2018 16:19 25,1 C 9,4 C 21 % 1001,5 hPa 0,0 l/m 13,2 km/h (3 Bft) O 98 1 min 0,000 mm 1,6 UV-I 542 W/m 1,2 C 23,7 C 16,1 km/h (3 Bft) 100,00 %
09.04.2018 16:20 25,1 C 9,4 C 22 % 1001,5 hPa 0,0 l/m 9,1 km/h (2 Bft) O-SO 112 1 min 0,000 mm 1,6 UV-I 549 W/m 1,9 C 24,5 C 14,5 km/h (3 Bft) 96,15 %
09.04.2018 16:21 25,0 C 9,4 C 24 % 1001,5 hPa 0,0 l/m 10,7 km/h (2 Bft) O-SO 109 1 min 0,000 mm 1,6 UV-I 541 W/m 3,0 C 24,0 C 14,5 km/h (3 Bft) 100,00 %
09.04.2018 16:23 25,0 C 9,4 C 21 % 1001,4 hPa 0,0 l/m 7,5 km/h (2 Bft) O-SO 106 2 min 0,000 mm 1,5 UV-I 523 W/m 1,2 C 24,7 C 12,9 km/h (3 Bft) 97,73 %
09.04.2018 16:24 25,0 C 9,4 C 22 % 1001,4 hPa 0,0 l/m 5,4 km/h (1 Bft) O-SO 103 1 min 0,000 mm 1,5 UV-I 517 W/m 1,8 C 25,0 C 9,7 km/h (2 Bft) 96,15 %
09.04.2018 16:25 24,9 C 9,4 C 22 % 1001,4 hPa 0,0 l/m 4,5 km/h (1 Bft) O-SO 107 1 min 0,000 mm 1,5 UV-I 513 W/m 1,7 C 24,9 C 11,3 km/h (2 Bft) 100,00 %
09.04.2018 16:26 25,0 C 9,4 C 24 % 1001,3 hPa 0,0 l/m 10,2 km/h (2 Bft) O 94 1 min 0,000 mm 1,5 UV-I 517 W/m 3,0 C 24,1 C 16,1 km/h (3 Bft) 92,86 %
09.04.2018 16:27 25,1 C 9,4 C 25 % 1001,3 hPa 0,0 l/m 13,6 km/h (3 Bft) O 92 1 min 0,000 mm 1,5 UV-I 516 W/m 3,7 C 23,6 C 19,3 km/h (3 Bft) 100,00 %
09.04.2018 16:28 25,1 C 9,4 C 24 % 1001,3 hPa 0,0 l/m 12,2 km/h (2 Bft) O 90 1 min 0,000 mm 1,4 UV-I 503 W/m 3,1 C 23,9 C 14,5 km/h (3 Bft) 95,83 %
09.04.2018 16:29 25,1 C 9,4 C 26 % 1001,4 hPa 0,0 l/m 9,6 km/h (2 Bft) O 83 1 min 0,000 mm 1,4 UV-I 490 W/m 4,2 C 24,4 C 12,9 km/h (3 Bft) 95,65 %
09.04.2018 16:30 25,1 C 9,4 C 26 % 1001,3 hPa 0,0 l/m 13,4 km/h (3 Bft) O 101 1 min 0,000 mm 1,4 UV-I 468 W/m 4,2 C 23,7 C 16,1 km/h (3 Bft) 100,00 %
09.04.2018 16:31 25,1 C 9,4 C 25 % 1001,4 hPa 0,0 l/m 14,3 km/h (3 Bft) O 101 1 min 0,000 mm 1,4 UV-I 463 W/m 3,7 C 23,5 C 17,7 km/h (3 Bft) 100,00 %
09.04.2018 16:32 25,1 C 9,4 C 25 % 1001,4 hPa 0,0 l/m 15,3 km/h (3 Bft) O-SO 107 1 min 0,000 mm 1,4 UV-I 474 W/m 3,7 C 23,4 C 19,3 km/h (3 Bft) 98,02 %
09.04.2018 16:33 24,9 C 9,4 C 22 % 1001,4 hPa 0,0 l/m 16,4 km/h (3 Bft) O 90 1 min 0,000 mm 1,4 UV-I 473 W/m 1,7 C 23,0 C 20,9 km/h (4 Bft) 97,73 %
09.04.2018 16:34 24,9 C 9,4 C 23 % 1001,4 hPa 0,0 l/m 7,8 km/h (2 Bft) O-SO 114 1 min 0,000 mm 1,4 UV-I 485 W/m 2,3 C 24,5 C 12,9 km/h (3 Bft) 100,00 %
09.04.2018 16:35 24,8 C 9,4 C 23 % 1001,3 hPa 0,0 l/m 8,0 km/h (2 Bft) O 81 1 min 0,000 mm 1,4 UV-I 491 W/m 2,3 C 24,4 C 17,7 km/h (3 Bft) 95,65 %
09.04.2018 16:36 24,9 C 9,4 C 22 % 1001,3 hPa 0,0 l/m 12,6 km/h (3 Bft) O 98 1 min 0,000 mm 1,3 UV-I 489 W/m 1,7 C 23,6 C 17,7 km/h (3 Bft) 100,00 %
09.04.2018 16:37 24,9 C 9,4 C 22 % 1001,3 hPa 0,0 l/m 13,9 km/h (3 Bft) O 91 1 min 0,000 mm 1,3 UV-I 489 W/m 1,7 C 23,4 C 17,7 km/h (3 Bft) 96,15 %
09.04.2018 16:38 24,8 C 9,4 C 23 % 1001,4 hPa 0,0 l/m 17,6 km/h (3 Bft) O-NO 71 1 min 0,000 mm 1,3 UV-I 479 W/m 2,3 C 22,7 C 22,5 km/h (4 Bft) 100,00 %
09.04.2018 16:39 24,9 C 9,4 C 23 % 1001,3 hPa 0,0 l/m 15,8 km/h (3 Bft) O-NO 73 1 min 0,000 mm 1,3 UV-I 469 W/m 2,3 C 23,1 C 19,3 km/h (3 Bft) 100,00 %
09.04.2018 16:40 24,9 C 9,4 C 23 % 1001,3 hPa 0,0 l/m 11,5 km/h (2 Bft) O-SO 107 1 min 0,000 mm 1,3 UV-I 472 W/m 2,3 C 23,8 C 14,5 km/h (3 Bft) 100,00 %
09.04.2018 16:41 24,9 C 9,4 C 24 % 1001,3 hPa 0,0 l/m 15,2 km/h (3 Bft) O 100 1 min 0,000 mm 1,3 UV-I 479 W/m 2,9 C 23,2 C 25,7 km/h (4 Bft) 100,00 %
09.04.2018 16:42 24,9 C 8,9 C 25 % 1001,2 hPa 0,0 l/m 20,2 km/h (4 Bft) O-SO 123 1 min 0,000 mm 1,3 UV-I 482 W/m 3,5 C 22,5 C 24,1 km/h (4 Bft) 100,00 %
09.04.2018 16:43 24,9 C 9,4 C 26 % 1001,2 hPa 0,0 l/m 14,1 km/h (3 Bft) O-SO 117 1 min 0,000 mm 1,3 UV-I 479 W/m 4,1 C 23,3 C 19,3 km/h (3 Bft) 100,00 %
09.04.2018 16:44 24,8 C 9,4 C 26 % 1001,2 hPa 0,0 l/m 18,7 km/h (3 Bft) O-SO 111 1 min 0,000 mm 1,2 UV-I 470 W/m 4,0 C 22,6 C 25,7 km/h (4 Bft) 100,00 %
09.04.2018 16:45 24,8 C 9,4 C 26 % 1001,2 hPa 0,0 l/m 13,5 km/h (3 Bft) O-SO 107 1 min 0,000 mm 1,2 UV-I 470 W/m 4,0 C 23,3 C 19,3 km/h (3 Bft) 100,00 %
09.04.2018 16:46 24,8 C 9,4 C 28 % 1001,2 hPa 0,0 l/m 18,1 km/h (3 Bft) O-SO 105 1 min 0,000 mm 1,2 UV-I 467 W/m 5,0 C 22,6 C 25,7 km/h (4 Bft) 100,00 %
09.04.2018 16:47 24,8 C 9,4 C 26 % 1001,2 hPa 0,0 l/m 15,3 km/h (3 Bft) O 84 1 min 0,000 mm 1,2 UV-I 449 W/m 4,0 C 23,0 C 20,9 km/h (4 Bft) 100,00 %
09.04.2018 16:48 24,7 C 9,4 C 25 % 1001,2 hPa 0,0 l/m 17,3 km/h (3 Bft) O 94 1 min 0,000 mm 1,2 UV-I 441 W/m 3,3 C 22,6 C 19,3 km/h (3 Bft) 95,65 %
09.04.2018 16:49 24,7 C 9,4 C 27 % 1001,2 hPa 0,0 l/m 16,4 km/h (3 Bft) O 97 1 min 0,000 mm 1,2 UV-I 441 W/m 4,4 C 22,7 C 22,5 km/h (4 Bft) 100,00 %
09.04.2018 16:50 24,6 C 8,9 C 27 % 1001,2 hPa 0,0 l/m 16,6 km/h (3 Bft) O 96 1 min 0,000 mm 1,2 UV-I 438 W/m 4,4 C 22,6 C 19,3 km/h (3 Bft) 100,00 %
09.04.2018 16:51 24,6 C 9,4 C 26 % 1001,2 hPa 0,0 l/m 14,6 km/h (3 Bft) O 94 1 min 0,000 mm 1,1 UV-I 428 W/m 3,8 C 22,9 C 17,7 km/h (3 Bft) 95,65 %
09.04.2018 16:52 24,5 C 8,9 C 27 % 1001,2 hPa 0,0 l/m 17,0 km/h (3 Bft) O-NO 78 1 min 0,000 mm 1,1 UV-I 414 W/m 4,3 C 22,4 C 22,5 km/h (4 Bft) 100,00 %
09.04.2018 16:53 24,5 C 9,4 C 29 % 1001,2 hPa 0,0 l/m 14,6 km/h (3 Bft) O 94 1 min 0,000 mm 1,1 UV-I 400 W/m 5,3 C 22,8 C 19,3 km/h (3 Bft) 100,00 %
09.04.2018 16:54 24,4 C 9,4 C 30 % 1001,2 hPa 0,0 l/m 17,1 km/h (3 Bft) O-SO 106 1 min 0,000 mm 1,1 UV-I 402 W/m 5,7 C 22,3 C 22,5 km/h (4 Bft) 95,00 %
09.04.2018 16:55 24,4 C 9,4 C 28 % 1001,2 hPa 0,0 l/m 19,0 km/h (3 Bft) NO 51 1 min 0,000 mm 1,1 UV-I 414 W/m 4,7 C 22,0 C 29,0 km/h (5 Bft) 100,00 %
09.04.2018 16:56 24,3 C 9,4 C 29 % 1001,2 hPa 0,0 l/m 24,8 km/h (4 Bft) O 83 1 min 0,000 mm 1,1 UV-I 402 W/m 5,1 C 21,2 C 30,6 km/h (5 Bft) 100,00 %
09.04.2018 16:57 24,3 C 9,4 C 27 % 1001,2 hPa 0,0 l/m 21,6 km/h (4 Bft) O 88 1 min 0,000 mm 1,1 UV-I 397 W/m 4,1 C 21,6 C 27,4 km/h (4 Bft) 98,05 %
09.04.2018 16:58 24,3 C 9,4 C 29 % 1001,2 hPa 0,0 l/m 21,4 km/h (4 Bft) O-NO 78 1 min 0,000 mm 1,0 UV-I 397 W/m 5,1 C 21,6 C 32,2 km/h (5 Bft) 100,00 %
09.04.2018 16:59 24,2 C 9,4 C 29 % 1001,2 hPa 0,0 l/m 21,1 km/h (4 Bft) O-SO 104 1 min 0,000 mm 1,0 UV-I 397 W/m 5,0 C 21,5 C 29,0 km/h (5 Bft) 100,00 %
09.04.2018 17:00 24,1 C 9,4 C 29 % 1001,2 hPa 0,0 l/m 24,0 km/h (4 Bft) O 80 1 min 0,000 mm 1,0 UV-I 387 W/m 4,9 C 21,0 C 30,6 km/h (5 Bft) 100,00 %
09.04.2018 17:01 24,1 C 9,4 C 30 % 1001,2 hPa 0,0 l/m 19,4 km/h (3 Bft) O 82 1 min 0,458 mm 1,0 UV-I 384 W/m 5,4 C 21,6 C 24,1 km/h (4 Bft) 100,00 %
09.04.2018 17:02 24,0 C 9,4 C 30 % 1001,2 hPa 0,0 l/m 22,1 km/h (4 Bft) O 84 1 min 0,000 mm 1,0 UV-I 357 W/m 5,3 C 21,1 C 30,6 km/h (5 Bft) 100,00 %
09.04.2018 17:03 23,9 C 9,4 C 29 % 1001,2 hPa 0,0 l/m 23,4 km/h (4 Bft) O-SO 115 1 min 0,000 mm 0,9 UV-I 343 W/m 4,8 C 20,8 C 30,6 km/h (5 Bft) 100,00 %
09.04.2018 17:04 23,9 C 9,4 C 29 % 1001,2 hPa 0,0 l/m 24,1 km/h (4 Bft) O-NO 73 1 min 0,000 mm 0,9 UV-I 338 W/m 4,8 C 20,8 C 29,0 km/h (5 Bft) 100,00 %
09.04.2018 17:05 23,8 C 9,4 C 30 % 1001,2 hPa 0,0 l/m 18,8 km/h (3 Bft) O 82 1 min 0,000 mm 0,9 UV-I 324 W/m 5,2 C 21,3 C 25,7 km/h (4 Bft) 100,00 %
09.04.2018 17:06 23,8 C 9,4 C 29 % 1001,2 hPa 0,0 l/m 21,4 km/h (4 Bft) O-NO 76 1 min 0,000 mm 0,9 UV-I 316 W/m 4,7 C 20,9 C 25,7 km/h (4 Bft) 100,00 %
09.04.2018 17:07 23,8 C 9,4 C 31 % 1001,2 hPa 0,0 l/m 17,9 km/h (3 Bft) O 92 1 min 0,000 mm 0,9 UV-I 314 W/m 5,6 C 21,4 C 19,3 km/h (3 Bft) 100,00 %
09.04.2018 17:08 23,7 C 8,9 C 30 % 1001,2 hPa 0,0 l/m 18,6 km/h (3 Bft) O-NO 60 1 min 0,000 mm 0,9 UV-I 320 W/m 5,1 C 21,2 C 22,5 km/h (4 Bft) 100,00 %
09.04.2018 17:09 23,7 C 9,4 C 29 % 1001,2 hPa 0,0 l/m 16,9 km/h (3 Bft) O 96 1 min 0,000 mm 0,9 UV-I 322 W/m 4,6 C 21,4 C 20,9 km/h (4 Bft) 100,00 %
09.04.2018 17:10 23,7 C 9,4 C 30 % 1001,2 hPa 0,0 l/m 16,6 km/h (3 Bft) SO 132 1 min 0,000 mm 0,9 UV-I 308 W/m 5,1 C 21,5 C 20,9 km/h (4 Bft) 100,00 %
09.04.2018 17:11 23,7 C 8,9 C 31 % 1001,2 hPa 0,0 l/m 12,8 km/h (3 Bft) O-SO 117 1 min 0,000 mm 0,8 UV-I 303 W/m 5,6 C 22,1 C 20,9 km/h (4 Bft) 100,00 %
09.04.2018 17:12 23,6 C 9,4 C 32 % 1001,2 hPa 0,0 l/m 10,3 km/h (2 Bft) O-SO 122 1 min 0,000 mm 0,8 UV-I 296 W/m 5,9 C 22,5 C 16,1 km/h (3 Bft) 100,00 %
09.04.2018 17:13 23,6 C 9,4 C 30 % 1001,4 hPa 0,0 l/m 11,7 km/h (2 Bft) SO 136 1 min 0,000 mm 0,8 UV-I 278 W/m 5,0 C 22,2 C 16,1 km/h (3 Bft) 100,00 %
09.04.2018 17:14 23,6 C 8,9 C 31 % 1001,3 hPa 0,0 l/m 9,0 km/h (2 Bft) SO 132 1 min 0,000 mm 0,8 UV-I 269 W/m 5,5 C 22,9 C 14,5 km/h (3 Bft) 100,00 %
09.04.2018 17:15 23,6 C 9,4 C 30 % 1001,3 hPa 0,0 l/m 9,7 km/h (2 Bft) SO 132 1 min 0,000 mm 0,8 UV-I 254 W/m 5,0 C 22,7 C 12,9 km/h (3 Bft) 92,31 %
09.04.2018 17:16 23,6 C 9,4 C 30 % 1001,3 hPa 0,0 l/m 6,8 km/h (2 Bft) SO 140 1 min 0,000 mm 0,7 UV-I 240 W/m 5,0 C 23,5 C 11,3 km/h (2 Bft) 96,67 %
09.04.2018 17:17 23,7 C 9,4 C 29 % 1001,3 hPa 0,0 l/m 6,3 km/h (2 Bft) SO 130 1 min 0,000 mm 0,7 UV-I 234 W/m 4,6 C 23,7 C 12,9 km/h (3 Bft) 100,00 %
09.04.2018 17:18 23,7 C 9,4 C 29 % 1001,3 hPa 0,0 l/m 3,7 km/h (1 Bft) O-SO 121 1 min 0,000 mm 0,7 UV-I 223 W/m 4,6 C 23,7 C 8,0 km/h (2 Bft) 100,00 %
09.04.2018 17:19 23,7 C 8,9 C 29 % 1001,3 hPa 0,0 l/m 7,7 km/h (2 Bft) SO 142 1 min 0,000 mm 0,7 UV-I 232 W/m 4,6 C 23,3 C 19,3 km/h (3 Bft) 100,00 %
09.04.2018 17:20 23,7 C 9,4 C 26 % 1001,3 hPa 0,0 l/m 17,6 km/h (3 Bft) SO 137 1 min 0,000 mm 0,7 UV-I 231 W/m 3,1 C 21,3 C 20,9 km/h (4 Bft) 96,30 %
09.04.2018 17:21 23,7 C 9,4 C 26 % 1001,3 hPa 0,0 l/m 18,4 km/h (3 Bft) SO 134 1 min 0,000 mm 0,7 UV-I 220 W/m 3,1 C 21,2 C 22,5 km/h (4 Bft) 100,00 %
09.04.2018 17:22 23,7 C 9,4 C 25 % 1001,2 hPa 0,0 l/m 14,8 km/h (3 Bft) S-SO 151 1 min 0,000 mm 0,7 UV-I 225 W/m 2,5 C 21,8 C 20,9 km/h (4 Bft) 95,83 %
09.04.2018 17:23 23,7 C 9,4 C 24 % 1001,3 hPa 0,0 l/m 15,4 km/h (3 Bft) S 184 1 min 0,000 mm 0,7 UV-I 247 W/m 1,9 C 21,7 C 20,9 km/h (4 Bft) 96,15 %
09.04.2018 17:24 23,7 C 9,4 C 27 % 1001,3 hPa 0,0 l/m 14,3 km/h (3 Bft) SO 143 1 min 0,000 mm 0,7 UV-I 276 W/m 3,6 C 21,9 C 17,7 km/h (3 Bft) 100,00 %
09.04.2018 17:25 23,7 C 9,4 C 25 % 1001,3 hPa 0,0 l/m 11,1 km/h (2 Bft) S-SO 149 1 min 0,000 mm 0,7 UV-I 299 W/m 2,5 C 22,5 C 14,5 km/h (3 Bft) 92,31 %
09.04.2018 17:26 23,7 C 9,4 C 25 % 1001,3 hPa 0,0 l/m 15,9 km/h (3 Bft) SO 125 1 min 0,000 mm 0,7 UV-I 296 W/m 2,5 C 21,6 C 20,9 km/h (4 Bft) 100,00 %
09.04.2018 17:27 23,8 C 9,4 C 25 % 1001,3 hPa 0,0 l/m 9,3 km/h (2 Bft) SO 144 1 min 0,000 mm 0,7 UV-I 295 W/m 2,6 C 23,0 C 12,9 km/h (3 Bft) 96,30 %
09.04.2018 17:28 23,8 C 9,4 C 25 % 1001,3 hPa 0,0 l/m 13,3 km/h (3 Bft) SO 141 1 min 0,000 mm 0,7 UV-I 291 W/m 2,6 C 22,2 C 17,7 km/h (3 Bft) 100,00 %
09.04.2018 17:29 23,8 C 9,4 C 24 % 1001,3 hPa 0,0 l/m 14,4 km/h (3 Bft) O-SO 117 1 min 0,000 mm 0,7 UV-I 280 W/m 2,0 C 22,0 C 17,7 km/h (3 Bft) 93,33 %
09.04.2018 17:30 23,8 C 9,4 C 24 % 1001,3 hPa 0,0 l/m 15,7 km/h (3 Bft) SO 136 1 min 0,000 mm 0,6 UV-I 267 W/m 2,0 C 21,7 C 22,5 km/h (4 Bft) 96,77 %
09.04.2018 17:31 23,8 C 9,4 C 24 % 1001,3 hPa 0,0 l/m 11,9 km/h (2 Bft) SO 125 1 min 0,000 mm 0,6 UV-I 280 W/m 2,0 C 22,4 C 16,1 km/h (3 Bft) 100,00 %
09.04.2018 17:32 23,8 C 9,4 C 25 % 1001,2 hPa 0,0 l/m 15,0 km/h (3 Bft) SO 142 1 min 0,000 mm 0,6 UV-I 291 W/m 2,6 C 21,9 C 22,5 km/h (4 Bft) 95,65 %
09.04.2018 17:33 23,8 C 9,4 C 24 % 1001,3 hPa 0,0 l/m 17,8 km/h (3 Bft) S 171 1 min 0,000 mm 0,6 UV-I 294 W/m 2,0 C 21,4 C 27,4 km/h (4 Bft) 100,00 %
09.04.2018 17:34 23,8 C 9,4 C 23 % 1001,3 hPa 0,0 l/m 22,9 km/h (4 Bft) SO 128 1 min 0,000 mm 0,6 UV-I 281 W/m 1,4 C 20,8 C 30,6 km/h (5 Bft) 95,65 %
09.04.2018 17:35 23,8 C 8,9 C 24 % 1001,3 hPa 0,0 l/m 16,0 km/h (3 Bft) SO 142 1 min 0,000 mm 0,6 UV-I 246 W/m 2,0 C 21,7 C 27,4 km/h (4 Bft) 100,00 %
09.04.2018 17:36 23,7 C 9,4 C 25 % 1001,3 hPa 0,0 l/m 10,5 km/h (2 Bft) SO 146 1 min 0,000 mm 0,6 UV-I 237 W/m 2,5 C 22,6 C 14,5 km/h (3 Bft) 94,12 %
09.04.2018 17:38 23,7 C 9,4 C 24 % 1001,3 hPa 0,0 l/m 16,9 km/h (3 Bft) SO 134 2 min 0,000 mm 0,6 UV-I 263 W/m 1,9 C 21,4 C 29,0 km/h (5 Bft) 98,11 %
09.04.2018 17:39 23,7 C 9,4 C 26 % 1001,3 hPa 0,0 l/m 15,5 km/h (3 Bft) SO 142 1 min 0,000 mm 0,6 UV-I 268 W/m 3,1 C 21,6 C 25,7 km/h (4 Bft) 100,00 %
09.04.2018 17:40 23,6 C 9,4 C 26 % 1001,3 hPa 0,0 l/m 18,8 km/h (3 Bft) SO 132 1 min 0,000 mm 0,6 UV-I 276 W/m 3,0 C 21,0 C 30,6 km/h (5 Bft) 96,15 %
09.04.2018 17:41 23,6 C 9,4 C 24 % 1001,3 hPa 0,0 l/m 17,2 km/h (3 Bft) SO 146 1 min 0,000 mm 0,6 UV-I 288 W/m 1,8 C 21,3 C 24,1 km/h (4 Bft) 96,30 %
09.04.2018 17:42 23,6 C 9,4 C 24 % 1001,3 hPa 0,0 l/m 17,0 km/h (3 Bft) S-SO 153 1 min 0,000 mm 0,6 UV-I 295 W/m 1,8 C 21,3 C 25,7 km/h (4 Bft) 100,00 %
09.04.2018 17:43 23,6 C 9,4 C 25 % 1001,3 hPa 0,0 l/m 15,9 km/h (3 Bft) SO 140 1 min 0,000 mm 0,6 UV-I 304 W/m 2,4 C 21,5 C 20,9 km/h (4 Bft) 91,67 %
09.04.2018 17:44 23,7 C 9,4 C 25 % 1001,3 hPa 0,0 l/m 19,8 km/h (3 Bft) SO 144 1 min 0,000 mm 0,6 UV-I 301 W/m 2,5 C 21,0 C 29,0 km/h (5 Bft) 100,00 %
09.04.2018 17:45 23,7 C 9,4 C 24 % 1001,3 hPa 0,0 l/m 17,5 km/h (3 Bft) SO 144 1 min 0,000 mm 0,5 UV-I 294 W/m 1,9 C 21,3 C 24,1 km/h (4 Bft) 96,55 %
09.04.2018 17:46 23,7 C 9,4 C 25 % 1001,3 hPa 0,0 l/m 15,8 km/h (3 Bft) S 171 1 min 0,000 mm 0,5 UV-I 296 W/m 2,5 C 21,6 C 25,7 km/h (4 Bft) 100,00 %
09.04.2018 17:47 23,7 C 9,4 C 25 % 1001,3 hPa 0,0 l/m 19,2 km/h (3 Bft) S-SO 149 1 min 0,000 mm 0,5 UV-I 294 W/m 2,5 C 21,1 C 27,4 km/h (4 Bft) 95,65 %
09.04.2018 17:48 23,7 C 9,4 C 25 % 1001,3 hPa 0,0 l/m 19,5 km/h (3 Bft) S-SO 157 1 min 0,000 mm 0,5 UV-I 287 W/m 2,5 C 21,1 C 27,4 km/h (4 Bft) 96,30 %
09.04.2018 17:49 23,7 C 9,4 C 25 % 1001,4 hPa 0,0 l/m 25,9 km/h (4 Bft) SO 134 1 min 0,000 mm 0,5 UV-I 285 W/m 2,5 C 20,3 C 33,8 km/h (5 Bft) 92,86 %
09.04.2018 17:50 23,6 C 9,4 C 24 % 1001,3 hPa 0,0 l/m 20,2 km/h (4 Bft) O-SO 112 1 min 0,000 mm 0,5 UV-I 286 W/m 1,8 C 20,8 C 29,0 km/h (5 Bft) 97,22 %
09.04.2018 17:51 23,6 C 9,4 C 25 % 1001,3 hPa 0,0 l/m 20,0 km/h (4 Bft) S 169 1 min 0,000 mm 0,5 UV-I 286 W/m 2,4 C 20,9 C 27,4 km/h (4 Bft) 100,00 %
09.04.2018 17:52 23,6 C 9,4 C 24 % 1001,4 hPa 0,0 l/m 19,4 km/h (3 Bft) SO 137 1 min 0,000 mm 0,5 UV-I 285 W/m 1,8 C 20,9 C 24,1 km/h (4 Bft) 96,30 %
09.04.2018 17:53 23,6 C 9,4 C 25 % 1001,4 hPa 0,0 l/m 16,6 km/h (3 Bft) S-SO 153 1 min 0,000 mm 0,5 UV-I 281 W/m 2,4 C 21,3 C 20,9 km/h (4 Bft) 92,86 %
09.04.2018 17:54 23,6 C 9,4 C 25 % 1001,4 hPa 0,0 l/m 16,5 km/h (3 Bft) SO 145 1 min 0,000 mm 0,5 UV-I 271 W/m 2,4 C 21,4 C 20,9 km/h (4 Bft) 100,00 %
09.04.2018 17:55 23,6 C 9,4 C 26 % 1001,4 hPa 0,0 l/m 9,9 km/h (2 Bft) S-SW 198 1 min 0,000 mm 0,5 UV-I 260 W/m 3,0 C 22,6 C 14,5 km/h (3 Bft) 100,00 %
09.04.2018 17:56 23,6 C 9,4 C 25 % 1001,4 hPa 0,0 l/m 16,8 km/h (3 Bft) S-SO 161 1 min 0,000 mm 0,5 UV-I 263 W/m 2,4 C 21,3 C 24,1 km/h (4 Bft) 100,00 %
09.04.2018 17:57 23,6 C 9,4 C 25 % 1001,4 hPa 0,0 l/m 12,1 km/h (2 Bft) SO 135 1 min 0,000 mm 0,2 UV-I 265 W/m 2,4 C 22,2 C 19,3 km/h (3 Bft) 100,00 %
09.04.2018 17:58 23,6 C 9,4 C 25 % 1001,4 hPa 0,0 l/m 16,6 km/h (3 Bft) SO 141 1 min 0,000 mm 0,0 UV-I 263 W/m 2,4 C 21,3 C 20,9 km/h (4 Bft) 100,00 %
09.04.2018 17:59 23,6 C 9,4 C 25 % 1001,5 hPa 0,0 l/m 10,7 km/h (2 Bft) S-SO 162 1 min 0,000 mm 0,0 UV-I 262 W/m 2,4 C 22,5 C 12,9 km/h (3 Bft) 92,31 %
09.04.2018 18:00 23,6 C 9,4 C 26 % 1001,5 hPa 0,0 l/m 13,0 km/h (3 Bft) S-SO 161 1 min 0,000 mm 0,0 UV-I 262 W/m 3,0 C 22,0 C 24,1 km/h (4 Bft) 100,00 %
09.04.2018 18:02 23,6 C 9,4 C 25 % 1001,5 hPa 0,0 l/m 15,1 km/h (3 Bft) SO 146 2 min 0,355 mm 0,0 UV-I 258 W/m 2,4 C 21,6 C 25,7 km/h (4 Bft) 100,00 %
09.04.2018 18:03 23,6 C 9,4 C 25 % 1001,5 hPa 0,0 l/m 14,4 km/h (3 Bft) S-SO 157 1 min 0,000 mm 0,0 UV-I 255 W/m 2,4 C 21,7 C 19,3 km/h (3 Bft) 100,00 %
09.04.2018 18:04 23,6 C 9,4 C 25 % 1001,5 hPa 0,0 l/m 17,1 km/h (3 Bft) S 169 1 min 0,000 mm 0,0 UV-I 250 W/m 2,4 C 21,3 C 27,4 km/h (4 Bft) 100,00 %
09.04.2018 18:05 23,6 C 9,4 C 25 % 1001,5 hPa 0,0 l/m 14,2 km/h (3 Bft) S-SO 155 1 min 0,000 mm 0,0 UV-I 246 W/m 2,4 C 21,8 C 20,9 km/h (4 Bft) 100,00 %
09.04.2018 18:06 23,5 C 9,4 C 26 % 1001,5 hPa 0,0 l/m 12,3 km/h (3 Bft) S-SO 162 1 min 0,000 mm 0,0 UV-I 240 W/m 2,9 C 22,0 C 25,7 km/h (4 Bft) 100,00 %
09.04.2018 18:08 23,4 C 9,4 C 25 % 1001,5 hPa 0,0 l/m 16,2 km/h (3 Bft) S-SO 165 2 min 0,000 mm 0,0 UV-I 233 W/m 2,3 C 21,2 C 24,1 km/h (4 Bft) 98,21 %
09.04.2018 18:09 23,4 C 9,4 C 25 % 1001,6 hPa 0,0 l/m 14,1 km/h (3 Bft) S-SW 198 1 min 0,000 mm 0,0 UV-I 228 W/m 2,3 C 21,5 C 19,3 km/h (3 Bft) 100,00 %
09.04.2018 18:10 23,3 C 9,4 C 25 % 1001,6 hPa 0,0 l/m 18,9 km/h (3 Bft) S-SO 150 1 min 0,000 mm 0,0 UV-I 225 W/m 2,2 C 20,6 C 25,7 km/h (4 Bft) 100,00 %
09.04.2018 18:11 23,3 C 9,4 C 26 % 1001,6 hPa 0,0 l/m 19,9 km/h (4 Bft) S 178 1 min 0,000 mm 0,0 UV-I 223 W/m 2,7 C 20,5 C 24,1 km/h (4 Bft) 100,00 %
09.04.2018 18:12 23,2 C 9,4 C 25 % 1001,6 hPa 0,0 l/m 21,7 km/h (4 Bft) S 170 1 min 0,000 mm 0,0 UV-I 218 W/m 2,1 C 20,1 C 33,8 km/h (5 Bft) 100,00 %
09.04.2018 18:13 23,1 C 9,4 C 25 % 1001,6 hPa 0,0 l/m 19,7 km/h (3 Bft) S 173 1 min 0,000 mm 0,0 UV-I 212 W/m 2,0 C 20,3 C 27,4 km/h (4 Bft) 100,00 %
09.04.2018 18:14 23,1 C 9,4 C 25 % 1001,6 hPa 0,0 l/m 21,5 km/h (4 Bft) S-SO 161 1 min 0,000 mm 0,0 UV-I 206 W/m 2,0 C 20,0 C 29,0 km/h (5 Bft) 100,00 %
09.04.2018 18:15 23,0 C 9,4 C 26 % 1001,6 hPa 0,0 l/m 20,6 km/h (4 Bft) S-SO 148 1 min 0,000 mm 0,0 UV-I 198 W/m 2,5 C 20,0 C 27,4 km/h (4 Bft) 100,00 %
09.04.2018 18:16 23,0 C 9,4 C 26 % 1001,6 hPa 0,0 l/m 14,4 km/h (3 Bft) S-SW 201 1 min 0,000 mm 0,0 UV-I 190 W/m 2,5 C 21,0 C 20,9 km/h (4 Bft) 100,00 %
09.04.2018 18:18 22,8 C 9,4 C 27 % 1001,7 hPa 0,0 l/m 20,6 km/h (4 Bft) S 173 2 min 0,000 mm 0,0 UV-I 179 W/m 2,8 C 19,7 C 30,6 km/h (5 Bft) 100,00 %
09.04.2018 18:19 22,8 C 9,4 C 26 % 1001,7 hPa 0,0 l/m 20,9 km/h (4 Bft) SW 220 1 min 0,000 mm 0,0 UV-I 171 W/m 2,3 C 19,7 C 27,4 km/h (4 Bft) 100,00 %
09.04.2018 18:20 22,7 C 9,4 C 27 % 1001,6 hPa 0,0 l/m 12,7 km/h (3 Bft) S-SW 198 1 min 0,000 mm 0,0 UV-I 167 W/m 2,7 C 21,0 C 19,3 km/h (3 Bft) 91,67 %
09.04.2018 18:21 22,7 C 9,4 C 27 % 1001,6 hPa 0,0 l/m 13,9 km/h (3 Bft) S 180 1 min 0,000 mm 0,0 UV-I 161 W/m 2,7 C 20,7 C 20,9 km/h (4 Bft) 100,00 %
09.04.2018 18:22 22,7 C 9,4 C 27 % 1001,6 hPa 0,0 l/m 16,0 km/h (3 Bft) S-SW 198 1 min 0,000 mm 0,0 UV-I 157 W/m 2,7 C 20,3 C 24,1 km/h (4 Bft) 100,00 %
09.04.2018 18:23 22,6 C 9,4 C 27 % 1001,7 hPa 0,0 l/m 22,6 km/h (4 Bft) S 176 1 min 0,000 mm 0,0 UV-I 155 W/m 2,7 C 19,2 C 38,6 km/h (5 Bft) 100,00 %
09.04.2018 18:24 22,6 C 9,4 C 27 % 1001,6 hPa 0,0 l/m 20,7 km/h (4 Bft) S 182 1 min 0,000 mm 0,0 UV-I 152 W/m 2,7 C 19,5 C 27,4 km/h (4 Bft) 100,00 %
09.04.2018 18:25 22,5 C 9,4 C 27 % 1001,7 hPa 0,0 l/m 16,0 km/h (3 Bft) S 178 1 min 0,000 mm 0,0 UV-I 149 W/m 2,6 C 20,1 C 20,9 km/h (4 Bft) 100,00 %
09.04.2018 18:26 22,4 C 9,4 C 28 % 1001,7 hPa 0,0 l/m 17,1 km/h (3 Bft) S 172 1 min 0,000 mm 0,0 UV-I 146 W/m 3,0 C 19,8 C 22,5 km/h (4 Bft) 100,00 %
09.04.2018 18:27 22,4 C 9,4 C 27 % 1001,7 hPa 0,0 l/m 21,2 km/h (4 Bft) S-SW 198 1 min 0,000 mm 0,0 UV-I 143 W/m 2,5 C 19,1 C 33,8 km/h (5 Bft) 100,00 %
09.04.2018 18:28 22,3 C 9,4 C 27 % 1001,7 hPa 0,0 l/m 21,9 km/h (4 Bft) SW 221 1 min 0,000 mm 0,0 UV-I 141 W/m 2,4 C 18,9 C 33,8 km/h (5 Bft) 100,00 %
09.04.2018 18:29 22,3 C 9,4 C 27 % 1001,6 hPa 0,0 l/m 19,2 km/h (3 Bft) S-SO 156 1 min 0,000 mm 0,0 UV-I 137 W/m 2,4 C 19,3 C 27,4 km/h (4 Bft) 91,30 %
09.04.2018 18:30 22,2 C 9,4 C 28 % 1001,7 hPa 0,0 l/m 19,5 km/h (3 Bft) S-SW 193 1 min 0,000 mm 0,0 UV-I 134 W/m 2,8 C 19,1 C 27,4 km/h (4 Bft) 100,00 %
09.04.2018 18:31 22,2 C 9,4 C 28 % 1001,7 hPa 0,0 l/m 18,6 km/h (3 Bft) S-SO 165 1 min 0,000 mm 0,0 UV-I 130 W/m 2,8 C 19,3 C 24,1 km/h (4 Bft) 100,00 %
09.04.2018 18:32 22,2 C 9,4 C 28 % 1001,7 hPa 0,0 l/m 21,8 km/h (4 Bft) S-SO 159 1 min 0,000 mm 0,0 UV-I 128 W/m 2,8 C 18,8 C 35,4 km/h (5 Bft) 91,67 %
09.04.2018 18:33 22,1 C 9,4 C 28 % 1001,7 hPa 0,0 l/m 23,8 km/h (4 Bft) S-SW 202 1 min 0,000 mm 0,0 UV-I 124 W/m 2,7 C 18,4 C 33,8 km/h (5 Bft) 100,00 %
09.04.2018 18:34 22,1 C 9,4 C 28 % 1001,7 hPa 0,0 l/m 24,1 km/h (4 Bft) S-SW 192 1 min 0,000 mm 0,0 UV-I 122 W/m 2,7 C 18,3 C 33,8 km/h (5 Bft) 100,00 %
09.04.2018 18:35 22,1 C 9,4 C 27 % 1001,6 hPa 0,0 l/m 18,4 km/h (3 Bft) S-SO 161 1 min 0,000 mm 0,0 UV-I 118 W/m 2,2 C 19,2 C 22,5 km/h (4 Bft) 100,00 %
09.04.2018 18:36 22,0 C 9,4 C 28 % 1001,7 hPa 0,0 l/m 22,0 km/h (4 Bft) S-SO 161 1 min 0,000 mm 0,0 UV-I 115 W/m 2,7 C 18,5 C 32,2 km/h (5 Bft) 100,00 %
09.04.2018 18:37 21,9 C 9,4 C 28 % 1001,7 hPa 0,0 l/m 14,7 km/h (3 Bft) S 173 1 min 0,000 mm 0,0 UV-I 112 W/m 2,6 C 19,6 C 22,5 km/h (4 Bft) 100,00 %
09.04.2018 18:38 21,9 C 9,4 C 29 % 1001,7 hPa 0,0 l/m 16,7 km/h (3 Bft) S 187 1 min 0,000 mm 0,0 UV-I 108 W/m 3,1 C 19,2 C 24,1 km/h (4 Bft) 100,00 %
09.04.2018 18:39 21,9 C 9,4 C 28 % 1001,7 hPa 0,0 l/m 16,6 km/h (3 Bft) SO 142 1 min 0,000 mm 0,0 UV-I 106 W/m 2,6 C 19,2 C 22,5 km/h (4 Bft) 94,12 %
09.04.2018 18:40 21,8 C 9,4 C 29 % 1001,7 hPa 0,0 l/m 13,4 km/h (3 Bft) S-SO 161 1 min 0,000 mm 0,0 UV-I 103 W/m 3,0 C 19,8 C 19,3 km/h (3 Bft) 100,00 %
09.04.2018 18:41 21,8 C 9,4 C 28 % 1001,8 hPa 0,0 l/m 23,7 km/h (4 Bft) S-SO 161 1 min 0,000 mm 0,0 UV-I 100 W/m 2,5 C 18,0 C 32,2 km/h (5 Bft) 100,00 %
09.04.2018 18:43 21,7 C 9,4 C 28 % 1001,7 hPa 0,0 l/m 25,3 km/h (4 Bft) S 184 2 min 0,000 mm 0,0 UV-I 95 W/m 2,4 C 17,6 C 46,7 km/h (6 Bft) 100,00 %
09.04.2018 18:44 21,7 C 9,4 C 29 % 1001,7 hPa 0,0 l/m 18,3 km/h (3 Bft) S-SO 156 1 min 0,000 mm 0,0 UV-I 91 W/m 2,9 C 18,7 C 22,5 km/h (4 Bft) 100,00 %
09.04.2018 18:45 21,7 C 9,4 C 28 % 1001,8 hPa 0,0 l/m 18,0 km/h (3 Bft) S-SO 166 1 min 0,000 mm 0,0 UV-I 90 W/m 2,4 C 18,7 C 33,8 km/h (5 Bft) 100,00 %
09.04.2018 18:46 21,7 C 9,4 C 28 % 1001,8 hPa 0,0 l/m 16,7 km/h (3 Bft) S 184 1 min 0,000 mm 0,0 UV-I 88 W/m 2,4 C 19,0 C 29,0 km/h (5 Bft) 97,14 %
09.04.2018 18:47 21,6 C 9,4 C 28 % 1001,8 hPa 0,0 l/m 20,0 km/h (4 Bft) S 177 1 min 0,000 mm 0,0 UV-I 86 W/m 2,3 C 18,3 C 40,2 km/h (6 Bft) 100,00 %
09.04.2018 18:48 21,7 C 9,4 C 28 % 1001,8 hPa 0,0 l/m 27,7 km/h (4 Bft) S 176 1 min 0,000 mm 0,0 UV-I 84 W/m 2,4 C 17,4 C 35,4 km/h (5 Bft) 100,00 %
09.04.2018 18:49 21,6 C 9,4 C 28 % 1001,8 hPa 0,0 l/m 22,1 km/h (4 Bft) S-SO 167 0 min 0,000 mm 0,0 UV-I 80 W/m 2,3 C 18,0 C 32,2 km/h (5 Bft) 100,00 %
09.04.2018 18:50 21,6 C 9,4 C 29 % 1001,8 hPa 0,0 l/m 20,1 km/h (4 Bft) SO 127 0 min 0,000 mm 0,0 UV-I 78 W/m 2,8 C 18,3 C 32,2 km/h (5 Bft) 100,00 %
09.04.2018 18:51 21,6 C 9,4 C 28 % 1001,8 hPa 0,0 l/m 23,2 km/h (4 Bft) S-SO 155 0 min 0,000 mm 0,0 UV-I 76 W/m 2,3 C 17,8 C 35,4 km/h (5 Bft) 100,00 %
09.04.2018 18:53 21,5 C 9,4 C 29 % 1001,9 hPa 0,0 l/m 15,4 km/h (3 Bft) S-SW 195 0 min 0,000 mm 0,0 UV-I 74 W/m 2,7 C 19,0 C 22,5 km/h (4 Bft) 100,00 %
09.04.2018 18:54 21,4 C 9,4 C 29 % 1001,9 hPa 0,0 l/m 12,0 km/h (2 Bft) S 188 0 min 0,000 mm 0,0 UV-I 71 W/m 2,6 C 19,6 C 16,1 km/h (3 Bft) 100,00 %
09.04.2018 18:55 21,4 C 9,4 C 29 % 1001,9 hPa 0,0 l/m 17,2 km/h (3 Bft) S 180 0 min 0,000 mm 0,0 UV-I 70 W/m 2,6 C 18,5 C 22,5 km/h (4 Bft) 96,30 %
09.04.2018 18:56 21,3 C 9,4 C 29 % 1001,9 hPa 0,0 l/m 16,0 km/h (3 Bft) S-SW 210 0 min 0,000 mm 0,0 UV-I 69 W/m 2,5 C 18,6 C 27,4 km/h (4 Bft) 100,00 %
09.04.2018 18:57 21,3 C 9,4 C 29 % 1001,9 hPa 0,0 l/m 17,5 km/h (3 Bft) S-SW 198 1 min 0,000 mm 0,0 UV-I 68 W/m 2,5 C 18,3 C 25,7 km/h (4 Bft) 100,00 %
09.04.2018 18:58 21,3 C 9,4 C 29 % 1001,9 hPa 0,0 l/m 17,9 km/h (3 Bft) S 171 1 min 0,000 mm 0,0 UV-I 67 W/m 2,5 C 18,3 C 24,1 km/h (4 Bft) 96,15 %
09.04.2018 18:59 21,2 C 9,4 C 29 % 1001,9 hPa 0,0 l/m 18,6 km/h (3 Bft) S 171 1 min 0,000 mm 0,0 UV-I 65 W/m 2,5 C 18,0 C 24,1 km/h (4 Bft) 100,00 %
09.04.2018 19:00 21,2 C 9,4 C 29 % 1001,9 hPa 0,0 l/m 21,2 km/h (4 Bft) S-SW 202 0 min 0,000 mm 0,0 UV-I 63 W/m 2,5 C 17,6 C 29,0 km/h (5 Bft) 100,00 %
09.04.2018 19:01 21,2 C 9,4 C 29 % 1001,9 hPa 0,0 l/m 18,5 km/h (3 Bft) S 175 1 min 0,280 mm 0,0 UV-I 62 W/m 2,5 C 18,0 C 25,7 km/h (4 Bft) 97,14 %
09.04.2018 19:02 21,1 C 9,4 C 29 % 1002,0 hPa 0,0 l/m 19,3 km/h (3 Bft) S-SO 161 1 min 0,000 mm 0,0 UV-I 61 W/m 2,4 C 17,7 C 25,7 km/h (4 Bft) 98,14 %
09.04.2018 19:03 21,1 C 9,4 C 30 % 1001,9 hPa 0,0 l/m 16,3 km/h (3 Bft) S-SW 195 1 min 0,000 mm 0,0 UV-I 60 W/m 2,8 C 18,3 C 22,5 km/h (4 Bft) 100,00 %
09.04.2018 19:04 21,1 C 9,4 C 29 % 1002,0 hPa 0,0 l/m 21,4 km/h (4 Bft) S 176 1 min 0,000 mm 0,0 UV-I 58 W/m 2,4 C 17,4 C 35,4 km/h (5 Bft) 100,00 %
09.04.2018 19:05 21,0 C 9,4 C 30 % 1002,0 hPa 0,0 l/m 19,6 km/h (3 Bft) S 182 1 min 0,000 mm 0,0 UV-I 58 W/m 2,8 C 17,6 C 29,0 km/h (5 Bft) 100,00 %
09.04.2018 19:06 20,9 C 9,4 C 30 % 1002,0 hPa 0,0 l/m 21,1 km/h (4 Bft) S 176 1 min 0,000 mm 0,0 UV-I 57 W/m 2,7 C 17,2 C 32,2 km/h (5 Bft) 100,00 %
09.04.2018 19:07 20,9 C 9,4 C 30 % 1002,0 hPa 0,0 l/m 17,0 km/h (3 Bft) S 172 1 min 0,000 mm 0,0 UV-I 54 W/m 2,7 C 17,9 C 22,5 km/h (4 Bft) 100,00 %
09.04.2018 19:08 20,9 C 9,4 C 30 % 1002,1 hPa 0,0 l/m 24,9 km/h (4 Bft) S 180 1 min 0,000 mm 0,0 UV-I 52 W/m 2,7 C 16,6 C 38,6 km/h (5 Bft) 96,30 %
09.04.2018 19:09 20,8 C 9,4 C 30 % 1002,1 hPa 0,0 l/m 18,1 km/h (3 Bft) S-SW 192 1 min 0,000 mm 0,0 UV-I 49 W/m 2,6 C 17,6 C 24,1 km/h (4 Bft) 100,00 %
09.04.2018 19:10 20,8 C 9,4 C 30 % 1002,0 hPa 0,0 l/m 24,5 km/h (4 Bft) S 171 0 min 0,000 mm 0,0 UV-I 47 W/m 2,6 C 16,5 C 33,8 km/h (5 Bft) 100,00 %
09.04.2018 19:11 20,8 C 9,4 C 30 % 1002,1 hPa 0,0 l/m 20,0 km/h (4 Bft) S 169 1 min 0,000 mm 0,0 UV-I 47 W/m 2,6 C 17,2 C 32,2 km/h (5 Bft) 100,00 %
09.04.2018 19:12 20,8 C 9,4 C 30 % 1002,1 hPa 0,0 l/m 18,2 km/h (3 Bft) S 187 1 min 0,000 mm 0,0 UV-I 45 W/m 2,6 C 17,6 C 29,0 km/h (5 Bft) 100,00 %
09.04.2018 19:13 20,7 C 9,4 C 30 % 1002,0 hPa 0,0 l/m 23,4 km/h (4 Bft) S-SO 153 1 min 0,000 mm 0,0 UV-I 43 W/m 2,5 C 16,6 C 30,6 km/h (5 Bft) 100,00 %
09.04.2018 19:14 20,7 C 9,4 C 31 % 1002,1 hPa 0,0 l/m 15,3 km/h (3 Bft) S 171 1 min 0,000 mm 0,0 UV-I 42 W/m 3,0 C 18,0 C 22,5 km/h (4 Bft) 96,30 %
09.04.2018 19:15 20,6 C 9,4 C 31 % 1002,1 hPa 0,0 l/m 14,2 km/h (3 Bft) S-SO 157 1 min 0,000 mm 0,0 UV-I 40 W/m 2,9 C 18,2 C 24,1 km/h (4 Bft) 100,00 %
09.04.2018 19:16 20,6 C 9,4 C 31 % 1002,1 hPa 0,0 l/m 15,3 km/h (3 Bft) S 180 1 min 0,000 mm 0,0 UV-I 39 W/m 2,9 C 17,9 C 19,3 km/h (3 Bft) 96,55 %
09.04.2018 19:17 20,6 C 9,4 C 31 % 1002,1 hPa 0,0 l/m 13,9 km/h (3 Bft) S 169 1 min 0,000 mm 0,0 UV-I 39 W/m 2,9 C 18,2 C 22,5 km/h (4 Bft) 100,00 %
09.04.2018 19:18 20,5 C 9,4 C 31 % 1002,2 hPa 0,0 l/m 20,6 km/h (4 Bft) S-SO 159 1 min 0,000 mm 0,0 UV-I 37 W/m 2,8 C 16,7 C 29,0 km/h (5 Bft) 96,30 %
09.04.2018 19:19 20,5 C 9,4 C 31 % 1002,2 hPa 0,0 l/m 18,1 km/h (3 Bft) S-SO 150 1 min 0,000 mm 0,0 UV-I 36 W/m 2,8 C 17,2 C 32,2 km/h (5 Bft) 100,00 %
09.04.2018 19:20 20,4 C 9,4 C 31 % 1002,1 hPa 0,0 l/m 17,0 km/h (3 Bft) S-SO 149 1 min 0,000 mm 0,0 UV-I 35 W/m 2,7 C 17,3 C 27,4 km/h (4 Bft) 92,31 %
09.04.2018 19:21 20,4 C 9,4 C 31 % 1002,1 hPa 0,0 l/m 16,3 km/h (3 Bft) S-SO 161 1 min 0,000 mm 0,0 UV-I 33 W/m 2,7 C 17,4 C 24,1 km/h (4 Bft) 100,00 %
09.04.2018 19:22 20,4 C 9,4 C 31 % 1002,1 hPa 0,0 l/m 15,3 km/h (3 Bft) S 176 1 min 0,000 mm 0,0 UV-I 32 W/m 2,7 C 17,7 C 19,3 km/h (3 Bft) 90,91 %
09.04.2018 19:23 20,4 C 9,4 C 31 % 1002,2 hPa 0,0 l/m 22,8 km/h (4 Bft) S 175 1 min 0,000 mm 0,0 UV-I 32 W/m 2,7 C 16,3 C 29,0 km/h (5 Bft) 100,00 %
09.04.2018 19:24 20,4 C 9,4 C 31 % 1002,2 hPa 0,0 l/m 18,3 km/h (3 Bft) S-SO 153 1 min 0,000 mm 0,0 UV-I 29 W/m 2,7 C 17,0 C 24,1 km/h (4 Bft) 96,55 %
09.04.2018 19:25 20,4 C 9,4 C 31 % 1002,2 hPa 0,0 l/m 20,3 km/h (4 Bft) S 175 1 min 0,000 mm 0,0 UV-I 27 W/m 2,7 C 16,7 C 32,2 km/h (5 Bft) 96,67 %
09.04.2018 19:26 20,4 C 9,4 C 31 % 1002,2 hPa 0,0 l/m 13,4 km/h (3 Bft) S-SW 200 1 min 0,000 mm 0,0 UV-I 26 W/m 2,7 C 18,1 C 17,7 km/h (3 Bft) 100,00 %
09.04.2018 19:27 20,3 C 9,4 C 31 % 1002,0 hPa 0,0 l/m 13,6 km/h (3 Bft) S 178 1 min 0,000 mm 0,0 UV-I 25 W/m 2,6 C 18,0 C 17,7 km/h (3 Bft) 96,67 %
09.04.2018 19:28 20,3 C 9,4 C 31 % 1002,2 hPa 0,0 l/m 14,3 km/h (3 Bft) S 172 1 min 0,000 mm 0,0 UV-I 23 W/m 2,6 C 17,8 C 22,5 km/h (4 Bft) 96,55 %
09.04.2018 19:29 20,2 C 9,4 C 31 % 1002,2 hPa 0,0 l/m 16,7 km/h (3 Bft) S 178 1 min 0,000 mm 0,0 UV-I 21 W/m 2,5 C 17,1 C 22,5 km/h (4 Bft) 91,67 %
09.04.2018 19:30 20,2 C 9,4 C 31 % 1002,2 hPa 0,0 l/m 15,2 km/h (3 Bft) S 169 1 min 0,000 mm 0,0 UV-I 20 W/m 2,5 C 17,4 C 29,0 km/h (5 Bft) 92,31 %
09.04.2018 19:31 20,2 C 9,4 C 31 % 1002,2 hPa 0,0 l/m 14,0 km/h (3 Bft) S 178 1 min 0,000 mm 0,0 UV-I 18 W/m 2,5 C 17,7 C 19,3 km/h (3 Bft) 95,83 %
09.04.2018 19:32 20,2 C 9,4 C 31 % 1002,2 hPa 0,0 l/m 16,7 km/h (3 Bft) S 188 1 min 0,000 mm 0,0 UV-I 18 W/m 2,5 C 17,1 C 24,1 km/h (4 Bft) 86,21 %
09.04.2018 19:33 20,1 C 9,4 C 32 % 1002,3 hPa 0,0 l/m 11,9 km/h (2 Bft) S 169 1 min 0,000 mm 0,0 UV-I 16 W/m 2,9 C 18,2 C 16,1 km/h (3 Bft) 100,00 %
09.04.2018 19:34 20,0 C 9,4 C 32 % 1002,3 hPa 0,0 l/m 11,7 km/h (2 Bft) S 174 1 min 0,000 mm 0,0 UV-I 14 W/m 2,8 C 18,1 C 17,7 km/h (3 Bft) 91,30 %
09.04.2018 19:35 19,9 C 9,4 C 32 % 1002,2 hPa 0,0 l/m 15,3 km/h (3 Bft) S 171 0 min 0,000 mm 0,0 UV-I 13 W/m 2,7 C 17,1 C 20,9 km/h (4 Bft) 100,00 %
09.04.2018 19:36 19,9 C 9,4 C 32 % 1002,3 hPa 0,0 l/m 8,5 km/h (2 Bft) S-SW 196 0 min 0,000 mm 0,0 UV-I 12 W/m 2,7 C 19,1 C 12,9 km/h (3 Bft) 84,62 %
09.04.2018 19:37 19,8 C 9,4 C 33 % 1002,3 hPa 0,0 l/m 10,5 km/h (2 Bft) S-SO 165 0 min 0,000 mm 0,0 UV-I 11 W/m 3,1 C 18,3 C 16,1 km/h (3 Bft) 96,30 %
09.04.2018 19:38 19,8 C 9,4 C 33 % 1002,3 hPa 0,0 l/m 11,3 km/h (2 Bft) S 173 0 min 0,000 mm 0,0 UV-I 11 W/m 3,1 C 18,0 C 16,1 km/h (3 Bft) 92,31 %
09.04.2018 19:39 19,8 C 9,4 C 33 % 1002,2 hPa 0,0 l/m 11,6 km/h (2 Bft) S-SW 200 0 min 0,000 mm 0,0 UV-I 11 W/m 3,1 C 17,9 C 16,1 km/h (3 Bft) 100,00 %
09.04.2018 19:40 19,7 C 9,4 C 33 % 1002,3 hPa 0,0 l/m 10,8 km/h (2 Bft) S 190 0 min 0,000 mm 0,0 UV-I 9 W/m 3,0 C 18,0 C 16,1 km/h (3 Bft) 93,75 %
09.04.2018 19:41 19,6 C 9,4 C 33 % 1002,3 hPa 0,0 l/m 7,9 km/h (2 Bft) SW 214 0 min 0,000 mm 0,0 UV-I 8 W/m 2,9 C 19,0 C 11,3 km/h (2 Bft) 91,67 %
09.04.2018 19:42 19,5 C 9,4 C 34 % 1002,3 hPa 0,0 l/m 8,7 km/h (2 Bft) S 185 0 min 0,000 mm 0,0 UV-I 7 W/m 3,2 C 18,6 C 11,3 km/h (2 Bft) 100,00 %
09.04.2018 19:43 19,3 C 9,4 C 35 % 1002,4 hPa 0,0 l/m 8,5 km/h (2 Bft) SW 220 0 min 0,000 mm 0,0 UV-I 7 W/m 3,5 C 18,4 C 12,9 km/h (3 Bft) 83,33 %
09.04.2018 19:44 19,2 C 9,4 C 35 % 1002,4 hPa 0,0 l/m 8,9 km/h (2 Bft) S-SW 196 0 min 0,000 mm 0,0 UV-I 7 W/m 3,4 C 18,2 C 12,9 km/h (3 Bft) 100,00 %
09.04.2018 19:45 19,1 C 9,4 C 35 % 1002,3 hPa 0,0 l/m 9,0 km/h (2 Bft) S 182 0 min 0,000 mm 0,0 UV-I 7 W/m 3,3 C 18,0 C 11,3 km/h (2 Bft) 91,30 %
09.04.2018 19:46 19,0 C 9,4 C 36 % 1002,3 hPa 0,0 l/m 10,1 km/h (2 Bft) S-SW 211 0 min 0,000 mm 0,0 UV-I 7 W/m 3,6 C 17,5 C 14,5 km/h (3 Bft) 100,00 %
09.04.2018 19:47 18,9 C 9,4 C 36 % 1002,4 hPa 0,0 l/m 8,0 km/h (2 Bft) S 173 0 min 0,000 mm 0,0 UV-I 5 W/m 3,5 C 18,2 C 11,3 km/h (2 Bft) 96,15 %
09.04.2018 19:48 18,9 C 9,4 C 36 % 1002,4 hPa 0,0 l/m 6,7 km/h (2 Bft) S-SW 196 0 min 0,000 mm 0,0 UV-I 5 W/m 3,5 C 18,8 C 9,7 km/h (2 Bft) 96,30 %
09.04.2018 19:49 18,8 C 9,4 C 36 % 1002,4 hPa 0,0 l/m 8,7 km/h (2 Bft) S-SW 199 0 min 0,000 mm 0,0 UV-I 5 W/m 3,4 C 17,8 C 14,5 km/h (3 Bft) 100,00 %
09.04.2018 19:50 18,8 C 9,4 C 36 % 1002,4 hPa 0,0 l/m 8,2 km/h (2 Bft) S-SW 209 0 min 0,000 mm 0,0 UV-I 5 W/m 3,4 C 18,0 C 11,3 km/h (2 Bft) 100,00 %
09.04.2018 19:51 18,8 C 9,4 C 36 % 1002,4 hPa 0,0 l/m 7,5 km/h (2 Bft) S-SW 194 0 min 0,000 mm 0,0 UV-I 5 W/m 3,4 C 18,3 C 9,7 km/h (2 Bft) 95,83 %
09.04.2018 19:52 18,8 C 9,4 C 36 % 1002,4 hPa 0,0 l/m 8,4 km/h (2 Bft) S-SW 205 0 min 0,000 mm 0,0 UV-I 5 W/m 3,4 C 17,9 C 11,3 km/h (2 Bft) 96,15 %
09.04.2018 19:53 18,8 C 9,4 C 36 % 1002,4 hPa 0,0 l/m 8,0 km/h (2 Bft) S-SW 196 0 min 0,000 mm 0,0 UV-I 5 W/m 3,4 C 18,1 C 11,3 km/h (2 Bft) 100,00 %
09.04.2018 19:54 18,7 C 9,4 C 36 % 1002,4 hPa 0,0 l/m 6,9 km/h (2 Bft) SW 215 0 min 0,000 mm 0,0 UV-I 5 W/m 3,3 C 18,5 C 9,7 km/h (2 Bft) 98,06 %
09.04.2018 19:55 18,7 C 9,4 C 37 % 1002,4 hPa 0,0 l/m 8,4 km/h (2 Bft) S-SW 205 0 min 0,000 mm 0,0 UV-I 5 W/m 3,7 C 17,8 C 9,7 km/h (2 Bft) 97,62 %
09.04.2018 19:57 18,6 C 9,4 C 36 % 1002,4 hPa 0,0 l/m 8,6 km/h (2 Bft) S-SW 201 0 min 0,000 mm 0,0 UV-I 2 W/m 3,2 C 17,6 C 12,9 km/h (3 Bft) 96,15 %
09.04.2018 19:58 18,6 C 9,4 C 37 % 1002,4 hPa 0,0 l/m 8,4 km/h (2 Bft) S-SW 197 0 min 0,000 mm 0,0 UV-I 0 W/m 3,6 C 17,7 C 11,3 km/h (2 Bft) 92,59 %
09.04.2018 20:00 18,6 C 9,4 C 36 % 1002,4 hPa 0,0 l/m 8,6 km/h (2 Bft) S 176 0 min 0,000 mm 0,0 UV-I 0 W/m 3,2 C 17,6 C 12,9 km/h (3 Bft) 97,73 %
09.04.2018 20:01 18,6 C 9,4 C 36 % 1002,4 hPa 0,0 l/m 8,2 km/h (2 Bft) S-SW 201 0 min 0,152 mm 0,0 UV-I 0 W/m 3,2 C 17,8 C 11,3 km/h (2 Bft) 100,00 %
09.04.2018 20:02 18,6 C 9,4 C 36 % 1002,4 hPa 0,0 l/m 6,7 km/h (2 Bft) S 191 0 min 0,000 mm 0,0 UV-I 0 W/m 3,2 C 18,5 C 8,0 km/h (2 Bft) 96,88 %
09.04.2018 20:05 18,4 C 9,4 C 37 % 1002,5 hPa 0,0 l/m 7,7 km/h (2 Bft) S-SO 160 0 min 0,000 mm 0,0 UV-I 0 W/m 3,5 C 17,8 C 9,7 km/h (2 Bft) 93,75 %
09.04.2018 20:06 18,4 C 9,4 C 37 % 1002,5 hPa 0,0 l/m 10,6 km/h (2 Bft) S 179 0 min 0,000 mm 0,0 UV-I 0 W/m 3,5 C 16,7 C 14,5 km/h (3 Bft) 100,00 %
09.04.2018 20:07 18,4 C 9,4 C 37 % 1002,5 hPa 0,0 l/m 9,5 km/h (2 Bft) S 169 0 min 0,000 mm 0,0 UV-I 0 W/m 3,5 C 17,1 C 11,3 km/h (2 Bft) 95,65 %
09.04.2018 20:08 18,4 C 9,4 C 37 % 1002,5 hPa 0,0 l/m 7,9 km/h (2 Bft) S 180 0 min 0,000 mm 0,0 UV-I 0 W/m 3,5 C 17,7 C 11,3 km/h (2 Bft) 100,00 %
09.04.2018 20:09 18,4 C 9,4 C 37 % 1002,5 hPa 0,0 l/m 9,2 km/h (2 Bft) S 175 0 min 0,000 mm 0,0 UV-I 0 W/m 3,5 C 17,2 C 12,9 km/h (3 Bft) 91,30 %
09.04.2018 20:10 18,5 C 9,4 C 36 % 1002,5 hPa 0,0 l/m 9,1 km/h (2 Bft) S-SO 168 0 min 0,000 mm 0,0 UV-I 0 W/m 3,2 C 17,3 C 11,3 km/h (2 Bft) 95,83 %
09.04.2018 20:11 18,5 C 9,4 C 36 % 1002,5 hPa 0,0 l/m 9,0 km/h (2 Bft) S 187 0 min 0,000 mm 0,0 UV-I 0 W/m 3,2 C 17,4 C 11,3 km/h (2 Bft) 100,00 %
09.04.2018 20:12 18,5 C 9,4 C 36 % 1002,5 hPa 0,0 l/m 10,5 km/h (2 Bft) S-SO 157 0 min 0,000 mm 0,0 UV-I 0 W/m 3,2 C 16,8 C 14,5 km/h (3 Bft) 95,83 %
09.04.2018 20:13 18,6 C 9,4 C 36 % 1002,5 hPa 0,0 l/m 9,7 km/h (2 Bft) S-SO 155 0 min 0,000 mm 0,0 UV-I 0 W/m 3,2 C 17,2 C 14,5 km/h (3 Bft) 96,15 %
09.04.2018 20:14 18,6 C 9,4 C 36 % 1002,5 hPa 0,0 l/m 9,7 km/h (2 Bft) S-SO 158 0 min 0,000 mm 0,0 UV-I 0 W/m 3,2 C 17,2 C 12,9 km/h (3 Bft) 96,67 %
09.04.2018 20:15 18,5 C 9,4 C 36 % 1002,5 hPa 0,0 l/m 11,4 km/h (2 Bft) S 175 0 min 0,000 mm 0,0 UV-I 0 W/m 3,2 C 16,5 C 14,5 km/h (3 Bft) 100,00 %
09.04.2018 20:16 18,6 C 9,4 C 36 % 1002,5 hPa 0,0 l/m 12,5 km/h (3 Bft) S 187 0 min 0,000 mm 0,0 UV-I 0 W/m 3,2 C 16,3 C 16,1 km/h (3 Bft) 96,67 %
09.04.2018 20:17 18,6 C 9,4 C 36 % 1002,6 hPa 0,0 l/m 13,4 km/h (3 Bft) SO 144 0 min 0,000 mm 0,0 UV-I 0 W/m 3,2 C 16,0 C 19,3 km/h (3 Bft) 100,00 %
09.04.2018 20:18 18,6 C 9,4 C 35 % 1002,5 hPa 0,0 l/m 10,6 km/h (2 Bft) S-SO 158 0 min 0,000 mm 0,0 UV-I 0 W/m 2,8 C 16,9 C 12,9 km/h (3 Bft) 96,30 %
09.04.2018 20:19 18,7 C 9,4 C 35 % 1002,6 hPa 0,0 l/m 12,3 km/h (3 Bft) S-SO 155 0 min 0,000 mm 0,0 UV-I 0 W/m 2,9 C 16,4 C 19,3 km/h (3 Bft) 100,00 %
09.04.2018 20:20 18,7 C 9,4 C 35 % 1002,6 hPa 0,0 l/m 12,9 km/h (3 Bft) S-SO 157 0 min 0,000 mm 0,0 UV-I 0 W/m 2,9 C 16,3 C 19,3 km/h (3 Bft) 98,25 %
09.04.2018 20:23 18,7 C 9,4 C 35 % 1002,6 hPa 0,0 l/m 12,3 km/h (3 Bft) S 169 0 min 0,000 mm 0,0 UV-I 0 W/m 2,9 C 16,4 C 12,9 km/h (3 Bft) 97,53 %
09.04.2018 20:24 18,7 C 9,4 C 35 % 1002,6 hPa 0,0 l/m 9,4 km/h (2 Bft) S 176 0 min 0,000 mm 0,0 UV-I 0 W/m 2,9 C 17,4 C 16,1 km/h (3 Bft) 97,06 %
09.04.2018 20:25 18,8 C 9,4 C 35 % 1002,6 hPa 0,0 l/m 10,8 km/h (2 Bft) S 176 0 min 0,000 mm 0,0 UV-I 0 W/m 3,0 C 17,0 C 16,1 km/h (3 Bft) 96,15 %
09.04.2018 20:26 18,8 C 9,4 C 35 % 1002,6 hPa 0,0 l/m 9,7 km/h (2 Bft) S 170 0 min 0,000 mm 0,0 UV-I 0 W/m 3,0 C 17,4 C 14,5 km/h (3 Bft) 100,00 %
09.04.2018 20:27 18,8 C 9,4 C 35 % 1002,6 hPa 0,0 l/m 9,6 km/h (2 Bft) S 176 0 min 0,000 mm 0,0 UV-I 0 W/m 3,0 C 17,5 C 16,1 km/h (3 Bft) 96,15 %
09.04.2018 20:28 18,8 C 9,4 C 34 % 1002,6 hPa 0,0 l/m 11,5 km/h (2 Bft) S 181 0 min 0,000 mm 0,0 UV-I 0 W/m 2,6 C 16,8 C 17,7 km/h (3 Bft) 100,00 %
09.04.2018 20:29 18,7 C 9,4 C 34 % 1002,6 hPa 0,0 l/m 10,8 km/h (2 Bft) S 172 0 min 0,000 mm 0,0 UV-I 0 W/m 2,5 C 16,9 C 14,5 km/h (3 Bft) 96,30 %
09.04.2018 20:30 18,7 C 9,4 C 34 % 1002,6 hPa 0,0 l/m 9,1 km/h (2 Bft) S-SO 161 0 min 0,000 mm 0,0 UV-I 0 W/m 2,5 C 17,5 C 11,3 km/h (2 Bft) 96,15 %
09.04.2018 20:31 18,8 C 9,4 C 35 % 1002,6 hPa 0,0 l/m 10,4 km/h (2 Bft) SO 146 0 min 0,000 mm 0,0 UV-I 0 W/m 3,0 C 17,2 C 16,1 km/h (3 Bft) 96,88 %
09.04.2018 20:32 18,7 C 9,4 C 35 % 1002,6 hPa 0,0 l/m 10,5 km/h (2 Bft) S-SO 156 0 min 0,000 mm 0,0 UV-I 0 W/m 2,9 C 17,0 C 14,5 km/h (3 Bft) 100,00 %
09.04.2018 20:33 18,7 C 9,4 C 35 % 1002,6 hPa 0,0 l/m 9,5 km/h (2 Bft) S-SO 165 0 min 0,000 mm 0,0 UV-I 0 W/m 2,9 C 17,4 C 14,5 km/h (3 Bft) 91,30 %
09.04.2018 20:34 18,7 C 9,4 C 35 % 1002,6 hPa 0,0 l/m 9,6 km/h (2 Bft) S-SO 165 0 min 0,000 mm 0,0 UV-I 0 W/m 2,9 C 17,4 C 14,5 km/h (3 Bft) 100,00 %
09.04.2018 20:35 18,6 C 9,4 C 35 % 1002,6 hPa 0,0 l/m 9,8 km/h (2 Bft) S 182 0 min 0,000 mm 0,0 UV-I 0 W/m 2,8 C 17,2 C 12,9 km/h (3 Bft) 93,33 %
09.04.2018 20:36 18,6 C 9,4 C 35 % 1002,6 hPa 0,0 l/m 10,1 km/h (2 Bft) S-SO 168 0 min 0,000 mm 0,0 UV-I 0 W/m 2,8 C 17,1 C 14,5 km/h (3 Bft) 95,45 %
09.04.2018 20:37 18,6 C 9,4 C 35 % 1002,6 hPa 0,0 l/m 9,7 km/h (2 Bft) S-SO 163 0 min 0,000 mm 0,0 UV-I 0 W/m 2,8 C 17,2 C 12,9 km/h (3 Bft) 100,00 %
09.04.2018 20:38 18,6 C 9,4 C 35 % 1002,6 hPa 0,0 l/m 9,7 km/h (2 Bft) S-SO 167 0 min 0,000 mm 0,0 UV-I 0 W/m 2,8 C 17,2 C 12,9 km/h (3 Bft) 96,55 %
09.04.2018 20:39 18,6 C 9,4 C 35 % 1002,6 hPa 0,0 l/m 10,3 km/h (2 Bft) S 178 0 min 0,000 mm 0,0 UV-I 0 W/m 2,8 C 17,0 C 14,5 km/h (3 Bft) 100,00 %
09.04.2018 20:40 18,5 C 9,4 C 35 % 1002,7 hPa 0,0 l/m 9,6 km/h (2 Bft) S 170 0 min 0,000 mm 0,0 UV-I 0 W/m 2,8 C 17,1 C 14,5 km/h (3 Bft) 96,15 %
09.04.2018 20:41 18,5 C 9,4 C 35 % 1002,7 hPa 0,0 l/m 8,5 km/h (2 Bft) S 172 0 min 0,000 mm 0,0 UV-I 0 W/m 2,8 C 17,6 C 11,3 km/h (2 Bft) 100,00 %
09.04.2018 20:42 18,5 C 9,4 C 35 % 1002,7 hPa 0,0 l/m 10,6 km/h (2 Bft) S 172 0 min 0,000 mm 0,0 UV-I 0 W/m 2,8 C 16,8 C 12,9 km/h (3 Bft) 100,00 %
09.04.2018 20:43 18,6 C 9,4 C 35 % 1002,7 hPa 0,0 l/m 9,3 km/h (2 Bft) S 180 0 min 0,000 mm 0,0 UV-I 0 W/m 2,8 C 17,4 C 12,9 km/h (3 Bft) 100,00 %
09.04.2018 20:44 18,5 C 9,4 C 35 % 1002,7 hPa 0,0 l/m 10,0 km/h (2 Bft) S 177 0 min 0,000 mm 0,0 UV-I 0 W/m 2,8 C 17,0 C 12,9 km/h (3 Bft) 95,65 %
09.04.2018 20:45 18,5 C 9,4 C 35 % 1002,7 hPa 0,0 l/m 9,6 km/h (2 Bft) S-SO 168 0 min 0,000 mm 0,0 UV-I 0 W/m 2,8 C 17,1 C 12,9 km/h (3 Bft) 100,00 %
09.04.2018 20:46 18,5 C 9,4 C 35 % 1002,8 hPa 0,0 l/m 10,4 km/h (2 Bft) S 188 0 min 0,000 mm 0,0 UV-I 0 W/m 2,8 C 16,8 C 16,1 km/h (3 Bft) 100,00 %
09.04.2018 20:48 18,4 C 9,4 C 35 % 1002,9 hPa 0,0 l/m 8,7 km/h (2 Bft) S 185 0 min 0,000 mm 0,0 UV-I 0 W/m 2,7 C 17,4 C 11,3 km/h (2 Bft) 97,73 %
09.04.2018 20:49 18,4 C 9,4 C 35 % 1002,9 hPa 0,0 l/m 9,3 km/h (2 Bft) S-SW 196 0 min 0,000 mm 0,0 UV-I 0 W/m 2,7 C 17,1 C 11,3 km/h (2 Bft) 100,00 %
09.04.2018 20:50 18,4 C 9,4 C 35 % 1002,8 hPa 0,0 l/m 9,2 km/h (2 Bft) S-SW 196 0 min 0,000 mm 0,0 UV-I 0 W/m 2,7 C 17,2 C 12,9 km/h (3 Bft) 95,65 %
09.04.2018 20:51 18,4 C 9,4 C 35 % 1002,9 hPa 0,0 l/m 9,5 km/h (2 Bft) S 182 0 min 0,000 mm 0,0 UV-I 0 W/m 2,7 C 17,1 C 11,3 km/h (2 Bft) 100,00 %
09.04.2018 20:53 18,3 C 9,4 C 35 % 1002,9 hPa 0,0 l/m 8,0 km/h (2 Bft) S 190 0 min 0,000 mm 0,0 UV-I 0 W/m 2,6 C 17,6 C 11,3 km/h (2 Bft) 97,56 %
09.04.2018 20:54 18,3 C 9,4 C 35 % 1002,9 hPa 0,0 l/m 8,5 km/h (2 Bft) S 179 0 min 0,000 mm 0,0 UV-I 0 W/m 2,6 C 17,4 C 11,3 km/h (2 Bft) 100,00 %
09.04.2018 20:55 18,3 C 9,4 C 35 % 1002,9 hPa 0,0 l/m 8,7 km/h (2 Bft) S 184 0 min 0,000 mm 0,0 UV-I 0 W/m 2,6 C 17,3 C 12,9 km/h (3 Bft) 95,65 %
09.04.2018 20:56 18,4 C 9,4 C 35 % 1003,0 hPa 0,0 l/m 9,9 km/h (2 Bft) S 173 0 min 0,000 mm 0,0 UV-I 0 W/m 2,7 C 16,9 C 12,9 km/h (3 Bft) 100,00 %
09.04.2018 20:58 18,4 C 9,4 C 36 % 1003,0 hPa 0,0 l/m 7,9 km/h (2 Bft) S 179 0 min 0,000 mm 0,0 UV-I 0 W/m 3,1 C 17,7 C 14,5 km/h (3 Bft) 97,87 %
09.04.2018 20:59 18,3 C 9,4 C 37 % 1003,0 hPa 0,0 l/m 5,1 km/h (1 Bft) S 186 0 min 0,000 mm 0,0 UV-I 0 W/m 3,4 C 18,3 C 6,4 km/h (2 Bft) 92,31 %
09.04.2018 21:00 18,1 C 9,4 C 37 % 1003,0 hPa 0,0 l/m 3,7 km/h (1 Bft) S 184 0 min 0,000 mm 0,0 UV-I 0 W/m 3,2 C 18,1 C 4,8 km/h (1 Bft) 100,00 %
09.04.2018 21:02 17,9 C 9,4 C 37 % 1003,0 hPa 0,0 l/m 5,2 km/h (1 Bft) S 170 0 min 0,102 mm 0,0 UV-I 0 W/m 3,0 C 17,9 C 9,7 km/h (2 Bft) 100,00 %
09.04.2018 21:03 17,7 C 9,4 C 37 % 1003,0 hPa 0,0 l/m 4,4 km/h (1 Bft) S 177 0 min 0,000 mm 0,0 UV-I 0 W/m 2,8 C 17,7 C 8,0 km/h (2 Bft) 96,55 %
09.04.2018 21:05 17,2 C 9,4 C 40 % 1003,0 hPa 0,0 l/m 7,1 km/h (2 Bft) S-SO 153 0 min 0,000 mm 0,0 UV-I 0 W/m 3,5 C 16,9 C 9,7 km/h (2 Bft) 100,00 %
09.04.2018 21:06 17,0 C 9,4 C 41 % 1003,0 hPa 0,0 l/m 7,2 km/h (2 Bft) S-SO 148 0 min 0,000 mm 0,0 UV-I 0 W/m 3,7 C 16,6 C 9,7 km/h (2 Bft) 100,00 %
09.04.2018 21:07 16,8 C 9,4 C 40 % 1003,0 hPa 0,0 l/m 6,7 km/h (2 Bft) S-SO 148 0 min 0,000 mm 0,0 UV-I 0 W/m 3,1 C 16,7 C 8,0 km/h (2 Bft) 100,00 %
09.04.2018 21:10 16,4 C 9,4 C 42 % 1003,0 hPa 0,0 l/m 5,8 km/h (2 Bft) S-SO 155 0 min 0,000 mm 0,0 UV-I 0 W/m 3,5 C 16,4 C 6,4 km/h (2 Bft) 100,00 %
09.04.2018 21:12 15,9 C 9,4 C 45 % 1003,0 hPa 0,0 l/m 5,7 km/h (1 Bft) S-SO 154 0 min 0,000 mm 0,0 UV-I 0 W/m 4,0 C 15,9 C 6,4 km/h (2 Bft) 100,00 %
09.04.2018 21:13 15,8 C 9,4 C 45 % 1003,0 hPa 0,0 l/m 5,2 km/h (1 Bft) S-SO 154 0 min 0,000 mm 0,0 UV-I 0 W/m 3,9 C 15,8 C 6,4 km/h (2 Bft) 100,00 %
09.04.2018 21:15 15,5 C 9,4 C 45 % 1003,0 hPa 0,0 l/m 3,9 km/h (1 Bft) S-SO 154 0 min 0,000 mm 0,0 UV-I 0 W/m 3,6 C 15,5 C 4,8 km/h (1 Bft) 97,56 %
09.04.2018 21:16 15,3 C 9,4 C 46 % 1003,0 hPa 0,0 l/m 4,3 km/h (1 Bft) S-SO 154 0 min 0,000 mm 0,0 UV-I 0 W/m 3,8 C 15,3 C 6,4 km/h (2 Bft) 96,67 %
09.04.2018 21:17 15,2 C 9,4 C 47 % 1003,0 hPa 0,0 l/m 3,9 km/h (1 Bft) S-SO 154 0 min 0,000 mm 0,0 UV-I 0 W/m 4,0 C 15,2 C 4,8 km/h (1 Bft) 100,00 %
09.04.2018 21:20 14,9 C 9,4 C 49 % 1003,0 hPa 0,0 l/m 4,5 km/h (1 Bft) S-SO 154 0 min 0,000 mm 0,0 UV-I 0 W/m 4,3 C 14,9 C 6,4 km/h (2 Bft) 94,74 %
09.04.2018 21:22 14,7 C 9,4 C 49 % 1003,1 hPa 0,0 l/m 5,2 km/h (1 Bft) S-SO 154 0 min 0,000 mm 0,0 UV-I 0 W/m 4,1 C 14,7 C 6,4 km/h (2 Bft) 98,00 %
09.04.2018 21:23 14,7 C 9,4 C 49 % 1003,1 hPa 0,0 l/m 5,5 km/h (1 Bft) S-SO 154 0 min 0,000 mm 0,0 UV-I 0 W/m 4,1 C 14,7 C 6,4 km/h (2 Bft) 93,33 %
09.04.2018 21:25 14,4 C 9,4 C 50 % 1003,2 hPa 0,0 l/m 5,9 km/h (2 Bft) S-SO 154 0 min 0,000 mm 0,0 UV-I 0 W/m 4,1 C 14,4 C 6,4 km/h (2 Bft) 94,34 %
09.04.2018 21:26 14,3 C 9,4 C 50 % 1003,2 hPa 0,0 l/m 5,6 km/h (1 Bft) S-SO 154 0 min 0,000 mm 0,0 UV-I 0 W/m 4,0 C 14,3 C 6,4 km/h (2 Bft) 100,00 %
09.04.2018 21:27 14,3 C 9,4 C 50 % 1003,2 hPa 0,0 l/m 5,7 km/h (1 Bft) S-SO 154 0 min 0,000 mm 0,0 UV-I 0 W/m 4,0 C 14,3 C 9,7 km/h (2 Bft) 96,55 %
09.04.2018 21:30 14,3 C 9,4 C 50 % 1003,1 hPa 0,0 l/m 6,2 km/h (2 Bft) S-SO 154 0 min 0,000 mm 0,0 UV-I 0 W/m 4,0 C 14,3 C 6,4 km/h (2 Bft) 100,00 %
09.04.2018 21:31 14,2 C 9,4 C 51 % 1003,2 hPa 0,0 l/m 6,8 km/h (2 Bft) S-SO 154 0 min 0,000 mm 0,0 UV-I 0 W/m 4,2 C 14,0 C 9,7 km/h (2 Bft) 95,65 %
09.04.2018 21:32 14,2 C 9,4 C 51 % 1003,3 hPa 0,0 l/m 6,9 km/h (2 Bft) S-SO 154 0 min 0,000 mm 0,0 UV-I 0 W/m 4,2 C 13,9 C 9,7 km/h (2 Bft) 96,30 %
09.04.2018 21:33 14,2 C 9,4 C 51 % 1003,1 hPa 0,0 l/m 8,0 km/h (2 Bft) S-SO 158 0 min 0,000 mm 0,0 UV-I 0 W/m 4,2 C 13,3 C 9,7 km/h (2 Bft) 94,12 %
09.04.2018 21:34 14,1 C 9,4 C 52 % 1003,3 hPa 0,0 l/m 7,6 km/h (2 Bft) S-SO 160 0 min 0,000 mm 0,0 UV-I 0 W/m 4,4 C 13,4 C 9,7 km/h (2 Bft) 95,83 %
09.04.2018 21:35 14,2 C 9,4 C 52 % 1003,2 hPa 0,0 l/m 6,8 km/h (2 Bft) S-SO 155 0 min 0,000 mm 0,0 UV-I 0 W/m 4,5 C 14,0 C 9,7 km/h (2 Bft) 100,00 %
09.04.2018 21:37 14,3 C 9,4 C 51 % 1003,2 hPa 0,0 l/m 8,2 km/h (2 Bft) S-SO 147 0 min 0,000 mm 0,0 UV-I 0 W/m 4,3 C 13,3 C 11,3 km/h (2 Bft) 97,37 %
09.04.2018 21:38 14,1 C 9,4 C 53 % 1003,2 hPa 0,0 l/m 7,2 km/h (2 Bft) S-SO 148 0 min 0,000 mm 0,0 UV-I 0 W/m 4,7 C 13,6 C 8,0 km/h (2 Bft) 96,30 %
09.04.2018 21:40 13,8 C 9,4 C 51 % 1003,3 hPa 0,0 l/m 7,3 km/h (2 Bft) S-SO 151 0 min 0,000 mm 0,0 UV-I 0 W/m 3,8 C 13,3 C 9,7 km/h (2 Bft) 98,11 %
09.04.2018 21:41 13,9 C 9,4 C 52 % 1003,3 hPa 0,0 l/m 5,8 km/h (2 Bft) S-SO 153 0 min 0,000 mm 0,0 UV-I 0 W/m 4,2 C 13,9 C 6,4 km/h (2 Bft) 92,31 %
09.04.2018 21:42 13,9 C 9,4 C 51 % 1003,4 hPa 0,0 l/m 6,6 km/h (2 Bft) S-SO 163 0 min 0,000 mm 0,0 UV-I 0 W/m 3,9 C 13,8 C 8,0 km/h (2 Bft) 100,00 %
09.04.2018 21:45 14,4 C 9,4 C 49 % 1003,2 hPa 0,0 l/m 3,8 km/h (1 Bft) S-SO 163 0 min 0,000 mm 0,0 UV-I 0 W/m 3,8 C 14,4 C 6,4 km/h (2 Bft) 93,75 %
09.04.2018 21:46 14,7 C 9,4 C 47 % 1003,3 hPa 0,0 l/m 4,7 km/h (1 Bft) S-SO 163 0 min 0,000 mm 0,0 UV-I 0 W/m 3,5 C 14,7 C 8,0 km/h (2 Bft) 96,15 %
09.04.2018 21:47 14,7 C 9,4 C 49 % 1003,3 hPa 0,0 l/m 3,1 km/h (1 Bft) S-SO 163 0 min 0,000 mm 0,0 UV-I 0 W/m 4,1 C 14,7 C 3,2 km/h (1 Bft) 91,67 %
09.04.2018 21:48 14,7 C 9,4 C 48 % 1003,2 hPa 0,0 l/m 3,7 km/h (1 Bft) S-SO 163 0 min 0,000 mm 0,0 UV-I 0 W/m 3,8 C 14,7 C 6,4 km/h (2 Bft) 100,00 %
09.04.2018 21:49 14,6 C 9,4 C 49 % 1003,2 hPa 0,0 l/m 4,1 km/h (1 Bft) S-SO 163 0 min 0,000 mm 0,0 UV-I 0 W/m 4,0 C 14,6 C 6,4 km/h (2 Bft) 95,83 %
09.04.2018 21:50 14,6 C 9,4 C 47 % 1003,2 hPa 0,0 l/m 5,1 km/h (1 Bft) S-SO 163 0 min 0,000 mm 0,0 UV-I 0 W/m 3,4 C 14,6 C 6,4 km/h (2 Bft) 95,83 %
09.04.2018 21:52 14,5 C 9,4 C 48 % 1003,1 hPa 0,0 l/m 5,3 km/h (1 Bft) SO 146 0 min 0,000 mm 0,0 UV-I 0 W/m 3,6 C 14,5 C 6,4 km/h (2 Bft) 97,87 %
09.04.2018 21:53 14,6 C 9,4 C 48 % 1003,1 hPa 0,0 l/m 4,1 km/h (1 Bft) SO 146 0 min 0,000 mm 0,0 UV-I 0 W/m 3,7 C 14,6 C 6,4 km/h (2 Bft) 100,00 %
09.04.2018 21:55 15,3 C 9,4 C 45 % 1003,2 hPa 0,0 l/m 4,4 km/h (1 Bft) SO 146 0 min 0,000 mm 0,0 UV-I 0 W/m 3,4 C 15,3 C 4,8 km/h (1 Bft) 100,00 %
09.04.2018 21:56 15,6 C 9,4 C 43 % 1003,2 hPa 0,0 l/m 3,0 km/h (1 Bft) SO 146 0 min 0,000 mm 0,0 UV-I 0 W/m 3,1 C 15,6 C 4,8 km/h (1 Bft) 100,00 %
09.04.2018 21:57 15,4 C 9,4 C 45 % 1003,1 hPa 0,0 l/m 3,1 km/h (1 Bft) SO 146 0 min 0,000 mm 0,0 UV-I 0 W/m 3,5 C 15,4 C 4,8 km/h (1 Bft) 100,00 %
09.04.2018 22:00 15,2 C 9,4 C 45 % 1003,2 hPa 0,0 l/m 3,0 km/h (1 Bft) SO 146 0 min 0,000 mm 0,0 UV-I 0 W/m 3,4 C 15,2 C 3,2 km/h (1 Bft) 100,00 %
09.04.2018 22:01 14,8 C 9,4 C 46 % 1003,1 hPa 0,0 l/m 3,1 km/h (1 Bft) SO 146 0 min 0,050 mm 0,0 UV-I 0 W/m 3,3 C 14,8 C 3,2 km/h (1 Bft) 95,83 %
09.04.2018 22:02 14,7 C 9,4 C 47 % 1003,1 hPa 0,0 l/m 3,2 km/h (1 Bft) SO 146 0 min 0,000 mm 0,0 UV-I 0 W/m 3,5 C 14,7 C 3,2 km/h (1 Bft) 100,00 %
09.04.2018 22:03 14,6 C 9,4 C 48 % 1003,1 hPa 0,0 l/m 3,1 km/h (1 Bft) SO 146 0 min 0,000 mm 0,0 UV-I 0 W/m 3,7 C 14,6 C 3,2 km/h (1 Bft) 100,00 %
09.04.2018 22:04 14,3 C 9,4 C 50 % 1003,1 hPa 0,0 l/m 3,0 km/h (1 Bft) SO 146 0 min 0,000 mm 0,0 UV-I 0 W/m 4,0 C 14,3 C 3,2 km/h (1 Bft) 100,00 %
09.04.2018 22:05 14,0 C 9,4 C 51 % 1003,1 hPa 0,0 l/m 3,5 km/h (1 Bft) SO 146 0 min 0,000 mm 0,0 UV-I 0 W/m 4,0 C 14,0 C 4,8 km/h (1 Bft) 100,00 %
09.04.2018 22:06 13,8 C 9,4 C 51 % 1003,2 hPa 0,0 l/m 3,5 km/h (1 Bft) SO 146 0 min 0,000 mm 0,0 UV-I 0 W/m 3,8 C 13,8 C 4,8 km/h (1 Bft) 100,00 %
09.04.2018 22:07 13,6 C 9,4 C 52 % 1003,2 hPa 0,0 l/m 3,9 km/h (1 Bft) SO 146 0 min 0,000 mm 0,0 UV-I 0 W/m 3,9 C 13,6 C 4,8 km/h (1 Bft) 100,00 %
09.04.2018 22:08 13,4 C 9,4 C 53 % 1003,1 hPa 0,0 l/m 4,0 km/h (1 Bft) SO 146 0 min 0,000 mm 0,0 UV-I 0 W/m 4,0 C 13,4 C 4,8 km/h (1 Bft) 100,00 %
09.04.2018 22:09 13,3 C 9,4 C 52 % 1003,1 hPa 0,0 l/m 3,7 km/h (1 Bft) SO 146 0 min 0,000 mm 0,0 UV-I 0 W/m 3,7 C 13,3 C 4,8 km/h (1 Bft) 96,30 %
09.04.2018 22:10 13,3 C 9,4 C 53 % 1003,1 hPa 0,0 l/m 3,3 km/h (1 Bft) SO 146 0 min 0,000 mm 0,0 UV-I 0 W/m 3,9 C 13,3 C 4,8 km/h (1 Bft) 100,00 %
09.04.2018 22:11 13,3 C 9,4 C 52 % 1003,1 hPa 0,0 l/m 3,3 km/h (1 Bft) SO 146 0 min 0,000 mm 0,0 UV-I 0 W/m 3,7 C 13,3 C 4,8 km/h (1 Bft) 100,00 %
09.04.2018 22:12 13,4 C 9,4 C 52 % 1003,1 hPa 0,0 l/m 2,3 km/h (1 Bft) SO 146 0 min 0,000 mm 0,0 UV-I 0 W/m 3,7 C 13,4 C 3,2 km/h (1 Bft) 100,00 %
09.04.2018 22:13 13,5 C 9,4 C 52 % 1003,1 hPa 0,0 l/m 2,3 km/h (1 Bft) SO 146 0 min 0,000 mm 0,0 UV-I 0 W/m 3,8 C 13,5 C 3,2 km/h (1 Bft) 96,30 %
09.04.2018 22:14 13,6 C 9,4 C 52 % 1003,1 hPa 0,0 l/m 2,3 km/h (1 Bft) SO 146 0 min 0,000 mm 0,0 UV-I 0 W/m 3,9 C 13,6 C 4,8 km/h (1 Bft) 100,00 %
09.04.2018 22:15 13,6 C 9,4 C 53 % 1003,1 hPa 0,0 l/m 4,2 km/h (1 Bft) SO 146 0 min 0,000 mm 0,0 UV-I 0 W/m 4,2 C 13,6 C 4,8 km/h (1 Bft) 100,00 %
09.04.2018 22:16 13,4 C 9,4 C 54 % 1003,1 hPa 0,0 l/m 3,8 km/h (1 Bft) SO 146 0 min 0,000 mm 0,0 UV-I 0 W/m 4,3 C 13,4 C 4,8 km/h (1 Bft) 100,00 %
09.04.2018 22:17 13,2 C 9,4 C 54 % 1003,1 hPa 0,0 l/m 4,5 km/h (1 Bft) SO 146 0 min 0,000 mm 0,0 UV-I 0 W/m 4,1 C 13,2 C 4,8 km/h (1 Bft) 100,00 %
09.04.2018 22:18 13,0 C 9,4 C 55 % 1003,1 hPa 0,0 l/m 4,0 km/h (1 Bft) SO 146 0 min 0,000 mm 0,0 UV-I 0 W/m 4,2 C 13,0 C 4,8 km/h (1 Bft) 100,00 %
09.04.2018 22:19 12,9 C 9,4 C 55 % 1003,1 hPa 0,0 l/m 3,9 km/h (1 Bft) SO 146 0 min 0,000 mm 0,0 UV-I 0 W/m 4,1 C 12,9 C 4,8 km/h (1 Bft) 100,00 %
09.04.2018 22:20 12,9 C 9,4 C 55 % 1003,1 hPa 0,0 l/m 4,7 km/h (1 Bft) SO 146 0 min 0,000 mm 0,0 UV-I 0 W/m 4,1 C 12,9 C 6,4 km/h (2 Bft) 100,00 %
09.04.2018 22:21 12,7 C 9,4 C 58 % 1003,2 hPa 0,0 l/m 6,4 km/h (2 Bft) SO 142 0 min 0,000 mm 0,0 UV-I 0 W/m 4,7 C 12,7 C 8,0 km/h (2 Bft) 100,00 %
09.04.2018 22:22 12,5 C 9,4 C 57 % 1003,2 hPa 0,0 l/m 7,4 km/h (2 Bft) SO 142 0 min 0,000 mm 0,0 UV-I 0 W/m 4,2 C 11,9 C 9,7 km/h (2 Bft) 100,00 %
09.04.2018 22:23 12,5 C 9,4 C 57 % 1003,2 hPa 0,0 l/m 6,4 km/h (2 Bft) SO 137 0 min 0,000 mm 0,0 UV-I 0 W/m 4,2 C 12,5 C 8,0 km/h (2 Bft) 96,15 %
09.04.2018 22:24 12,6 C 9,4 C 56 % 1003,2 hPa 0,0 l/m 6,4 km/h (2 Bft) SO 137 0 min 0,000 mm 0,0 UV-I 0 W/m 4,1 C 12,6 C 8,0 km/h (2 Bft) 100,00 %
09.04.2018 22:25 12,8 C 9,4 C 56 % 1003,2 hPa 0,0 l/m 6,8 km/h (2 Bft) SO 137 0 min 0,000 mm 0,0 UV-I 0 W/m 4,2 C 12,6 C 8,0 km/h (2 Bft) 100,00 %
09.04.2018 22:26 13,0 C 9,4 C 55 % 1003,2 hPa 0,0 l/m 6,0 km/h (2 Bft) SO 141 0 min 0,000 mm 0,0 UV-I 0 W/m 4,2 C 13,0 C 6,4 km/h (2 Bft) 100,00 %
09.04.2018 22:27 13,2 C 9,4 C 54 % 1003,2 hPa 0,0 l/m 6,3 km/h (2 Bft) SO 145 0 min 0,000 mm 0,0 UV-I 0 W/m 4,1 C 13,2 C 6,4 km/h (2 Bft) 100,00 %
09.04.2018 22:28 13,6 C 9,4 C 51 % 1003,2 hPa 0,0 l/m 5,5 km/h (1 Bft) SO 145 0 min 0,000 mm 0,0 UV-I 0 W/m 3,7 C 13,6 C 8,0 km/h (2 Bft) 98,05 %
09.04.2018 22:29 13,8 C 9,4 C 50 % 1003,2 hPa 0,0 l/m 5,1 km/h (1 Bft) SO 145 0 min 0,000 mm 0,0 UV-I 0 W/m 3,6 C 13,8 C 6,4 km/h (2 Bft) 100,00 %
09.04.2018 22:30 14,3 C 9,4 C 47 % 1003,2 hPa 0,0 l/m 4,4 km/h (1 Bft) SO 145 0 min 0,000 mm 0,0 UV-I 0 W/m 3,1 C 14,3 C 4,8 km/h (1 Bft) 100,00 %
09.04.2018 22:31 14,6 C 9,4 C 47 % 1003,1 hPa 0,0 l/m 3,5 km/h (1 Bft) SO 145 0 min 0,000 mm 0,0 UV-I 0 W/m 3,4 C 14,6 C 4,8 km/h (1 Bft) 100,00 %
09.04.2018 22:32 14,5 C 9,4 C 48 % 1003,3 hPa 0,0 l/m 3,2 km/h (1 Bft) SO 145 0 min 0,000 mm 0,0 UV-I 0 W/m 3,6 C 14,5 C 3,2 km/h (1 Bft) 100,00 %
09.04.2018 22:33 14,1 C 9,4 C 52 % 1003,2 hPa 0,0 l/m 4,7 km/h (1 Bft) S-SO 159 0 min 0,000 mm 0,0 UV-I 0 W/m 4,4 C 14,1 C 6,4 km/h (2 Bft) 100,00 %
09.04.2018 22:34 13,7 C 9,4 C 54 % 1003,2 hPa 0,0 l/m 4,5 km/h (1 Bft) S-SO 158 0 min 0,000 mm 0,0 UV-I 0 W/m 4,6 C 13,7 C 8,0 km/h (2 Bft) 100,00 %
09.04.2018 22:35 13,1 C 9,4 C 56 % 1003,2 hPa 0,0 l/m 4,6 km/h (1 Bft) S-SO 158 0 min 0,000 mm 0,0 UV-I 0 W/m 4,5 C 13,1 C 4,8 km/h (1 Bft) 100,00 %
09.04.2018 22:36 12,9 C 9,4 C 56 % 1003,1 hPa 0,0 l/m 5,3 km/h (1 Bft) S-SO 158 0 min 0,000 mm 0,0 UV-I 0 W/m 4,3 C 12,9 C 8,0 km/h (2 Bft) 96,15 %
09.04.2018 22:37 13,1 C 9,4 C 54 % 1003,2 hPa 0,0 l/m 4,8 km/h (1 Bft) S-SO 158 0 min 0,000 mm 0,0 UV-I 0 W/m 4,0 C 13,1 C 8,0 km/h (2 Bft) 100,00 %
09.04.2018 22:38 13,4 C 9,4 C 53 % 1003,1 hPa 0,0 l/m 3,5 km/h (1 Bft) S-SO 158 0 min 0,000 mm 0,0 UV-I 0 W/m 4,0 C 13,4 C 4,8 km/h (1 Bft) 100,00 %
09.04.2018 22:39 13,5 C 9,4 C 54 % 1003,1 hPa 0,0 l/m 1,8 km/h (1 Bft) S-SO 158 0 min 0,000 mm 0,0 UV-I 0 W/m 4,4 C 13,5 C 3,2 km/h (1 Bft) 100,00 %
09.04.2018 22:40 13,3 C 9,4 C 54 % 1003,1 hPa 0,0 l/m 2,9 km/h (1 Bft) S-SO 158 0 min 0,000 mm 0,0 UV-I 0 W/m 4,2 C 13,3 C 4,8 km/h (1 Bft) 96,88 %
09.04.2018 22:41 13,2 C 9,4 C 55 % 1003,1 hPa 0,0 l/m 4,2 km/h (1 Bft) S-SO 158 0 min 0,000 mm 0,0 UV-I 0 W/m 4,4 C 13,2 C 4,8 km/h (1 Bft) 100,00 %
09.04.2018 22:42 13,0 C 9,4 C 55 % 1003,1 hPa 0,0 l/m 4,7 km/h (1 Bft) S-SO 158 0 min 0,000 mm 0,0 UV-I 0 W/m 4,2 C 13,0 C 8,0 km/h (2 Bft) 100,00 %
09.04.2018 22:43 12,9 C 9,4 C 56 % 1003,2 hPa 0,0 l/m 6,9 km/h (2 Bft) S-SO 158 0 min 0,000 mm 0,0 UV-I 0 W/m 4,3 C 12,6 C 8,0 km/h (2 Bft) 100,00 %
09.04.2018 22:44 12,9 C 9,4 C 56 % 1003,1 hPa 0,0 l/m 7,2 km/h (2 Bft) S-SO 157 0 min 0,000 mm 0,0 UV-I 0 W/m 4,3 C 12,4 C 8,0 km/h (2 Bft) 100,00 %
09.04.2018 22:45 12,9 C 9,4 C 56 % 1003,2 hPa 0,0 l/m 5,8 km/h (2 Bft) S-SO 157 0 min 0,000 mm 0,0 UV-I 0 W/m 4,3 C 12,9 C 8,0 km/h (2 Bft) 100,00 %
09.04.2018 22:46 12,9 C 9,4 C 55 % 1003,1 hPa 0,0 l/m 5,8 km/h (2 Bft) S-SO 157 0 min 0,000 mm 0,0 UV-I 0 W/m 4,1 C 12,9 C 8,0 km/h (2 Bft) 95,65 %
09.04.2018 22:47 12,9 C 9,4 C 56 % 1003,1 hPa 0,0 l/m 6,2 km/h (2 Bft) SO 145 0 min 0,000 mm 0,0 UV-I 0 W/m 4,3 C 12,9 C 8,0 km/h (2 Bft) 100,00 %
09.04.2018 22:48 13,1 C 9,4 C 53 % 1003,1 hPa 0,0 l/m 5,1 km/h (1 Bft) SO 145 0 min 0,000 mm 0,0 UV-I 0 W/m 3,7 C 13,1 C 6,4 km/h (2 Bft) 100,00 %
09.04.2018 22:49 13,3 C 9,4 C 53 % 1003,1 hPa 0,0 l/m 4,4 km/h (1 Bft) SO 145 0 min 0,000 mm 0,0 UV-I 0 W/m 3,9 C 13,3 C 4,8 km/h (1 Bft) 100,00 %
09.04.2018 22:50 13,3 C 9,4 C 54 % 1003,1 hPa 0,0 l/m 3,6 km/h (1 Bft) S-SW 202 0 min 0,000 mm 0,0 UV-I 0 W/m 4,2 C 13,3 C 6,4 km/h (2 Bft) 100,00 %
09.04.2018 22:51 13,2 C 9,4 C 55 % 1003,1 hPa 0,0 l/m 2,6 km/h (1 Bft) S-SW 202 0 min 0,000 mm 0,0 UV-I 0 W/m 4,4 C 13,2 C 4,8 km/h (1 Bft) 100,00 %
09.04.2018 22:52 12,8 C 9,4 C 57 % 1003,1 hPa 0,0 l/m 3,2 km/h (1 Bft) S-SW 202 0 min 0,000 mm 0,0 UV-I 0 W/m 4,5 C 12,8 C 4,8 km/h (1 Bft) 100,00 %
09.04.2018 22:53 12,6 C 9,4 C 58 % 1003,1 hPa 0,0 l/m 3,7 km/h (1 Bft) S-SW 201 0 min 0,000 mm 0,0 UV-I 0 W/m 4,6 C 12,6 C 4,8 km/h (1 Bft) 100,00 %
09.04.2018 22:54 12,4 C 9,4 C 57 % 1003,1 hPa 0,0 l/m 5,1 km/h (1 Bft) S-SW 201 0 min 0,000 mm 0,0 UV-I 0 W/m 4,1 C 12,4 C 6,4 km/h (2 Bft) 100,00 %
09.04.2018 22:55 12,4 C 9,4 C 57 % 1003,1 hPa 0,0 l/m 5,5 km/h (1 Bft) S 175 0 min 0,000 mm 0,0 UV-I 0 W/m 4,1 C 12,4 C 6,4 km/h (2 Bft) 100,00 %
09.04.2018 22:56 12,4 C 9,4 C 57 % 1003,1 hPa 0,0 l/m 7,6 km/h (2 Bft) S-SO 160 0 min 0,000 mm 0,0 UV-I 0 W/m 4,1 C 11,6 C 9,7 km/h (2 Bft) 100,00 %
09.04.2018 22:57 12,3 C 9,4 C 58 % 1003,1 hPa 0,0 l/m 7,5 km/h (2 Bft) S-SO 160 0 min 0,000 mm 0,0 UV-I 0 W/m 4,3 C 11,6 C 8,0 km/h (2 Bft) 100,00 %
09.04.2018 22:58 12,2 C 9,4 C 60 % 1003,1 hPa 0,0 l/m 7,1 km/h (2 Bft) S-SO 159 0 min 0,000 mm 0,0 UV-I 0 W/m 4,7 C 11,7 C 8,0 km/h (2 Bft) 100,00 %
09.04.2018 22:59 11,8 C 9,4 C 61 % 1003,1 hPa 0,0 l/m 6,7 km/h (2 Bft) SO 146 0 min 0,000 mm 0,0 UV-I 0 W/m 4,5 C 11,6 C 8,0 km/h (2 Bft) 100,00 %
09.04.2018 23:00 11,9 C 9,4 C 60 % 1003,1 hPa 0,0 l/m 7,1 km/h (2 Bft) SO 146 0 min 0,000 mm 0,0 UV-I 0 W/m 4,4 C 11,4 C 8,0 km/h (2 Bft) 100,00 %
09.04.2018 23:02 12,3 C 9,4 C 55 % 1003,1 hPa 0,0 l/m 6,2 km/h (2 Bft) S-SO 155 0 min 0,026 mm 0,0 UV-I 0 W/m 3,5 C 12,3 C 9,7 km/h (2 Bft) 100,00 %
09.04.2018 23:03 12,6 C 9,4 C 54 % 1003,1 hPa 0,0 l/m 6,0 km/h (2 Bft) S-SO 156 0 min 0,000 mm 0,0 UV-I 0 W/m 3,5 C 12,6 C 8,0 km/h (2 Bft) 100,00 %
09.04.2018 23:05 12,8 C 9,4 C 56 % 1003,1 hPa 0,0 l/m 7,5 km/h (2 Bft) S-SO 155 0 min 0,000 mm 0,0 UV-I 0 W/m 4,2 C 12,1 C 9,7 km/h (2 Bft) 96,00 %
09.04.2018 23:06 12,5 C 9,4 C 57 % 1003,2 hPa 0,0 l/m 6,6 km/h (2 Bft) S-SO 153 0 min 0,000 mm 0,0 UV-I 0 W/m 4,2 C 12,4 C 8,0 km/h (2 Bft) 100,00 %
09.04.2018 23:07 12,2 C 9,4 C 57 % 1003,3 hPa 0,0 l/m 8,9 km/h (2 Bft) SO 138 0 min 0,000 mm 0,0 UV-I 0 W/m 3,9 C 10,6 C 11,3 km/h (2 Bft) 100,00 %
09.04.2018 23:10 12,6 C 9,4 C 56 % 1003,2 hPa 0,0 l/m 7,2 km/h (2 Bft) SO 136 0 min 0,000 mm 0,0 UV-I 0 W/m 4,1 C 12,1 C 8,0 km/h (2 Bft) 100,00 %
09.04.2018 23:12 12,8 C 9,4 C 54 % 1003,3 hPa 0,0 l/m 6,2 km/h (2 Bft) S-SO 149 0 min 0,000 mm 0,0 UV-I 0 W/m 3,7 C 12,8 C 8,0 km/h (2 Bft) 100,00 %
09.04.2018 23:13 12,9 C 9,4 C 53 % 1003,3 hPa 0,0 l/m 7,3 km/h (2 Bft) S-SO 153 0 min 0,000 mm 0,0 UV-I 0 W/m 3,6 C 12,3 C 9,7 km/h (2 Bft) 100,00 %
09.04.2018 23:15 12,9 C 9,4 C 56 % 1003,2 hPa 0,0 l/m 5,9 km/h (2 Bft) S-SO 153 0 min 0,000 mm 0,0 UV-I 0 W/m 4,3 C 12,9 C 8,0 km/h (2 Bft) 98,00 %
09.04.2018 23:16 12,7 C 9,4 C 57 % 1003,2 hPa 0,0 l/m 6,6 km/h (2 Bft) S-SO 148 0 min 0,000 mm 0,0 UV-I 0 W/m 4,4 C 12,6 C 8,0 km/h (2 Bft) 100,00 %
09.04.2018 23:17 12,5 C 9,4 C 57 % 1003,2 hPa 0,0 l/m 6,4 km/h (2 Bft) SO 142 0 min 0,000 mm 0,0 UV-I 0 W/m 4,2 C 12,5 C 8,0 km/h (2 Bft) 100,00 %
09.04.2018 23:20 12,5 C 9,4 C 55 % 1003,1 hPa 0,0 l/m 7,2 km/h (2 Bft) S-SO 147 0 min 0,000 mm 0,0 UV-I 0 W/m 3,7 C 12,0 C 8,0 km/h (2 Bft) 100,00 %
09.04.2018 23:21 12,8 C 9,4 C 55 % 1003,1 hPa 0,0 l/m 5,7 km/h (1 Bft) S-SO 147 0 min 0,000 mm 0,0 UV-I 0 W/m 4,0 C 12,8 C 8,0 km/h (2 Bft) 100,00 %
09.04.2018 23:23 12,8 C 9,4 C 56 % 1003,1 hPa 0,0 l/m 6,2 km/h (2 Bft) S-SO 150 0 min 0,000 mm 0,0 UV-I 0 W/m 4,2 C 12,8 C 11,3 km/h (2 Bft) 95,74 %
09.04.2018 23:24 12,6 C 9,4 C 56 % 1003,1 hPa 0,0 l/m 7,1 km/h (2 Bft) SO 146 0 min 0,000 mm 0,0 UV-I 0 W/m 4,1 C 12,2 C 8,0 km/h (2 Bft) 100,00 %
09.04.2018 23:25 12,5 C 9,4 C 56 % 1003,1 hPa 0,0 l/m 6,6 km/h (2 Bft) SO 146 0 min 0,000 mm 0,0 UV-I 0 W/m 4,0 C 12,4 C 8,0 km/h (2 Bft) 91,67 %
09.04.2018 23:26 12,4 C 9,4 C 57 % 1003,1 hPa 0,0 l/m 6,7 km/h (2 Bft) SO 145 0 min 0,000 mm 0,0 UV-I 0 W/m 4,1 C 12,2 C 9,7 km/h (2 Bft) 100,00 %
09.04.2018 23:27 12,4 C 9,4 C 57 % 1003,1 hPa 0,0 l/m 8,3 km/h (2 Bft) SO 138 0 min 0,000 mm 0,0 UV-I 0 W/m 4,1 C 11,2 C 11,3 km/h (2 Bft) 100,00 %
09.04.2018 23:28 12,4 C 9,4 C 57 % 1003,1 hPa 0,0 l/m 8,9 km/h (2 Bft) SO 139 0 min 0,000 mm 0,0 UV-I 0 W/m 4,1 C 10,8 C 11,3 km/h (2 Bft) 100,00 %
09.04.2018 23:29 12,4 C 9,4 C 57 % 1003,2 hPa 0,0 l/m 8,6 km/h (2 Bft) SO 140 0 min 0,000 mm 0,0 UV-I 0 W/m 4,1 C 11,0 C 11,3 km/h (2 Bft) 100,00 %
09.04.2018 23:30 12,6 C 9,4 C 56 % 1003,2 hPa 0,0 l/m 7,1 km/h (2 Bft) SO 140 0 min 0,000 mm 0,0 UV-I 0 W/m 4,1 C 12,2 C 8,0 km/h (2 Bft) 100,00 %
09.04.2018 23:31 12,7 C 9,4 C 55 % 1003,2 hPa 0,0 l/m 8,6 km/h (2 Bft) SO 142 0 min 0,000 mm 0,0 UV-I 0 W/m 3,9 C 11,3 C 11,3 km/h (2 Bft) 100,00 %
09.04.2018 23:32 12,6 C 9,4 C 56 % 1003,2 hPa 0,0 l/m 7,6 km/h (2 Bft) SO 142 0 min 0,000 mm 0,0 UV-I 0 W/m 4,1 C 11,8 C 9,7 km/h (2 Bft) 100,00 %
09.04.2018 23:33 12,5 C 9,4 C 57 % 1003,2 hPa 0,0 l/m 8,9 km/h (2 Bft) SO 141 0 min 0,000 mm 0,0 UV-I 0 W/m 4,2 C 11,0 C 11,3 km/h (2 Bft) 100,00 %
09.04.2018 23:34 12,4 C 9,4 C 57 % 1003,3 hPa 0,0 l/m 7,5 km/h (2 Bft) SO 141 0 min 0,000 mm 0,0 UV-I 0 W/m 4,1 C 11,7 C 8,0 km/h (2 Bft) 100,00 %
09.04.2018 23:35 12,3 C 9,4 C 57 % 1003,2 hPa 0,0 l/m 8,3 km/h (2 Bft) SO 140 0 min 0,000 mm 0,0 UV-I 0 W/m 4,0 C 11,1 C 11,3 km/h (2 Bft) 100,00 %
09.04.2018 23:36 12,6 C 9,4 C 56 % 1003,3 hPa 0,0 l/m 6,7 km/h (2 Bft) SO 144 0 min 0,000 mm 0,0 UV-I 0 W/m 4,1 C 12,4 C 8,0 km/h (2 Bft) 100,00 %
09.04.2018 23:37 12,7 C 9,4 C 56 % 1003,3 hPa 0,0 l/m 7,2 km/h (2 Bft) S-SO 148 0 min 0,000 mm 0,0 UV-I 0 W/m 4,2 C 12,2 C 9,7 km/h (2 Bft) 100,00 %
09.04.2018 23:38 12,7 C 9,4 C 56 % 1003,3 hPa 0,0 l/m 7,5 km/h (2 Bft) S-SO 148 0 min 0,000 mm 0,0 UV-I 0 W/m 4,2 C 12,0 C 8,0 km/h (2 Bft) 100,00 %
09.04.2018 23:39 12,6 C 9,4 C 56 % 1003,3 hPa 0,0 l/m 6,4 km/h (2 Bft) S-SO 148 0 min 0,000 mm 0,0 UV-I 0 W/m 4,1 C 12,6 C 6,4 km/h (2 Bft) 100,00 %
09.04.2018 23:40 12,6 C 9,4 C 56 % 1003,4 hPa 0,0 l/m 5,8 km/h (2 Bft) S-SO 148 0 min 0,000 mm 0,0 UV-I 0 W/m 4,1 C 12,6 C 6,4 km/h (2 Bft) 100,00 %
09.04.2018 23:42 12,4 C 9,4 C 57 % 1003,4 hPa 0,0 l/m 3,8 km/h (1 Bft) S-SO 148 0 min 0,000 mm 0,0 UV-I 0 W/m 4,1 C 12,4 C 6,4 km/h (2 Bft) 97,56 %
09.04.2018 23:43 12,3 C 9,4 C 58 % 1003,4 hPa 0,0 l/m 4,9 km/h (1 Bft) S-SO 148 0 min 0,000 mm 0,0 UV-I 0 W/m 4,3 C 12,3 C 6,4 km/h (2 Bft) 100,00 %
09.04.2018 23:44 12,3 C 9,4 C 57 % 1003,4 hPa 0,0 l/m 4,6 km/h (1 Bft) S-SO 148 0 min 0,000 mm 0,0 UV-I 0 W/m 4,0 C 12,3 C 6,4 km/h (2 Bft) 98,13 %
09.04.2018 23:45 12,3 C 9,4 C 58 % 1003,4 hPa 0,0 l/m 4,2 km/h (1 Bft) SW 225 0 min 0,000 mm 0,0 UV-I 0 W/m 4,3 C 12,3 C 4,8 km/h (1 Bft) 100,00 %
09.04.2018 23:46 12,2 C 9,4 C 58 % 1003,4 hPa 0,0 l/m 7,8 km/h (2 Bft) W-SW 254 0 min 0,000 mm 0,0 UV-I 0 W/m 4,2 C 11,3 C 11,3 km/h (2 Bft) 100,00 %
09.04.2018 23:47 12,1 C 9,4 C 59 % 1003,4 hPa 0,0 l/m 6,8 km/h (2 Bft) SW 223 0 min 0,000 mm 0,0 UV-I 0 W/m 4,3 C 11,8 C 8,0 km/h (2 Bft) 100,00 %
09.04.2018 23:48 12,0 C 9,4 C 60 % 1003,4 hPa 0,0 l/m 5,1 km/h (1 Bft) SW 223 0 min 0,000 mm 0,0 UV-I 0 W/m 4,5 C 12,0 C 6,4 km/h (2 Bft) 100,00 %
09.04.2018 23:49 11,8 C 9,4 C 61 % 1003,4 hPa 0,0 l/m 2,7 km/h (1 Bft) SW 223 0 min 0,000 mm 0,0 UV-I 0 W/m 4,5 C 11,8 C 3,2 km/h (1 Bft) 100,00 %
09.04.2018 23:50 11,7 C 9,4 C 61 % 1003,4 hPa 0,0 l/m 2,1 km/h (1 Bft) SW 223 0 min 0,000 mm 0,0 UV-I 0 W/m 4,4 C 11,7 C 3,2 km/h (1 Bft) 100,00 %
09.04.2018 23:52 11,8 C 9,4 C 61 % 1003,4 hPa 0,0 l/m 4,9 km/h (1 Bft) S-SO 159 0 min 0,000 mm 0,0 UV-I 0 W/m 4,5 C 11,8 C 8,0 km/h (2 Bft) 98,11 %
09.04.2018 23:53 11,8 C 9,4 C 61 % 1003,4 hPa 0,0 l/m 6,2 km/h (2 Bft) S-SO 159 0 min 0,000 mm 0,0 UV-I 0 W/m 4,5 C 11,8 C 8,0 km/h (2 Bft) 100,00 %
09.04.2018 23:55 11,9 C 9,4 C 61 % 1003,4 hPa 0,0 l/m 4,6 km/h (1 Bft) S-SO 159 0 min 0,000 mm 0,0 UV-I 0 W/m 4,6 C 11,9 C 8,0 km/h (2 Bft) 98,08 %
09.04.2018 23:56 11,7 C 9,4 C 62 % 1003,4 hPa 0,0 l/m 5,1 km/h (1 Bft) S-SO 159 0 min 0,000 mm 0,0 UV-I 0 W/m 4,7 C 11,7 C 6,4 km/h (2 Bft) 93,33 %
09.04.2018 23:57 11,6 C 9,4 C 62 % 1003,4 hPa 0,0 l/m 5,4 km/h (1 Bft) SO 144 0 min 0,000 mm 0,0 UV-I 0 W/m 4,6 C 11,6 C 6,4 km/h (2 Bft) 100,00 %
_ Min-Zeit 06:52 00:00 16:19 16:42 - 00:01 - - - - - - 16:23 06:53 00:01 00:02
Minimum _ 5,1 C 8,9 C 21 % 1001,2 hPa - 0,0 km/h (0 Bft) - - - - - - 1,2 C 4,0 C 0,0 km/h (0 Bft) 10,00 %
_ Max-Zeit 15:51 12:54 05:00 00:07 00:00 18:48 - - 06:39 13:01 12:45 12:47 13:29 15:43 18:43 00:01
Maximum _ 25,2 C 9,4 C 93 % 1006,6 hPa 0,0 l/m 27,7 km/h
S (4 Bft)
- - 2 min 0,533 mm 3,9 UV-I 964 W/m 9,2 C 25,1 C 46,7 km/h
S (6 Bft)
100,00 %
Durchschnitt _ 14,6 C 9,1 C 59 % 1004,2 hPa #0,0 l/m 6,7 km/h (2 Bft) S-SW - #12:43 h #4,369 mm 2,0 UV-I 406 W/m 5,2 C 14,1 C 9,3 km/h (2 Bft) 98,01 %